<?xml version="1.0" encoding="UTF-8" standalone="no" ?>
<gpx xmlns="http://www.topografix.com/GPX/1/1" xmlns:xsi="http://www.w3.org/2001/XMLSchema-instance" xsi:schemaLocation="http://www.topografix.com/GPX/1/1 http://www.topografix.com/GPX/1/1/gpx.xsd" version="1.1" creator="VisuGPX - https://www.visugpx.com">
  <metadata>
    <name>variante l'hospitalet</name>
    <desc><![CDATA[

]]></desc>
  </metadata>
  <trk>
    <name><![CDATA[Variante 20Km D+1200m]]></name>
    <desc><![CDATA[

]]></desc>
    <extensions>
      <line xmlns="http://www.topografix.com/GPX/gpx_style/0/2">
        <color>1100ff</color>
        <width>4</width>
      </line>
    </extensions>
    <trkseg>
      <trkpt lat="42.63703" lon="1.74033">
        <ele>2335.8</ele>
        <time>2024-07-10T12:27:49Z</time>
      </trkpt>
      <trkpt lat="42.63696" lon="1.74039">
        <ele>2335.8</ele>
        <time>2024-07-10T12:27:56Z</time>
      </trkpt>
      <trkpt lat="42.6369" lon="1.74049">
        <ele>2334.2</ele>
        <time>2024-07-10T12:28:05Z</time>
      </trkpt>
      <trkpt lat="42.63685" lon="1.74058">
        <ele>2332.6</ele>
        <time>2024-07-10T12:28:13Z</time>
      </trkpt>
      <trkpt lat="42.63682" lon="1.74064">
        <ele>2332.4</ele>
        <time>2024-07-10T12:28:19Z</time>
      </trkpt>
      <trkpt lat="42.63682" lon="1.74067">
        <ele>2332.4</ele>
        <time>2024-07-10T12:28:23Z</time>
      </trkpt>
      <trkpt lat="42.63683" lon="1.74068">
        <ele>2332.2</ele>
        <time>2024-07-10T12:28:30Z</time>
      </trkpt>
      <trkpt lat="42.63682" lon="1.74069">
        <ele>2332.2</ele>
        <time>2024-07-10T12:28:38Z</time>
      </trkpt>
      <trkpt lat="42.63677" lon="1.74066">
        <ele>2335.8</ele>
        <time>2024-07-10T12:34:46Z</time>
      </trkpt>
      <trkpt lat="42.63669" lon="1.74069">
        <ele>2334</ele>
        <time>2024-07-10T12:34:53Z</time>
      </trkpt>
      <trkpt lat="42.63663" lon="1.74074">
        <ele>2330</ele>
        <time>2024-07-10T12:35:00Z</time>
      </trkpt>
      <trkpt lat="42.63657" lon="1.74072">
        <ele>2327.6</ele>
        <time>2024-07-10T12:35:06Z</time>
      </trkpt>
      <trkpt lat="42.63652" lon="1.74069">
        <ele>2325.6</ele>
        <time>2024-07-10T12:35:12Z</time>
      </trkpt>
      <trkpt lat="42.63646" lon="1.74072">
        <ele>2323.6</ele>
        <time>2024-07-10T12:35:17Z</time>
      </trkpt>
      <trkpt lat="42.63635" lon="1.7408">
        <ele>2320.8</ele>
        <time>2024-07-10T12:35:28Z</time>
      </trkpt>
      <trkpt lat="42.63628" lon="1.74082">
        <ele>2319.2</ele>
        <time>2024-07-10T12:35:35Z</time>
      </trkpt>
      <trkpt lat="42.63624" lon="1.74079">
        <ele>2318.4</ele>
        <time>2024-07-10T12:35:41Z</time>
      </trkpt>
      <trkpt lat="42.63614" lon="1.74079">
        <ele>2319</ele>
        <time>2024-07-10T12:35:50Z</time>
      </trkpt>
      <trkpt lat="42.63606" lon="1.74085">
        <ele>2318.4</ele>
        <time>2024-07-10T12:35:59Z</time>
      </trkpt>
      <trkpt lat="42.63605" lon="1.74084">
        <ele>2318.2</ele>
        <time>2024-07-10T12:36:00Z</time>
      </trkpt>
      <trkpt lat="42.63602" lon="1.74083">
        <ele>2318.6</ele>
        <time>2024-07-10T12:36:03Z</time>
      </trkpt>
      <trkpt lat="42.636" lon="1.74084">
        <ele>2319</ele>
        <time>2024-07-10T12:36:05Z</time>
      </trkpt>
      <trkpt lat="42.63596" lon="1.74084">
        <ele>2321.4</ele>
        <time>2024-07-10T12:36:12Z</time>
      </trkpt>
      <trkpt lat="42.63596" lon="1.74086">
        <ele>2322.6</ele>
        <time>2024-07-10T12:36:19Z</time>
      </trkpt>
      <trkpt lat="42.63593" lon="1.74087">
        <ele>2323.2</ele>
        <time>2024-07-10T12:36:26Z</time>
      </trkpt>
      <trkpt lat="42.63587" lon="1.74083">
        <ele>2323.8</ele>
        <time>2024-07-10T12:36:37Z</time>
      </trkpt>
      <trkpt lat="42.63584" lon="1.74081">
        <ele>2324.8</ele>
        <time>2024-07-10T12:36:44Z</time>
      </trkpt>
      <trkpt lat="42.63579" lon="1.74078">
        <ele>2327.4</ele>
        <time>2024-07-10T12:36:52Z</time>
      </trkpt>
      <trkpt lat="42.63572" lon="1.74075">
        <ele>2329.6</ele>
        <time>2024-07-10T12:37:01Z</time>
      </trkpt>
      <trkpt lat="42.6357" lon="1.74073">
        <ele>2330.8</ele>
        <time>2024-07-10T12:37:10Z</time>
      </trkpt>
      <trkpt lat="42.63567" lon="1.74074">
        <ele>2331.2</ele>
        <time>2024-07-10T12:37:17Z</time>
      </trkpt>
      <trkpt lat="42.63563" lon="1.74072">
        <ele>2331.2</ele>
        <time>2024-07-10T12:37:26Z</time>
      </trkpt>
      <trkpt lat="42.63563" lon="1.74071">
        <ele>2332</ele>
        <time>2024-07-10T12:37:33Z</time>
      </trkpt>
      <trkpt lat="42.63563" lon="1.74071">
        <ele>2332</ele>
        <time>2024-07-10T12:37:51Z</time>
      </trkpt>
      <trkpt lat="42.63553" lon="1.74069">
        <ele>2333.2</ele>
        <time>2024-07-10T12:38:08Z</time>
      </trkpt>
      <trkpt lat="42.63542" lon="1.74068">
        <ele>2334</ele>
        <time>2024-07-10T12:38:17Z</time>
      </trkpt>
      <trkpt lat="42.63535" lon="1.74068">
        <ele>2334.4</ele>
        <time>2024-07-10T12:38:25Z</time>
      </trkpt>
      <trkpt lat="42.63531" lon="1.74066">
        <ele>2334.8</ele>
        <time>2024-07-10T12:38:29Z</time>
      </trkpt>
      <trkpt lat="42.63524" lon="1.74066">
        <ele>2335.8</ele>
        <time>2024-07-10T12:38:36Z</time>
      </trkpt>
      <trkpt lat="42.6352" lon="1.74065">
        <ele>2337</ele>
        <time>2024-07-10T12:38:43Z</time>
      </trkpt>
      <trkpt lat="42.6352" lon="1.74065">
        <ele>2338.6</ele>
        <time>2024-07-10T12:38:50Z</time>
      </trkpt>
      <trkpt lat="42.63518" lon="1.74064">
        <ele>2339</ele>
        <time>2024-07-10T12:39:13Z</time>
      </trkpt>
      <trkpt lat="42.63509" lon="1.7406">
        <ele>2339.8</ele>
        <time>2024-07-10T12:39:20Z</time>
      </trkpt>
      <trkpt lat="42.63506" lon="1.74059">
        <ele>2340</ele>
        <time>2024-07-10T12:39:25Z</time>
      </trkpt>
      <trkpt lat="42.63501" lon="1.74056">
        <ele>2340</ele>
        <time>2024-07-10T12:39:34Z</time>
      </trkpt>
      <trkpt lat="42.63499" lon="1.74051">
        <ele>2340.2</ele>
        <time>2024-07-10T12:39:40Z</time>
      </trkpt>
      <trkpt lat="42.63496" lon="1.74048">
        <ele>2341</ele>
        <time>2024-07-10T12:39:49Z</time>
      </trkpt>
      <trkpt lat="42.63493" lon="1.74047">
        <ele>2343</ele>
        <time>2024-07-10T12:39:58Z</time>
      </trkpt>
      <trkpt lat="42.63489" lon="1.74044">
        <ele>2346</ele>
        <time>2024-07-10T12:40:09Z</time>
      </trkpt>
      <trkpt lat="42.63486" lon="1.74043">
        <ele>2348.4</ele>
        <time>2024-07-10T12:40:18Z</time>
      </trkpt>
      <trkpt lat="42.63486" lon="1.74043">
        <ele>2349</ele>
        <time>2024-07-10T12:40:25Z</time>
      </trkpt>
      <trkpt lat="42.63466" lon="1.74038">
        <ele>2353.2</ele>
        <time>2024-07-10T12:41:32Z</time>
      </trkpt>
      <trkpt lat="42.63459" lon="1.74034">
        <ele>2355.6</ele>
        <time>2024-07-10T12:41:40Z</time>
      </trkpt>
      <trkpt lat="42.63451" lon="1.74029">
        <ele>2359.2</ele>
        <time>2024-07-10T12:41:52Z</time>
      </trkpt>
      <trkpt lat="42.63448" lon="1.74027">
        <ele>2361.6</ele>
        <time>2024-07-10T12:41:59Z</time>
      </trkpt>
      <trkpt lat="42.63441" lon="1.74027">
        <ele>2364.4</ele>
        <time>2024-07-10T12:42:08Z</time>
      </trkpt>
      <trkpt lat="42.63438" lon="1.74029">
        <ele>2365.4</ele>
        <time>2024-07-10T12:42:14Z</time>
      </trkpt>
      <trkpt lat="42.63433" lon="1.74027">
        <ele>2367.2</ele>
        <time>2024-07-10T12:42:23Z</time>
      </trkpt>
      <trkpt lat="42.6343" lon="1.74026">
        <ele>2369.4</ele>
        <time>2024-07-10T12:42:30Z</time>
      </trkpt>
      <trkpt lat="42.63429" lon="1.74027">
        <ele>2371.2</ele>
        <time>2024-07-10T12:42:37Z</time>
      </trkpt>
      <trkpt lat="42.63427" lon="1.74026">
        <ele>2372.4</ele>
        <time>2024-07-10T12:42:46Z</time>
      </trkpt>
      <trkpt lat="42.63423" lon="1.74026">
        <ele>2373.4</ele>
        <time>2024-07-10T12:42:55Z</time>
      </trkpt>
      <trkpt lat="42.63417" lon="1.74022">
        <ele>2374.8</ele>
        <time>2024-07-10T12:43:06Z</time>
      </trkpt>
      <trkpt lat="42.63415" lon="1.74021">
        <ele>2375.4</ele>
        <time>2024-07-10T12:43:13Z</time>
      </trkpt>
      <trkpt lat="42.6341" lon="1.74017">
        <ele>2377.8</ele>
        <time>2024-07-10T12:43:24Z</time>
      </trkpt>
      <trkpt lat="42.63407" lon="1.74016">
        <ele>2380</ele>
        <time>2024-07-10T12:43:33Z</time>
      </trkpt>
      <trkpt lat="42.63404" lon="1.74015">
        <ele>2381.2</ele>
        <time>2024-07-10T12:43:45Z</time>
      </trkpt>
      <trkpt lat="42.63401" lon="1.74015">
        <ele>2382.2</ele>
        <time>2024-07-10T12:43:54Z</time>
      </trkpt>
      <trkpt lat="42.63398" lon="1.74015">
        <ele>2383.8</ele>
        <time>2024-07-10T12:44:04Z</time>
      </trkpt>
      <trkpt lat="42.6338" lon="1.74011">
        <ele>2390</ele>
        <time>2024-07-10T12:45:03Z</time>
      </trkpt>
      <trkpt lat="42.63367" lon="1.74031">
        <ele>2397</ele>
        <time>2024-07-10T12:46:17Z</time>
      </trkpt>
      <trkpt lat="42.63359" lon="1.74024">
        <ele>2400.4</ele>
        <time>2024-07-10T12:46:27Z</time>
      </trkpt>
      <trkpt lat="42.63354" lon="1.74021">
        <ele>2404.2</ele>
        <time>2024-07-10T12:46:35Z</time>
      </trkpt>
      <trkpt lat="42.63347" lon="1.74022">
        <ele>2407.8</ele>
        <time>2024-07-10T12:46:44Z</time>
      </trkpt>
      <trkpt lat="42.63341" lon="1.74023">
        <ele>2408.8</ele>
        <time>2024-07-10T12:46:51Z</time>
      </trkpt>
      <trkpt lat="42.6334" lon="1.74022">
        <ele>2409</ele>
        <time>2024-07-10T12:46:52Z</time>
      </trkpt>
      <trkpt lat="42.63336" lon="1.74021">
        <ele>2409.2</ele>
        <time>2024-07-10T12:46:59Z</time>
      </trkpt>
      <trkpt lat="42.63335" lon="1.74021">
        <ele>2409.2</ele>
        <time>2024-07-10T12:47:00Z</time>
      </trkpt>
      <trkpt lat="42.63331" lon="1.74024">
        <ele>2408.8</ele>
        <time>2024-07-10T12:47:06Z</time>
      </trkpt>
      <trkpt lat="42.63329" lon="1.74024">
        <ele>2409.2</ele>
        <time>2024-07-10T12:47:08Z</time>
      </trkpt>
      <trkpt lat="42.63326" lon="1.74023">
        <ele>2409.8</ele>
        <time>2024-07-10T12:47:12Z</time>
      </trkpt>
      <trkpt lat="42.63316" lon="1.7402">
        <ele>2411</ele>
        <time>2024-07-10T12:47:21Z</time>
      </trkpt>
      <trkpt lat="42.63306" lon="1.7402">
        <ele>2412.6</ele>
        <time>2024-07-10T12:47:31Z</time>
      </trkpt>
      <trkpt lat="42.63297" lon="1.74018">
        <ele>2413.6</ele>
        <time>2024-07-10T12:47:40Z</time>
      </trkpt>
      <trkpt lat="42.63295" lon="1.74018">
        <ele>2413.8</ele>
        <time>2024-07-10T12:47:42Z</time>
      </trkpt>
      <trkpt lat="42.6329" lon="1.74016">
        <ele>2413</ele>
        <time>2024-07-10T12:47:48Z</time>
      </trkpt>
      <trkpt lat="42.63284" lon="1.74015">
        <ele>2413</ele>
        <time>2024-07-10T12:47:56Z</time>
      </trkpt>
      <trkpt lat="42.6328" lon="1.74015">
        <ele>2413.4</ele>
        <time>2024-07-10T12:48:01Z</time>
      </trkpt>
      <trkpt lat="42.63278" lon="1.74016">
        <ele>2413.6</ele>
        <time>2024-07-10T12:48:03Z</time>
      </trkpt>
      <trkpt lat="42.6327" lon="1.74018">
        <ele>2414.6</ele>
        <time>2024-07-10T12:48:10Z</time>
      </trkpt>
      <trkpt lat="42.63269" lon="1.74018">
        <ele>2415.2</ele>
        <time>2024-07-10T12:48:12Z</time>
      </trkpt>
      <trkpt lat="42.63266" lon="1.7402">
        <ele>2416.2</ele>
        <time>2024-07-10T12:48:16Z</time>
      </trkpt>
      <trkpt lat="42.63262" lon="1.74023">
        <ele>2417.6</ele>
        <time>2024-07-10T12:48:23Z</time>
      </trkpt>
      <trkpt lat="42.63261" lon="1.74023">
        <ele>2418.2</ele>
        <time>2024-07-10T12:48:33Z</time>
      </trkpt>
      <trkpt lat="42.63256" lon="1.74023">
        <ele>2418</ele>
        <time>2024-07-10T12:48:40Z</time>
      </trkpt>
      <trkpt lat="42.63249" lon="1.74024">
        <ele>2418</ele>
        <time>2024-07-10T12:48:47Z</time>
      </trkpt>
      <trkpt lat="42.63242" lon="1.74025">
        <ele>2419.4</ele>
        <time>2024-07-10T12:48:55Z</time>
      </trkpt>
      <trkpt lat="42.63237" lon="1.74027">
        <ele>2421</ele>
        <time>2024-07-10T12:49:03Z</time>
      </trkpt>
      <trkpt lat="42.63229" lon="1.74024">
        <ele>2422.6</ele>
        <time>2024-07-10T12:49:12Z</time>
      </trkpt>
      <trkpt lat="42.63222" lon="1.74024">
        <ele>2423.6</ele>
        <time>2024-07-10T12:49:21Z</time>
      </trkpt>
      <trkpt lat="42.63215" lon="1.74023">
        <ele>2424.2</ele>
        <time>2024-07-10T12:49:28Z</time>
      </trkpt>
      <trkpt lat="42.63207" lon="1.74021">
        <ele>2425.2</ele>
        <time>2024-07-10T12:49:36Z</time>
      </trkpt>
      <trkpt lat="42.632" lon="1.74019">
        <ele>2427.4</ele>
        <time>2024-07-10T12:49:45Z</time>
      </trkpt>
      <trkpt lat="42.63193" lon="1.74014">
        <ele>2429</ele>
        <time>2024-07-10T12:49:56Z</time>
      </trkpt>
      <trkpt lat="42.63185" lon="1.74012">
        <ele>2429.2</ele>
        <time>2024-07-10T12:50:04Z</time>
      </trkpt>
      <trkpt lat="42.6318" lon="1.7401">
        <ele>2431.2</ele>
        <time>2024-07-10T12:50:12Z</time>
      </trkpt>
      <trkpt lat="42.63176" lon="1.7401">
        <ele>2433.8</ele>
        <time>2024-07-10T12:50:20Z</time>
      </trkpt>
      <trkpt lat="42.63173" lon="1.74012">
        <ele>2434.8</ele>
        <time>2024-07-10T12:50:27Z</time>
      </trkpt>
      <trkpt lat="42.63171" lon="1.74011">
        <ele>2436.2</ele>
        <time>2024-07-10T12:50:34Z</time>
      </trkpt>
      <trkpt lat="42.63168" lon="1.74012">
        <ele>2438.2</ele>
        <time>2024-07-10T12:50:41Z</time>
      </trkpt>
      <trkpt lat="42.63165" lon="1.7401">
        <ele>2439.8</ele>
        <time>2024-07-10T12:50:49Z</time>
      </trkpt>
      <trkpt lat="42.63163" lon="1.74008">
        <ele>2441</ele>
        <time>2024-07-10T12:50:54Z</time>
      </trkpt>
      <trkpt lat="42.63161" lon="1.74006">
        <ele>2443.2</ele>
        <time>2024-07-10T12:51:03Z</time>
      </trkpt>
      <trkpt lat="42.63162" lon="1.74014">
        <ele>2445.6</ele>
        <time>2024-07-10T12:51:11Z</time>
      </trkpt>
      <trkpt lat="42.63161" lon="1.74017">
        <ele>2448.6</ele>
        <time>2024-07-10T12:51:17Z</time>
      </trkpt>
      <trkpt lat="42.63159" lon="1.74021">
        <ele>2449.8</ele>
        <time>2024-07-10T12:51:24Z</time>
      </trkpt>
      <trkpt lat="42.63155" lon="1.74024">
        <ele>2451</ele>
        <time>2024-07-10T12:51:33Z</time>
      </trkpt>
      <trkpt lat="42.63152" lon="1.74026">
        <ele>2450.8</ele>
        <time>2024-07-10T12:51:40Z</time>
      </trkpt>
      <trkpt lat="42.6315" lon="1.74031">
        <ele>2452</ele>
        <time>2024-07-10T12:51:47Z</time>
      </trkpt>
      <trkpt lat="42.63149" lon="1.74031">
        <ele>2454.6</ele>
        <time>2024-07-10T12:51:53Z</time>
      </trkpt>
      <trkpt lat="42.6315" lon="1.74032">
        <ele>2455.8</ele>
        <time>2024-07-10T12:52:01Z</time>
      </trkpt>
      <trkpt lat="42.63146" lon="1.74034">
        <ele>2456.2</ele>
        <time>2024-07-10T12:52:53Z</time>
      </trkpt>
      <trkpt lat="42.63139" lon="1.7404">
        <ele>2457.4</ele>
        <time>2024-07-10T12:53:01Z</time>
      </trkpt>
      <trkpt lat="42.63137" lon="1.74044">
        <ele>2458.4</ele>
        <time>2024-07-10T12:53:09Z</time>
      </trkpt>
      <trkpt lat="42.63132" lon="1.74048">
        <ele>2461.6</ele>
        <time>2024-07-10T12:53:19Z</time>
      </trkpt>
      <trkpt lat="42.6313" lon="1.74052">
        <ele>2463.4</ele>
        <time>2024-07-10T12:53:26Z</time>
      </trkpt>
      <trkpt lat="42.63129" lon="1.74056">
        <ele>2464.8</ele>
        <time>2024-07-10T12:53:33Z</time>
      </trkpt>
      <trkpt lat="42.63131" lon="1.7406">
        <ele>2466.6</ele>
        <time>2024-07-10T12:53:40Z</time>
      </trkpt>
      <trkpt lat="42.6313" lon="1.74065">
        <ele>2468.6</ele>
        <time>2024-07-10T12:53:47Z</time>
      </trkpt>
      <trkpt lat="42.63129" lon="1.7407">
        <ele>2469.2</ele>
        <time>2024-07-10T12:53:54Z</time>
      </trkpt>
      <trkpt lat="42.63129" lon="1.74076">
        <ele>2469.6</ele>
        <time>2024-07-10T12:54:01Z</time>
      </trkpt>
      <trkpt lat="42.63129" lon="1.74084">
        <ele>2471.4</ele>
        <time>2024-07-10T12:54:11Z</time>
      </trkpt>
      <trkpt lat="42.63127" lon="1.74089">
        <ele>2473</ele>
        <time>2024-07-10T12:54:17Z</time>
      </trkpt>
      <trkpt lat="42.63125" lon="1.74091">
        <ele>2475.2</ele>
        <time>2024-07-10T12:54:24Z</time>
      </trkpt>
      <trkpt lat="42.63122" lon="1.74092">
        <ele>2477</ele>
        <time>2024-07-10T12:54:29Z</time>
      </trkpt>
      <trkpt lat="42.6312" lon="1.74093">
        <ele>2479.8</ele>
        <time>2024-07-10T12:54:36Z</time>
      </trkpt>
      <trkpt lat="42.6312" lon="1.74093">
        <ele>2483.6</ele>
        <time>2024-07-10T12:54:50Z</time>
      </trkpt>
      <trkpt lat="42.63102" lon="1.74097">
        <ele>2484.6</ele>
        <time>2024-07-10T12:55:36Z</time>
      </trkpt>
      <trkpt lat="42.63101" lon="1.74098">
        <ele>2484.6</ele>
        <time>2024-07-10T12:55:37Z</time>
      </trkpt>
      <trkpt lat="42.63095" lon="1.74103">
        <ele>2485.2</ele>
        <time>2024-07-10T12:55:46Z</time>
      </trkpt>
      <trkpt lat="42.63093" lon="1.74105">
        <ele>2487</ele>
        <time>2024-07-10T12:55:52Z</time>
      </trkpt>
      <trkpt lat="42.63089" lon="1.74109">
        <ele>2491.4</ele>
        <time>2024-07-10T12:56:03Z</time>
      </trkpt>
      <trkpt lat="42.63086" lon="1.74109">
        <ele>2494</ele>
        <time>2024-07-10T12:56:12Z</time>
      </trkpt>
      <trkpt lat="42.63084" lon="1.74114">
        <ele>2496</ele>
        <time>2024-07-10T12:56:21Z</time>
      </trkpt>
      <trkpt lat="42.63082" lon="1.7412">
        <ele>2498.2</ele>
        <time>2024-07-10T12:56:30Z</time>
      </trkpt>
      <trkpt lat="42.63079" lon="1.74121">
        <ele>2499.2</ele>
        <time>2024-07-10T12:56:36Z</time>
      </trkpt>
      <trkpt lat="42.63076" lon="1.7412">
        <ele>2501.4</ele>
        <time>2024-07-10T12:56:44Z</time>
      </trkpt>
      <trkpt lat="42.63072" lon="1.74116">
        <ele>2503</ele>
        <time>2024-07-10T12:56:54Z</time>
      </trkpt>
      <trkpt lat="42.6307" lon="1.74117">
        <ele>2504.6</ele>
        <time>2024-07-10T12:57:01Z</time>
      </trkpt>
      <trkpt lat="42.6307" lon="1.74117">
        <ele>2506.2</ele>
        <time>2024-07-10T12:57:12Z</time>
      </trkpt>
      <trkpt lat="42.63052" lon="1.74116">
        <ele>2512</ele>
        <time>2024-07-10T12:58:20Z</time>
      </trkpt>
      <trkpt lat="42.63034" lon="1.74118">
        <ele>2520.8</ele>
        <time>2024-07-10T13:03:00Z</time>
      </trkpt>
      <trkpt lat="42.63014" lon="1.74115">
        <ele>2522</ele>
        <time>2024-07-10T13:03:20Z</time>
      </trkpt>
      <trkpt lat="42.63001" lon="1.74113">
        <ele>2532.4</ele>
        <time>2024-07-10T13:03:27Z</time>
      </trkpt>
      <trkpt lat="42.63" lon="1.74114">
        <ele>2540.4</ele>
        <time>2024-07-10T13:03:34Z</time>
      </trkpt>
      <trkpt lat="42.62998" lon="1.74117">
        <ele>2544.4</ele>
        <time>2024-07-10T13:03:40Z</time>
      </trkpt>
      <trkpt lat="42.62995" lon="1.74119">
        <ele>2548.8</ele>
        <time>2024-07-10T13:03:48Z</time>
      </trkpt>
      <trkpt lat="42.62995" lon="1.74117">
        <ele>2552.2</ele>
        <time>2024-07-10T13:03:54Z</time>
      </trkpt>
      <trkpt lat="42.62993" lon="1.74117">
        <ele>2555</ele>
        <time>2024-07-10T13:04:02Z</time>
      </trkpt>
      <trkpt lat="42.6299" lon="1.74119">
        <ele>2556</ele>
        <time>2024-07-10T13:04:10Z</time>
      </trkpt>
      <trkpt lat="42.62989" lon="1.7412">
        <ele>2556.4</ele>
        <time>2024-07-10T13:04:15Z</time>
      </trkpt>
      <trkpt lat="42.62987" lon="1.74119">
        <ele>2558.8</ele>
        <time>2024-07-10T13:04:22Z</time>
      </trkpt>
      <trkpt lat="42.62985" lon="1.74115">
        <ele>2561</ele>
        <time>2024-07-10T13:04:32Z</time>
      </trkpt>
      <trkpt lat="42.62979" lon="1.7411">
        <ele>2562.8</ele>
        <time>2024-07-10T13:05:16Z</time>
      </trkpt>
      <trkpt lat="42.62976" lon="1.74114">
        <ele>2565.8</ele>
        <time>2024-07-10T13:05:22Z</time>
      </trkpt>
      <trkpt lat="42.62974" lon="1.74113">
        <ele>2569.4</ele>
        <time>2024-07-10T13:05:29Z</time>
      </trkpt>
      <trkpt lat="42.62973" lon="1.74113">
        <ele>2571</ele>
        <time>2024-07-10T13:05:37Z</time>
      </trkpt>
      <trkpt lat="42.62964" lon="1.74116">
        <ele>2577</ele>
        <time>2024-07-10T13:08:02Z</time>
      </trkpt>
      <trkpt lat="42.62959" lon="1.74117">
        <ele>2579</ele>
        <time>2024-07-10T13:08:08Z</time>
      </trkpt>
      <trkpt lat="42.62959" lon="1.74117">
        <ele>2581.8</ele>
        <time>2024-07-10T13:08:14Z</time>
      </trkpt>
      <trkpt lat="42.6293" lon="1.741">
        <ele>2600.2</ele>
        <time>2024-07-10T13:11:14Z</time>
      </trkpt>
      <trkpt lat="42.62928" lon="1.74107">
        <ele>2600.6</ele>
        <time>2024-07-10T13:11:18Z</time>
      </trkpt>
      <trkpt lat="42.62928" lon="1.74123">
        <ele>2605.4</ele>
        <time>2024-07-10T13:11:30Z</time>
      </trkpt>
      <trkpt lat="42.62927" lon="1.74128">
        <ele>2609.4</ele>
        <time>2024-07-10T13:11:37Z</time>
      </trkpt>
      <trkpt lat="42.62929" lon="1.74136">
        <ele>2612</ele>
        <time>2024-07-10T13:11:45Z</time>
      </trkpt>
      <trkpt lat="42.62932" lon="1.74146">
        <ele>2615.2</ele>
        <time>2024-07-10T13:11:56Z</time>
      </trkpt>
      <trkpt lat="42.62933" lon="1.74147">
        <ele>2615.4</ele>
        <time>2024-07-10T13:11:57Z</time>
      </trkpt>
      <trkpt lat="42.62931" lon="1.74151">
        <ele>2617.8</ele>
        <time>2024-07-10T13:12:03Z</time>
      </trkpt>
      <trkpt lat="42.62931" lon="1.74151">
        <ele>2620</ele>
        <time>2024-07-10T13:12:12Z</time>
      </trkpt>
      <trkpt lat="42.62937" lon="1.7415">
        <ele>2620.2</ele>
        <time>2024-07-10T13:12:19Z</time>
      </trkpt>
      <trkpt lat="42.6294" lon="1.74147">
        <ele>2620.8</ele>
        <time>2024-07-10T13:12:27Z</time>
      </trkpt>
      <trkpt lat="42.6294" lon="1.74146">
        <ele>2621</ele>
        <time>2024-07-10T13:12:34Z</time>
      </trkpt>
      <trkpt lat="42.62934" lon="1.7415">
        <ele>2622</ele>
        <time>2024-07-10T13:13:22Z</time>
      </trkpt>
      <trkpt lat="42.62931" lon="1.74151">
        <ele>2621</ele>
        <time>2024-07-10T13:13:29Z</time>
      </trkpt>
      <trkpt lat="42.62931" lon="1.74151">
        <ele>2620</ele>
        <time>2024-07-10T13:13:39Z</time>
      </trkpt>
      <trkpt lat="42.62934" lon="1.74149">
        <ele>2620</ele>
        <time>2024-07-10T13:14:11Z</time>
      </trkpt>
      <trkpt lat="42.62937" lon="1.74148">
        <ele>2620.2</ele>
        <time>2024-07-10T13:14:17Z</time>
      </trkpt>
      <trkpt lat="42.62937" lon="1.74148">
        <ele>2620.2</ele>
        <time>2024-07-10T13:14:27Z</time>
      </trkpt>
      <trkpt lat="42.62933" lon="1.74151">
        <ele>2620</ele>
        <time>2024-07-10T13:14:39Z</time>
      </trkpt>
      <trkpt lat="42.62929" lon="1.74152">
        <ele>2621.6</ele>
        <time>2024-07-10T13:14:46Z</time>
      </trkpt>
      <trkpt lat="42.62929" lon="1.74151">
        <ele>2623.2</ele>
        <time>2024-07-10T13:14:58Z</time>
      </trkpt>
      <trkpt lat="42.62929" lon="1.74151">
        <ele>2622.4</ele>
        <time>2024-07-10T13:15:03Z</time>
      </trkpt>
      <trkpt lat="42.62929" lon="1.74151">
        <ele>2621.6</ele>
        <time>2024-07-10T13:15:12Z</time>
      </trkpt>
      <trkpt lat="42.62936" lon="1.74152">
        <ele>2622.8</ele>
        <time>2024-07-10T13:16:06Z</time>
      </trkpt>
      <trkpt lat="42.62938" lon="1.74153">
        <ele>2624.6</ele>
        <time>2024-07-10T13:16:14Z</time>
      </trkpt>
      <trkpt lat="42.62935" lon="1.74147">
        <ele>2617.6</ele>
        <time>2024-07-10T13:17:53Z</time>
      </trkpt>
      <trkpt lat="42.6294" lon="1.74146">
        <ele>2618.2</ele>
        <time>2024-07-10T13:18:01Z</time>
      </trkpt>
      <trkpt lat="42.6294" lon="1.74146">
        <ele>2620.2</ele>
        <time>2024-07-10T13:18:20Z</time>
      </trkpt>
      <trkpt lat="42.62939" lon="1.7415">
        <ele>2622.2</ele>
        <time>2024-07-10T13:18:49Z</time>
      </trkpt>
      <trkpt lat="42.62937" lon="1.74156">
        <ele>2624.6</ele>
        <time>2024-07-10T13:19:00Z</time>
      </trkpt>
      <trkpt lat="42.62937" lon="1.74156">
        <ele>2626.6</ele>
        <time>2024-07-10T13:19:11Z</time>
      </trkpt>
      <trkpt lat="42.62933" lon="1.74156">
        <ele>2627</ele>
        <time>2024-07-10T13:20:52Z</time>
      </trkpt>
      <trkpt lat="42.62933" lon="1.74161">
        <ele>2625.2</ele>
        <time>2024-07-10T13:29:18Z</time>
      </trkpt>
      <trkpt lat="42.62933" lon="1.74164">
        <ele>2624.8</ele>
        <time>2024-07-10T13:29:20Z</time>
      </trkpt>
      <trkpt lat="42.6293" lon="1.74169">
        <ele>2623</ele>
        <time>2024-07-10T13:29:24Z</time>
      </trkpt>
      <trkpt lat="42.62925" lon="1.74175">
        <ele>2617.8</ele>
        <time>2024-07-10T13:29:32Z</time>
      </trkpt>
      <trkpt lat="42.62925" lon="1.74176">
        <ele>2616</ele>
        <time>2024-07-10T13:29:37Z</time>
      </trkpt>
      <trkpt lat="42.62922" lon="1.74174">
        <ele>2615.4</ele>
        <time>2024-07-10T13:29:44Z</time>
      </trkpt>
      <trkpt lat="42.62918" lon="1.74171">
        <ele>2613</ele>
        <time>2024-07-10T13:29:53Z</time>
      </trkpt>
      <trkpt lat="42.6291" lon="1.74168">
        <ele>2609.6</ele>
        <time>2024-07-10T13:30:05Z</time>
      </trkpt>
      <trkpt lat="42.62909" lon="1.74168">
        <ele>2608</ele>
        <time>2024-07-10T13:30:11Z</time>
      </trkpt>
      <trkpt lat="42.6291" lon="1.7417">
        <ele>2606.6</ele>
        <time>2024-07-10T13:30:16Z</time>
      </trkpt>
      <trkpt lat="42.6291" lon="1.74171">
        <ele>2605.4</ele>
        <time>2024-07-10T13:30:26Z</time>
      </trkpt>
      <trkpt lat="42.62906" lon="1.74177">
        <ele>2603.2</ele>
        <time>2024-07-10T13:30:59Z</time>
      </trkpt>
      <trkpt lat="42.62901" lon="1.74175">
        <ele>2601.4</ele>
        <time>2024-07-10T13:31:07Z</time>
      </trkpt>
      <trkpt lat="42.62901" lon="1.74174">
        <ele>2599.8</ele>
        <time>2024-07-10T13:31:14Z</time>
      </trkpt>
      <trkpt lat="42.62902" lon="1.74184">
        <ele>2596.6</ele>
        <time>2024-07-10T13:31:56Z</time>
      </trkpt>
      <trkpt lat="42.62903" lon="1.74191">
        <ele>2594.6</ele>
        <time>2024-07-10T13:32:03Z</time>
      </trkpt>
      <trkpt lat="42.62902" lon="1.74191">
        <ele>2592.4</ele>
        <time>2024-07-10T13:32:09Z</time>
      </trkpt>
      <trkpt lat="42.62898" lon="1.74189">
        <ele>2591</ele>
        <time>2024-07-10T13:32:18Z</time>
      </trkpt>
      <trkpt lat="42.62896" lon="1.74188">
        <ele>2589.6</ele>
        <time>2024-07-10T13:32:27Z</time>
      </trkpt>
      <trkpt lat="42.62892" lon="1.74187">
        <ele>2588</ele>
        <time>2024-07-10T13:32:35Z</time>
      </trkpt>
      <trkpt lat="42.62888" lon="1.74187">
        <ele>2587.6</ele>
        <time>2024-07-10T13:32:46Z</time>
      </trkpt>
      <trkpt lat="42.62883" lon="1.74187">
        <ele>2585.6</ele>
        <time>2024-07-10T13:32:55Z</time>
      </trkpt>
      <trkpt lat="42.62877" lon="1.74187">
        <ele>2584.6</ele>
        <time>2024-07-10T13:33:01Z</time>
      </trkpt>
      <trkpt lat="42.62872" lon="1.74187">
        <ele>2583.6</ele>
        <time>2024-07-10T13:33:09Z</time>
      </trkpt>
      <trkpt lat="42.62865" lon="1.74191">
        <ele>2582.2</ele>
        <time>2024-07-10T13:33:18Z</time>
      </trkpt>
      <trkpt lat="42.6286" lon="1.74191">
        <ele>2579.8</ele>
        <time>2024-07-10T13:33:24Z</time>
      </trkpt>
      <trkpt lat="42.62858" lon="1.74192">
        <ele>2578</ele>
        <time>2024-07-10T13:33:32Z</time>
      </trkpt>
      <trkpt lat="42.62856" lon="1.74196">
        <ele>2576</ele>
        <time>2024-07-10T13:33:38Z</time>
      </trkpt>
      <trkpt lat="42.62853" lon="1.74199">
        <ele>2574.2</ele>
        <time>2024-07-10T13:33:45Z</time>
      </trkpt>
      <trkpt lat="42.62849" lon="1.74204">
        <ele>2571.8</ele>
        <time>2024-07-10T13:33:51Z</time>
      </trkpt>
      <trkpt lat="42.62848" lon="1.74206">
        <ele>2572</ele>
        <time>2024-07-10T13:33:57Z</time>
      </trkpt>
      <trkpt lat="42.62848" lon="1.74206">
        <ele>2573</ele>
        <time>2024-07-10T13:34:03Z</time>
      </trkpt>
      <trkpt lat="42.62844" lon="1.74211">
        <ele>2571.8</ele>
        <time>2024-07-10T13:34:10Z</time>
      </trkpt>
      <trkpt lat="42.62838" lon="1.74215">
        <ele>2567.4</ele>
        <time>2024-07-10T13:34:20Z</time>
      </trkpt>
      <trkpt lat="42.62836" lon="1.74218">
        <ele>2562.6</ele>
        <time>2024-07-10T13:34:28Z</time>
      </trkpt>
      <trkpt lat="42.62832" lon="1.74219">
        <ele>2558.8</ele>
        <time>2024-07-10T13:34:36Z</time>
      </trkpt>
      <trkpt lat="42.62829" lon="1.74222">
        <ele>2559.2</ele>
        <time>2024-07-10T13:34:42Z</time>
      </trkpt>
      <trkpt lat="42.62827" lon="1.74222">
        <ele>2559.8</ele>
        <time>2024-07-10T13:34:49Z</time>
      </trkpt>
      <trkpt lat="42.62825" lon="1.74225">
        <ele>2559.2</ele>
        <time>2024-07-10T13:34:59Z</time>
      </trkpt>
      <trkpt lat="42.62823" lon="1.74227">
        <ele>2558.4</ele>
        <time>2024-07-10T13:35:06Z</time>
      </trkpt>
      <trkpt lat="42.62822" lon="1.74229">
        <ele>2557.2</ele>
        <time>2024-07-10T13:35:15Z</time>
      </trkpt>
      <trkpt lat="42.62818" lon="1.74232">
        <ele>2555.4</ele>
        <time>2024-07-10T13:35:26Z</time>
      </trkpt>
      <trkpt lat="42.62815" lon="1.74235">
        <ele>2554.4</ele>
        <time>2024-07-10T13:35:33Z</time>
      </trkpt>
      <trkpt lat="42.62813" lon="1.74235">
        <ele>2554.2</ele>
        <time>2024-07-10T13:35:38Z</time>
      </trkpt>
      <trkpt lat="42.62811" lon="1.74237">
        <ele>2553.6</ele>
        <time>2024-07-10T13:35:45Z</time>
      </trkpt>
      <trkpt lat="42.62807" lon="1.74236">
        <ele>2554.6</ele>
        <time>2024-07-10T13:35:52Z</time>
      </trkpt>
      <trkpt lat="42.62802" lon="1.74241">
        <ele>2555</ele>
        <time>2024-07-10T13:35:59Z</time>
      </trkpt>
      <trkpt lat="42.62798" lon="1.74246">
        <ele>2556.6</ele>
        <time>2024-07-10T13:36:06Z</time>
      </trkpt>
      <trkpt lat="42.62791" lon="1.74252">
        <ele>2554.2</ele>
        <time>2024-07-10T13:36:16Z</time>
      </trkpt>
      <trkpt lat="42.62788" lon="1.74257">
        <ele>2552.8</ele>
        <time>2024-07-10T13:36:24Z</time>
      </trkpt>
      <trkpt lat="42.62785" lon="1.74261">
        <ele>2552.4</ele>
        <time>2024-07-10T13:36:31Z</time>
      </trkpt>
      <trkpt lat="42.62784" lon="1.74263">
        <ele>2553.4</ele>
        <time>2024-07-10T13:36:39Z</time>
      </trkpt>
      <trkpt lat="42.62784" lon="1.74263">
        <ele>2553.4</ele>
        <time>2024-07-10T13:36:46Z</time>
      </trkpt>
      <trkpt lat="42.62786" lon="1.74263">
        <ele>2552.4</ele>
        <time>2024-07-10T13:36:53Z</time>
      </trkpt>
      <trkpt lat="42.62788" lon="1.74266">
        <ele>2551.6</ele>
        <time>2024-07-10T13:37:01Z</time>
      </trkpt>
      <trkpt lat="42.62786" lon="1.74268">
        <ele>2549.8</ele>
        <time>2024-07-10T13:37:07Z</time>
      </trkpt>
      <trkpt lat="42.62785" lon="1.74269">
        <ele>2547.6</ele>
        <time>2024-07-10T13:37:15Z</time>
      </trkpt>
      <trkpt lat="42.62784" lon="1.74273">
        <ele>2543.2</ele>
        <time>2024-07-10T13:37:24Z</time>
      </trkpt>
      <trkpt lat="42.62784" lon="1.74276">
        <ele>2541.8</ele>
        <time>2024-07-10T13:37:29Z</time>
      </trkpt>
      <trkpt lat="42.62783" lon="1.74279">
        <ele>2540</ele>
        <time>2024-07-10T13:37:35Z</time>
      </trkpt>
      <trkpt lat="42.62784" lon="1.7428">
        <ele>2538</ele>
        <time>2024-07-10T13:37:41Z</time>
      </trkpt>
      <trkpt lat="42.62784" lon="1.74284">
        <ele>2536.8</ele>
        <time>2024-07-10T13:37:49Z</time>
      </trkpt>
      <trkpt lat="42.62785" lon="1.74288">
        <ele>2534</ele>
        <time>2024-07-10T13:37:58Z</time>
      </trkpt>
      <trkpt lat="42.62786" lon="1.74288">
        <ele>2532.8</ele>
        <time>2024-07-10T13:38:03Z</time>
      </trkpt>
      <trkpt lat="42.62786" lon="1.74289">
        <ele>2532.4</ele>
        <time>2024-07-10T13:38:23Z</time>
      </trkpt>
      <trkpt lat="42.62788" lon="1.74294">
        <ele>2532.6</ele>
        <time>2024-07-10T13:38:34Z</time>
      </trkpt>
      <trkpt lat="42.62794" lon="1.74297">
        <ele>2531.2</ele>
        <time>2024-07-10T13:38:41Z</time>
      </trkpt>
      <trkpt lat="42.62796" lon="1.74298">
        <ele>2529.2</ele>
        <time>2024-07-10T13:38:48Z</time>
      </trkpt>
      <trkpt lat="42.628" lon="1.743">
        <ele>2528.4</ele>
        <time>2024-07-10T13:38:55Z</time>
      </trkpt>
      <trkpt lat="42.62798" lon="1.74306">
        <ele>2528.6</ele>
        <time>2024-07-10T13:39:01Z</time>
      </trkpt>
      <trkpt lat="42.62796" lon="1.74308">
        <ele>2528.4</ele>
        <time>2024-07-10T13:39:07Z</time>
      </trkpt>
      <trkpt lat="42.62798" lon="1.74309">
        <ele>2526.8</ele>
        <time>2024-07-10T13:39:13Z</time>
      </trkpt>
      <trkpt lat="42.62799" lon="1.74312">
        <ele>2525</ele>
        <time>2024-07-10T13:39:19Z</time>
      </trkpt>
      <trkpt lat="42.628" lon="1.74314">
        <ele>2522.8</ele>
        <time>2024-07-10T13:39:26Z</time>
      </trkpt>
      <trkpt lat="42.62793" lon="1.74323">
        <ele>2522.2</ele>
        <time>2024-07-10T13:39:47Z</time>
      </trkpt>
      <trkpt lat="42.62788" lon="1.74331">
        <ele>2521.2</ele>
        <time>2024-07-10T13:39:54Z</time>
      </trkpt>
      <trkpt lat="42.62783" lon="1.74339">
        <ele>2519.4</ele>
        <time>2024-07-10T13:40:04Z</time>
      </trkpt>
      <trkpt lat="42.62781" lon="1.7434">
        <ele>2519.2</ele>
        <time>2024-07-10T13:40:10Z</time>
      </trkpt>
      <trkpt lat="42.6278" lon="1.74345">
        <ele>2517.4</ele>
        <time>2024-07-10T13:40:18Z</time>
      </trkpt>
      <trkpt lat="42.62778" lon="1.74348">
        <ele>2516.4</ele>
        <time>2024-07-10T13:40:20Z</time>
      </trkpt>
      <trkpt lat="42.62775" lon="1.74355">
        <ele>2514.2</ele>
        <time>2024-07-10T13:40:24Z</time>
      </trkpt>
      <trkpt lat="42.62769" lon="1.74371">
        <ele>2509.2</ele>
        <time>2024-07-10T13:40:33Z</time>
      </trkpt>
      <trkpt lat="42.62761" lon="1.74383">
        <ele>2504.2</ele>
        <time>2024-07-10T13:40:44Z</time>
      </trkpt>
      <trkpt lat="42.62757" lon="1.74393">
        <ele>2501</ele>
        <time>2024-07-10T13:40:53Z</time>
      </trkpt>
      <trkpt lat="42.62753" lon="1.74401">
        <ele>2496.4</ele>
        <time>2024-07-10T13:41:02Z</time>
      </trkpt>
      <trkpt lat="42.62751" lon="1.74408">
        <ele>2493.6</ele>
        <time>2024-07-10T13:41:10Z</time>
      </trkpt>
      <trkpt lat="42.62751" lon="1.74409">
        <ele>2493.4</ele>
        <time>2024-07-10T13:41:11Z</time>
      </trkpt>
      <trkpt lat="42.62749" lon="1.74416">
        <ele>2491.4</ele>
        <time>2024-07-10T13:41:20Z</time>
      </trkpt>
      <trkpt lat="42.62747" lon="1.74421">
        <ele>2488.8</ele>
        <time>2024-07-10T13:41:28Z</time>
      </trkpt>
      <trkpt lat="42.62742" lon="1.74427">
        <ele>2486</ele>
        <time>2024-07-10T13:41:37Z</time>
      </trkpt>
      <trkpt lat="42.62736" lon="1.74436">
        <ele>2483.2</ele>
        <time>2024-07-10T13:41:47Z</time>
      </trkpt>
      <trkpt lat="42.62732" lon="1.74444">
        <ele>2480.6</ele>
        <time>2024-07-10T13:41:56Z</time>
      </trkpt>
      <trkpt lat="42.62727" lon="1.74448">
        <ele>2478.2</ele>
        <time>2024-07-10T13:42:02Z</time>
      </trkpt>
      <trkpt lat="42.6272" lon="1.74453">
        <ele>2476.2</ele>
        <time>2024-07-10T13:42:10Z</time>
      </trkpt>
      <trkpt lat="42.6272" lon="1.74457">
        <ele>2476</ele>
        <time>2024-07-10T13:42:16Z</time>
      </trkpt>
      <trkpt lat="42.62717" lon="1.74464">
        <ele>2473</ele>
        <time>2024-07-10T13:42:23Z</time>
      </trkpt>
      <trkpt lat="42.62715" lon="1.74468">
        <ele>2471.8</ele>
        <time>2024-07-10T13:42:25Z</time>
      </trkpt>
      <trkpt lat="42.6271" lon="1.74476">
        <ele>2467.8</ele>
        <time>2024-07-10T13:42:32Z</time>
      </trkpt>
      <trkpt lat="42.62703" lon="1.74483">
        <ele>2463</ele>
        <time>2024-07-10T13:42:41Z</time>
      </trkpt>
      <trkpt lat="42.62703" lon="1.74483">
        <ele>2462.6</ele>
        <time>2024-07-10T13:42:42Z</time>
      </trkpt>
      <trkpt lat="42.62701" lon="1.74488">
        <ele>2460.4</ele>
        <time>2024-07-10T13:42:46Z</time>
      </trkpt>
      <trkpt lat="42.627" lon="1.74498">
        <ele>2455</ele>
        <time>2024-07-10T13:42:53Z</time>
      </trkpt>
      <trkpt lat="42.62699" lon="1.74504">
        <ele>2453.2</ele>
        <time>2024-07-10T13:42:59Z</time>
      </trkpt>
      <trkpt lat="42.62699" lon="1.74505">
        <ele>2453</ele>
        <time>2024-07-10T13:43:00Z</time>
      </trkpt>
      <trkpt lat="42.62695" lon="1.74512">
        <ele>2451.6</ele>
        <time>2024-07-10T13:43:06Z</time>
      </trkpt>
      <trkpt lat="42.62695" lon="1.74513">
        <ele>2451.4</ele>
        <time>2024-07-10T13:43:07Z</time>
      </trkpt>
      <trkpt lat="42.62691" lon="1.74524">
        <ele>2448</ele>
        <time>2024-07-10T13:43:16Z</time>
      </trkpt>
      <trkpt lat="42.62687" lon="1.74533">
        <ele>2444.8</ele>
        <time>2024-07-10T13:43:25Z</time>
      </trkpt>
      <trkpt lat="42.62681" lon="1.74544">
        <ele>2442.6</ele>
        <time>2024-07-10T13:43:37Z</time>
      </trkpt>
      <trkpt lat="42.6268" lon="1.74546">
        <ele>2442.2</ele>
        <time>2024-07-10T13:43:38Z</time>
      </trkpt>
      <trkpt lat="42.62679" lon="1.74557">
        <ele>2438.2</ele>
        <time>2024-07-10T13:43:47Z</time>
      </trkpt>
      <trkpt lat="42.62678" lon="1.7456">
        <ele>2437</ele>
        <time>2024-07-10T13:43:49Z</time>
      </trkpt>
      <trkpt lat="42.62678" lon="1.74568">
        <ele>2434</ele>
        <time>2024-07-10T13:43:55Z</time>
      </trkpt>
      <trkpt lat="42.62677" lon="1.74572">
        <ele>2432.6</ele>
        <time>2024-07-10T13:43:58Z</time>
      </trkpt>
      <trkpt lat="42.62677" lon="1.74577">
        <ele>2431.4</ele>
        <time>2024-07-10T13:44:01Z</time>
      </trkpt>
      <trkpt lat="42.62676" lon="1.74579">
        <ele>2430.6</ele>
        <time>2024-07-10T13:44:03Z</time>
      </trkpt>
      <trkpt lat="42.62671" lon="1.74591">
        <ele>2426.6</ele>
        <time>2024-07-10T13:44:12Z</time>
      </trkpt>
      <trkpt lat="42.62667" lon="1.74602">
        <ele>2422.2</ele>
        <time>2024-07-10T13:44:22Z</time>
      </trkpt>
      <trkpt lat="42.62665" lon="1.74617">
        <ele>2419.2</ele>
        <time>2024-07-10T13:44:31Z</time>
      </trkpt>
      <trkpt lat="42.62667" lon="1.74632">
        <ele>2417</ele>
        <time>2024-07-10T13:44:41Z</time>
      </trkpt>
      <trkpt lat="42.62668" lon="1.74637">
        <ele>2416.4</ele>
        <time>2024-07-10T13:44:44Z</time>
      </trkpt>
      <trkpt lat="42.62668" lon="1.74639">
        <ele>2416.2</ele>
        <time>2024-07-10T13:44:46Z</time>
      </trkpt>
      <trkpt lat="42.62668" lon="1.74641">
        <ele>2415.8</ele>
        <time>2024-07-10T13:44:48Z</time>
      </trkpt>
      <trkpt lat="42.62669" lon="1.74646">
        <ele>2414.8</ele>
        <time>2024-07-10T13:44:52Z</time>
      </trkpt>
      <trkpt lat="42.62671" lon="1.74648">
        <ele>2414.2</ele>
        <time>2024-07-10T13:44:55Z</time>
      </trkpt>
      <trkpt lat="42.62675" lon="1.74655">
        <ele>2413.8</ele>
        <time>2024-07-10T13:45:04Z</time>
      </trkpt>
      <trkpt lat="42.62677" lon="1.74659">
        <ele>2413.4</ele>
        <time>2024-07-10T13:45:10Z</time>
      </trkpt>
      <trkpt lat="42.62672" lon="1.74661">
        <ele>2412.4</ele>
        <time>2024-07-10T13:45:16Z</time>
      </trkpt>
      <trkpt lat="42.62672" lon="1.74667">
        <ele>2411</ele>
        <time>2024-07-10T13:45:22Z</time>
      </trkpt>
      <trkpt lat="42.62669" lon="1.74673">
        <ele>2412</ele>
        <time>2024-07-10T13:45:30Z</time>
      </trkpt>
      <trkpt lat="42.62667" lon="1.74676">
        <ele>2412.2</ele>
        <time>2024-07-10T13:45:37Z</time>
      </trkpt>
      <trkpt lat="42.62665" lon="1.7468">
        <ele>2412.2</ele>
        <time>2024-07-10T13:45:43Z</time>
      </trkpt>
      <trkpt lat="42.62664" lon="1.7468">
        <ele>2411.6</ele>
        <time>2024-07-10T13:45:50Z</time>
      </trkpt>
      <trkpt lat="42.62662" lon="1.74682">
        <ele>2411.8</ele>
        <time>2024-07-10T13:45:58Z</time>
      </trkpt>
      <trkpt lat="42.6266" lon="1.74686">
        <ele>2412</ele>
        <time>2024-07-10T13:46:05Z</time>
      </trkpt>
      <trkpt lat="42.62656" lon="1.74692">
        <ele>2411.8</ele>
        <time>2024-07-10T13:46:12Z</time>
      </trkpt>
      <trkpt lat="42.62655" lon="1.74696">
        <ele>2410.8</ele>
        <time>2024-07-10T13:46:18Z</time>
      </trkpt>
      <trkpt lat="42.62655" lon="1.74698">
        <ele>2410.2</ele>
        <time>2024-07-10T13:46:39Z</time>
      </trkpt>
      <trkpt lat="42.62655" lon="1.74708">
        <ele>2409.4</ele>
        <time>2024-07-10T13:46:46Z</time>
      </trkpt>
      <trkpt lat="42.62655" lon="1.74715">
        <ele>2407.4</ele>
        <time>2024-07-10T13:46:53Z</time>
      </trkpt>
      <trkpt lat="42.62655" lon="1.74718">
        <ele>2405.6</ele>
        <time>2024-07-10T13:46:59Z</time>
      </trkpt>
      <trkpt lat="42.62652" lon="1.74722">
        <ele>2401.8</ele>
        <time>2024-07-10T13:47:06Z</time>
      </trkpt>
      <trkpt lat="42.6265" lon="1.74725">
        <ele>2400.8</ele>
        <time>2024-07-10T13:47:12Z</time>
      </trkpt>
      <trkpt lat="42.62647" lon="1.74729">
        <ele>2402.8</ele>
        <time>2024-07-10T13:47:19Z</time>
      </trkpt>
      <trkpt lat="42.62643" lon="1.74734">
        <ele>2404.8</ele>
        <time>2024-07-10T13:47:25Z</time>
      </trkpt>
      <trkpt lat="42.62637" lon="1.74738">
        <ele>2405.4</ele>
        <time>2024-07-10T13:47:32Z</time>
      </trkpt>
      <trkpt lat="42.62627" lon="1.74746">
        <ele>2403.2</ele>
        <time>2024-07-10T13:47:42Z</time>
      </trkpt>
      <trkpt lat="42.62624" lon="1.7475">
        <ele>2401.8</ele>
        <time>2024-07-10T13:47:49Z</time>
      </trkpt>
      <trkpt lat="42.62621" lon="1.74749">
        <ele>2401.6</ele>
        <time>2024-07-10T13:47:55Z</time>
      </trkpt>
      <trkpt lat="42.62619" lon="1.74744">
        <ele>2402.4</ele>
        <time>2024-07-10T13:48:01Z</time>
      </trkpt>
      <trkpt lat="42.62612" lon="1.74745">
        <ele>2401.2</ele>
        <time>2024-07-10T13:48:09Z</time>
      </trkpt>
      <trkpt lat="42.62607" lon="1.74745">
        <ele>2399.4</ele>
        <time>2024-07-10T13:48:16Z</time>
      </trkpt>
      <trkpt lat="42.626" lon="1.7475">
        <ele>2397.2</ele>
        <time>2024-07-10T13:48:25Z</time>
      </trkpt>
      <trkpt lat="42.62599" lon="1.74757">
        <ele>2396.2</ele>
        <time>2024-07-10T13:48:32Z</time>
      </trkpt>
      <trkpt lat="42.62594" lon="1.74759">
        <ele>2395.4</ele>
        <time>2024-07-10T13:48:38Z</time>
      </trkpt>
      <trkpt lat="42.6259" lon="1.74763">
        <ele>2394.4</ele>
        <time>2024-07-10T13:48:46Z</time>
      </trkpt>
      <trkpt lat="42.6259" lon="1.7477">
        <ele>2393.2</ele>
        <time>2024-07-10T13:48:55Z</time>
      </trkpt>
      <trkpt lat="42.62592" lon="1.74768">
        <ele>2392.8</ele>
        <time>2024-07-10T13:49:10Z</time>
      </trkpt>
      <trkpt lat="42.62592" lon="1.74768">
        <ele>2392.6</ele>
        <time>2024-07-10T13:49:15Z</time>
      </trkpt>
      <trkpt lat="42.62591" lon="1.74775">
        <ele>2395.6</ele>
        <time>2024-07-10T13:52:58Z</time>
      </trkpt>
      <trkpt lat="42.62585" lon="1.74784">
        <ele>2394</ele>
        <time>2024-07-10T13:53:04Z</time>
      </trkpt>
      <trkpt lat="42.62577" lon="1.74791">
        <ele>2391</ele>
        <time>2024-07-10T13:53:13Z</time>
      </trkpt>
      <trkpt lat="42.62576" lon="1.74793">
        <ele>2390.6</ele>
        <time>2024-07-10T13:53:15Z</time>
      </trkpt>
      <trkpt lat="42.62574" lon="1.74796">
        <ele>2389.2</ele>
        <time>2024-07-10T13:53:19Z</time>
      </trkpt>
      <trkpt lat="42.62571" lon="1.74798">
        <ele>2386.8</ele>
        <time>2024-07-10T13:53:25Z</time>
      </trkpt>
      <trkpt lat="42.62567" lon="1.74803">
        <ele>2385.2</ele>
        <time>2024-07-10T13:53:32Z</time>
      </trkpt>
      <trkpt lat="42.62561" lon="1.74806">
        <ele>2384.4</ele>
        <time>2024-07-10T13:53:40Z</time>
      </trkpt>
      <trkpt lat="42.62556" lon="1.74808">
        <ele>2384</ele>
        <time>2024-07-10T13:53:48Z</time>
      </trkpt>
      <trkpt lat="42.62555" lon="1.74811">
        <ele>2383.8</ele>
        <time>2024-07-10T13:53:53Z</time>
      </trkpt>
      <trkpt lat="42.62554" lon="1.74816">
        <ele>2383.4</ele>
        <time>2024-07-10T13:53:59Z</time>
      </trkpt>
      <trkpt lat="42.62556" lon="1.7482">
        <ele>2382.4</ele>
        <time>2024-07-10T13:54:04Z</time>
      </trkpt>
      <trkpt lat="42.62555" lon="1.74821">
        <ele>2381.4</ele>
        <time>2024-07-10T13:54:10Z</time>
      </trkpt>
      <trkpt lat="42.62553" lon="1.74824">
        <ele>2381.6</ele>
        <time>2024-07-10T13:54:15Z</time>
      </trkpt>
      <trkpt lat="42.62551" lon="1.74828">
        <ele>2381.2</ele>
        <time>2024-07-10T13:54:23Z</time>
      </trkpt>
      <trkpt lat="42.6255" lon="1.74828">
        <ele>2380.6</ele>
        <time>2024-07-10T13:54:30Z</time>
      </trkpt>
      <trkpt lat="42.6255" lon="1.74828">
        <ele>2381.2</ele>
        <time>2024-07-10T13:54:57Z</time>
      </trkpt>
      <trkpt lat="42.62547" lon="1.74832">
        <ele>2381.4</ele>
        <time>2024-07-10T13:55:02Z</time>
      </trkpt>
      <trkpt lat="42.62547" lon="1.74844">
        <ele>2381.4</ele>
        <time>2024-07-10T13:55:09Z</time>
      </trkpt>
      <trkpt lat="42.62547" lon="1.74844">
        <ele>2380.8</ele>
        <time>2024-07-10T13:55:13Z</time>
      </trkpt>
      <trkpt lat="42.62547" lon="1.74844">
        <ele>2380.4</ele>
        <time>2024-07-10T13:55:26Z</time>
      </trkpt>
      <trkpt lat="42.62545" lon="1.74851">
        <ele>2380.2</ele>
        <time>2024-07-10T13:55:37Z</time>
      </trkpt>
      <trkpt lat="42.6254" lon="1.74859">
        <ele>2379</ele>
        <time>2024-07-10T13:55:42Z</time>
      </trkpt>
      <trkpt lat="42.6254" lon="1.74861">
        <ele>2378.6</ele>
        <time>2024-07-10T13:55:43Z</time>
      </trkpt>
      <trkpt lat="42.62537" lon="1.7487">
        <ele>2374.2</ele>
        <time>2024-07-10T13:55:50Z</time>
      </trkpt>
      <trkpt lat="42.62537" lon="1.74872">
        <ele>2373.2</ele>
        <time>2024-07-10T13:55:56Z</time>
      </trkpt>
      <trkpt lat="42.62539" lon="1.74873">
        <ele>2373.2</ele>
        <time>2024-07-10T13:56:05Z</time>
      </trkpt>
      <trkpt lat="42.6254" lon="1.74879">
        <ele>2372.6</ele>
        <time>2024-07-10T13:56:11Z</time>
      </trkpt>
      <trkpt lat="42.62539" lon="1.74885">
        <ele>2371.4</ele>
        <time>2024-07-10T13:56:18Z</time>
      </trkpt>
      <trkpt lat="42.62538" lon="1.74889">
        <ele>2370.8</ele>
        <time>2024-07-10T13:56:25Z</time>
      </trkpt>
      <trkpt lat="42.62534" lon="1.74896">
        <ele>2370.6</ele>
        <time>2024-07-10T13:56:33Z</time>
      </trkpt>
      <trkpt lat="42.6253" lon="1.74902">
        <ele>2369.8</ele>
        <time>2024-07-10T13:56:41Z</time>
      </trkpt>
      <trkpt lat="42.62528" lon="1.74909">
        <ele>2367.8</ele>
        <time>2024-07-10T13:56:47Z</time>
      </trkpt>
      <trkpt lat="42.62526" lon="1.74914">
        <ele>2367.2</ele>
        <time>2024-07-10T13:56:53Z</time>
      </trkpt>
      <trkpt lat="42.62526" lon="1.74917">
        <ele>2366.8</ele>
        <time>2024-07-10T13:56:55Z</time>
      </trkpt>
      <trkpt lat="42.62524" lon="1.7492">
        <ele>2366</ele>
        <time>2024-07-10T13:57:00Z</time>
      </trkpt>
      <trkpt lat="42.6252" lon="1.74924">
        <ele>2364</ele>
        <time>2024-07-10T13:57:08Z</time>
      </trkpt>
      <trkpt lat="42.62516" lon="1.7493">
        <ele>2362.8</ele>
        <time>2024-07-10T13:57:15Z</time>
      </trkpt>
      <trkpt lat="42.62515" lon="1.74935">
        <ele>2362</ele>
        <time>2024-07-10T13:57:22Z</time>
      </trkpt>
      <trkpt lat="42.62515" lon="1.74941">
        <ele>2360.8</ele>
        <time>2024-07-10T13:57:29Z</time>
      </trkpt>
      <trkpt lat="42.62508" lon="1.74945">
        <ele>2359.4</ele>
        <time>2024-07-10T13:57:36Z</time>
      </trkpt>
      <trkpt lat="42.62505" lon="1.74946">
        <ele>2359</ele>
        <time>2024-07-10T13:57:40Z</time>
      </trkpt>
      <trkpt lat="42.62504" lon="1.74946">
        <ele>2358.8</ele>
        <time>2024-07-10T13:57:42Z</time>
      </trkpt>
      <trkpt lat="42.62503" lon="1.74945">
        <ele>2358.8</ele>
        <time>2024-07-10T13:57:43Z</time>
      </trkpt>
      <trkpt lat="42.625" lon="1.74944">
        <ele>2359.6</ele>
        <time>2024-07-10T13:57:49Z</time>
      </trkpt>
      <trkpt lat="42.62498" lon="1.74942">
        <ele>2358.6</ele>
        <time>2024-07-10T13:57:56Z</time>
      </trkpt>
      <trkpt lat="42.62496" lon="1.74938">
        <ele>2358</ele>
        <time>2024-07-10T13:58:04Z</time>
      </trkpt>
      <trkpt lat="42.62493" lon="1.7494">
        <ele>2356.8</ele>
        <time>2024-07-10T13:58:11Z</time>
      </trkpt>
      <trkpt lat="42.62491" lon="1.74943">
        <ele>2357.2</ele>
        <time>2024-07-10T13:58:19Z</time>
      </trkpt>
      <trkpt lat="42.62489" lon="1.74944">
        <ele>2356.2</ele>
        <time>2024-07-10T13:58:25Z</time>
      </trkpt>
      <trkpt lat="42.62486" lon="1.74943">
        <ele>2356</ele>
        <time>2024-07-10T13:58:32Z</time>
      </trkpt>
      <trkpt lat="42.62485" lon="1.74945">
        <ele>2355.6</ele>
        <time>2024-07-10T13:58:39Z</time>
      </trkpt>
      <trkpt lat="42.62484" lon="1.74944">
        <ele>2356.4</ele>
        <time>2024-07-10T13:58:49Z</time>
      </trkpt>
      <trkpt lat="42.62477" lon="1.74944">
        <ele>2356.6</ele>
        <time>2024-07-10T13:59:01Z</time>
      </trkpt>
      <trkpt lat="42.6247" lon="1.74946">
        <ele>2352.2</ele>
        <time>2024-07-10T13:59:10Z</time>
      </trkpt>
      <trkpt lat="42.62465" lon="1.74948">
        <ele>2349.2</ele>
        <time>2024-07-10T13:59:17Z</time>
      </trkpt>
      <trkpt lat="42.62463" lon="1.74951">
        <ele>2348.6</ele>
        <time>2024-07-10T13:59:23Z</time>
      </trkpt>
      <trkpt lat="42.62463" lon="1.74951">
        <ele>2349.4</ele>
        <time>2024-07-10T13:59:33Z</time>
      </trkpt>
      <trkpt lat="42.62458" lon="1.74949">
        <ele>2348.2</ele>
        <time>2024-07-10T14:00:02Z</time>
      </trkpt>
      <trkpt lat="42.62453" lon="1.74949">
        <ele>2345.8</ele>
        <time>2024-07-10T14:00:09Z</time>
      </trkpt>
      <trkpt lat="42.62451" lon="1.74952">
        <ele>2344</ele>
        <time>2024-07-10T14:00:16Z</time>
      </trkpt>
      <trkpt lat="42.6245" lon="1.74957">
        <ele>2342.6</ele>
        <time>2024-07-10T14:00:22Z</time>
      </trkpt>
      <trkpt lat="42.62446" lon="1.74954">
        <ele>2340.8</ele>
        <time>2024-07-10T14:00:30Z</time>
      </trkpt>
      <trkpt lat="42.62442" lon="1.74953">
        <ele>2339</ele>
        <time>2024-07-10T14:00:38Z</time>
      </trkpt>
      <trkpt lat="42.62443" lon="1.74959">
        <ele>2336</ele>
        <time>2024-07-10T14:00:46Z</time>
      </trkpt>
      <trkpt lat="42.62439" lon="1.7496">
        <ele>2334.4</ele>
        <time>2024-07-10T14:00:52Z</time>
      </trkpt>
      <trkpt lat="42.62433" lon="1.74955">
        <ele>2332</ele>
        <time>2024-07-10T14:01:01Z</time>
      </trkpt>
      <trkpt lat="42.62426" lon="1.74955">
        <ele>2331.2</ele>
        <time>2024-07-10T14:01:09Z</time>
      </trkpt>
      <trkpt lat="42.62424" lon="1.74956">
        <ele>2330.2</ele>
        <time>2024-07-10T14:01:16Z</time>
      </trkpt>
      <trkpt lat="42.62424" lon="1.74955">
        <ele>2330</ele>
        <time>2024-07-10T14:01:24Z</time>
      </trkpt>
      <trkpt lat="42.62418" lon="1.74959">
        <ele>2330</ele>
        <time>2024-07-10T14:01:33Z</time>
      </trkpt>
      <trkpt lat="42.62412" lon="1.74961">
        <ele>2328.6</ele>
        <time>2024-07-10T14:01:40Z</time>
      </trkpt>
      <trkpt lat="42.62412" lon="1.74966">
        <ele>2326.8</ele>
        <time>2024-07-10T14:01:46Z</time>
      </trkpt>
      <trkpt lat="42.62409" lon="1.7497">
        <ele>2325.4</ele>
        <time>2024-07-10T14:01:52Z</time>
      </trkpt>
      <trkpt lat="42.62405" lon="1.74972">
        <ele>2321.6</ele>
        <time>2024-07-10T14:01:59Z</time>
      </trkpt>
      <trkpt lat="42.62402" lon="1.7497">
        <ele>2319</ele>
        <time>2024-07-10T14:02:08Z</time>
      </trkpt>
      <trkpt lat="42.62402" lon="1.7497">
        <ele>2318.6</ele>
        <time>2024-07-10T14:02:19Z</time>
      </trkpt>
      <trkpt lat="42.62395" lon="1.74967">
        <ele>2318.6</ele>
        <time>2024-07-10T14:03:17Z</time>
      </trkpt>
      <trkpt lat="42.62387" lon="1.74967">
        <ele>2316.4</ele>
        <time>2024-07-10T14:03:25Z</time>
      </trkpt>
      <trkpt lat="42.62385" lon="1.74969">
        <ele>2314.8</ele>
        <time>2024-07-10T14:03:30Z</time>
      </trkpt>
      <trkpt lat="42.62384" lon="1.74971">
        <ele>2313</ele>
        <time>2024-07-10T14:03:37Z</time>
      </trkpt>
      <trkpt lat="42.62382" lon="1.74979">
        <ele>2314.2</ele>
        <time>2024-07-10T14:04:44Z</time>
      </trkpt>
      <trkpt lat="42.62381" lon="1.74982">
        <ele>2313.6</ele>
        <time>2024-07-10T14:04:46Z</time>
      </trkpt>
      <trkpt lat="42.62379" lon="1.74989">
        <ele>2311.4</ele>
        <time>2024-07-10T14:04:51Z</time>
      </trkpt>
      <trkpt lat="42.62376" lon="1.74993">
        <ele>2308.2</ele>
        <time>2024-07-10T14:04:58Z</time>
      </trkpt>
      <trkpt lat="42.62377" lon="1.74996">
        <ele>2307</ele>
        <time>2024-07-10T14:05:01Z</time>
      </trkpt>
      <trkpt lat="42.62377" lon="1.74999">
        <ele>2306</ele>
        <time>2024-07-10T14:05:04Z</time>
      </trkpt>
      <trkpt lat="42.62379" lon="1.75006">
        <ele>2304.6</ele>
        <time>2024-07-10T14:05:11Z</time>
      </trkpt>
      <trkpt lat="42.62375" lon="1.7501">
        <ele>2304.2</ele>
        <time>2024-07-10T14:05:15Z</time>
      </trkpt>
      <trkpt lat="42.62372" lon="1.75011">
        <ele>2304</ele>
        <time>2024-07-10T14:05:19Z</time>
      </trkpt>
      <trkpt lat="42.62367" lon="1.7501">
        <ele>2302.8</ele>
        <time>2024-07-10T14:05:26Z</time>
      </trkpt>
      <trkpt lat="42.62364" lon="1.75015">
        <ele>2300.8</ele>
        <time>2024-07-10T14:05:33Z</time>
      </trkpt>
      <trkpt lat="42.62363" lon="1.75017">
        <ele>2298.4</ele>
        <time>2024-07-10T14:05:40Z</time>
      </trkpt>
      <trkpt lat="42.6236" lon="1.75015">
        <ele>2298</ele>
        <time>2024-07-10T14:05:48Z</time>
      </trkpt>
      <trkpt lat="42.62358" lon="1.75014">
        <ele>2296.6</ele>
        <time>2024-07-10T14:05:56Z</time>
      </trkpt>
      <trkpt lat="42.62356" lon="1.75012">
        <ele>2295.8</ele>
        <time>2024-07-10T14:06:04Z</time>
      </trkpt>
      <trkpt lat="42.62355" lon="1.75012">
        <ele>2295.2</ele>
        <time>2024-07-10T14:06:10Z</time>
      </trkpt>
      <trkpt lat="42.62351" lon="1.75012">
        <ele>2294.6</ele>
        <time>2024-07-10T14:06:17Z</time>
      </trkpt>
      <trkpt lat="42.62348" lon="1.7501">
        <ele>2295.2</ele>
        <time>2024-07-10T14:06:23Z</time>
      </trkpt>
      <trkpt lat="42.62347" lon="1.7501">
        <ele>2294.6</ele>
        <time>2024-07-10T14:06:29Z</time>
      </trkpt>
      <trkpt lat="42.62348" lon="1.75009">
        <ele>2294.4</ele>
        <time>2024-07-10T14:06:36Z</time>
      </trkpt>
      <trkpt lat="42.62351" lon="1.75011">
        <ele>2295</ele>
        <time>2024-07-10T14:06:43Z</time>
      </trkpt>
      <trkpt lat="42.62355" lon="1.75019">
        <ele>2293.4</ele>
        <time>2024-07-10T14:06:54Z</time>
      </trkpt>
      <trkpt lat="42.62355" lon="1.75022">
        <ele>2292.4</ele>
        <time>2024-07-10T14:07:00Z</time>
      </trkpt>
      <trkpt lat="42.62357" lon="1.75026">
        <ele>2291</ele>
        <time>2024-07-10T14:07:07Z</time>
      </trkpt>
      <trkpt lat="42.62357" lon="1.75028">
        <ele>2290.4</ele>
        <time>2024-07-10T14:07:13Z</time>
      </trkpt>
      <trkpt lat="42.6236" lon="1.75034">
        <ele>2289.8</ele>
        <time>2024-07-10T14:07:20Z</time>
      </trkpt>
      <trkpt lat="42.62363" lon="1.75041">
        <ele>2288.4</ele>
        <time>2024-07-10T14:07:28Z</time>
      </trkpt>
      <trkpt lat="42.62365" lon="1.75051">
        <ele>2286.2</ele>
        <time>2024-07-10T14:07:37Z</time>
      </trkpt>
      <trkpt lat="42.62366" lon="1.7506">
        <ele>2283.4</ele>
        <time>2024-07-10T14:07:46Z</time>
      </trkpt>
      <trkpt lat="42.62367" lon="1.75066">
        <ele>2280.6</ele>
        <time>2024-07-10T14:07:54Z</time>
      </trkpt>
      <trkpt lat="42.62372" lon="1.75072">
        <ele>2277.4</ele>
        <time>2024-07-10T14:08:03Z</time>
      </trkpt>
      <trkpt lat="42.62372" lon="1.75076">
        <ele>2274.8</ele>
        <time>2024-07-10T14:08:10Z</time>
      </trkpt>
      <trkpt lat="42.62375" lon="1.75078">
        <ele>2273.4</ele>
        <time>2024-07-10T14:08:18Z</time>
      </trkpt>
      <trkpt lat="42.62378" lon="1.75083">
        <ele>2272.4</ele>
        <time>2024-07-10T14:08:25Z</time>
      </trkpt>
      <trkpt lat="42.62375" lon="1.75091">
        <ele>2270.6</ele>
        <time>2024-07-10T14:08:33Z</time>
      </trkpt>
      <trkpt lat="42.6237" lon="1.75101">
        <ele>2266.8</ele>
        <time>2024-07-10T14:08:44Z</time>
      </trkpt>
      <trkpt lat="42.62368" lon="1.75108">
        <ele>2263.8</ele>
        <time>2024-07-10T14:08:53Z</time>
      </trkpt>
      <trkpt lat="42.62364" lon="1.75111">
        <ele>2261.6</ele>
        <time>2024-07-10T14:09:02Z</time>
      </trkpt>
      <trkpt lat="42.6236" lon="1.75113">
        <ele>2259.2</ele>
        <time>2024-07-10T14:09:10Z</time>
      </trkpt>
      <trkpt lat="42.62361" lon="1.75113">
        <ele>2258.4</ele>
        <time>2024-07-10T14:09:21Z</time>
      </trkpt>
      <trkpt lat="42.62353" lon="1.75119">
        <ele>2257.2</ele>
        <time>2024-07-10T14:09:52Z</time>
      </trkpt>
      <trkpt lat="42.62352" lon="1.7512">
        <ele>2256.6</ele>
        <time>2024-07-10T14:09:53Z</time>
      </trkpt>
      <trkpt lat="42.6235" lon="1.75122">
        <ele>2255.4</ele>
        <time>2024-07-10T14:09:55Z</time>
      </trkpt>
      <trkpt lat="42.62347" lon="1.75123">
        <ele>2253.8</ele>
        <time>2024-07-10T14:09:58Z</time>
      </trkpt>
      <trkpt lat="42.62345" lon="1.75125">
        <ele>2252.2</ele>
        <time>2024-07-10T14:10:02Z</time>
      </trkpt>
      <trkpt lat="42.62342" lon="1.75129">
        <ele>2250.4</ele>
        <time>2024-07-10T14:10:09Z</time>
      </trkpt>
      <trkpt lat="42.62339" lon="1.75132">
        <ele>2248</ele>
        <time>2024-07-10T14:10:16Z</time>
      </trkpt>
      <trkpt lat="42.62333" lon="1.75139">
        <ele>2243.8</ele>
        <time>2024-07-10T14:10:30Z</time>
      </trkpt>
      <trkpt lat="42.6233" lon="1.75144">
        <ele>2241.2</ele>
        <time>2024-07-10T14:10:38Z</time>
      </trkpt>
      <trkpt lat="42.62325" lon="1.75148">
        <ele>2239</ele>
        <time>2024-07-10T14:10:45Z</time>
      </trkpt>
      <trkpt lat="42.6232" lon="1.75147">
        <ele>2238.4</ele>
        <time>2024-07-10T14:10:50Z</time>
      </trkpt>
      <trkpt lat="42.62318" lon="1.75152">
        <ele>2239</ele>
        <time>2024-07-10T14:10:56Z</time>
      </trkpt>
      <trkpt lat="42.62315" lon="1.75159">
        <ele>2238</ele>
        <time>2024-07-10T14:11:02Z</time>
      </trkpt>
      <trkpt lat="42.62316" lon="1.75169">
        <ele>2235.4</ele>
        <time>2024-07-10T14:11:09Z</time>
      </trkpt>
      <trkpt lat="42.62316" lon="1.75169">
        <ele>2235.2</ele>
        <time>2024-07-10T14:11:10Z</time>
      </trkpt>
      <trkpt lat="42.62321" lon="1.75173">
        <ele>2234.2</ele>
        <time>2024-07-10T14:11:35Z</time>
      </trkpt>
      <trkpt lat="42.62325" lon="1.75181">
        <ele>2233.6</ele>
        <time>2024-07-10T14:11:41Z</time>
      </trkpt>
      <trkpt lat="42.62328" lon="1.75188">
        <ele>2230.6</ele>
        <time>2024-07-10T14:11:49Z</time>
      </trkpt>
      <trkpt lat="42.62329" lon="1.75192">
        <ele>2228.8</ele>
        <time>2024-07-10T14:11:52Z</time>
      </trkpt>
      <trkpt lat="42.62329" lon="1.75195">
        <ele>2228</ele>
        <time>2024-07-10T14:11:55Z</time>
      </trkpt>
      <trkpt lat="42.62329" lon="1.75194">
        <ele>2228.2</ele>
        <time>2024-07-10T14:12:05Z</time>
      </trkpt>
      <trkpt lat="42.62328" lon="1.75191">
        <ele>2228.4</ele>
        <time>2024-07-10T14:13:27Z</time>
      </trkpt>
      <trkpt lat="42.62334" lon="1.75182">
        <ele>2233.6</ele>
        <time>2024-07-10T14:48:06Z</time>
      </trkpt>
      <trkpt lat="42.62335" lon="1.75174">
        <ele>2233.8</ele>
        <time>2024-07-10T14:48:11Z</time>
      </trkpt>
      <trkpt lat="42.62338" lon="1.75181">
        <ele>2233.6</ele>
        <time>2024-07-10T14:48:19Z</time>
      </trkpt>
      <trkpt lat="42.62341" lon="1.75186">
        <ele>2233.2</ele>
        <time>2024-07-10T14:48:26Z</time>
      </trkpt>
      <trkpt lat="42.62344" lon="1.75188">
        <ele>2232.8</ele>
        <time>2024-07-10T14:48:31Z</time>
      </trkpt>
      <trkpt lat="42.62346" lon="1.75194">
        <ele>2232.6</ele>
        <time>2024-07-10T14:48:37Z</time>
      </trkpt>
      <trkpt lat="42.6235" lon="1.75203">
        <ele>2232.2</ele>
        <time>2024-07-10T14:48:47Z</time>
      </trkpt>
      <trkpt lat="42.62352" lon="1.7521">
        <ele>2231.8</ele>
        <time>2024-07-10T14:48:53Z</time>
      </trkpt>
      <trkpt lat="42.62354" lon="1.75216">
        <ele>2231.8</ele>
        <time>2024-07-10T14:48:59Z</time>
      </trkpt>
      <trkpt lat="42.62354" lon="1.75222">
        <ele>2232</ele>
        <time>2024-07-10T14:49:06Z</time>
      </trkpt>
      <trkpt lat="42.62354" lon="1.75227">
        <ele>2233.4</ele>
        <time>2024-07-10T14:49:13Z</time>
      </trkpt>
      <trkpt lat="42.62355" lon="1.75233">
        <ele>2234.6</ele>
        <time>2024-07-10T14:49:19Z</time>
      </trkpt>
      <trkpt lat="42.62356" lon="1.75238">
        <ele>2235</ele>
        <time>2024-07-10T14:49:25Z</time>
      </trkpt>
      <trkpt lat="42.6236" lon="1.75245">
        <ele>2234.8</ele>
        <time>2024-07-10T14:49:33Z</time>
      </trkpt>
      <trkpt lat="42.62361" lon="1.75252">
        <ele>2234</ele>
        <time>2024-07-10T14:49:41Z</time>
      </trkpt>
      <trkpt lat="42.62361" lon="1.75258">
        <ele>2233.8</ele>
        <time>2024-07-10T14:49:48Z</time>
      </trkpt>
      <trkpt lat="42.62358" lon="1.75266">
        <ele>2235.4</ele>
        <time>2024-07-10T14:49:56Z</time>
      </trkpt>
      <trkpt lat="42.62357" lon="1.75272">
        <ele>2234.8</ele>
        <time>2024-07-10T14:50:02Z</time>
      </trkpt>
      <trkpt lat="42.62357" lon="1.75273">
        <ele>2234.6</ele>
        <time>2024-07-10T14:50:03Z</time>
      </trkpt>
      <trkpt lat="42.62357" lon="1.75275">
        <ele>2234.2</ele>
        <time>2024-07-10T14:50:04Z</time>
      </trkpt>
      <trkpt lat="42.62357" lon="1.7528">
        <ele>2233.6</ele>
        <time>2024-07-10T14:50:08Z</time>
      </trkpt>
      <trkpt lat="42.62359" lon="1.75287">
        <ele>2233.2</ele>
        <time>2024-07-10T14:50:15Z</time>
      </trkpt>
      <trkpt lat="42.62359" lon="1.75289">
        <ele>2233.2</ele>
        <time>2024-07-10T14:50:16Z</time>
      </trkpt>
      <trkpt lat="42.62365" lon="1.75301">
        <ele>2234.6</ele>
        <time>2024-07-10T14:50:26Z</time>
      </trkpt>
      <trkpt lat="42.62366" lon="1.75312">
        <ele>2234.8</ele>
        <time>2024-07-10T14:50:33Z</time>
      </trkpt>
      <trkpt lat="42.62367" lon="1.75313">
        <ele>2234.8</ele>
        <time>2024-07-10T14:50:34Z</time>
      </trkpt>
      <trkpt lat="42.6237" lon="1.75322">
        <ele>2233.6</ele>
        <time>2024-07-10T14:50:41Z</time>
      </trkpt>
      <trkpt lat="42.62371" lon="1.75335">
        <ele>2233.4</ele>
        <time>2024-07-10T14:50:49Z</time>
      </trkpt>
      <trkpt lat="42.62374" lon="1.75346">
        <ele>2231.4</ele>
        <time>2024-07-10T14:50:57Z</time>
      </trkpt>
      <trkpt lat="42.62375" lon="1.75348">
        <ele>2231.2</ele>
        <time>2024-07-10T14:50:58Z</time>
      </trkpt>
      <trkpt lat="42.62377" lon="1.75356">
        <ele>2230.4</ele>
        <time>2024-07-10T14:51:05Z</time>
      </trkpt>
      <trkpt lat="42.62378" lon="1.75358">
        <ele>2229.6</ele>
        <time>2024-07-10T14:51:07Z</time>
      </trkpt>
      <trkpt lat="42.62381" lon="1.75361">
        <ele>2228.8</ele>
        <time>2024-07-10T14:51:11Z</time>
      </trkpt>
      <trkpt lat="42.62383" lon="1.7537">
        <ele>2227.8</ele>
        <time>2024-07-10T14:51:18Z</time>
      </trkpt>
      <trkpt lat="42.62384" lon="1.75371">
        <ele>2227.6</ele>
        <time>2024-07-10T14:51:19Z</time>
      </trkpt>
      <trkpt lat="42.62386" lon="1.75374">
        <ele>2227.2</ele>
        <time>2024-07-10T14:51:23Z</time>
      </trkpt>
      <trkpt lat="42.62387" lon="1.75376">
        <ele>2227.6</ele>
        <time>2024-07-10T14:51:26Z</time>
      </trkpt>
      <trkpt lat="42.62386" lon="1.75382">
        <ele>2229.2</ele>
        <time>2024-07-10T14:51:33Z</time>
      </trkpt>
      <trkpt lat="42.62387" lon="1.75388">
        <ele>2228.8</ele>
        <time>2024-07-10T14:51:40Z</time>
      </trkpt>
      <trkpt lat="42.62385" lon="1.75396">
        <ele>2228.2</ele>
        <time>2024-07-10T14:51:48Z</time>
      </trkpt>
      <trkpt lat="42.62385" lon="1.754">
        <ele>2226</ele>
        <time>2024-07-10T14:51:55Z</time>
      </trkpt>
      <trkpt lat="42.62385" lon="1.75407">
        <ele>2225.8</ele>
        <time>2024-07-10T14:52:05Z</time>
      </trkpt>
      <trkpt lat="42.62387" lon="1.75414">
        <ele>2226</ele>
        <time>2024-07-10T14:52:13Z</time>
      </trkpt>
      <trkpt lat="42.62391" lon="1.75419">
        <ele>2228.2</ele>
        <time>2024-07-10T14:52:20Z</time>
      </trkpt>
      <trkpt lat="42.62393" lon="1.75425">
        <ele>2230.8</ele>
        <time>2024-07-10T14:52:26Z</time>
      </trkpt>
      <trkpt lat="42.62394" lon="1.75433">
        <ele>2232.6</ele>
        <time>2024-07-10T14:52:33Z</time>
      </trkpt>
      <trkpt lat="42.62394" lon="1.75437">
        <ele>2232.2</ele>
        <time>2024-07-10T14:52:36Z</time>
      </trkpt>
      <trkpt lat="42.62394" lon="1.7545">
        <ele>2232.6</ele>
        <time>2024-07-10T14:52:46Z</time>
      </trkpt>
      <trkpt lat="42.62394" lon="1.7546">
        <ele>2233</ele>
        <time>2024-07-10T14:52:54Z</time>
      </trkpt>
      <trkpt lat="42.62393" lon="1.75466">
        <ele>2232.2</ele>
        <time>2024-07-10T14:53:01Z</time>
      </trkpt>
      <trkpt lat="42.62392" lon="1.75469">
        <ele>2232</ele>
        <time>2024-07-10T14:53:03Z</time>
      </trkpt>
      <trkpt lat="42.6239" lon="1.75473">
        <ele>2231.4</ele>
        <time>2024-07-10T14:53:07Z</time>
      </trkpt>
      <trkpt lat="42.62391" lon="1.75474">
        <ele>2231.2</ele>
        <time>2024-07-10T14:53:09Z</time>
      </trkpt>
      <trkpt lat="42.6239" lon="1.75476">
        <ele>2231.6</ele>
        <time>2024-07-10T14:53:11Z</time>
      </trkpt>
      <trkpt lat="42.62391" lon="1.75476">
        <ele>2231.8</ele>
        <time>2024-07-10T14:53:17Z</time>
      </trkpt>
      <trkpt lat="42.6239" lon="1.75478">
        <ele>2231.4</ele>
        <time>2024-07-10T14:53:23Z</time>
      </trkpt>
      <trkpt lat="42.62389" lon="1.75484">
        <ele>2232</ele>
        <time>2024-07-10T14:53:28Z</time>
      </trkpt>
      <trkpt lat="42.62386" lon="1.75494">
        <ele>2234.8</ele>
        <time>2024-07-10T14:53:36Z</time>
      </trkpt>
      <trkpt lat="42.62384" lon="1.75503">
        <ele>2237.4</ele>
        <time>2024-07-10T14:53:44Z</time>
      </trkpt>
      <trkpt lat="42.62386" lon="1.75506">
        <ele>2240.4</ele>
        <time>2024-07-10T14:53:51Z</time>
      </trkpt>
      <trkpt lat="42.62387" lon="1.75509">
        <ele>2243.2</ele>
        <time>2024-07-10T14:53:58Z</time>
      </trkpt>
      <trkpt lat="42.62383" lon="1.75519">
        <ele>2243</ele>
        <time>2024-07-10T14:54:07Z</time>
      </trkpt>
      <trkpt lat="42.62377" lon="1.75525">
        <ele>2239.6</ele>
        <time>2024-07-10T14:54:13Z</time>
      </trkpt>
      <trkpt lat="42.62371" lon="1.75533">
        <ele>2239.2</ele>
        <time>2024-07-10T14:54:21Z</time>
      </trkpt>
      <trkpt lat="42.62369" lon="1.75539">
        <ele>2240.8</ele>
        <time>2024-07-10T14:54:29Z</time>
      </trkpt>
      <trkpt lat="42.62369" lon="1.75545">
        <ele>2241.4</ele>
        <time>2024-07-10T14:54:35Z</time>
      </trkpt>
      <trkpt lat="42.62367" lon="1.75553">
        <ele>2241.6</ele>
        <time>2024-07-10T14:54:42Z</time>
      </trkpt>
      <trkpt lat="42.62365" lon="1.7556">
        <ele>2242.4</ele>
        <time>2024-07-10T14:54:50Z</time>
      </trkpt>
      <trkpt lat="42.62363" lon="1.75566">
        <ele>2244.4</ele>
        <time>2024-07-10T14:54:58Z</time>
      </trkpt>
      <trkpt lat="42.62359" lon="1.75575">
        <ele>2245.6</ele>
        <time>2024-07-10T14:55:06Z</time>
      </trkpt>
      <trkpt lat="42.62355" lon="1.75581">
        <ele>2244.6</ele>
        <time>2024-07-10T14:55:14Z</time>
      </trkpt>
      <trkpt lat="42.62354" lon="1.75583">
        <ele>2245</ele>
        <time>2024-07-10T14:55:21Z</time>
      </trkpt>
      <trkpt lat="42.62353" lon="1.75585">
        <ele>2244.6</ele>
        <time>2024-07-10T14:55:28Z</time>
      </trkpt>
      <trkpt lat="42.62351" lon="1.75589">
        <ele>2244.2</ele>
        <time>2024-07-10T14:55:35Z</time>
      </trkpt>
      <trkpt lat="42.62348" lon="1.75591">
        <ele>2244</ele>
        <time>2024-07-10T14:55:40Z</time>
      </trkpt>
      <trkpt lat="42.62345" lon="1.75594">
        <ele>2243.2</ele>
        <time>2024-07-10T14:55:47Z</time>
      </trkpt>
      <trkpt lat="42.62343" lon="1.756">
        <ele>2242.6</ele>
        <time>2024-07-10T14:55:53Z</time>
      </trkpt>
      <trkpt lat="42.62341" lon="1.75609">
        <ele>2241</ele>
        <time>2024-07-10T14:56:01Z</time>
      </trkpt>
      <trkpt lat="42.62338" lon="1.75617">
        <ele>2240.6</ele>
        <time>2024-07-10T14:56:10Z</time>
      </trkpt>
      <trkpt lat="42.62336" lon="1.75622">
        <ele>2239.4</ele>
        <time>2024-07-10T14:56:17Z</time>
      </trkpt>
      <trkpt lat="42.62335" lon="1.75631">
        <ele>2238</ele>
        <time>2024-07-10T14:56:24Z</time>
      </trkpt>
      <trkpt lat="42.62333" lon="1.7564">
        <ele>2236.4</ele>
        <time>2024-07-10T14:56:32Z</time>
      </trkpt>
      <trkpt lat="42.62332" lon="1.75647">
        <ele>2234.8</ele>
        <time>2024-07-10T14:56:40Z</time>
      </trkpt>
      <trkpt lat="42.62328" lon="1.75656">
        <ele>2234.6</ele>
        <time>2024-07-10T14:56:49Z</time>
      </trkpt>
      <trkpt lat="42.62324" lon="1.75663">
        <ele>2235.4</ele>
        <time>2024-07-10T14:56:57Z</time>
      </trkpt>
      <trkpt lat="42.62321" lon="1.75668">
        <ele>2235.8</ele>
        <time>2024-07-10T14:57:04Z</time>
      </trkpt>
      <trkpt lat="42.62317" lon="1.75675">
        <ele>2235.4</ele>
        <time>2024-07-10T14:57:13Z</time>
      </trkpt>
      <trkpt lat="42.62316" lon="1.75683">
        <ele>2234.4</ele>
        <time>2024-07-10T14:57:20Z</time>
      </trkpt>
      <trkpt lat="42.62318" lon="1.75697">
        <ele>2231.6</ele>
        <time>2024-07-10T14:57:30Z</time>
      </trkpt>
      <trkpt lat="42.62316" lon="1.75703">
        <ele>2232.4</ele>
        <time>2024-07-10T14:57:39Z</time>
      </trkpt>
      <trkpt lat="42.62314" lon="1.7571">
        <ele>2232.4</ele>
        <time>2024-07-10T14:57:46Z</time>
      </trkpt>
      <trkpt lat="42.62314" lon="1.75712">
        <ele>2232.4</ele>
        <time>2024-07-10T14:57:47Z</time>
      </trkpt>
      <trkpt lat="42.62312" lon="1.75718">
        <ele>2231.8</ele>
        <time>2024-07-10T14:57:52Z</time>
      </trkpt>
      <trkpt lat="42.62312" lon="1.75722">
        <ele>2231.8</ele>
        <time>2024-07-10T14:57:58Z</time>
      </trkpt>
      <trkpt lat="42.6231" lon="1.75729">
        <ele>2232.4</ele>
        <time>2024-07-10T14:58:04Z</time>
      </trkpt>
      <trkpt lat="42.62308" lon="1.75737">
        <ele>2230.4</ele>
        <time>2024-07-10T14:58:11Z</time>
      </trkpt>
      <trkpt lat="42.62305" lon="1.75745">
        <ele>2229</ele>
        <time>2024-07-10T14:58:19Z</time>
      </trkpt>
      <trkpt lat="42.62302" lon="1.75757">
        <ele>2227.2</ele>
        <time>2024-07-10T14:58:29Z</time>
      </trkpt>
      <trkpt lat="42.62298" lon="1.75767">
        <ele>2228.8</ele>
        <time>2024-07-10T14:58:39Z</time>
      </trkpt>
      <trkpt lat="42.62294" lon="1.75774">
        <ele>2228.6</ele>
        <time>2024-07-10T14:58:45Z</time>
      </trkpt>
      <trkpt lat="42.62293" lon="1.75775">
        <ele>2228.6</ele>
        <time>2024-07-10T14:58:46Z</time>
      </trkpt>
      <trkpt lat="42.62285" lon="1.75783">
        <ele>2229</ele>
        <time>2024-07-10T14:58:55Z</time>
      </trkpt>
      <trkpt lat="42.6228" lon="1.7579">
        <ele>2229</ele>
        <time>2024-07-10T14:59:02Z</time>
      </trkpt>
      <trkpt lat="42.62277" lon="1.75797">
        <ele>2227.4</ele>
        <time>2024-07-10T14:59:10Z</time>
      </trkpt>
      <trkpt lat="42.62271" lon="1.75806">
        <ele>2227.2</ele>
        <time>2024-07-10T14:59:18Z</time>
      </trkpt>
      <trkpt lat="42.62266" lon="1.75817">
        <ele>2229.8</ele>
        <time>2024-07-10T14:59:28Z</time>
      </trkpt>
      <trkpt lat="42.62266" lon="1.7582">
        <ele>2230.2</ele>
        <time>2024-07-10T14:59:30Z</time>
      </trkpt>
      <trkpt lat="42.62258" lon="1.75825">
        <ele>2230.8</ele>
        <time>2024-07-10T14:59:35Z</time>
      </trkpt>
      <trkpt lat="42.62257" lon="1.75825">
        <ele>2232.4</ele>
        <time>2024-07-10T14:59:41Z</time>
      </trkpt>
      <trkpt lat="42.62255" lon="1.75824">
        <ele>2236.6</ele>
        <time>2024-07-10T14:59:57Z</time>
      </trkpt>
      <trkpt lat="42.62243" lon="1.75839">
        <ele>2237.2</ele>
        <time>2024-07-10T15:00:07Z</time>
      </trkpt>
      <trkpt lat="42.62238" lon="1.75851">
        <ele>2238</ele>
        <time>2024-07-10T15:00:16Z</time>
      </trkpt>
      <trkpt lat="42.62239" lon="1.75854">
        <ele>2238.2</ele>
        <time>2024-07-10T15:00:19Z</time>
      </trkpt>
      <trkpt lat="42.62236" lon="1.7586">
        <ele>2237.6</ele>
        <time>2024-07-10T15:00:22Z</time>
      </trkpt>
      <trkpt lat="42.62234" lon="1.75867">
        <ele>2234.8</ele>
        <time>2024-07-10T15:00:28Z</time>
      </trkpt>
      <trkpt lat="42.62233" lon="1.75871">
        <ele>2234.6</ele>
        <time>2024-07-10T15:00:30Z</time>
      </trkpt>
      <trkpt lat="42.62231" lon="1.75878">
        <ele>2235.4</ele>
        <time>2024-07-10T15:00:35Z</time>
      </trkpt>
      <trkpt lat="42.6223" lon="1.75881">
        <ele>2235.6</ele>
        <time>2024-07-10T15:00:37Z</time>
      </trkpt>
      <trkpt lat="42.62229" lon="1.75883">
        <ele>2235.6</ele>
        <time>2024-07-10T15:00:38Z</time>
      </trkpt>
      <trkpt lat="42.62229" lon="1.75892">
        <ele>2235.2</ele>
        <time>2024-07-10T15:00:45Z</time>
      </trkpt>
      <trkpt lat="42.62229" lon="1.75894">
        <ele>2235</ele>
        <time>2024-07-10T15:00:46Z</time>
      </trkpt>
      <trkpt lat="42.62227" lon="1.75908">
        <ele>2232.6</ele>
        <time>2024-07-10T15:00:56Z</time>
      </trkpt>
      <trkpt lat="42.62225" lon="1.75922">
        <ele>2231.2</ele>
        <time>2024-07-10T15:01:03Z</time>
      </trkpt>
      <trkpt lat="42.62223" lon="1.75924">
        <ele>2231</ele>
        <time>2024-07-10T15:01:04Z</time>
      </trkpt>
      <trkpt lat="42.62223" lon="1.75926">
        <ele>2230.8</ele>
        <time>2024-07-10T15:01:05Z</time>
      </trkpt>
      <trkpt lat="42.62222" lon="1.75931">
        <ele>2230</ele>
        <time>2024-07-10T15:01:09Z</time>
      </trkpt>
      <trkpt lat="42.62221" lon="1.75933">
        <ele>2229.8</ele>
        <time>2024-07-10T15:01:10Z</time>
      </trkpt>
      <trkpt lat="42.62216" lon="1.75944">
        <ele>2227.2</ele>
        <time>2024-07-10T15:01:18Z</time>
      </trkpt>
      <trkpt lat="42.62209" lon="1.75959">
        <ele>2223.6</ele>
        <time>2024-07-10T15:01:28Z</time>
      </trkpt>
      <trkpt lat="42.62205" lon="1.75971">
        <ele>2225.8</ele>
        <time>2024-07-10T15:01:36Z</time>
      </trkpt>
      <trkpt lat="42.62198" lon="1.75981">
        <ele>2228.6</ele>
        <time>2024-07-10T15:01:43Z</time>
      </trkpt>
      <trkpt lat="42.62191" lon="1.75995">
        <ele>2229.4</ele>
        <time>2024-07-10T15:01:51Z</time>
      </trkpt>
      <trkpt lat="42.62189" lon="1.76004">
        <ele>2230</ele>
        <time>2024-07-10T15:01:57Z</time>
      </trkpt>
      <trkpt lat="42.62189" lon="1.76005">
        <ele>2230.2</ele>
        <time>2024-07-10T15:01:59Z</time>
      </trkpt>
      <trkpt lat="42.62188" lon="1.76007">
        <ele>2230.2</ele>
        <time>2024-07-10T15:02:00Z</time>
      </trkpt>
      <trkpt lat="42.62184" lon="1.76021">
        <ele>2227</ele>
        <time>2024-07-10T15:02:09Z</time>
      </trkpt>
      <trkpt lat="42.62183" lon="1.76022">
        <ele>2227.2</ele>
        <time>2024-07-10T15:02:10Z</time>
      </trkpt>
      <trkpt lat="42.62178" lon="1.76034">
        <ele>2228.6</ele>
        <time>2024-07-10T15:02:19Z</time>
      </trkpt>
      <trkpt lat="42.62173" lon="1.76045">
        <ele>2231.2</ele>
        <time>2024-07-10T15:02:28Z</time>
      </trkpt>
      <trkpt lat="42.62171" lon="1.7606">
        <ele>2233.4</ele>
        <time>2024-07-10T15:02:38Z</time>
      </trkpt>
      <trkpt lat="42.62169" lon="1.7607">
        <ele>2234.2</ele>
        <time>2024-07-10T15:02:47Z</time>
      </trkpt>
      <trkpt lat="42.62166" lon="1.76086">
        <ele>2234.8</ele>
        <time>2024-07-10T15:02:58Z</time>
      </trkpt>
      <trkpt lat="42.62165" lon="1.76099">
        <ele>2236.6</ele>
        <time>2024-07-10T15:03:08Z</time>
      </trkpt>
      <trkpt lat="42.62163" lon="1.76103">
        <ele>2237</ele>
        <time>2024-07-10T15:03:11Z</time>
      </trkpt>
      <trkpt lat="42.6216" lon="1.76106">
        <ele>2237.2</ele>
        <time>2024-07-10T15:03:14Z</time>
      </trkpt>
      <trkpt lat="42.62157" lon="1.76119">
        <ele>2237.4</ele>
        <time>2024-07-10T15:03:22Z</time>
      </trkpt>
      <trkpt lat="42.62154" lon="1.76127">
        <ele>2237</ele>
        <time>2024-07-10T15:03:29Z</time>
      </trkpt>
      <trkpt lat="42.62152" lon="1.76134">
        <ele>2235.6</ele>
        <time>2024-07-10T15:03:35Z</time>
      </trkpt>
      <trkpt lat="42.62151" lon="1.76135">
        <ele>2235.4</ele>
        <time>2024-07-10T15:03:36Z</time>
      </trkpt>
      <trkpt lat="42.62151" lon="1.76139">
        <ele>2235.4</ele>
        <time>2024-07-10T15:03:43Z</time>
      </trkpt>
      <trkpt lat="42.62151" lon="1.76139">
        <ele>2236.8</ele>
        <time>2024-07-10T15:03:54Z</time>
      </trkpt>
      <trkpt lat="42.62142" lon="1.7614">
        <ele>2236.2</ele>
        <time>2024-07-10T15:05:28Z</time>
      </trkpt>
      <trkpt lat="42.62137" lon="1.76142">
        <ele>2235.8</ele>
        <time>2024-07-10T15:05:35Z</time>
      </trkpt>
      <trkpt lat="42.62132" lon="1.76144">
        <ele>2236</ele>
        <time>2024-07-10T15:05:43Z</time>
      </trkpt>
      <trkpt lat="42.62129" lon="1.76149">
        <ele>2236.6</ele>
        <time>2024-07-10T15:05:49Z</time>
      </trkpt>
      <trkpt lat="42.62126" lon="1.76152">
        <ele>2240</ele>
        <time>2024-07-10T15:05:56Z</time>
      </trkpt>
      <trkpt lat="42.62122" lon="1.76156">
        <ele>2241.8</ele>
        <time>2024-07-10T15:06:04Z</time>
      </trkpt>
      <trkpt lat="42.62117" lon="1.76159">
        <ele>2243.4</ele>
        <time>2024-07-10T15:06:11Z</time>
      </trkpt>
      <trkpt lat="42.62111" lon="1.76165">
        <ele>2244.2</ele>
        <time>2024-07-10T15:06:22Z</time>
      </trkpt>
      <trkpt lat="42.62109" lon="1.76165">
        <ele>2244</ele>
        <time>2024-07-10T15:06:26Z</time>
      </trkpt>
      <trkpt lat="42.62107" lon="1.76165">
        <ele>2243.2</ele>
        <time>2024-07-10T15:06:32Z</time>
      </trkpt>
      <trkpt lat="42.62104" lon="1.76167">
        <ele>2243.6</ele>
        <time>2024-07-10T15:06:39Z</time>
      </trkpt>
      <trkpt lat="42.62101" lon="1.76173">
        <ele>2245.6</ele>
        <time>2024-07-10T15:06:50Z</time>
      </trkpt>
      <trkpt lat="42.62096" lon="1.76178">
        <ele>2249</ele>
        <time>2024-07-10T15:07:02Z</time>
      </trkpt>
      <trkpt lat="42.62094" lon="1.76178">
        <ele>2250.8</ele>
        <time>2024-07-10T15:07:08Z</time>
      </trkpt>
      <trkpt lat="42.62091" lon="1.76185">
        <ele>2252</ele>
        <time>2024-07-10T15:07:16Z</time>
      </trkpt>
      <trkpt lat="42.62086" lon="1.76191">
        <ele>2257</ele>
        <time>2024-07-10T15:07:25Z</time>
      </trkpt>
      <trkpt lat="42.62083" lon="1.76192">
        <ele>2259.2</ele>
        <time>2024-07-10T15:07:31Z</time>
      </trkpt>
      <trkpt lat="42.62079" lon="1.76189">
        <ele>2259.4</ele>
        <time>2024-07-10T15:07:38Z</time>
      </trkpt>
      <trkpt lat="42.62077" lon="1.7618">
        <ele>2260.2</ele>
        <time>2024-07-10T15:07:47Z</time>
      </trkpt>
      <trkpt lat="42.62076" lon="1.76177">
        <ele>2259.2</ele>
        <time>2024-07-10T15:07:55Z</time>
      </trkpt>
      <trkpt lat="42.62074" lon="1.7618">
        <ele>2257.2</ele>
        <time>2024-07-10T15:08:04Z</time>
      </trkpt>
      <trkpt lat="42.62072" lon="1.76184">
        <ele>2254.8</ele>
        <time>2024-07-10T15:08:13Z</time>
      </trkpt>
      <trkpt lat="42.62067" lon="1.76188">
        <ele>2253.4</ele>
        <time>2024-07-10T15:08:19Z</time>
      </trkpt>
      <trkpt lat="42.62059" lon="1.76189">
        <ele>2254</ele>
        <time>2024-07-10T15:08:27Z</time>
      </trkpt>
      <trkpt lat="42.62056" lon="1.76191">
        <ele>2254.6</ele>
        <time>2024-07-10T15:08:34Z</time>
      </trkpt>
      <trkpt lat="42.62053" lon="1.76198">
        <ele>2255.2</ele>
        <time>2024-07-10T15:08:41Z</time>
      </trkpt>
      <trkpt lat="42.62049" lon="1.76204">
        <ele>2255</ele>
        <time>2024-07-10T15:08:50Z</time>
      </trkpt>
      <trkpt lat="42.62047" lon="1.76209">
        <ele>2254.2</ele>
        <time>2024-07-10T15:08:57Z</time>
      </trkpt>
      <trkpt lat="42.62047" lon="1.76214">
        <ele>2252.6</ele>
        <time>2024-07-10T15:09:05Z</time>
      </trkpt>
      <trkpt lat="42.62049" lon="1.76217">
        <ele>2250.8</ele>
        <time>2024-07-10T15:09:14Z</time>
      </trkpt>
      <trkpt lat="42.62047" lon="1.76225">
        <ele>2250</ele>
        <time>2024-07-10T15:09:22Z</time>
      </trkpt>
      <trkpt lat="42.62047" lon="1.76232">
        <ele>2248.4</ele>
        <time>2024-07-10T15:09:28Z</time>
      </trkpt>
      <trkpt lat="42.62047" lon="1.76238">
        <ele>2246.4</ele>
        <time>2024-07-10T15:09:33Z</time>
      </trkpt>
      <trkpt lat="42.62042" lon="1.76245">
        <ele>2245</ele>
        <time>2024-07-10T15:09:41Z</time>
      </trkpt>
      <trkpt lat="42.62035" lon="1.76251">
        <ele>2241.8</ele>
        <time>2024-07-10T15:09:49Z</time>
      </trkpt>
      <trkpt lat="42.62035" lon="1.76253">
        <ele>2239.8</ele>
        <time>2024-07-10T15:09:57Z</time>
      </trkpt>
      <trkpt lat="42.62033" lon="1.76256">
        <ele>2239.6</ele>
        <time>2024-07-10T15:10:21Z</time>
      </trkpt>
      <trkpt lat="42.62027" lon="1.76266">
        <ele>2238.4</ele>
        <time>2024-07-10T15:10:31Z</time>
      </trkpt>
      <trkpt lat="42.62022" lon="1.76269">
        <ele>2236.4</ele>
        <time>2024-07-10T15:10:37Z</time>
      </trkpt>
      <trkpt lat="42.62021" lon="1.76271">
        <ele>2235.8</ele>
        <time>2024-07-10T15:10:39Z</time>
      </trkpt>
      <trkpt lat="42.62019" lon="1.76273">
        <ele>2235.2</ele>
        <time>2024-07-10T15:10:43Z</time>
      </trkpt>
      <trkpt lat="42.62014" lon="1.76274">
        <ele>2233</ele>
        <time>2024-07-10T15:10:51Z</time>
      </trkpt>
      <trkpt lat="42.62012" lon="1.76279">
        <ele>2230</ele>
        <time>2024-07-10T15:10:57Z</time>
      </trkpt>
      <trkpt lat="42.62011" lon="1.7628">
        <ele>2229.6</ele>
        <time>2024-07-10T15:10:58Z</time>
      </trkpt>
      <trkpt lat="42.62009" lon="1.76279">
        <ele>2229.2</ele>
        <time>2024-07-10T15:10:59Z</time>
      </trkpt>
      <trkpt lat="42.62007" lon="1.76277">
        <ele>2228</ele>
        <time>2024-07-10T15:11:03Z</time>
      </trkpt>
      <trkpt lat="42.62003" lon="1.76278">
        <ele>2227.6</ele>
        <time>2024-07-10T15:11:10Z</time>
      </trkpt>
      <trkpt lat="42.62" lon="1.76277">
        <ele>2226.8</ele>
        <time>2024-07-10T15:11:16Z</time>
      </trkpt>
      <trkpt lat="42.61996" lon="1.76278">
        <ele>2225.6</ele>
        <time>2024-07-10T15:11:23Z</time>
      </trkpt>
      <trkpt lat="42.6199" lon="1.76275">
        <ele>2223.4</ele>
        <time>2024-07-10T15:11:29Z</time>
      </trkpt>
      <trkpt lat="42.61989" lon="1.76275">
        <ele>2223.2</ele>
        <time>2024-07-10T15:11:30Z</time>
      </trkpt>
      <trkpt lat="42.61983" lon="1.76276">
        <ele>2221.8</ele>
        <time>2024-07-10T15:11:35Z</time>
      </trkpt>
      <trkpt lat="42.6198" lon="1.76278">
        <ele>2221.2</ele>
        <time>2024-07-10T15:11:38Z</time>
      </trkpt>
      <trkpt lat="42.61978" lon="1.76278">
        <ele>2221</ele>
        <time>2024-07-10T15:11:40Z</time>
      </trkpt>
      <trkpt lat="42.61975" lon="1.76281">
        <ele>2221.2</ele>
        <time>2024-07-10T15:11:44Z</time>
      </trkpt>
      <trkpt lat="42.61972" lon="1.76283">
        <ele>2222</ele>
        <time>2024-07-10T15:11:48Z</time>
      </trkpt>
      <trkpt lat="42.61969" lon="1.76286">
        <ele>2222.8</ele>
        <time>2024-07-10T15:11:51Z</time>
      </trkpt>
      <trkpt lat="42.61963" lon="1.7629">
        <ele>2223</ele>
        <time>2024-07-10T15:11:59Z</time>
      </trkpt>
      <trkpt lat="42.6196" lon="1.76292">
        <ele>2222.4</ele>
        <time>2024-07-10T15:12:02Z</time>
      </trkpt>
      <trkpt lat="42.61957" lon="1.76296">
        <ele>2221.4</ele>
        <time>2024-07-10T15:12:06Z</time>
      </trkpt>
      <trkpt lat="42.61952" lon="1.76307">
        <ele>2221.8</ele>
        <time>2024-07-10T15:12:15Z</time>
      </trkpt>
      <trkpt lat="42.61947" lon="1.76317">
        <ele>2221.6</ele>
        <time>2024-07-10T15:12:23Z</time>
      </trkpt>
      <trkpt lat="42.61943" lon="1.76328">
        <ele>2220.8</ele>
        <time>2024-07-10T15:12:31Z</time>
      </trkpt>
      <trkpt lat="42.6194" lon="1.76344">
        <ele>2221</ele>
        <time>2024-07-10T15:12:41Z</time>
      </trkpt>
      <trkpt lat="42.6193" lon="1.76353">
        <ele>2220.6</ele>
        <time>2024-07-10T15:12:51Z</time>
      </trkpt>
      <trkpt lat="42.61921" lon="1.76357">
        <ele>2218.6</ele>
        <time>2024-07-10T15:12:59Z</time>
      </trkpt>
      <trkpt lat="42.61918" lon="1.76359">
        <ele>2218</ele>
        <time>2024-07-10T15:13:02Z</time>
      </trkpt>
      <trkpt lat="42.61916" lon="1.76358">
        <ele>2217.4</ele>
        <time>2024-07-10T15:13:05Z</time>
      </trkpt>
      <trkpt lat="42.61911" lon="1.76361">
        <ele>2216.2</ele>
        <time>2024-07-10T15:13:11Z</time>
      </trkpt>
      <trkpt lat="42.61907" lon="1.76367">
        <ele>2214.6</ele>
        <time>2024-07-10T15:13:20Z</time>
      </trkpt>
      <trkpt lat="42.619" lon="1.76371">
        <ele>2213.2</ele>
        <time>2024-07-10T15:13:29Z</time>
      </trkpt>
      <trkpt lat="42.61894" lon="1.76372">
        <ele>2210.6</ele>
        <time>2024-07-10T15:13:35Z</time>
      </trkpt>
      <trkpt lat="42.61893" lon="1.76372">
        <ele>2210.4</ele>
        <time>2024-07-10T15:13:36Z</time>
      </trkpt>
      <trkpt lat="42.61891" lon="1.76373">
        <ele>2210.2</ele>
        <time>2024-07-10T15:13:38Z</time>
      </trkpt>
      <trkpt lat="42.61889" lon="1.76369">
        <ele>2210.4</ele>
        <time>2024-07-10T15:13:42Z</time>
      </trkpt>
      <trkpt lat="42.61883" lon="1.76362">
        <ele>2211</ele>
        <time>2024-07-10T15:13:51Z</time>
      </trkpt>
      <trkpt lat="42.6188" lon="1.76363">
        <ele>2211.6</ele>
        <time>2024-07-10T15:13:54Z</time>
      </trkpt>
      <trkpt lat="42.61878" lon="1.76364">
        <ele>2212.4</ele>
        <time>2024-07-10T15:13:57Z</time>
      </trkpt>
      <trkpt lat="42.61872" lon="1.76366">
        <ele>2213.2</ele>
        <time>2024-07-10T15:14:04Z</time>
      </trkpt>
      <trkpt lat="42.61863" lon="1.76367">
        <ele>2213.8</ele>
        <time>2024-07-10T15:14:13Z</time>
      </trkpt>
      <trkpt lat="42.61861" lon="1.76365">
        <ele>2214</ele>
        <time>2024-07-10T15:14:16Z</time>
      </trkpt>
      <trkpt lat="42.61858" lon="1.76364">
        <ele>2213.6</ele>
        <time>2024-07-10T15:14:20Z</time>
      </trkpt>
      <trkpt lat="42.61857" lon="1.76363">
        <ele>2213.4</ele>
        <time>2024-07-10T15:14:26Z</time>
      </trkpt>
      <trkpt lat="42.61856" lon="1.76357">
        <ele>2214</ele>
        <time>2024-07-10T15:14:55Z</time>
      </trkpt>
      <trkpt lat="42.61852" lon="1.76351">
        <ele>2214.4</ele>
        <time>2024-07-10T15:15:02Z</time>
      </trkpt>
      <trkpt lat="42.61851" lon="1.76352">
        <ele>2215</ele>
        <time>2024-07-10T15:15:09Z</time>
      </trkpt>
      <trkpt lat="42.6185" lon="1.76352">
        <ele>2216.8</ele>
        <time>2024-07-10T15:15:34Z</time>
      </trkpt>
      <trkpt lat="42.61853" lon="1.76354">
        <ele>2218.8</ele>
        <time>2024-07-10T15:19:30Z</time>
      </trkpt>
      <trkpt lat="42.61857" lon="1.76365">
        <ele>2219.4</ele>
        <time>2024-07-10T15:19:36Z</time>
      </trkpt>
      <trkpt lat="42.61857" lon="1.76368">
        <ele>2219.4</ele>
        <time>2024-07-10T15:19:38Z</time>
      </trkpt>
      <trkpt lat="42.61853" lon="1.76377">
        <ele>2218</ele>
        <time>2024-07-10T15:19:48Z</time>
      </trkpt>
      <trkpt lat="42.61853" lon="1.76377">
        <ele>2218</ele>
        <time>2024-07-10T15:20:02Z</time>
      </trkpt>
      <trkpt lat="42.61849" lon="1.76376">
        <ele>2218</ele>
        <time>2024-07-10T15:20:07Z</time>
      </trkpt>
      <trkpt lat="42.61837" lon="1.76376">
        <ele>2217.2</ele>
        <time>2024-07-10T15:20:16Z</time>
      </trkpt>
      <trkpt lat="42.61831" lon="1.76379">
        <ele>2216</ele>
        <time>2024-07-10T15:20:25Z</time>
      </trkpt>
      <trkpt lat="42.61828" lon="1.7638">
        <ele>2215.6</ele>
        <time>2024-07-10T15:20:33Z</time>
      </trkpt>
      <trkpt lat="42.61823" lon="1.76377">
        <ele>2216.4</ele>
        <time>2024-07-10T15:20:43Z</time>
      </trkpt>
      <trkpt lat="42.61819" lon="1.76373">
        <ele>2217.6</ele>
        <time>2024-07-10T15:20:52Z</time>
      </trkpt>
      <trkpt lat="42.61816" lon="1.76372">
        <ele>2218.4</ele>
        <time>2024-07-10T15:21:00Z</time>
      </trkpt>
      <trkpt lat="42.61809" lon="1.76374">
        <ele>2218.6</ele>
        <time>2024-07-10T15:21:12Z</time>
      </trkpt>
      <trkpt lat="42.61804" lon="1.76377">
        <ele>2220.6</ele>
        <time>2024-07-10T15:21:22Z</time>
      </trkpt>
      <trkpt lat="42.61802" lon="1.76385">
        <ele>2220.8</ele>
        <time>2024-07-10T15:21:31Z</time>
      </trkpt>
      <trkpt lat="42.618" lon="1.76388">
        <ele>2221.4</ele>
        <time>2024-07-10T15:21:37Z</time>
      </trkpt>
      <trkpt lat="42.61796" lon="1.76388">
        <ele>2222.4</ele>
        <time>2024-07-10T15:21:44Z</time>
      </trkpt>
      <trkpt lat="42.61791" lon="1.76387">
        <ele>2224</ele>
        <time>2024-07-10T15:21:54Z</time>
      </trkpt>
      <trkpt lat="42.61786" lon="1.76385">
        <ele>2226.4</ele>
        <time>2024-07-10T15:22:02Z</time>
      </trkpt>
      <trkpt lat="42.61784" lon="1.76388">
        <ele>2227.8</ele>
        <time>2024-07-10T15:22:09Z</time>
      </trkpt>
      <trkpt lat="42.61783" lon="1.76394">
        <ele>2229.8</ele>
        <time>2024-07-10T15:22:18Z</time>
      </trkpt>
      <trkpt lat="42.61781" lon="1.76399">
        <ele>2230.8</ele>
        <time>2024-07-10T15:22:26Z</time>
      </trkpt>
      <trkpt lat="42.61781" lon="1.76405">
        <ele>2231.8</ele>
        <time>2024-07-10T15:22:33Z</time>
      </trkpt>
      <trkpt lat="42.61779" lon="1.76407">
        <ele>2233.6</ele>
        <time>2024-07-10T15:22:39Z</time>
      </trkpt>
      <trkpt lat="42.61779" lon="1.76411">
        <ele>2236.6</ele>
        <time>2024-07-10T15:22:47Z</time>
      </trkpt>
      <trkpt lat="42.61776" lon="1.76414">
        <ele>2239.4</ele>
        <time>2024-07-10T15:22:56Z</time>
      </trkpt>
      <trkpt lat="42.61771" lon="1.76417">
        <ele>2239.8</ele>
        <time>2024-07-10T15:23:04Z</time>
      </trkpt>
      <trkpt lat="42.61765" lon="1.76421">
        <ele>2241.2</ele>
        <time>2024-07-10T15:23:11Z</time>
      </trkpt>
      <trkpt lat="42.61761" lon="1.76426">
        <ele>2243.2</ele>
        <time>2024-07-10T15:23:19Z</time>
      </trkpt>
      <trkpt lat="42.61757" lon="1.76432">
        <ele>2243.6</ele>
        <time>2024-07-10T15:23:26Z</time>
      </trkpt>
      <trkpt lat="42.61754" lon="1.76436">
        <ele>2244.8</ele>
        <time>2024-07-10T15:23:33Z</time>
      </trkpt>
      <trkpt lat="42.61749" lon="1.76442">
        <ele>2245</ele>
        <time>2024-07-10T15:23:41Z</time>
      </trkpt>
      <trkpt lat="42.61745" lon="1.76449">
        <ele>2244.6</ele>
        <time>2024-07-10T15:23:49Z</time>
      </trkpt>
      <trkpt lat="42.61739" lon="1.76453">
        <ele>2245.6</ele>
        <time>2024-07-10T15:23:57Z</time>
      </trkpt>
      <trkpt lat="42.61734" lon="1.76457">
        <ele>2246.6</ele>
        <time>2024-07-10T15:24:05Z</time>
      </trkpt>
      <trkpt lat="42.61729" lon="1.76464">
        <ele>2248.6</ele>
        <time>2024-07-10T15:24:14Z</time>
      </trkpt>
      <trkpt lat="42.61723" lon="1.7647">
        <ele>2249.8</ele>
        <time>2024-07-10T15:24:25Z</time>
      </trkpt>
      <trkpt lat="42.61718" lon="1.76479">
        <ele>2250.8</ele>
        <time>2024-07-10T15:24:34Z</time>
      </trkpt>
      <trkpt lat="42.61713" lon="1.76488">
        <ele>2250.2</ele>
        <time>2024-07-10T15:24:43Z</time>
      </trkpt>
      <trkpt lat="42.61709" lon="1.765">
        <ele>2249.2</ele>
        <time>2024-07-10T15:24:55Z</time>
      </trkpt>
      <trkpt lat="42.61704" lon="1.76506">
        <ele>2249.4</ele>
        <time>2024-07-10T15:25:04Z</time>
      </trkpt>
      <trkpt lat="42.61701" lon="1.76513">
        <ele>2250.6</ele>
        <time>2024-07-10T15:25:12Z</time>
      </trkpt>
      <trkpt lat="42.61699" lon="1.76514">
        <ele>2251.2</ele>
        <time>2024-07-10T15:25:14Z</time>
      </trkpt>
      <trkpt lat="42.61698" lon="1.76516">
        <ele>2252.4</ele>
        <time>2024-07-10T15:25:19Z</time>
      </trkpt>
      <trkpt lat="42.61694" lon="1.76523">
        <ele>2253.4</ele>
        <time>2024-07-10T15:25:56Z</time>
      </trkpt>
      <trkpt lat="42.61688" lon="1.76535">
        <ele>2256.8</ele>
        <time>2024-07-10T15:26:06Z</time>
      </trkpt>
      <trkpt lat="42.61683" lon="1.76541">
        <ele>2258</ele>
        <time>2024-07-10T15:26:15Z</time>
      </trkpt>
      <trkpt lat="42.61681" lon="1.76543">
        <ele>2258.4</ele>
        <time>2024-07-10T15:26:17Z</time>
      </trkpt>
      <trkpt lat="42.61677" lon="1.76543">
        <ele>2259.4</ele>
        <time>2024-07-10T15:26:22Z</time>
      </trkpt>
      <trkpt lat="42.61671" lon="1.76543">
        <ele>2261.4</ele>
        <time>2024-07-10T15:26:31Z</time>
      </trkpt>
      <trkpt lat="42.61665" lon="1.76544">
        <ele>2264.4</ele>
        <time>2024-07-10T15:26:42Z</time>
      </trkpt>
      <trkpt lat="42.6166" lon="1.76549">
        <ele>2268.2</ele>
        <time>2024-07-10T15:26:53Z</time>
      </trkpt>
      <trkpt lat="42.61655" lon="1.76555">
        <ele>2270.2</ele>
        <time>2024-07-10T15:27:04Z</time>
      </trkpt>
      <trkpt lat="42.61652" lon="1.76559">
        <ele>2270.6</ele>
        <time>2024-07-10T15:27:10Z</time>
      </trkpt>
      <trkpt lat="42.61652" lon="1.76561">
        <ele>2270.8</ele>
        <time>2024-07-10T15:27:11Z</time>
      </trkpt>
      <trkpt lat="42.61646" lon="1.76565">
        <ele>2271.8</ele>
        <time>2024-07-10T15:27:17Z</time>
      </trkpt>
      <trkpt lat="42.61637" lon="1.76571">
        <ele>2271.2</ele>
        <time>2024-07-10T15:27:27Z</time>
      </trkpt>
      <trkpt lat="42.61627" lon="1.76578">
        <ele>2270.8</ele>
        <time>2024-07-10T15:27:37Z</time>
      </trkpt>
      <trkpt lat="42.61618" lon="1.76585">
        <ele>2271.2</ele>
        <time>2024-07-10T15:27:47Z</time>
      </trkpt>
      <trkpt lat="42.6161" lon="1.76591">
        <ele>2271.8</ele>
        <time>2024-07-10T15:27:56Z</time>
      </trkpt>
      <trkpt lat="42.61605" lon="1.76594">
        <ele>2272</ele>
        <time>2024-07-10T15:28:01Z</time>
      </trkpt>
      <trkpt lat="42.61602" lon="1.76595">
        <ele>2272</ele>
        <time>2024-07-10T15:28:04Z</time>
      </trkpt>
      <trkpt lat="42.61598" lon="1.76597">
        <ele>2271.8</ele>
        <time>2024-07-10T15:28:08Z</time>
      </trkpt>
      <trkpt lat="42.61596" lon="1.766">
        <ele>2271.6</ele>
        <time>2024-07-10T15:28:11Z</time>
      </trkpt>
      <trkpt lat="42.61595" lon="1.76601">
        <ele>2271.6</ele>
        <time>2024-07-10T15:28:12Z</time>
      </trkpt>
      <trkpt lat="42.61593" lon="1.76603">
        <ele>2270.6</ele>
        <time>2024-07-10T15:28:17Z</time>
      </trkpt>
      <trkpt lat="42.61589" lon="1.76608">
        <ele>2270</ele>
        <time>2024-07-10T15:28:24Z</time>
      </trkpt>
      <trkpt lat="42.61583" lon="1.76619">
        <ele>2269.4</ele>
        <time>2024-07-10T15:28:34Z</time>
      </trkpt>
      <trkpt lat="42.61581" lon="1.7662">
        <ele>2269.6</ele>
        <time>2024-07-10T15:28:40Z</time>
      </trkpt>
      <trkpt lat="42.61576" lon="1.76622">
        <ele>2269.6</ele>
        <time>2024-07-10T15:28:50Z</time>
      </trkpt>
      <trkpt lat="42.61572" lon="1.76628">
        <ele>2268.4</ele>
        <time>2024-07-10T15:28:57Z</time>
      </trkpt>
      <trkpt lat="42.61564" lon="1.76638">
        <ele>2266.6</ele>
        <time>2024-07-10T15:29:06Z</time>
      </trkpt>
      <trkpt lat="42.61558" lon="1.7665">
        <ele>2265</ele>
        <time>2024-07-10T15:29:15Z</time>
      </trkpt>
      <trkpt lat="42.61556" lon="1.76662">
        <ele>2263</ele>
        <time>2024-07-10T15:29:24Z</time>
      </trkpt>
      <trkpt lat="42.61557" lon="1.7667">
        <ele>2261.2</ele>
        <time>2024-07-10T15:29:32Z</time>
      </trkpt>
      <trkpt lat="42.61557" lon="1.76671">
        <ele>2261.2</ele>
        <time>2024-07-10T15:29:39Z</time>
      </trkpt>
      <trkpt lat="42.61557" lon="1.76679">
        <ele>2260.8</ele>
        <time>2024-07-10T15:29:54Z</time>
      </trkpt>
      <trkpt lat="42.61559" lon="1.76693">
        <ele>2259.2</ele>
        <time>2024-07-10T15:30:02Z</time>
      </trkpt>
      <trkpt lat="42.61562" lon="1.76709">
        <ele>2257.2</ele>
        <time>2024-07-10T15:30:12Z</time>
      </trkpt>
      <trkpt lat="42.61563" lon="1.76724">
        <ele>2255.4</ele>
        <time>2024-07-10T15:30:20Z</time>
      </trkpt>
      <trkpt lat="42.61565" lon="1.76738">
        <ele>2253.2</ele>
        <time>2024-07-10T15:30:28Z</time>
      </trkpt>
      <trkpt lat="42.61568" lon="1.76751">
        <ele>2252.6</ele>
        <time>2024-07-10T15:30:36Z</time>
      </trkpt>
      <trkpt lat="42.61572" lon="1.76764">
        <ele>2253.2</ele>
        <time>2024-07-10T15:30:44Z</time>
      </trkpt>
      <trkpt lat="42.61574" lon="1.76778">
        <ele>2254.2</ele>
        <time>2024-07-10T15:30:52Z</time>
      </trkpt>
      <trkpt lat="42.61578" lon="1.76793">
        <ele>2256</ele>
        <time>2024-07-10T15:31:02Z</time>
      </trkpt>
      <trkpt lat="42.61578" lon="1.768">
        <ele>2256.6</ele>
        <time>2024-07-10T15:31:07Z</time>
      </trkpt>
      <trkpt lat="42.61578" lon="1.76802">
        <ele>2256.6</ele>
        <time>2024-07-10T15:31:09Z</time>
      </trkpt>
      <trkpt lat="42.61585" lon="1.76813">
        <ele>2256</ele>
        <time>2024-07-10T15:31:17Z</time>
      </trkpt>
      <trkpt lat="42.61593" lon="1.76828">
        <ele>2254.8</ele>
        <time>2024-07-10T15:31:28Z</time>
      </trkpt>
      <trkpt lat="42.61595" lon="1.76837">
        <ele>2254.2</ele>
        <time>2024-07-10T15:31:33Z</time>
      </trkpt>
      <trkpt lat="42.61594" lon="1.76841">
        <ele>2254</ele>
        <time>2024-07-10T15:31:36Z</time>
      </trkpt>
      <trkpt lat="42.61593" lon="1.76845">
        <ele>2253.4</ele>
        <time>2024-07-10T15:31:39Z</time>
      </trkpt>
      <trkpt lat="42.6159" lon="1.76849">
        <ele>2252.4</ele>
        <time>2024-07-10T15:31:43Z</time>
      </trkpt>
      <trkpt lat="42.61581" lon="1.76857">
        <ele>2251.2</ele>
        <time>2024-07-10T15:31:51Z</time>
      </trkpt>
      <trkpt lat="42.61575" lon="1.76862">
        <ele>2250.8</ele>
        <time>2024-07-10T15:31:57Z</time>
      </trkpt>
      <trkpt lat="42.61574" lon="1.76862">
        <ele>2250.8</ele>
        <time>2024-07-10T15:31:58Z</time>
      </trkpt>
      <trkpt lat="42.61569" lon="1.76865">
        <ele>2250</ele>
        <time>2024-07-10T15:32:04Z</time>
      </trkpt>
      <trkpt lat="42.61568" lon="1.76865">
        <ele>2249.6</ele>
        <time>2024-07-10T15:32:05Z</time>
      </trkpt>
      <trkpt lat="42.61568" lon="1.76866">
        <ele>2248.6</ele>
        <time>2024-07-10T15:32:14Z</time>
      </trkpt>
      <trkpt lat="42.61572" lon="1.76871">
        <ele>2248.6</ele>
        <time>2024-07-10T15:32:24Z</time>
      </trkpt>
      <trkpt lat="42.61576" lon="1.76881">
        <ele>2248</ele>
        <time>2024-07-10T15:32:30Z</time>
      </trkpt>
      <trkpt lat="42.61576" lon="1.76895">
        <ele>2246.8</ele>
        <time>2024-07-10T15:32:40Z</time>
      </trkpt>
      <trkpt lat="42.61577" lon="1.76902">
        <ele>2245.8</ele>
        <time>2024-07-10T15:32:47Z</time>
      </trkpt>
      <trkpt lat="42.61577" lon="1.76902">
        <ele>2244.8</ele>
        <time>2024-07-10T15:32:52Z</time>
      </trkpt>
      <trkpt lat="42.61577" lon="1.76903">
        <ele>2245.4</ele>
        <time>2024-07-10T15:33:01Z</time>
      </trkpt>
      <trkpt lat="42.61576" lon="1.76907">
        <ele>2245</ele>
        <time>2024-07-10T15:33:28Z</time>
      </trkpt>
      <trkpt lat="42.61575" lon="1.76911">
        <ele>2244</ele>
        <time>2024-07-10T15:33:38Z</time>
      </trkpt>
      <trkpt lat="42.61575" lon="1.76916">
        <ele>2243.8</ele>
        <time>2024-07-10T15:34:21Z</time>
      </trkpt>
      <trkpt lat="42.61575" lon="1.76931">
        <ele>2238</ele>
        <time>2024-07-10T15:34:32Z</time>
      </trkpt>
      <trkpt lat="42.61575" lon="1.76938">
        <ele>2236.6</ele>
        <time>2024-07-10T15:34:38Z</time>
      </trkpt>
      <trkpt lat="42.61573" lon="1.76944">
        <ele>2235.8</ele>
        <time>2024-07-10T15:34:44Z</time>
      </trkpt>
      <trkpt lat="42.61567" lon="1.76947">
        <ele>2232</ele>
        <time>2024-07-10T15:34:53Z</time>
      </trkpt>
      <trkpt lat="42.6156" lon="1.7695">
        <ele>2227.4</ele>
        <time>2024-07-10T15:35:01Z</time>
      </trkpt>
      <trkpt lat="42.61554" lon="1.76947">
        <ele>2224.6</ele>
        <time>2024-07-10T15:35:09Z</time>
      </trkpt>
      <trkpt lat="42.61554" lon="1.76934">
        <ele>2222.4</ele>
        <time>2024-07-10T15:35:18Z</time>
      </trkpt>
      <trkpt lat="42.61549" lon="1.76922">
        <ele>2221.6</ele>
        <time>2024-07-10T15:35:27Z</time>
      </trkpt>
      <trkpt lat="42.61545" lon="1.76911">
        <ele>2220.6</ele>
        <time>2024-07-10T15:35:35Z</time>
      </trkpt>
      <trkpt lat="42.61545" lon="1.76898">
        <ele>2220.6</ele>
        <time>2024-07-10T15:35:44Z</time>
      </trkpt>
      <trkpt lat="42.61542" lon="1.7689">
        <ele>2220.6</ele>
        <time>2024-07-10T15:35:51Z</time>
      </trkpt>
      <trkpt lat="42.61541" lon="1.7689">
        <ele>2220.6</ele>
        <time>2024-07-10T15:35:52Z</time>
      </trkpt>
      <trkpt lat="42.61541" lon="1.76889">
        <ele>2221.2</ele>
        <time>2024-07-10T15:35:57Z</time>
      </trkpt>
      <trkpt lat="42.61544" lon="1.76896">
        <ele>2222.8</ele>
        <time>2024-07-10T15:36:47Z</time>
      </trkpt>
      <trkpt lat="42.61545" lon="1.76911">
        <ele>2222.8</ele>
        <time>2024-07-10T15:36:53Z</time>
      </trkpt>
      <trkpt lat="42.61546" lon="1.76923">
        <ele>2222.4</ele>
        <time>2024-07-10T15:37:00Z</time>
      </trkpt>
      <trkpt lat="42.61546" lon="1.76934">
        <ele>2222.6</ele>
        <time>2024-07-10T15:37:06Z</time>
      </trkpt>
      <trkpt lat="42.61544" lon="1.76951">
        <ele>2223</ele>
        <time>2024-07-10T15:37:16Z</time>
      </trkpt>
      <trkpt lat="42.61539" lon="1.76966">
        <ele>2221.6</ele>
        <time>2024-07-10T15:37:25Z</time>
      </trkpt>
      <trkpt lat="42.61533" lon="1.76976">
        <ele>2221.2</ele>
        <time>2024-07-10T15:37:32Z</time>
      </trkpt>
      <trkpt lat="42.61524" lon="1.7699">
        <ele>2220.8</ele>
        <time>2024-07-10T15:37:42Z</time>
      </trkpt>
      <trkpt lat="42.61518" lon="1.77005">
        <ele>2219.6</ele>
        <time>2024-07-10T15:37:52Z</time>
      </trkpt>
      <trkpt lat="42.61512" lon="1.77023">
        <ele>2218.6</ele>
        <time>2024-07-10T15:38:03Z</time>
      </trkpt>
      <trkpt lat="42.61512" lon="1.77038">
        <ele>2219.4</ele>
        <time>2024-07-10T15:38:12Z</time>
      </trkpt>
      <trkpt lat="42.61508" lon="1.77051">
        <ele>2218.4</ele>
        <time>2024-07-10T15:38:20Z</time>
      </trkpt>
      <trkpt lat="42.61503" lon="1.77067">
        <ele>2215.6</ele>
        <time>2024-07-10T15:38:29Z</time>
      </trkpt>
      <trkpt lat="42.61498" lon="1.77077">
        <ele>2215.2</ele>
        <time>2024-07-10T15:38:37Z</time>
      </trkpt>
      <trkpt lat="42.61496" lon="1.77082">
        <ele>2215.2</ele>
        <time>2024-07-10T15:38:41Z</time>
      </trkpt>
      <trkpt lat="42.61495" lon="1.77084">
        <ele>2215.4</ele>
        <time>2024-07-10T15:38:45Z</time>
      </trkpt>
      <trkpt lat="42.6149" lon="1.77091">
        <ele>2215.2</ele>
        <time>2024-07-10T15:38:53Z</time>
      </trkpt>
      <trkpt lat="42.61487" lon="1.77095">
        <ele>2213.8</ele>
        <time>2024-07-10T15:39:00Z</time>
      </trkpt>
      <trkpt lat="42.61482" lon="1.77098">
        <ele>2211.2</ele>
        <time>2024-07-10T15:39:07Z</time>
      </trkpt>
      <trkpt lat="42.61477" lon="1.77105">
        <ele>2208.2</ele>
        <time>2024-07-10T15:39:13Z</time>
      </trkpt>
      <trkpt lat="42.61466" lon="1.77121">
        <ele>2204.8</ele>
        <time>2024-07-10T15:39:24Z</time>
      </trkpt>
      <trkpt lat="42.61456" lon="1.77138">
        <ele>2204.2</ele>
        <time>2024-07-10T15:39:35Z</time>
      </trkpt>
      <trkpt lat="42.61447" lon="1.77151">
        <ele>2202.8</ele>
        <time>2024-07-10T15:39:44Z</time>
      </trkpt>
      <trkpt lat="42.61438" lon="1.77166">
        <ele>2199.2</ele>
        <time>2024-07-10T15:39:54Z</time>
      </trkpt>
      <trkpt lat="42.6143" lon="1.7718">
        <ele>2197.8</ele>
        <time>2024-07-10T15:40:04Z</time>
      </trkpt>
      <trkpt lat="42.61419" lon="1.77196">
        <ele>2196.6</ele>
        <time>2024-07-10T15:40:16Z</time>
      </trkpt>
      <trkpt lat="42.61412" lon="1.77206">
        <ele>2194.8</ele>
        <time>2024-07-10T15:40:24Z</time>
      </trkpt>
      <trkpt lat="42.614" lon="1.77221">
        <ele>2192.2</ele>
        <time>2024-07-10T15:40:35Z</time>
      </trkpt>
      <trkpt lat="42.61398" lon="1.7722">
        <ele>2192.2</ele>
        <time>2024-07-10T15:40:36Z</time>
      </trkpt>
      <trkpt lat="42.61394" lon="1.7722">
        <ele>2190.8</ele>
        <time>2024-07-10T15:40:39Z</time>
      </trkpt>
      <trkpt lat="42.61393" lon="1.7722">
        <ele>2190.2</ele>
        <time>2024-07-10T15:40:40Z</time>
      </trkpt>
      <trkpt lat="42.61382" lon="1.77222">
        <ele>2186</ele>
        <time>2024-07-10T15:40:48Z</time>
      </trkpt>
      <trkpt lat="42.61369" lon="1.77224">
        <ele>2183.8</ele>
        <time>2024-07-10T15:40:57Z</time>
      </trkpt>
      <trkpt lat="42.61358" lon="1.77228">
        <ele>2181.2</ele>
        <time>2024-07-10T15:41:05Z</time>
      </trkpt>
      <trkpt lat="42.61342" lon="1.77234">
        <ele>2178.2</ele>
        <time>2024-07-10T15:41:16Z</time>
      </trkpt>
      <trkpt lat="42.61342" lon="1.77234">
        <ele>2178</ele>
        <time>2024-07-10T15:41:20Z</time>
      </trkpt>
      <trkpt lat="42.61341" lon="1.77234">
        <ele>2178</ele>
        <time>2024-07-10T15:41:48Z</time>
      </trkpt>
      <trkpt lat="42.61336" lon="1.77236">
        <ele>2178.2</ele>
        <time>2024-07-10T15:42:05Z</time>
      </trkpt>
      <trkpt lat="42.61323" lon="1.77241">
        <ele>2178.4</ele>
        <time>2024-07-10T15:42:14Z</time>
      </trkpt>
      <trkpt lat="42.61315" lon="1.77249">
        <ele>2176.4</ele>
        <time>2024-07-10T15:42:22Z</time>
      </trkpt>
      <trkpt lat="42.61308" lon="1.77261">
        <ele>2175.8</ele>
        <time>2024-07-10T15:42:32Z</time>
      </trkpt>
      <trkpt lat="42.61307" lon="1.77272">
        <ele>2175.2</ele>
        <time>2024-07-10T15:42:40Z</time>
      </trkpt>
      <trkpt lat="42.61306" lon="1.77275">
        <ele>2175.2</ele>
        <time>2024-07-10T15:42:42Z</time>
      </trkpt>
      <trkpt lat="42.61304" lon="1.77282">
        <ele>2175</ele>
        <time>2024-07-10T15:42:46Z</time>
      </trkpt>
      <trkpt lat="42.613" lon="1.77302">
        <ele>2175</ele>
        <time>2024-07-10T15:42:58Z</time>
      </trkpt>
      <trkpt lat="42.61295" lon="1.77314">
        <ele>2174.4</ele>
        <time>2024-07-10T15:43:06Z</time>
      </trkpt>
      <trkpt lat="42.61289" lon="1.77325">
        <ele>2175</ele>
        <time>2024-07-10T15:43:14Z</time>
      </trkpt>
      <trkpt lat="42.61285" lon="1.77337">
        <ele>2175.8</ele>
        <time>2024-07-10T15:43:23Z</time>
      </trkpt>
      <trkpt lat="42.61282" lon="1.77351">
        <ele>2176</ele>
        <time>2024-07-10T15:43:31Z</time>
      </trkpt>
      <trkpt lat="42.61279" lon="1.77358">
        <ele>2176.4</ele>
        <time>2024-07-10T15:43:36Z</time>
      </trkpt>
      <trkpt lat="42.61279" lon="1.77361">
        <ele>2176.4</ele>
        <time>2024-07-10T15:43:38Z</time>
      </trkpt>
      <trkpt lat="42.61277" lon="1.77373">
        <ele>2175</ele>
        <time>2024-07-10T15:43:45Z</time>
      </trkpt>
      <trkpt lat="42.61274" lon="1.77383">
        <ele>2173.2</ele>
        <time>2024-07-10T15:43:52Z</time>
      </trkpt>
      <trkpt lat="42.61269" lon="1.77393">
        <ele>2170.2</ele>
        <time>2024-07-10T15:44:00Z</time>
      </trkpt>
      <trkpt lat="42.61262" lon="1.77401">
        <ele>2168</ele>
        <time>2024-07-10T15:44:09Z</time>
      </trkpt>
      <trkpt lat="42.6126" lon="1.77412">
        <ele>2165.8</ele>
        <time>2024-07-10T15:44:16Z</time>
      </trkpt>
      <trkpt lat="42.61259" lon="1.77425">
        <ele>2164.4</ele>
        <time>2024-07-10T15:44:24Z</time>
      </trkpt>
      <trkpt lat="42.61251" lon="1.7744">
        <ele>2162.4</ele>
        <time>2024-07-10T15:44:33Z</time>
      </trkpt>
      <trkpt lat="42.6124" lon="1.77456">
        <ele>2161.2</ele>
        <time>2024-07-10T15:44:46Z</time>
      </trkpt>
      <trkpt lat="42.61232" lon="1.77466">
        <ele>2161</ele>
        <time>2024-07-10T15:44:54Z</time>
      </trkpt>
      <trkpt lat="42.61216" lon="1.77478">
        <ele>2160.4</ele>
        <time>2024-07-10T15:45:08Z</time>
      </trkpt>
      <trkpt lat="42.61209" lon="1.77492">
        <ele>2157</ele>
        <time>2024-07-10T15:45:18Z</time>
      </trkpt>
      <trkpt lat="42.61207" lon="1.77506">
        <ele>2155.6</ele>
        <time>2024-07-10T15:45:25Z</time>
      </trkpt>
      <trkpt lat="42.61206" lon="1.77522">
        <ele>2155.4</ele>
        <time>2024-07-10T15:45:34Z</time>
      </trkpt>
      <trkpt lat="42.61209" lon="1.77525">
        <ele>2155.6</ele>
        <time>2024-07-10T15:45:38Z</time>
      </trkpt>
      <trkpt lat="42.61208" lon="1.77528">
        <ele>2155.8</ele>
        <time>2024-07-10T15:45:40Z</time>
      </trkpt>
      <trkpt lat="42.61207" lon="1.77538">
        <ele>2157</ele>
        <time>2024-07-10T15:45:47Z</time>
      </trkpt>
      <trkpt lat="42.61205" lon="1.77553">
        <ele>2156.6</ele>
        <time>2024-07-10T15:45:57Z</time>
      </trkpt>
      <trkpt lat="42.61204" lon="1.77555">
        <ele>2155.8</ele>
        <time>2024-07-10T15:45:59Z</time>
      </trkpt>
      <trkpt lat="42.61203" lon="1.7756">
        <ele>2154.4</ele>
        <time>2024-07-10T15:46:04Z</time>
      </trkpt>
      <trkpt lat="42.61199" lon="1.77562">
        <ele>2153.2</ele>
        <time>2024-07-10T15:46:09Z</time>
      </trkpt>
      <trkpt lat="42.61197" lon="1.77563">
        <ele>2153</ele>
        <time>2024-07-10T15:46:10Z</time>
      </trkpt>
      <trkpt lat="42.6119" lon="1.77569">
        <ele>2152.2</ele>
        <time>2024-07-10T15:46:16Z</time>
      </trkpt>
      <trkpt lat="42.6119" lon="1.77571">
        <ele>2151.8</ele>
        <time>2024-07-10T15:46:18Z</time>
      </trkpt>
      <trkpt lat="42.61188" lon="1.77572">
        <ele>2151</ele>
        <time>2024-07-10T15:46:21Z</time>
      </trkpt>
      <trkpt lat="42.61187" lon="1.77572">
        <ele>2150.8</ele>
        <time>2024-07-10T15:46:22Z</time>
      </trkpt>
      <trkpt lat="42.61187" lon="1.77578">
        <ele>2150.2</ele>
        <time>2024-07-10T15:46:26Z</time>
      </trkpt>
      <trkpt lat="42.61184" lon="1.77588">
        <ele>2148.6</ele>
        <time>2024-07-10T15:46:34Z</time>
      </trkpt>
      <trkpt lat="42.61181" lon="1.77599">
        <ele>2146.2</ele>
        <time>2024-07-10T15:46:42Z</time>
      </trkpt>
      <trkpt lat="42.61175" lon="1.77609">
        <ele>2143.6</ele>
        <time>2024-07-10T15:46:51Z</time>
      </trkpt>
      <trkpt lat="42.61169" lon="1.77618">
        <ele>2140.4</ele>
        <time>2024-07-10T15:46:59Z</time>
      </trkpt>
      <trkpt lat="42.61166" lon="1.77626">
        <ele>2138.6</ele>
        <time>2024-07-10T15:47:05Z</time>
      </trkpt>
      <trkpt lat="42.61165" lon="1.77627">
        <ele>2138.2</ele>
        <time>2024-07-10T15:47:07Z</time>
      </trkpt>
      <trkpt lat="42.61161" lon="1.77631">
        <ele>2137</ele>
        <time>2024-07-10T15:47:13Z</time>
      </trkpt>
      <trkpt lat="42.6116" lon="1.77632">
        <ele>2136.8</ele>
        <time>2024-07-10T15:47:14Z</time>
      </trkpt>
      <trkpt lat="42.61153" lon="1.77635">
        <ele>2134.6</ele>
        <time>2024-07-10T15:47:22Z</time>
      </trkpt>
      <trkpt lat="42.6115" lon="1.77634">
        <ele>2133</ele>
        <time>2024-07-10T15:47:26Z</time>
      </trkpt>
      <trkpt lat="42.61147" lon="1.77636">
        <ele>2131</ele>
        <time>2024-07-10T15:47:30Z</time>
      </trkpt>
      <trkpt lat="42.61141" lon="1.77641">
        <ele>2128.2</ele>
        <time>2024-07-10T15:47:36Z</time>
      </trkpt>
      <trkpt lat="42.61133" lon="1.77646">
        <ele>2127</ele>
        <time>2024-07-10T15:47:45Z</time>
      </trkpt>
      <trkpt lat="42.61133" lon="1.77646">
        <ele>2126.8</ele>
        <time>2024-07-10T15:47:46Z</time>
      </trkpt>
      <trkpt lat="42.61131" lon="1.77648">
        <ele>2126.2</ele>
        <time>2024-07-10T15:47:48Z</time>
      </trkpt>
      <trkpt lat="42.61129" lon="1.77647">
        <ele>2125.4</ele>
        <time>2024-07-10T15:47:50Z</time>
      </trkpt>
      <trkpt lat="42.61129" lon="1.77649">
        <ele>2124.8</ele>
        <time>2024-07-10T15:47:52Z</time>
      </trkpt>
      <trkpt lat="42.61128" lon="1.77652">
        <ele>2124</ele>
        <time>2024-07-10T15:47:55Z</time>
      </trkpt>
      <trkpt lat="42.61127" lon="1.77652">
        <ele>2123</ele>
        <time>2024-07-10T15:47:57Z</time>
      </trkpt>
      <trkpt lat="42.61126" lon="1.77654">
        <ele>2122</ele>
        <time>2024-07-10T15:47:59Z</time>
      </trkpt>
      <trkpt lat="42.61121" lon="1.77657">
        <ele>2120</ele>
        <time>2024-07-10T15:48:06Z</time>
      </trkpt>
      <trkpt lat="42.61119" lon="1.77659">
        <ele>2118</ele>
        <time>2024-07-10T15:48:13Z</time>
      </trkpt>
      <trkpt lat="42.61116" lon="1.77663">
        <ele>2116.6</ele>
        <time>2024-07-10T15:48:19Z</time>
      </trkpt>
      <trkpt lat="42.6111" lon="1.77667">
        <ele>2113.2</ele>
        <time>2024-07-10T15:48:28Z</time>
      </trkpt>
      <trkpt lat="42.61105" lon="1.77671">
        <ele>2111</ele>
        <time>2024-07-10T15:48:34Z</time>
      </trkpt>
      <trkpt lat="42.61103" lon="1.77679">
        <ele>2107.6</ele>
        <time>2024-07-10T15:48:40Z</time>
      </trkpt>
      <trkpt lat="42.61095" lon="1.77685">
        <ele>2105.6</ele>
        <time>2024-07-10T15:48:48Z</time>
      </trkpt>
      <trkpt lat="42.61084" lon="1.77692">
        <ele>2103.8</ele>
        <time>2024-07-10T15:48:59Z</time>
      </trkpt>
      <trkpt lat="42.61073" lon="1.77696">
        <ele>2101</ele>
        <time>2024-07-10T15:49:08Z</time>
      </trkpt>
      <trkpt lat="42.61065" lon="1.77699">
        <ele>2100.2</ele>
        <time>2024-07-10T15:49:14Z</time>
      </trkpt>
      <trkpt lat="42.61063" lon="1.77701">
        <ele>2100</ele>
        <time>2024-07-10T15:49:16Z</time>
      </trkpt>
      <trkpt lat="42.61057" lon="1.77705">
        <ele>2099</ele>
        <time>2024-07-10T15:49:21Z</time>
      </trkpt>
      <trkpt lat="42.61054" lon="1.77706">
        <ele>2098.8</ele>
        <time>2024-07-10T15:49:24Z</time>
      </trkpt>
      <trkpt lat="42.61048" lon="1.77714">
        <ele>2098.6</ele>
        <time>2024-07-10T15:49:31Z</time>
      </trkpt>
      <trkpt lat="42.61036" lon="1.77719">
        <ele>2098</ele>
        <time>2024-07-10T15:49:41Z</time>
      </trkpt>
      <trkpt lat="42.6102" lon="1.77724">
        <ele>2097.4</ele>
        <time>2024-07-10T15:49:53Z</time>
      </trkpt>
      <trkpt lat="42.6101" lon="1.77725">
        <ele>2095.4</ele>
        <time>2024-07-10T15:50:02Z</time>
      </trkpt>
      <trkpt lat="42.61009" lon="1.77736">
        <ele>2094.8</ele>
        <time>2024-07-10T15:50:10Z</time>
      </trkpt>
      <trkpt lat="42.61003" lon="1.77754">
        <ele>2093.2</ele>
        <time>2024-07-10T15:50:21Z</time>
      </trkpt>
      <trkpt lat="42.61" lon="1.77767">
        <ele>2093.6</ele>
        <time>2024-07-10T15:50:30Z</time>
      </trkpt>
      <trkpt lat="42.60999" lon="1.77768">
        <ele>2093.8</ele>
        <time>2024-07-10T15:50:31Z</time>
      </trkpt>
      <trkpt lat="42.60995" lon="1.77776">
        <ele>2094.6</ele>
        <time>2024-07-10T15:50:37Z</time>
      </trkpt>
      <trkpt lat="42.60992" lon="1.77779">
        <ele>2094</ele>
        <time>2024-07-10T15:50:42Z</time>
      </trkpt>
      <trkpt lat="42.60989" lon="1.77779">
        <ele>2093.4</ele>
        <time>2024-07-10T15:50:45Z</time>
      </trkpt>
      <trkpt lat="42.60987" lon="1.77781">
        <ele>2093.2</ele>
        <time>2024-07-10T15:50:47Z</time>
      </trkpt>
      <trkpt lat="42.60987" lon="1.77788">
        <ele>2093.2</ele>
        <time>2024-07-10T15:50:51Z</time>
      </trkpt>
      <trkpt lat="42.60987" lon="1.77798">
        <ele>2093</ele>
        <time>2024-07-10T15:50:58Z</time>
      </trkpt>
      <trkpt lat="42.60985" lon="1.778">
        <ele>2092.8</ele>
        <time>2024-07-10T15:51:00Z</time>
      </trkpt>
      <trkpt lat="42.60979" lon="1.77805">
        <ele>2091.6</ele>
        <time>2024-07-10T15:51:06Z</time>
      </trkpt>
      <trkpt lat="42.60976" lon="1.77806">
        <ele>2091</ele>
        <time>2024-07-10T15:51:08Z</time>
      </trkpt>
      <trkpt lat="42.60969" lon="1.7781">
        <ele>2089.6</ele>
        <time>2024-07-10T15:51:15Z</time>
      </trkpt>
      <trkpt lat="42.60969" lon="1.7781">
        <ele>2089.2</ele>
        <time>2024-07-10T15:51:16Z</time>
      </trkpt>
      <trkpt lat="42.60968" lon="1.77811">
        <ele>2088.8</ele>
        <time>2024-07-10T15:51:18Z</time>
      </trkpt>
      <trkpt lat="42.60969" lon="1.77813">
        <ele>2088.4</ele>
        <time>2024-07-10T15:51:20Z</time>
      </trkpt>
      <trkpt lat="42.60967" lon="1.77822">
        <ele>2087.2</ele>
        <time>2024-07-10T15:51:26Z</time>
      </trkpt>
      <trkpt lat="42.60965" lon="1.77826">
        <ele>2086.8</ele>
        <time>2024-07-10T15:51:29Z</time>
      </trkpt>
      <trkpt lat="42.6096" lon="1.77826">
        <ele>2084.2</ele>
        <time>2024-07-10T15:51:34Z</time>
      </trkpt>
      <trkpt lat="42.60958" lon="1.77826">
        <ele>2083.4</ele>
        <time>2024-07-10T15:51:36Z</time>
      </trkpt>
      <trkpt lat="42.60953" lon="1.77827">
        <ele>2082.4</ele>
        <time>2024-07-10T15:51:41Z</time>
      </trkpt>
      <trkpt lat="42.60945" lon="1.7783">
        <ele>2080.4</ele>
        <time>2024-07-10T15:51:49Z</time>
      </trkpt>
      <trkpt lat="42.60943" lon="1.77832">
        <ele>2078.2</ele>
        <time>2024-07-10T15:51:55Z</time>
      </trkpt>
      <trkpt lat="42.60939" lon="1.77835">
        <ele>2077</ele>
        <time>2024-07-10T15:52:00Z</time>
      </trkpt>
      <trkpt lat="42.60937" lon="1.77835">
        <ele>2076.8</ele>
        <time>2024-07-10T15:52:02Z</time>
      </trkpt>
      <trkpt lat="42.60934" lon="1.77833">
        <ele>2076.4</ele>
        <time>2024-07-10T15:52:05Z</time>
      </trkpt>
      <trkpt lat="42.60933" lon="1.77833">
        <ele>2076.2</ele>
        <time>2024-07-10T15:52:07Z</time>
      </trkpt>
      <trkpt lat="42.60933" lon="1.77834">
        <ele>2076.2</ele>
        <time>2024-07-10T15:52:08Z</time>
      </trkpt>
      <trkpt lat="42.60933" lon="1.77836">
        <ele>2075.8</ele>
        <time>2024-07-10T15:52:10Z</time>
      </trkpt>
      <trkpt lat="42.60934" lon="1.77839">
        <ele>2075.4</ele>
        <time>2024-07-10T15:52:13Z</time>
      </trkpt>
      <trkpt lat="42.60933" lon="1.77845">
        <ele>2075</ele>
        <time>2024-07-10T15:52:18Z</time>
      </trkpt>
      <trkpt lat="42.60926" lon="1.77855">
        <ele>2073.8</ele>
        <time>2024-07-10T15:52:26Z</time>
      </trkpt>
      <trkpt lat="42.60917" lon="1.77863">
        <ele>2071.8</ele>
        <time>2024-07-10T15:52:34Z</time>
      </trkpt>
      <trkpt lat="42.60914" lon="1.77863">
        <ele>2070.8</ele>
        <time>2024-07-10T15:52:37Z</time>
      </trkpt>
      <trkpt lat="42.60911" lon="1.77866">
        <ele>2070</ele>
        <time>2024-07-10T15:52:40Z</time>
      </trkpt>
      <trkpt lat="42.60908" lon="1.77869">
        <ele>2069.4</ele>
        <time>2024-07-10T15:52:43Z</time>
      </trkpt>
      <trkpt lat="42.60903" lon="1.7787">
        <ele>2069</ele>
        <time>2024-07-10T15:52:47Z</time>
      </trkpt>
      <trkpt lat="42.60896" lon="1.77875">
        <ele>2069.6</ele>
        <time>2024-07-10T15:52:54Z</time>
      </trkpt>
      <trkpt lat="42.6089" lon="1.77882">
        <ele>2069.8</ele>
        <time>2024-07-10T15:53:01Z</time>
      </trkpt>
      <trkpt lat="42.60889" lon="1.77883">
        <ele>2069.8</ele>
        <time>2024-07-10T15:53:02Z</time>
      </trkpt>
      <trkpt lat="42.60883" lon="1.77884">
        <ele>2069.6</ele>
        <time>2024-07-10T15:53:07Z</time>
      </trkpt>
      <trkpt lat="42.60875" lon="1.77891">
        <ele>2068.8</ele>
        <time>2024-07-10T15:53:13Z</time>
      </trkpt>
      <trkpt lat="42.60874" lon="1.77891">
        <ele>2068.6</ele>
        <time>2024-07-10T15:53:14Z</time>
      </trkpt>
      <trkpt lat="42.6087" lon="1.7789">
        <ele>2068.4</ele>
        <time>2024-07-10T15:53:18Z</time>
      </trkpt>
      <trkpt lat="42.60866" lon="1.77893">
        <ele>2067.6</ele>
        <time>2024-07-10T15:53:22Z</time>
      </trkpt>
      <trkpt lat="42.60862" lon="1.77901">
        <ele>2066.6</ele>
        <time>2024-07-10T15:53:27Z</time>
      </trkpt>
      <trkpt lat="42.60862" lon="1.77905">
        <ele>2066.4</ele>
        <time>2024-07-10T15:53:30Z</time>
      </trkpt>
      <trkpt lat="42.60856" lon="1.7791">
        <ele>2065.4</ele>
        <time>2024-07-10T15:53:37Z</time>
      </trkpt>
      <trkpt lat="42.60846" lon="1.7792">
        <ele>2064.4</ele>
        <time>2024-07-10T15:53:46Z</time>
      </trkpt>
      <trkpt lat="42.60835" lon="1.77932">
        <ele>2064</ele>
        <time>2024-07-10T15:53:56Z</time>
      </trkpt>
      <trkpt lat="42.60828" lon="1.7794">
        <ele>2064</ele>
        <time>2024-07-10T15:54:03Z</time>
      </trkpt>
      <trkpt lat="42.60816" lon="1.77945">
        <ele>2063.8</ele>
        <time>2024-07-10T15:54:12Z</time>
      </trkpt>
      <trkpt lat="42.60805" lon="1.77949">
        <ele>2063.6</ele>
        <time>2024-07-10T15:54:20Z</time>
      </trkpt>
      <trkpt lat="42.60794" lon="1.77952">
        <ele>2063.4</ele>
        <time>2024-07-10T15:54:28Z</time>
      </trkpt>
      <trkpt lat="42.60785" lon="1.77959">
        <ele>2063</ele>
        <time>2024-07-10T15:54:36Z</time>
      </trkpt>
      <trkpt lat="42.60781" lon="1.77962">
        <ele>2062.6</ele>
        <time>2024-07-10T15:54:40Z</time>
      </trkpt>
      <trkpt lat="42.60777" lon="1.7796">
        <ele>2062.4</ele>
        <time>2024-07-10T15:54:43Z</time>
      </trkpt>
      <trkpt lat="42.60766" lon="1.77957">
        <ele>2061.8</ele>
        <time>2024-07-10T15:54:53Z</time>
      </trkpt>
      <trkpt lat="42.60756" lon="1.77962">
        <ele>2059.8</ele>
        <time>2024-07-10T15:55:01Z</time>
      </trkpt>
      <trkpt lat="42.60754" lon="1.77963">
        <ele>2059.6</ele>
        <time>2024-07-10T15:55:07Z</time>
      </trkpt>
      <trkpt lat="42.60751" lon="1.77964">
        <ele>2060.2</ele>
        <time>2024-07-10T15:55:28Z</time>
      </trkpt>
      <trkpt lat="42.60738" lon="1.77962">
        <ele>2060</ele>
        <time>2024-07-10T15:55:37Z</time>
      </trkpt>
      <trkpt lat="42.60726" lon="1.77957">
        <ele>2059.2</ele>
        <time>2024-07-10T15:55:46Z</time>
      </trkpt>
      <trkpt lat="42.60721" lon="1.77947">
        <ele>2057.8</ele>
        <time>2024-07-10T15:55:53Z</time>
      </trkpt>
      <trkpt lat="42.60713" lon="1.77939">
        <ele>2059</ele>
        <time>2024-07-10T15:56:01Z</time>
      </trkpt>
      <trkpt lat="42.60712" lon="1.77938">
        <ele>2059.2</ele>
        <time>2024-07-10T15:56:03Z</time>
      </trkpt>
      <trkpt lat="42.60712" lon="1.77937">
        <ele>2059.4</ele>
        <time>2024-07-10T15:56:06Z</time>
      </trkpt>
      <trkpt lat="42.60711" lon="1.77936">
        <ele>2059.4</ele>
        <time>2024-07-10T15:56:18Z</time>
      </trkpt>
      <trkpt lat="42.60708" lon="1.77932">
        <ele>2059.8</ele>
        <time>2024-07-10T15:57:01Z</time>
      </trkpt>
      <trkpt lat="42.60705" lon="1.77931">
        <ele>2059.8</ele>
        <time>2024-07-10T15:57:07Z</time>
      </trkpt>
      <trkpt lat="42.607" lon="1.77931">
        <ele>2059.8</ele>
        <time>2024-07-10T15:57:22Z</time>
      </trkpt>
      <trkpt lat="42.60684" lon="1.7793">
        <ele>2057.8</ele>
        <time>2024-07-10T15:57:32Z</time>
      </trkpt>
      <trkpt lat="42.60673" lon="1.77934">
        <ele>2055.6</ele>
        <time>2024-07-10T15:57:40Z</time>
      </trkpt>
      <trkpt lat="42.6066" lon="1.77941">
        <ele>2055.4</ele>
        <time>2024-07-10T15:57:50Z</time>
      </trkpt>
      <trkpt lat="42.60651" lon="1.7794">
        <ele>2054.4</ele>
        <time>2024-07-10T15:57:57Z</time>
      </trkpt>
      <trkpt lat="42.60641" lon="1.77945">
        <ele>2052</ele>
        <time>2024-07-10T15:58:05Z</time>
      </trkpt>
      <trkpt lat="42.60632" lon="1.77946">
        <ele>2050.8</ele>
        <time>2024-07-10T15:58:13Z</time>
      </trkpt>
      <trkpt lat="42.60623" lon="1.77956">
        <ele>2048.8</ele>
        <time>2024-07-10T15:58:22Z</time>
      </trkpt>
      <trkpt lat="42.60622" lon="1.77958">
        <ele>2048.6</ele>
        <time>2024-07-10T15:58:24Z</time>
      </trkpt>
      <trkpt lat="42.60618" lon="1.77961">
        <ele>2048.4</ele>
        <time>2024-07-10T15:58:27Z</time>
      </trkpt>
      <trkpt lat="42.60608" lon="1.77963">
        <ele>2048</ele>
        <time>2024-07-10T15:58:35Z</time>
      </trkpt>
      <trkpt lat="42.60595" lon="1.77967">
        <ele>2046.4</ele>
        <time>2024-07-10T15:58:45Z</time>
      </trkpt>
      <trkpt lat="42.60582" lon="1.77972">
        <ele>2045.8</ele>
        <time>2024-07-10T15:58:56Z</time>
      </trkpt>
      <trkpt lat="42.60573" lon="1.77983">
        <ele>2044.2</ele>
        <time>2024-07-10T15:59:05Z</time>
      </trkpt>
      <trkpt lat="42.60567" lon="1.77994">
        <ele>2042.2</ele>
        <time>2024-07-10T15:59:13Z</time>
      </trkpt>
      <trkpt lat="42.60564" lon="1.77995">
        <ele>2042.2</ele>
        <time>2024-07-10T15:59:15Z</time>
      </trkpt>
      <trkpt lat="42.60558" lon="1.77995">
        <ele>2042.6</ele>
        <time>2024-07-10T15:59:20Z</time>
      </trkpt>
      <trkpt lat="42.60549" lon="1.77996">
        <ele>2043.4</ele>
        <time>2024-07-10T15:59:27Z</time>
      </trkpt>
      <trkpt lat="42.6054" lon="1.78003">
        <ele>2043.8</ele>
        <time>2024-07-10T15:59:36Z</time>
      </trkpt>
      <trkpt lat="42.6053" lon="1.78005">
        <ele>2042.2</ele>
        <time>2024-07-10T15:59:44Z</time>
      </trkpt>
      <trkpt lat="42.60523" lon="1.78009">
        <ele>2042.2</ele>
        <time>2024-07-10T15:59:51Z</time>
      </trkpt>
      <trkpt lat="42.60521" lon="1.78009">
        <ele>2042.2</ele>
        <time>2024-07-10T15:59:54Z</time>
      </trkpt>
      <trkpt lat="42.60518" lon="1.78012">
        <ele>2041.6</ele>
        <time>2024-07-10T15:59:57Z</time>
      </trkpt>
      <trkpt lat="42.60508" lon="1.78011">
        <ele>2039.6</ele>
        <time>2024-07-10T16:00:05Z</time>
      </trkpt>
      <trkpt lat="42.60499" lon="1.7801">
        <ele>2038.2</ele>
        <time>2024-07-10T16:00:12Z</time>
      </trkpt>
      <trkpt lat="42.60489" lon="1.78009">
        <ele>2037</ele>
        <time>2024-07-10T16:00:19Z</time>
      </trkpt>
      <trkpt lat="42.60482" lon="1.78014">
        <ele>2036</ele>
        <time>2024-07-10T16:00:25Z</time>
      </trkpt>
      <trkpt lat="42.60481" lon="1.78014">
        <ele>2035.8</ele>
        <time>2024-07-10T16:00:26Z</time>
      </trkpt>
      <trkpt lat="42.60473" lon="1.78016">
        <ele>2035</ele>
        <time>2024-07-10T16:00:34Z</time>
      </trkpt>
      <trkpt lat="42.60473" lon="1.78016">
        <ele>2034.8</ele>
        <time>2024-07-10T16:00:35Z</time>
      </trkpt>
      <trkpt lat="42.60472" lon="1.78016">
        <ele>2034.6</ele>
        <time>2024-07-10T16:00:39Z</time>
      </trkpt>
      <trkpt lat="42.60471" lon="1.78014">
        <ele>2034.2</ele>
        <time>2024-07-10T16:00:50Z</time>
      </trkpt>
      <trkpt lat="42.60472" lon="1.78023">
        <ele>2032.2</ele>
        <time>2024-07-10T16:00:56Z</time>
      </trkpt>
      <trkpt lat="42.6047" lon="1.78033">
        <ele>2030.4</ele>
        <time>2024-07-10T16:01:02Z</time>
      </trkpt>
      <trkpt lat="42.60463" lon="1.78044">
        <ele>2029.2</ele>
        <time>2024-07-10T16:01:10Z</time>
      </trkpt>
      <trkpt lat="42.60452" lon="1.78051">
        <ele>2028.8</ele>
        <time>2024-07-10T16:01:19Z</time>
      </trkpt>
      <trkpt lat="42.6045" lon="1.78058">
        <ele>2029.2</ele>
        <time>2024-07-10T16:01:24Z</time>
      </trkpt>
      <trkpt lat="42.60449" lon="1.78057">
        <ele>2029.2</ele>
        <time>2024-07-10T16:01:25Z</time>
      </trkpt>
      <trkpt lat="42.60439" lon="1.78054">
        <ele>2029.6</ele>
        <time>2024-07-10T16:01:33Z</time>
      </trkpt>
      <trkpt lat="42.6043" lon="1.78049">
        <ele>2030</ele>
        <time>2024-07-10T16:01:41Z</time>
      </trkpt>
      <trkpt lat="42.6042" lon="1.78041">
        <ele>2030.2</ele>
        <time>2024-07-10T16:01:49Z</time>
      </trkpt>
      <trkpt lat="42.60412" lon="1.78038">
        <ele>2030.6</ele>
        <time>2024-07-10T16:01:56Z</time>
      </trkpt>
      <trkpt lat="42.60405" lon="1.78029">
        <ele>2030.6</ele>
        <time>2024-07-10T16:02:04Z</time>
      </trkpt>
      <trkpt lat="42.60401" lon="1.78023">
        <ele>2029.8</ele>
        <time>2024-07-10T16:02:09Z</time>
      </trkpt>
      <trkpt lat="42.60399" lon="1.78022">
        <ele>2029.4</ele>
        <time>2024-07-10T16:02:11Z</time>
      </trkpt>
      <trkpt lat="42.60394" lon="1.7801">
        <ele>2027.6</ele>
        <time>2024-07-10T16:02:18Z</time>
      </trkpt>
      <trkpt lat="42.60392" lon="1.78002">
        <ele>2025.6</ele>
        <time>2024-07-10T16:02:23Z</time>
      </trkpt>
      <trkpt lat="42.60389" lon="1.78">
        <ele>2025</ele>
        <time>2024-07-10T16:02:26Z</time>
      </trkpt>
      <trkpt lat="42.60381" lon="1.77993">
        <ele>2023.6</ele>
        <time>2024-07-10T16:02:34Z</time>
      </trkpt>
      <trkpt lat="42.60373" lon="1.77989">
        <ele>2023.2</ele>
        <time>2024-07-10T16:02:41Z</time>
      </trkpt>
      <trkpt lat="42.60373" lon="1.77988">
        <ele>2023.2</ele>
        <time>2024-07-10T16:02:42Z</time>
      </trkpt>
      <trkpt lat="42.60373" lon="1.77987">
        <ele>2023.2</ele>
        <time>2024-07-10T16:02:43Z</time>
      </trkpt>
      <trkpt lat="42.60374" lon="1.77987">
        <ele>2023.6</ele>
        <time>2024-07-10T16:02:46Z</time>
      </trkpt>
      <trkpt lat="42.60374" lon="1.77988">
        <ele>2024.6</ele>
        <time>2024-07-10T16:02:54Z</time>
      </trkpt>
      <trkpt lat="42.6037" lon="1.77989">
        <ele>2024.8</ele>
        <time>2024-07-10T16:03:45Z</time>
      </trkpt>
      <trkpt lat="42.60362" lon="1.77997">
        <ele>2023.2</ele>
        <time>2024-07-10T16:03:52Z</time>
      </trkpt>
      <trkpt lat="42.60353" lon="1.78001">
        <ele>2020.2</ele>
        <time>2024-07-10T16:04:00Z</time>
      </trkpt>
      <trkpt lat="42.60345" lon="1.78003">
        <ele>2017.8</ele>
        <time>2024-07-10T16:04:08Z</time>
      </trkpt>
      <trkpt lat="42.60333" lon="1.77998">
        <ele>2018</ele>
        <time>2024-07-10T16:04:18Z</time>
      </trkpt>
      <trkpt lat="42.6033" lon="1.7799">
        <ele>2019.2</ele>
        <time>2024-07-10T16:04:24Z</time>
      </trkpt>
      <trkpt lat="42.60323" lon="1.77984">
        <ele>2019</ele>
        <time>2024-07-10T16:04:31Z</time>
      </trkpt>
      <trkpt lat="42.60314" lon="1.77986">
        <ele>2016.4</ele>
        <time>2024-07-10T16:04:39Z</time>
      </trkpt>
      <trkpt lat="42.60303" lon="1.77992">
        <ele>2012.8</ele>
        <time>2024-07-10T16:04:47Z</time>
      </trkpt>
      <trkpt lat="42.60296" lon="1.77996">
        <ele>2011.6</ele>
        <time>2024-07-10T16:04:53Z</time>
      </trkpt>
      <trkpt lat="42.60295" lon="1.77999">
        <ele>2011.4</ele>
        <time>2024-07-10T16:04:55Z</time>
      </trkpt>
      <trkpt lat="42.60286" lon="1.7801">
        <ele>2008.8</ele>
        <time>2024-07-10T16:05:05Z</time>
      </trkpt>
      <trkpt lat="42.60281" lon="1.78018">
        <ele>2006.8</ele>
        <time>2024-07-10T16:05:13Z</time>
      </trkpt>
      <trkpt lat="42.60281" lon="1.7802">
        <ele>2006.4</ele>
        <time>2024-07-10T16:05:14Z</time>
      </trkpt>
      <trkpt lat="42.60274" lon="1.78031">
        <ele>2005</ele>
        <time>2024-07-10T16:05:23Z</time>
      </trkpt>
      <trkpt lat="42.60267" lon="1.78035">
        <ele>2004.8</ele>
        <time>2024-07-10T16:05:30Z</time>
      </trkpt>
      <trkpt lat="42.60265" lon="1.78036">
        <ele>2004.8</ele>
        <time>2024-07-10T16:05:32Z</time>
      </trkpt>
      <trkpt lat="42.60255" lon="1.78041">
        <ele>2004.2</ele>
        <time>2024-07-10T16:05:42Z</time>
      </trkpt>
      <trkpt lat="42.60247" lon="1.78049">
        <ele>2001.6</ele>
        <time>2024-07-10T16:05:50Z</time>
      </trkpt>
      <trkpt lat="42.60237" lon="1.78062">
        <ele>2000.6</ele>
        <time>2024-07-10T16:05:59Z</time>
      </trkpt>
      <trkpt lat="42.60229" lon="1.78073">
        <ele>2001</ele>
        <time>2024-07-10T16:06:08Z</time>
      </trkpt>
      <trkpt lat="42.60226" lon="1.78083">
        <ele>1999.4</ele>
        <time>2024-07-10T16:06:15Z</time>
      </trkpt>
      <trkpt lat="42.60224" lon="1.78092">
        <ele>1997.8</ele>
        <time>2024-07-10T16:06:22Z</time>
      </trkpt>
      <trkpt lat="42.60219" lon="1.78102">
        <ele>1997</ele>
        <time>2024-07-10T16:06:31Z</time>
      </trkpt>
      <trkpt lat="42.60213" lon="1.78112">
        <ele>1996.8</ele>
        <time>2024-07-10T16:06:38Z</time>
      </trkpt>
      <trkpt lat="42.60211" lon="1.78101">
        <ele>1996.8</ele>
        <time>2024-07-10T16:06:41Z</time>
      </trkpt>
      <trkpt lat="42.60206" lon="1.78114">
        <ele>1996.6</ele>
        <time>2024-07-10T16:06:44Z</time>
      </trkpt>
      <trkpt lat="42.60205" lon="1.78115">
        <ele>1995.2</ele>
        <time>2024-07-10T16:06:51Z</time>
      </trkpt>
      <trkpt lat="42.602" lon="1.78117">
        <ele>1995</ele>
        <time>2024-07-10T16:06:57Z</time>
      </trkpt>
      <trkpt lat="42.60191" lon="1.78123">
        <ele>1995.2</ele>
        <time>2024-07-10T16:07:05Z</time>
      </trkpt>
      <trkpt lat="42.60184" lon="1.78128">
        <ele>1992.4</ele>
        <time>2024-07-10T16:07:12Z</time>
      </trkpt>
      <trkpt lat="42.6018" lon="1.78136">
        <ele>1991</ele>
        <time>2024-07-10T16:07:19Z</time>
      </trkpt>
      <trkpt lat="42.6017" lon="1.78144">
        <ele>1992</ele>
        <time>2024-07-10T16:07:28Z</time>
      </trkpt>
      <trkpt lat="42.60164" lon="1.78147">
        <ele>1992.2</ele>
        <time>2024-07-10T16:07:34Z</time>
      </trkpt>
      <trkpt lat="42.60163" lon="1.78148">
        <ele>1992.2</ele>
        <time>2024-07-10T16:07:35Z</time>
      </trkpt>
      <trkpt lat="42.60158" lon="1.78153">
        <ele>1991</ele>
        <time>2024-07-10T16:07:41Z</time>
      </trkpt>
      <trkpt lat="42.60154" lon="1.78164">
        <ele>1989.6</ele>
        <time>2024-07-10T16:07:48Z</time>
      </trkpt>
      <trkpt lat="42.60147" lon="1.78177">
        <ele>1992</ele>
        <time>2024-07-10T16:07:58Z</time>
      </trkpt>
      <trkpt lat="42.60139" lon="1.78187">
        <ele>1993</ele>
        <time>2024-07-10T16:08:07Z</time>
      </trkpt>
      <trkpt lat="42.60134" lon="1.78195">
        <ele>1994.6</ele>
        <time>2024-07-10T16:08:15Z</time>
      </trkpt>
      <trkpt lat="42.60133" lon="1.78196">
        <ele>1994.8</ele>
        <time>2024-07-10T16:08:16Z</time>
      </trkpt>
      <trkpt lat="42.6013" lon="1.78202">
        <ele>1995.4</ele>
        <time>2024-07-10T16:08:21Z</time>
      </trkpt>
      <trkpt lat="42.60129" lon="1.78202">
        <ele>1995.8</ele>
        <time>2024-07-10T16:08:26Z</time>
      </trkpt>
      <trkpt lat="42.60129" lon="1.78202">
        <ele>1996.2</ele>
        <time>2024-07-10T16:08:31Z</time>
      </trkpt>
      <trkpt lat="42.60129" lon="1.78202">
        <ele>1997.8</ele>
        <time>2024-07-10T16:08:38Z</time>
      </trkpt>
      <trkpt lat="42.60125" lon="1.78206">
        <ele>1998.4</ele>
        <time>2024-07-10T16:08:51Z</time>
      </trkpt>
      <trkpt lat="42.60119" lon="1.78216">
        <ele>1998.8</ele>
        <time>2024-07-10T16:08:57Z</time>
      </trkpt>
      <trkpt lat="42.60113" lon="1.78223">
        <ele>1999.4</ele>
        <time>2024-07-10T16:09:04Z</time>
      </trkpt>
      <trkpt lat="42.60105" lon="1.78233">
        <ele>2000</ele>
        <time>2024-07-10T16:09:14Z</time>
      </trkpt>
      <trkpt lat="42.60098" lon="1.78238">
        <ele>1999.2</ele>
        <time>2024-07-10T16:09:20Z</time>
      </trkpt>
      <trkpt lat="42.60096" lon="1.78241">
        <ele>1999.2</ele>
        <time>2024-07-10T16:09:22Z</time>
      </trkpt>
      <trkpt lat="42.60092" lon="1.78249">
        <ele>1998.8</ele>
        <time>2024-07-10T16:09:28Z</time>
      </trkpt>
      <trkpt lat="42.6009" lon="1.7825">
        <ele>1998.6</ele>
        <time>2024-07-10T16:09:30Z</time>
      </trkpt>
      <trkpt lat="42.60083" lon="1.78257">
        <ele>1998.4</ele>
        <time>2024-07-10T16:09:37Z</time>
      </trkpt>
      <trkpt lat="42.60082" lon="1.78258">
        <ele>1998.4</ele>
        <time>2024-07-10T16:09:38Z</time>
      </trkpt>
      <trkpt lat="42.60075" lon="1.78268">
        <ele>1999.6</ele>
        <time>2024-07-10T16:09:47Z</time>
      </trkpt>
      <trkpt lat="42.60069" lon="1.7828">
        <ele>1998.8</ele>
        <time>2024-07-10T16:09:56Z</time>
      </trkpt>
      <trkpt lat="42.60062" lon="1.78295">
        <ele>1995.2</ele>
        <time>2024-07-10T16:10:06Z</time>
      </trkpt>
      <trkpt lat="42.60053" lon="1.7831">
        <ele>1992.2</ele>
        <time>2024-07-10T16:10:17Z</time>
      </trkpt>
      <trkpt lat="42.60049" lon="1.78315">
        <ele>1991.4</ele>
        <time>2024-07-10T16:10:22Z</time>
      </trkpt>
      <trkpt lat="42.60049" lon="1.78317">
        <ele>1991.2</ele>
        <time>2024-07-10T16:10:23Z</time>
      </trkpt>
      <trkpt lat="42.60049" lon="1.78318">
        <ele>1991</ele>
        <time>2024-07-10T16:10:24Z</time>
      </trkpt>
      <trkpt lat="42.60045" lon="1.78323">
        <ele>1990.6</ele>
        <time>2024-07-10T16:10:28Z</time>
      </trkpt>
      <trkpt lat="42.60038" lon="1.7833">
        <ele>1989.6</ele>
        <time>2024-07-10T16:10:35Z</time>
      </trkpt>
      <trkpt lat="42.60034" lon="1.78341">
        <ele>1988.6</ele>
        <time>2024-07-10T16:10:42Z</time>
      </trkpt>
      <trkpt lat="42.60029" lon="1.78347">
        <ele>1987</ele>
        <time>2024-07-10T16:10:48Z</time>
      </trkpt>
      <trkpt lat="42.60028" lon="1.78347">
        <ele>1986.6</ele>
        <time>2024-07-10T16:10:50Z</time>
      </trkpt>
      <trkpt lat="42.60021" lon="1.78348">
        <ele>1985.2</ele>
        <time>2024-07-10T16:10:56Z</time>
      </trkpt>
      <trkpt lat="42.6002" lon="1.7835">
        <ele>1984.4</ele>
        <time>2024-07-10T16:10:58Z</time>
      </trkpt>
      <trkpt lat="42.6001" lon="1.78361">
        <ele>1981</ele>
        <time>2024-07-10T16:11:08Z</time>
      </trkpt>
      <trkpt lat="42.60001" lon="1.78374">
        <ele>1978</ele>
        <time>2024-07-10T16:11:18Z</time>
      </trkpt>
      <trkpt lat="42.6" lon="1.78374">
        <ele>1977.8</ele>
        <time>2024-07-10T16:11:19Z</time>
      </trkpt>
      <trkpt lat="42.59992" lon="1.78378">
        <ele>1977.4</ele>
        <time>2024-07-10T16:11:24Z</time>
      </trkpt>
      <trkpt lat="42.59983" lon="1.78381">
        <ele>1977.8</ele>
        <time>2024-07-10T16:11:31Z</time>
      </trkpt>
      <trkpt lat="42.59975" lon="1.78389">
        <ele>1977.2</ele>
        <time>2024-07-10T16:11:39Z</time>
      </trkpt>
      <trkpt lat="42.59965" lon="1.78395">
        <ele>1976.2</ele>
        <time>2024-07-10T16:11:47Z</time>
      </trkpt>
      <trkpt lat="42.59958" lon="1.78405">
        <ele>1973.2</ele>
        <time>2024-07-10T16:11:55Z</time>
      </trkpt>
      <trkpt lat="42.5995" lon="1.78414">
        <ele>1970.6</ele>
        <time>2024-07-10T16:12:04Z</time>
      </trkpt>
      <trkpt lat="42.59941" lon="1.78422">
        <ele>1969.6</ele>
        <time>2024-07-10T16:12:12Z</time>
      </trkpt>
      <trkpt lat="42.59929" lon="1.78431">
        <ele>1970.4</ele>
        <time>2024-07-10T16:12:22Z</time>
      </trkpt>
      <trkpt lat="42.59916" lon="1.78441">
        <ele>1970.2</ele>
        <time>2024-07-10T16:12:33Z</time>
      </trkpt>
      <trkpt lat="42.59909" lon="1.78449">
        <ele>1970.6</ele>
        <time>2024-07-10T16:12:40Z</time>
      </trkpt>
      <trkpt lat="42.59902" lon="1.78458">
        <ele>1969.8</ele>
        <time>2024-07-10T16:12:47Z</time>
      </trkpt>
      <trkpt lat="42.59896" lon="1.78465">
        <ele>1969.6</ele>
        <time>2024-07-10T16:12:53Z</time>
      </trkpt>
      <trkpt lat="42.59895" lon="1.78465">
        <ele>1969.6</ele>
        <time>2024-07-10T16:12:54Z</time>
      </trkpt>
      <trkpt lat="42.59888" lon="1.78468">
        <ele>1969.6</ele>
        <time>2024-07-10T16:13:00Z</time>
      </trkpt>
      <trkpt lat="42.59877" lon="1.78472">
        <ele>1969.2</ele>
        <time>2024-07-10T16:13:08Z</time>
      </trkpt>
      <trkpt lat="42.59863" lon="1.78473">
        <ele>1968.4</ele>
        <time>2024-07-10T16:13:17Z</time>
      </trkpt>
      <trkpt lat="42.59854" lon="1.78477">
        <ele>1968</ele>
        <time>2024-07-10T16:13:25Z</time>
      </trkpt>
      <trkpt lat="42.59844" lon="1.7848">
        <ele>1966.2</ele>
        <time>2024-07-10T16:13:32Z</time>
      </trkpt>
      <trkpt lat="42.59835" lon="1.78492">
        <ele>1964.4</ele>
        <time>2024-07-10T16:13:42Z</time>
      </trkpt>
      <trkpt lat="42.59827" lon="1.78502">
        <ele>1964.8</ele>
        <time>2024-07-10T16:13:50Z</time>
      </trkpt>
      <trkpt lat="42.59821" lon="1.78508">
        <ele>1964.6</ele>
        <time>2024-07-10T16:13:56Z</time>
      </trkpt>
      <trkpt lat="42.59822" lon="1.7851">
        <ele>1964</ele>
        <time>2024-07-10T16:13:58Z</time>
      </trkpt>
      <trkpt lat="42.59823" lon="1.78512">
        <ele>1963.4</ele>
        <time>2024-07-10T16:14:00Z</time>
      </trkpt>
      <trkpt lat="42.59823" lon="1.78517">
        <ele>1962.4</ele>
        <time>2024-07-10T16:14:03Z</time>
      </trkpt>
      <trkpt lat="42.59816" lon="1.78525">
        <ele>1959.4</ele>
        <time>2024-07-10T16:14:10Z</time>
      </trkpt>
      <trkpt lat="42.59804" lon="1.78536">
        <ele>1956</ele>
        <time>2024-07-10T16:14:21Z</time>
      </trkpt>
      <trkpt lat="42.59793" lon="1.78544">
        <ele>1954</ele>
        <time>2024-07-10T16:14:30Z</time>
      </trkpt>
      <trkpt lat="42.59785" lon="1.78557">
        <ele>1951</ele>
        <time>2024-07-10T16:14:39Z</time>
      </trkpt>
      <trkpt lat="42.5978" lon="1.78564">
        <ele>1950</ele>
        <time>2024-07-10T16:14:44Z</time>
      </trkpt>
      <trkpt lat="42.5978" lon="1.78566">
        <ele>1949.6</ele>
        <time>2024-07-10T16:14:46Z</time>
      </trkpt>
      <trkpt lat="42.5978" lon="1.78573">
        <ele>1948.6</ele>
        <time>2024-07-10T16:14:53Z</time>
      </trkpt>
      <trkpt lat="42.59782" lon="1.78577">
        <ele>1947.2</ele>
        <time>2024-07-10T16:14:58Z</time>
      </trkpt>
      <trkpt lat="42.59778" lon="1.78585">
        <ele>1945.8</ele>
        <time>2024-07-10T16:15:05Z</time>
      </trkpt>
      <trkpt lat="42.59777" lon="1.78586">
        <ele>1945.6</ele>
        <time>2024-07-10T16:15:06Z</time>
      </trkpt>
      <trkpt lat="42.59776" lon="1.78596">
        <ele>1944.4</ele>
        <time>2024-07-10T16:15:13Z</time>
      </trkpt>
      <trkpt lat="42.59777" lon="1.78596">
        <ele>1944</ele>
        <time>2024-07-10T16:15:14Z</time>
      </trkpt>
      <trkpt lat="42.59784" lon="1.78599">
        <ele>1940.8</ele>
        <time>2024-07-10T16:15:21Z</time>
      </trkpt>
      <trkpt lat="42.59784" lon="1.786">
        <ele>1940.2</ele>
        <time>2024-07-10T16:15:22Z</time>
      </trkpt>
      <trkpt lat="42.59785" lon="1.78603">
        <ele>1939.2</ele>
        <time>2024-07-10T16:15:25Z</time>
      </trkpt>
      <trkpt lat="42.59784" lon="1.78606">
        <ele>1938.2</ele>
        <time>2024-07-10T16:15:28Z</time>
      </trkpt>
      <trkpt lat="42.59785" lon="1.78607">
        <ele>1938</ele>
        <time>2024-07-10T16:15:29Z</time>
      </trkpt>
      <trkpt lat="42.59787" lon="1.78612">
        <ele>1936.8</ele>
        <time>2024-07-10T16:15:33Z</time>
      </trkpt>
      <trkpt lat="42.59786" lon="1.78615">
        <ele>1935.8</ele>
        <time>2024-07-10T16:15:35Z</time>
      </trkpt>
      <trkpt lat="42.59781" lon="1.7863">
        <ele>1932.2</ele>
        <time>2024-07-10T16:15:45Z</time>
      </trkpt>
      <trkpt lat="42.59774" lon="1.78644">
        <ele>1928.8</ele>
        <time>2024-07-10T16:15:55Z</time>
      </trkpt>
      <trkpt lat="42.59765" lon="1.7865">
        <ele>1925.2</ele>
        <time>2024-07-10T16:16:03Z</time>
      </trkpt>
      <trkpt lat="42.59765" lon="1.78651">
        <ele>1925</ele>
        <time>2024-07-10T16:16:04Z</time>
      </trkpt>
      <trkpt lat="42.59765" lon="1.78657">
        <ele>1924.2</ele>
        <time>2024-07-10T16:16:07Z</time>
      </trkpt>
      <trkpt lat="42.59763" lon="1.78659">
        <ele>1923.8</ele>
        <time>2024-07-10T16:16:09Z</time>
      </trkpt>
      <trkpt lat="42.59762" lon="1.7866">
        <ele>1923.6</ele>
        <time>2024-07-10T16:16:10Z</time>
      </trkpt>
      <trkpt lat="42.5975" lon="1.78663">
        <ele>1923</ele>
        <time>2024-07-10T16:16:18Z</time>
      </trkpt>
      <trkpt lat="42.59738" lon="1.78659">
        <ele>1923.2</ele>
        <time>2024-07-10T16:16:26Z</time>
      </trkpt>
      <trkpt lat="42.59729" lon="1.78655">
        <ele>1923</ele>
        <time>2024-07-10T16:16:34Z</time>
      </trkpt>
      <trkpt lat="42.59727" lon="1.78656">
        <ele>1922.4</ele>
        <time>2024-07-10T16:16:37Z</time>
      </trkpt>
      <trkpt lat="42.59727" lon="1.7866">
        <ele>1921.6</ele>
        <time>2024-07-10T16:16:39Z</time>
      </trkpt>
      <trkpt lat="42.5972" lon="1.78665">
        <ele>1918.6</ele>
        <time>2024-07-10T16:16:46Z</time>
      </trkpt>
      <trkpt lat="42.59718" lon="1.78667">
        <ele>1917.8</ele>
        <time>2024-07-10T16:16:48Z</time>
      </trkpt>
      <trkpt lat="42.59715" lon="1.78673">
        <ele>1916</ele>
        <time>2024-07-10T16:16:52Z</time>
      </trkpt>
      <trkpt lat="42.59706" lon="1.78683">
        <ele>1913.6</ele>
        <time>2024-07-10T16:16:59Z</time>
      </trkpt>
      <trkpt lat="42.59695" lon="1.78695">
        <ele>1911.8</ele>
        <time>2024-07-10T16:17:08Z</time>
      </trkpt>
      <trkpt lat="42.59687" lon="1.78699">
        <ele>1909.8</ele>
        <time>2024-07-10T16:17:14Z</time>
      </trkpt>
      <trkpt lat="42.59686" lon="1.78702">
        <ele>1909</ele>
        <time>2024-07-10T16:17:16Z</time>
      </trkpt>
      <trkpt lat="42.59681" lon="1.78708">
        <ele>1906.6</ele>
        <time>2024-07-10T16:17:22Z</time>
      </trkpt>
      <trkpt lat="42.59677" lon="1.7872">
        <ele>1904.8</ele>
        <time>2024-07-10T16:17:30Z</time>
      </trkpt>
      <trkpt lat="42.59675" lon="1.78724">
        <ele>1904.2</ele>
        <time>2024-07-10T16:17:34Z</time>
      </trkpt>
      <trkpt lat="42.59674" lon="1.78725">
        <ele>1904</ele>
        <time>2024-07-10T16:17:37Z</time>
      </trkpt>
      <trkpt lat="42.59674" lon="1.78725">
        <ele>1903.6</ele>
        <time>2024-07-10T16:17:46Z</time>
      </trkpt>
      <trkpt lat="42.59669" lon="1.78726">
        <ele>1903</ele>
        <time>2024-07-10T16:18:25Z</time>
      </trkpt>
      <trkpt lat="42.59659" lon="1.7873">
        <ele>1903.6</ele>
        <time>2024-07-10T16:18:32Z</time>
      </trkpt>
      <trkpt lat="42.59654" lon="1.78732">
        <ele>1904</ele>
        <time>2024-07-10T16:18:36Z</time>
      </trkpt>
      <trkpt lat="42.59653" lon="1.78734">
        <ele>1904.2</ele>
        <time>2024-07-10T16:18:38Z</time>
      </trkpt>
      <trkpt lat="42.59652" lon="1.78735">
        <ele>1904.4</ele>
        <time>2024-07-10T16:18:39Z</time>
      </trkpt>
      <trkpt lat="42.59647" lon="1.78737">
        <ele>1905</ele>
        <time>2024-07-10T16:18:44Z</time>
      </trkpt>
      <trkpt lat="42.59645" lon="1.78738">
        <ele>1905</ele>
        <time>2024-07-10T16:18:48Z</time>
      </trkpt>
      <trkpt lat="42.59637" lon="1.7874">
        <ele>1901.8</ele>
        <time>2024-07-10T16:18:56Z</time>
      </trkpt>
      <trkpt lat="42.59629" lon="1.7874">
        <ele>1897.8</ele>
        <time>2024-07-10T16:19:04Z</time>
      </trkpt>
      <trkpt lat="42.59615" lon="1.78737">
        <ele>1893.4</ele>
        <time>2024-07-10T16:19:15Z</time>
      </trkpt>
      <trkpt lat="42.59604" lon="1.78731">
        <ele>1891.2</ele>
        <time>2024-07-10T16:19:24Z</time>
      </trkpt>
      <trkpt lat="42.59596" lon="1.78728">
        <ele>1890</ele>
        <time>2024-07-10T16:19:31Z</time>
      </trkpt>
      <trkpt lat="42.59595" lon="1.78728">
        <ele>1889.8</ele>
        <time>2024-07-10T16:19:32Z</time>
      </trkpt>
      <trkpt lat="42.59588" lon="1.78729">
        <ele>1887.4</ele>
        <time>2024-07-10T16:19:39Z</time>
      </trkpt>
      <trkpt lat="42.59587" lon="1.7873">
        <ele>1887</ele>
        <time>2024-07-10T16:19:40Z</time>
      </trkpt>
      <trkpt lat="42.59575" lon="1.78736">
        <ele>1882.6</ele>
        <time>2024-07-10T16:19:49Z</time>
      </trkpt>
      <trkpt lat="42.59567" lon="1.7874">
        <ele>1879.8</ele>
        <time>2024-07-10T16:19:57Z</time>
      </trkpt>
      <trkpt lat="42.59559" lon="1.78744">
        <ele>1877.8</ele>
        <time>2024-07-10T16:20:04Z</time>
      </trkpt>
      <trkpt lat="42.59551" lon="1.78749">
        <ele>1875.8</ele>
        <time>2024-07-10T16:20:11Z</time>
      </trkpt>
      <trkpt lat="42.59541" lon="1.78753">
        <ele>1874.6</ele>
        <time>2024-07-10T16:20:19Z</time>
      </trkpt>
      <trkpt lat="42.59539" lon="1.78754">
        <ele>1873.6</ele>
        <time>2024-07-10T16:20:22Z</time>
      </trkpt>
      <trkpt lat="42.59534" lon="1.78757">
        <ele>1870.8</ele>
        <time>2024-07-10T16:20:28Z</time>
      </trkpt>
      <trkpt lat="42.59528" lon="1.78758">
        <ele>1868.4</ele>
        <time>2024-07-10T16:20:34Z</time>
      </trkpt>
      <trkpt lat="42.59528" lon="1.78759">
        <ele>1868.2</ele>
        <time>2024-07-10T16:20:35Z</time>
      </trkpt>
      <trkpt lat="42.59525" lon="1.78774">
        <ele>1865</ele>
        <time>2024-07-10T16:20:44Z</time>
      </trkpt>
      <trkpt lat="42.59516" lon="1.78778">
        <ele>1864</ele>
        <time>2024-07-10T16:20:50Z</time>
      </trkpt>
      <trkpt lat="42.59514" lon="1.7878">
        <ele>1863.8</ele>
        <time>2024-07-10T16:20:52Z</time>
      </trkpt>
      <trkpt lat="42.59503" lon="1.7878">
        <ele>1862</ele>
        <time>2024-07-10T16:20:59Z</time>
      </trkpt>
      <trkpt lat="42.59506" lon="1.78773">
        <ele>1861.4</ele>
        <time>2024-07-10T16:21:03Z</time>
      </trkpt>
      <trkpt lat="42.59511" lon="1.78768">
        <ele>1859.6</ele>
        <time>2024-07-10T16:21:08Z</time>
      </trkpt>
      <trkpt lat="42.59511" lon="1.78764">
        <ele>1858.8</ele>
        <time>2024-07-10T16:21:10Z</time>
      </trkpt>
      <trkpt lat="42.59512" lon="1.78758">
        <ele>1858.4</ele>
        <time>2024-07-10T16:21:13Z</time>
      </trkpt>
      <trkpt lat="42.59509" lon="1.78759">
        <ele>1858.2</ele>
        <time>2024-07-10T16:21:15Z</time>
      </trkpt>
      <trkpt lat="42.59499" lon="1.78762">
        <ele>1855.6</ele>
        <time>2024-07-10T16:21:23Z</time>
      </trkpt>
      <trkpt lat="42.59491" lon="1.78764">
        <ele>1853.4</ele>
        <time>2024-07-10T16:21:29Z</time>
      </trkpt>
      <trkpt lat="42.59487" lon="1.78764">
        <ele>1852.6</ele>
        <time>2024-07-10T16:21:33Z</time>
      </trkpt>
      <trkpt lat="42.59486" lon="1.78762">
        <ele>1852.4</ele>
        <time>2024-07-10T16:21:34Z</time>
      </trkpt>
      <trkpt lat="42.59485" lon="1.78756">
        <ele>1852</ele>
        <time>2024-07-10T16:21:37Z</time>
      </trkpt>
      <trkpt lat="42.59484" lon="1.78753">
        <ele>1851.8</ele>
        <time>2024-07-10T16:21:39Z</time>
      </trkpt>
      <trkpt lat="42.5948" lon="1.78754">
        <ele>1851</ele>
        <time>2024-07-10T16:21:42Z</time>
      </trkpt>
      <trkpt lat="42.59473" lon="1.78758">
        <ele>1848.8</ele>
        <time>2024-07-10T16:21:49Z</time>
      </trkpt>
      <trkpt lat="42.59465" lon="1.78758">
        <ele>1845.6</ele>
        <time>2024-07-10T16:21:55Z</time>
      </trkpt>
      <trkpt lat="42.59462" lon="1.78755">
        <ele>1844.2</ele>
        <time>2024-07-10T16:21:58Z</time>
      </trkpt>
      <trkpt lat="42.59458" lon="1.78747">
        <ele>1841.8</ele>
        <time>2024-07-10T16:22:04Z</time>
      </trkpt>
      <trkpt lat="42.59454" lon="1.78745">
        <ele>1840.6</ele>
        <time>2024-07-10T16:22:08Z</time>
      </trkpt>
      <trkpt lat="42.59454" lon="1.78744">
        <ele>1840.4</ele>
        <time>2024-07-10T16:22:09Z</time>
      </trkpt>
      <trkpt lat="42.59453" lon="1.78743">
        <ele>1839.2</ele>
        <time>2024-07-10T16:22:12Z</time>
      </trkpt>
      <trkpt lat="42.59451" lon="1.78743">
        <ele>1838.2</ele>
        <time>2024-07-10T16:22:14Z</time>
      </trkpt>
      <trkpt lat="42.59445" lon="1.78746">
        <ele>1836.8</ele>
        <time>2024-07-10T16:22:20Z</time>
      </trkpt>
      <trkpt lat="42.59444" lon="1.78739">
        <ele>1835.6</ele>
        <time>2024-07-10T16:22:25Z</time>
      </trkpt>
      <trkpt lat="42.59444" lon="1.78728">
        <ele>1833.2</ele>
        <time>2024-07-10T16:22:31Z</time>
      </trkpt>
      <trkpt lat="42.59444" lon="1.78716">
        <ele>1830.4</ele>
        <time>2024-07-10T16:22:40Z</time>
      </trkpt>
      <trkpt lat="42.59439" lon="1.78706">
        <ele>1829.8</ele>
        <time>2024-07-10T16:22:47Z</time>
      </trkpt>
      <trkpt lat="42.59438" lon="1.78705">
        <ele>1829.6</ele>
        <time>2024-07-10T16:22:48Z</time>
      </trkpt>
      <trkpt lat="42.59429" lon="1.78695">
        <ele>1827.4</ele>
        <time>2024-07-10T16:22:57Z</time>
      </trkpt>
      <trkpt lat="42.59426" lon="1.78688">
        <ele>1826.4</ele>
        <time>2024-07-10T16:23:04Z</time>
      </trkpt>
      <trkpt lat="42.59423" lon="1.78686">
        <ele>1825.8</ele>
        <time>2024-07-10T16:23:12Z</time>
      </trkpt>
      <trkpt lat="42.5942" lon="1.78684">
        <ele>1825.8</ele>
        <time>2024-07-10T16:23:19Z</time>
      </trkpt>
      <trkpt lat="42.59417" lon="1.78679">
        <ele>1825.8</ele>
        <time>2024-07-10T16:23:26Z</time>
      </trkpt>
      <trkpt lat="42.59412" lon="1.78672">
        <ele>1824.2</ele>
        <time>2024-07-10T16:23:35Z</time>
      </trkpt>
      <trkpt lat="42.59408" lon="1.78668">
        <ele>1822.8</ele>
        <time>2024-07-10T16:23:41Z</time>
      </trkpt>
      <trkpt lat="42.59404" lon="1.78662">
        <ele>1819.6</ele>
        <time>2024-07-10T16:23:48Z</time>
      </trkpt>
      <trkpt lat="42.59398" lon="1.78655">
        <ele>1817</ele>
        <time>2024-07-10T16:23:55Z</time>
      </trkpt>
      <trkpt lat="42.59397" lon="1.78652">
        <ele>1816.6</ele>
        <time>2024-07-10T16:23:57Z</time>
      </trkpt>
      <trkpt lat="42.59387" lon="1.78649">
        <ele>1814.2</ele>
        <time>2024-07-10T16:24:06Z</time>
      </trkpt>
      <trkpt lat="42.59384" lon="1.78645">
        <ele>1813.6</ele>
        <time>2024-07-10T16:24:12Z</time>
      </trkpt>
      <trkpt lat="42.59381" lon="1.7864">
        <ele>1813.6</ele>
        <time>2024-07-10T16:24:19Z</time>
      </trkpt>
      <trkpt lat="42.59377" lon="1.78639">
        <ele>1813.2</ele>
        <time>2024-07-10T16:24:23Z</time>
      </trkpt>
      <trkpt lat="42.59376" lon="1.78638">
        <ele>1813.2</ele>
        <time>2024-07-10T16:24:24Z</time>
      </trkpt>
      <trkpt lat="42.5937" lon="1.78634">
        <ele>1813</ele>
        <time>2024-07-10T16:24:30Z</time>
      </trkpt>
      <trkpt lat="42.5937" lon="1.78634">
        <ele>1812.8</ele>
        <time>2024-07-10T16:24:31Z</time>
      </trkpt>
      <trkpt lat="42.59361" lon="1.78629">
        <ele>1811</ele>
        <time>2024-07-10T16:24:40Z</time>
      </trkpt>
      <trkpt lat="42.59359" lon="1.78631">
        <ele>1809.4</ele>
        <time>2024-07-10T16:24:46Z</time>
      </trkpt>
      <trkpt lat="42.59359" lon="1.78635">
        <ele>1808.2</ele>
        <time>2024-07-10T16:24:51Z</time>
      </trkpt>
      <trkpt lat="42.5936" lon="1.78638">
        <ele>1807.4</ele>
        <time>2024-07-10T16:24:53Z</time>
      </trkpt>
      <trkpt lat="42.59363" lon="1.78649">
        <ele>1804.6</ele>
        <time>2024-07-10T16:25:03Z</time>
      </trkpt>
      <trkpt lat="42.59359" lon="1.78657">
        <ele>1800.6</ele>
        <time>2024-07-10T16:25:12Z</time>
      </trkpt>
      <trkpt lat="42.59353" lon="1.78652">
        <ele>1797</ele>
        <time>2024-07-10T16:25:20Z</time>
      </trkpt>
      <trkpt lat="42.59345" lon="1.78646">
        <ele>1795.4</ele>
        <time>2024-07-10T16:25:29Z</time>
      </trkpt>
      <trkpt lat="42.59344" lon="1.78646">
        <ele>1795.4</ele>
        <time>2024-07-10T16:25:30Z</time>
      </trkpt>
      <trkpt lat="42.59341" lon="1.78644">
        <ele>1795.4</ele>
        <time>2024-07-10T16:25:34Z</time>
      </trkpt>
      <trkpt lat="42.5934" lon="1.78645">
        <ele>1794</ele>
        <time>2024-07-10T16:25:41Z</time>
      </trkpt>
      <trkpt lat="42.59338" lon="1.78645">
        <ele>1793.6</ele>
        <time>2024-07-10T16:25:48Z</time>
      </trkpt>
      <trkpt lat="42.59332" lon="1.78642">
        <ele>1793.2</ele>
        <time>2024-07-10T16:26:07Z</time>
      </trkpt>
      <trkpt lat="42.59327" lon="1.78641">
        <ele>1793.2</ele>
        <time>2024-07-10T16:26:10Z</time>
      </trkpt>
      <trkpt lat="42.5932" lon="1.78639">
        <ele>1793.2</ele>
        <time>2024-07-10T16:26:14Z</time>
      </trkpt>
      <trkpt lat="42.5931" lon="1.78632">
        <ele>1791</ele>
        <time>2024-07-10T16:26:24Z</time>
      </trkpt>
      <trkpt lat="42.59302" lon="1.78631">
        <ele>1790.2</ele>
        <time>2024-07-10T16:26:31Z</time>
      </trkpt>
      <trkpt lat="42.59301" lon="1.78631">
        <ele>1790</ele>
        <time>2024-07-10T16:26:32Z</time>
      </trkpt>
      <trkpt lat="42.59293" lon="1.78631">
        <ele>1788.6</ele>
        <time>2024-07-10T16:26:41Z</time>
      </trkpt>
      <trkpt lat="42.59284" lon="1.7863">
        <ele>1786</ele>
        <time>2024-07-10T16:26:50Z</time>
      </trkpt>
      <trkpt lat="42.59275" lon="1.78627">
        <ele>1782.8</ele>
        <time>2024-07-10T16:26:58Z</time>
      </trkpt>
      <trkpt lat="42.59271" lon="1.78623">
        <ele>1781.2</ele>
        <time>2024-07-10T16:27:02Z</time>
      </trkpt>
      <trkpt lat="42.59267" lon="1.78622">
        <ele>1778.8</ele>
        <time>2024-07-10T16:27:06Z</time>
      </trkpt>
      <trkpt lat="42.59257" lon="1.78618">
        <ele>1775.6</ele>
        <time>2024-07-10T16:27:17Z</time>
      </trkpt>
      <trkpt lat="42.59248" lon="1.7861">
        <ele>1773.6</ele>
        <time>2024-07-10T16:27:27Z</time>
      </trkpt>
      <trkpt lat="42.59241" lon="1.78604">
        <ele>1772.2</ele>
        <time>2024-07-10T16:27:34Z</time>
      </trkpt>
      <trkpt lat="42.59233" lon="1.78597">
        <ele>1771.8</ele>
        <time>2024-07-10T16:27:43Z</time>
      </trkpt>
      <trkpt lat="42.5923" lon="1.78595">
        <ele>1771.8</ele>
        <time>2024-07-10T16:27:46Z</time>
      </trkpt>
      <trkpt lat="42.59224" lon="1.78591">
        <ele>1771.6</ele>
        <time>2024-07-10T16:27:52Z</time>
      </trkpt>
      <trkpt lat="42.59212" lon="1.78581">
        <ele>1771</ele>
        <time>2024-07-10T16:28:03Z</time>
      </trkpt>
      <trkpt lat="42.59208" lon="1.78576">
        <ele>1772.2</ele>
        <time>2024-07-10T16:28:09Z</time>
      </trkpt>
      <trkpt lat="42.59206" lon="1.78576">
        <ele>1772.4</ele>
        <time>2024-07-10T16:28:11Z</time>
      </trkpt>
      <trkpt lat="42.59199" lon="1.78572">
        <ele>1772</ele>
        <time>2024-07-10T16:28:18Z</time>
      </trkpt>
      <trkpt lat="42.59186" lon="1.78564">
        <ele>1769.4</ele>
        <time>2024-07-10T16:28:29Z</time>
      </trkpt>
      <trkpt lat="42.59178" lon="1.78557">
        <ele>1768.2</ele>
        <time>2024-07-10T16:28:37Z</time>
      </trkpt>
      <trkpt lat="42.59169" lon="1.78549">
        <ele>1767.2</ele>
        <time>2024-07-10T16:28:46Z</time>
      </trkpt>
      <trkpt lat="42.59167" lon="1.78548">
        <ele>1767.2</ele>
        <time>2024-07-10T16:28:48Z</time>
      </trkpt>
      <trkpt lat="42.59163" lon="1.78543">
        <ele>1767.4</ele>
        <time>2024-07-10T16:28:53Z</time>
      </trkpt>
      <trkpt lat="42.59154" lon="1.7854">
        <ele>1767.4</ele>
        <time>2024-07-10T16:29:01Z</time>
      </trkpt>
      <trkpt lat="42.59153" lon="1.78539">
        <ele>1766.8</ele>
        <time>2024-07-10T16:29:06Z</time>
      </trkpt>
      <trkpt lat="42.59149" lon="1.78534">
        <ele>1766.8</ele>
        <time>2024-07-10T16:29:16Z</time>
      </trkpt>
      <trkpt lat="42.5914" lon="1.78528">
        <ele>1767.2</ele>
        <time>2024-07-10T16:29:24Z</time>
      </trkpt>
      <trkpt lat="42.59131" lon="1.78521">
        <ele>1765.8</ele>
        <time>2024-07-10T16:29:33Z</time>
      </trkpt>
      <trkpt lat="42.59121" lon="1.78515">
        <ele>1764</ele>
        <time>2024-07-10T16:29:42Z</time>
      </trkpt>
      <trkpt lat="42.59111" lon="1.7851">
        <ele>1762</ele>
        <time>2024-07-10T16:29:50Z</time>
      </trkpt>
      <trkpt lat="42.59103" lon="1.78499">
        <ele>1758.8</ele>
        <time>2024-07-10T16:29:57Z</time>
      </trkpt>
      <trkpt lat="42.59095" lon="1.78487">
        <ele>1758.6</ele>
        <time>2024-07-10T16:30:06Z</time>
      </trkpt>
      <trkpt lat="42.59082" lon="1.78473">
        <ele>1758.2</ele>
        <time>2024-07-10T16:30:18Z</time>
      </trkpt>
      <trkpt lat="42.59071" lon="1.7846">
        <ele>1757.8</ele>
        <time>2024-07-10T16:30:29Z</time>
      </trkpt>
      <trkpt lat="42.59061" lon="1.7845">
        <ele>1756.6</ele>
        <time>2024-07-10T16:30:38Z</time>
      </trkpt>
      <trkpt lat="42.59051" lon="1.78438">
        <ele>1754.6</ele>
        <time>2024-07-10T16:30:48Z</time>
      </trkpt>
      <trkpt lat="42.59044" lon="1.78431">
        <ele>1753.4</ele>
        <time>2024-07-10T16:30:55Z</time>
      </trkpt>
      <trkpt lat="42.59039" lon="1.78429">
        <ele>1753.4</ele>
        <time>2024-07-10T16:30:59Z</time>
      </trkpt>
      <trkpt lat="42.59036" lon="1.78428">
        <ele>1753.4</ele>
        <time>2024-07-10T16:31:01Z</time>
      </trkpt>
      <trkpt lat="42.59035" lon="1.78427">
        <ele>1753.4</ele>
        <time>2024-07-10T16:31:02Z</time>
      </trkpt>
      <trkpt lat="42.59028" lon="1.78424">
        <ele>1753.2</ele>
        <time>2024-07-10T16:31:08Z</time>
      </trkpt>
      <trkpt lat="42.59026" lon="1.78424">
        <ele>1753</ele>
        <time>2024-07-10T16:31:10Z</time>
      </trkpt>
      <trkpt lat="42.59021" lon="1.78423">
        <ele>1753</ele>
        <time>2024-07-10T16:31:14Z</time>
      </trkpt>
      <trkpt lat="42.59019" lon="1.78422">
        <ele>1753</ele>
        <time>2024-07-10T16:31:16Z</time>
      </trkpt>
      <trkpt lat="42.5901" lon="1.7841">
        <ele>1752.4</ele>
        <time>2024-07-10T16:31:25Z</time>
      </trkpt>
      <trkpt lat="42.59003" lon="1.78404">
        <ele>1752</ele>
        <time>2024-07-10T16:31:31Z</time>
      </trkpt>
      <trkpt lat="42.59001" lon="1.78401">
        <ele>1751.8</ele>
        <time>2024-07-10T16:31:33Z</time>
      </trkpt>
      <trkpt lat="42.58992" lon="1.78392">
        <ele>1750</ele>
        <time>2024-07-10T16:31:41Z</time>
      </trkpt>
      <trkpt lat="42.58982" lon="1.78385">
        <ele>1749.2</ele>
        <time>2024-07-10T16:31:50Z</time>
      </trkpt>
      <trkpt lat="42.5898" lon="1.78385">
        <ele>1749</ele>
        <time>2024-07-10T16:31:51Z</time>
      </trkpt>
      <trkpt lat="42.5897" lon="1.78384">
        <ele>1749</ele>
        <time>2024-07-10T16:31:59Z</time>
      </trkpt>
      <trkpt lat="42.5896" lon="1.78382">
        <ele>1747</ele>
        <time>2024-07-10T16:32:08Z</time>
      </trkpt>
      <trkpt lat="42.58959" lon="1.78386">
        <ele>1746</ele>
        <time>2024-07-10T16:32:11Z</time>
      </trkpt>
      <trkpt lat="42.5896" lon="1.78389">
        <ele>1745.8</ele>
        <time>2024-07-10T16:32:13Z</time>
      </trkpt>
      <trkpt lat="42.58966" lon="1.78407">
        <ele>1742.8</ele>
        <time>2024-07-10T16:32:23Z</time>
      </trkpt>
      <trkpt lat="42.58959" lon="1.78415">
        <ele>1742.2</ele>
        <time>2024-07-10T16:32:30Z</time>
      </trkpt>
      <trkpt lat="42.58955" lon="1.78421">
        <ele>1742.2</ele>
        <time>2024-07-10T16:32:35Z</time>
      </trkpt>
      <trkpt lat="42.58955" lon="1.78423">
        <ele>1742</ele>
        <time>2024-07-10T16:32:37Z</time>
      </trkpt>
      <trkpt lat="42.58952" lon="1.78429">
        <ele>1741.2</ele>
        <time>2024-07-10T16:32:42Z</time>
      </trkpt>
      <trkpt lat="42.58951" lon="1.78431">
        <ele>1740.8</ele>
        <time>2024-07-10T16:32:44Z</time>
      </trkpt>
      <trkpt lat="42.5895" lon="1.78433">
        <ele>1740.6</ele>
        <time>2024-07-10T16:32:45Z</time>
      </trkpt>
      <trkpt lat="42.58951" lon="1.78441">
        <ele>1740</ele>
        <time>2024-07-10T16:32:50Z</time>
      </trkpt>
      <trkpt lat="42.5895" lon="1.78445">
        <ele>1739.6</ele>
        <time>2024-07-10T16:32:53Z</time>
      </trkpt>
      <trkpt lat="42.58946" lon="1.78449">
        <ele>1738.8</ele>
        <time>2024-07-10T16:32:57Z</time>
      </trkpt>
      <trkpt lat="42.58939" lon="1.78459">
        <ele>1738.8</ele>
        <time>2024-07-10T16:33:05Z</time>
      </trkpt>
      <trkpt lat="42.58941" lon="1.78473">
        <ele>1739.8</ele>
        <time>2024-07-10T16:33:16Z</time>
      </trkpt>
      <trkpt lat="42.58947" lon="1.78486">
        <ele>1738.8</ele>
        <time>2024-07-10T16:33:25Z</time>
      </trkpt>
      <trkpt lat="42.58948" lon="1.78494">
        <ele>1739</ele>
        <time>2024-07-10T16:33:30Z</time>
      </trkpt>
      <trkpt lat="42.5895" lon="1.78496">
        <ele>1739</ele>
        <time>2024-07-10T16:33:32Z</time>
      </trkpt>
      <trkpt lat="42.58957" lon="1.78509">
        <ele>1738.4</ele>
        <time>2024-07-10T16:33:41Z</time>
      </trkpt>
      <trkpt lat="42.58957" lon="1.78512">
        <ele>1738.4</ele>
        <time>2024-07-10T16:33:43Z</time>
      </trkpt>
      <trkpt lat="42.58961" lon="1.78517">
        <ele>1738.4</ele>
        <time>2024-07-10T16:33:47Z</time>
      </trkpt>
      <trkpt lat="42.58967" lon="1.78526">
        <ele>1736.8</ele>
        <time>2024-07-10T16:33:54Z</time>
      </trkpt>
      <trkpt lat="42.58969" lon="1.78527">
        <ele>1735.8</ele>
        <time>2024-07-10T16:33:56Z</time>
      </trkpt>
      <trkpt lat="42.5898" lon="1.7854">
        <ele>1733.2</ele>
        <time>2024-07-10T16:34:06Z</time>
      </trkpt>
      <trkpt lat="42.58985" lon="1.78547">
        <ele>1730.4</ele>
        <time>2024-07-10T16:34:13Z</time>
      </trkpt>
      <trkpt lat="42.58992" lon="1.78559">
        <ele>1729.2</ele>
        <time>2024-07-10T16:34:22Z</time>
      </trkpt>
      <trkpt lat="42.58996" lon="1.78573">
        <ele>1727.8</ele>
        <time>2024-07-10T16:34:30Z</time>
      </trkpt>
      <trkpt lat="42.58996" lon="1.78574">
        <ele>1727.6</ele>
        <time>2024-07-10T16:34:31Z</time>
      </trkpt>
      <trkpt lat="42.59001" lon="1.78582">
        <ele>1725.8</ele>
        <time>2024-07-10T16:34:36Z</time>
      </trkpt>
      <trkpt lat="42.59001" lon="1.786">
        <ele>1721.6</ele>
        <time>2024-07-10T16:34:46Z</time>
      </trkpt>
      <trkpt lat="42.59001" lon="1.78616">
        <ele>1719.4</ele>
        <time>2024-07-10T16:34:55Z</time>
      </trkpt>
      <trkpt lat="42.59002" lon="1.78617">
        <ele>1719.2</ele>
        <time>2024-07-10T16:34:56Z</time>
      </trkpt>
      <trkpt lat="42.59006" lon="1.78626">
        <ele>1718</ele>
        <time>2024-07-10T16:35:02Z</time>
      </trkpt>
      <trkpt lat="42.59009" lon="1.78641">
        <ele>1717</ele>
        <time>2024-07-10T16:35:11Z</time>
      </trkpt>
      <trkpt lat="42.59008" lon="1.78646">
        <ele>1717</ele>
        <time>2024-07-10T16:35:14Z</time>
      </trkpt>
      <trkpt lat="42.59007" lon="1.78652">
        <ele>1716.8</ele>
        <time>2024-07-10T16:35:18Z</time>
      </trkpt>
      <trkpt lat="42.59008" lon="1.78666">
        <ele>1716.4</ele>
        <time>2024-07-10T16:35:26Z</time>
      </trkpt>
      <trkpt lat="42.5901" lon="1.78672">
        <ele>1716.2</ele>
        <time>2024-07-10T16:35:29Z</time>
      </trkpt>
      <trkpt lat="42.59012" lon="1.78675">
        <ele>1715.6</ele>
        <time>2024-07-10T16:35:32Z</time>
      </trkpt>
      <trkpt lat="42.59017" lon="1.78687">
        <ele>1713.8</ele>
        <time>2024-07-10T16:35:39Z</time>
      </trkpt>
      <trkpt lat="42.5902" lon="1.78698">
        <ele>1712</ele>
        <time>2024-07-10T16:35:46Z</time>
      </trkpt>
      <trkpt lat="42.5902" lon="1.78699">
        <ele>1711.6</ele>
        <time>2024-07-10T16:35:47Z</time>
      </trkpt>
      <trkpt lat="42.59021" lon="1.78714">
        <ele>1707.8</ele>
        <time>2024-07-10T16:35:56Z</time>
      </trkpt>
      <trkpt lat="42.59022" lon="1.78728">
        <ele>1707.4</ele>
        <time>2024-07-10T16:36:05Z</time>
      </trkpt>
      <trkpt lat="42.59024" lon="1.78741">
        <ele>1706.8</ele>
        <time>2024-07-10T16:36:14Z</time>
      </trkpt>
      <trkpt lat="42.59024" lon="1.78743">
        <ele>1706.6</ele>
        <time>2024-07-10T16:36:15Z</time>
      </trkpt>
      <trkpt lat="42.59024" lon="1.7875">
        <ele>1705.8</ele>
        <time>2024-07-10T16:36:21Z</time>
      </trkpt>
      <trkpt lat="42.59022" lon="1.78761">
        <ele>1704</ele>
        <time>2024-07-10T16:36:30Z</time>
      </trkpt>
      <trkpt lat="42.59022" lon="1.78762">
        <ele>1703.8</ele>
        <time>2024-07-10T16:36:31Z</time>
      </trkpt>
      <trkpt lat="42.59022" lon="1.78764">
        <ele>1703.6</ele>
        <time>2024-07-10T16:36:33Z</time>
      </trkpt>
      <trkpt lat="42.59023" lon="1.78767">
        <ele>1703.2</ele>
        <time>2024-07-10T16:36:36Z</time>
      </trkpt>
      <trkpt lat="42.59024" lon="1.78773">
        <ele>1702.4</ele>
        <time>2024-07-10T16:36:40Z</time>
      </trkpt>
      <trkpt lat="42.59024" lon="1.78776">
        <ele>1701.6</ele>
        <time>2024-07-10T16:36:43Z</time>
      </trkpt>
      <trkpt lat="42.59017" lon="1.78791">
        <ele>1700.2</ele>
        <time>2024-07-10T16:36:53Z</time>
      </trkpt>
      <trkpt lat="42.59017" lon="1.78792">
        <ele>1700.2</ele>
        <time>2024-07-10T16:36:54Z</time>
      </trkpt>
      <trkpt lat="42.59019" lon="1.78803">
        <ele>1697.8</ele>
        <time>2024-07-10T16:37:01Z</time>
      </trkpt>
      <trkpt lat="42.59021" lon="1.78817">
        <ele>1695.6</ele>
        <time>2024-07-10T16:37:10Z</time>
      </trkpt>
      <trkpt lat="42.59022" lon="1.78817">
        <ele>1695.2</ele>
        <time>2024-07-10T16:37:11Z</time>
      </trkpt>
      <trkpt lat="42.59022" lon="1.78813">
        <ele>1694.2</ele>
        <time>2024-07-10T16:37:14Z</time>
      </trkpt>
      <trkpt lat="42.59028" lon="1.78799">
        <ele>1694</ele>
        <time>2024-07-10T16:37:23Z</time>
      </trkpt>
      <trkpt lat="42.59034" lon="1.78792">
        <ele>1694.2</ele>
        <time>2024-07-10T16:37:30Z</time>
      </trkpt>
      <trkpt lat="42.59036" lon="1.78792">
        <ele>1694.4</ele>
        <time>2024-07-10T16:37:32Z</time>
      </trkpt>
      <trkpt lat="42.59037" lon="1.78794">
        <ele>1694.4</ele>
        <time>2024-07-10T16:37:34Z</time>
      </trkpt>
      <trkpt lat="42.59037" lon="1.78796">
        <ele>1694.4</ele>
        <time>2024-07-10T16:37:35Z</time>
      </trkpt>
      <trkpt lat="42.59037" lon="1.78807">
        <ele>1693.4</ele>
        <time>2024-07-10T16:37:42Z</time>
      </trkpt>
      <trkpt lat="42.59037" lon="1.78809">
        <ele>1692.6</ele>
        <time>2024-07-10T16:37:43Z</time>
      </trkpt>
      <trkpt lat="42.59038" lon="1.78814">
        <ele>1690</ele>
        <time>2024-07-10T16:37:46Z</time>
      </trkpt>
      <trkpt lat="42.59041" lon="1.78821">
        <ele>1687.4</ele>
        <time>2024-07-10T16:37:51Z</time>
      </trkpt>
      <trkpt lat="42.59045" lon="1.78838">
        <ele>1683.8</ele>
        <time>2024-07-10T16:38:00Z</time>
      </trkpt>
      <trkpt lat="42.59048" lon="1.78847">
        <ele>1683</ele>
        <time>2024-07-10T16:38:06Z</time>
      </trkpt>
      <trkpt lat="42.59049" lon="1.7885">
        <ele>1682.8</ele>
        <time>2024-07-10T16:38:09Z</time>
      </trkpt>
      <trkpt lat="42.59051" lon="1.78857">
        <ele>1682.8</ele>
        <time>2024-07-10T16:38:15Z</time>
      </trkpt>
      <trkpt lat="42.59051" lon="1.78858">
        <ele>1682.8</ele>
        <time>2024-07-10T16:38:16Z</time>
      </trkpt>
      <trkpt lat="42.59054" lon="1.78865">
        <ele>1681.6</ele>
        <time>2024-07-10T16:38:21Z</time>
      </trkpt>
      <trkpt lat="42.59055" lon="1.78871">
        <ele>1679</ele>
        <time>2024-07-10T16:38:28Z</time>
      </trkpt>
      <trkpt lat="42.59055" lon="1.78869">
        <ele>1678.2</ele>
        <time>2024-07-10T16:38:30Z</time>
      </trkpt>
      <trkpt lat="42.59059" lon="1.78859">
        <ele>1677</ele>
        <time>2024-07-10T16:38:35Z</time>
      </trkpt>
      <trkpt lat="42.5906" lon="1.78856">
        <ele>1676.8</ele>
        <time>2024-07-10T16:38:37Z</time>
      </trkpt>
      <trkpt lat="42.59065" lon="1.78853">
        <ele>1676.8</ele>
        <time>2024-07-10T16:38:41Z</time>
      </trkpt>
      <trkpt lat="42.59068" lon="1.78852">
        <ele>1676.2</ele>
        <time>2024-07-10T16:38:45Z</time>
      </trkpt>
      <trkpt lat="42.59072" lon="1.78853">
        <ele>1675.8</ele>
        <time>2024-07-10T16:38:48Z</time>
      </trkpt>
      <trkpt lat="42.59077" lon="1.78854">
        <ele>1675.4</ele>
        <time>2024-07-10T16:38:52Z</time>
      </trkpt>
      <trkpt lat="42.59079" lon="1.78858">
        <ele>1674.2</ele>
        <time>2024-07-10T16:38:55Z</time>
      </trkpt>
      <trkpt lat="42.59078" lon="1.7886">
        <ele>1673.8</ele>
        <time>2024-07-10T16:38:56Z</time>
      </trkpt>
      <trkpt lat="42.59077" lon="1.78865">
        <ele>1672.8</ele>
        <time>2024-07-10T16:39:00Z</time>
      </trkpt>
      <trkpt lat="42.59077" lon="1.78866">
        <ele>1672.6</ele>
        <time>2024-07-10T16:39:01Z</time>
      </trkpt>
      <trkpt lat="42.59079" lon="1.78871">
        <ele>1669.8</ele>
        <time>2024-07-10T16:39:07Z</time>
      </trkpt>
      <trkpt lat="42.5908" lon="1.78873">
        <ele>1669.2</ele>
        <time>2024-07-10T16:39:08Z</time>
      </trkpt>
      <trkpt lat="42.59083" lon="1.78877">
        <ele>1667.8</ele>
        <time>2024-07-10T16:39:11Z</time>
      </trkpt>
      <trkpt lat="42.59083" lon="1.78881">
        <ele>1666.8</ele>
        <time>2024-07-10T16:39:14Z</time>
      </trkpt>
      <trkpt lat="42.59082" lon="1.78884">
        <ele>1665.8</ele>
        <time>2024-07-10T16:39:16Z</time>
      </trkpt>
      <trkpt lat="42.59078" lon="1.78891">
        <ele>1662.8</ele>
        <time>2024-07-10T16:39:22Z</time>
      </trkpt>
      <trkpt lat="42.59079" lon="1.78892">
        <ele>1661.8</ele>
        <time>2024-07-10T16:39:25Z</time>
      </trkpt>
      <trkpt lat="42.59081" lon="1.78894">
        <ele>1661.2</ele>
        <time>2024-07-10T16:39:27Z</time>
      </trkpt>
      <trkpt lat="42.59081" lon="1.78894">
        <ele>1660.6</ele>
        <time>2024-07-10T16:39:28Z</time>
      </trkpt>
      <trkpt lat="42.59081" lon="1.78898">
        <ele>1659.6</ele>
        <time>2024-07-10T16:39:31Z</time>
      </trkpt>
      <trkpt lat="42.59081" lon="1.78901">
        <ele>1659</ele>
        <time>2024-07-10T16:39:33Z</time>
      </trkpt>
      <trkpt lat="42.5908" lon="1.78903">
        <ele>1658</ele>
        <time>2024-07-10T16:39:37Z</time>
      </trkpt>
      <trkpt lat="42.59084" lon="1.78902">
        <ele>1657.6</ele>
        <time>2024-07-10T16:39:42Z</time>
      </trkpt>
      <trkpt lat="42.59086" lon="1.78904">
        <ele>1657.8</ele>
        <time>2024-07-10T16:39:45Z</time>
      </trkpt>
      <trkpt lat="42.59088" lon="1.78904">
        <ele>1658</ele>
        <time>2024-07-10T16:39:47Z</time>
      </trkpt>
      <trkpt lat="42.59091" lon="1.78905">
        <ele>1657.4</ele>
        <time>2024-07-10T16:39:50Z</time>
      </trkpt>
      <trkpt lat="42.59091" lon="1.78907">
        <ele>1656.8</ele>
        <time>2024-07-10T16:39:51Z</time>
      </trkpt>
      <trkpt lat="42.59089" lon="1.78914">
        <ele>1654</ele>
        <time>2024-07-10T16:39:56Z</time>
      </trkpt>
      <trkpt lat="42.59085" lon="1.78923">
        <ele>1653</ele>
        <time>2024-07-10T16:40:05Z</time>
      </trkpt>
      <trkpt lat="42.59087" lon="1.78929">
        <ele>1652.4</ele>
        <time>2024-07-10T16:40:11Z</time>
      </trkpt>
      <trkpt lat="42.59087" lon="1.78931">
        <ele>1652</ele>
        <time>2024-07-10T16:40:13Z</time>
      </trkpt>
      <trkpt lat="42.59086" lon="1.78932">
        <ele>1651.4</ele>
        <time>2024-07-10T16:40:16Z</time>
      </trkpt>
      <trkpt lat="42.59085" lon="1.78932">
        <ele>1649.8</ele>
        <time>2024-07-10T16:40:21Z</time>
      </trkpt>
      <trkpt lat="42.59084" lon="1.78932">
        <ele>1649.4</ele>
        <time>2024-07-10T16:40:29Z</time>
      </trkpt>
      <trkpt lat="42.59082" lon="1.78932">
        <ele>1649.6</ele>
        <time>2024-07-10T16:40:40Z</time>
      </trkpt>
      <trkpt lat="42.59088" lon="1.78928">
        <ele>1649.6</ele>
        <time>2024-07-10T16:41:01Z</time>
      </trkpt>
      <trkpt lat="42.59091" lon="1.78933">
        <ele>1650</ele>
        <time>2024-07-10T16:41:05Z</time>
      </trkpt>
      <trkpt lat="42.59091" lon="1.78943">
        <ele>1649.4</ele>
        <time>2024-07-10T16:41:12Z</time>
      </trkpt>
      <trkpt lat="42.59089" lon="1.78954">
        <ele>1646.2</ele>
        <time>2024-07-10T16:41:19Z</time>
      </trkpt>
      <trkpt lat="42.59089" lon="1.78959">
        <ele>1644.2</ele>
        <time>2024-07-10T16:41:24Z</time>
      </trkpt>
      <trkpt lat="42.59093" lon="1.7896">
        <ele>1641.8</ele>
        <time>2024-07-10T16:41:29Z</time>
      </trkpt>
      <trkpt lat="42.59092" lon="1.78968">
        <ele>1640</ele>
        <time>2024-07-10T16:41:36Z</time>
      </trkpt>
      <trkpt lat="42.59091" lon="1.7897">
        <ele>1639</ele>
        <time>2024-07-10T16:41:38Z</time>
      </trkpt>
      <trkpt lat="42.59091" lon="1.78979">
        <ele>1635.8</ele>
        <time>2024-07-10T16:41:43Z</time>
      </trkpt>
      <trkpt lat="42.59091" lon="1.78982">
        <ele>1634.6</ele>
        <time>2024-07-10T16:41:45Z</time>
      </trkpt>
      <trkpt lat="42.59091" lon="1.78988">
        <ele>1632.8</ele>
        <time>2024-07-10T16:41:49Z</time>
      </trkpt>
      <trkpt lat="42.59091" lon="1.78998">
        <ele>1630.4</ele>
        <time>2024-07-10T16:41:57Z</time>
      </trkpt>
      <trkpt lat="42.5909" lon="1.79003">
        <ele>1628.2</ele>
        <time>2024-07-10T16:42:02Z</time>
      </trkpt>
      <trkpt lat="42.59087" lon="1.79007">
        <ele>1626</ele>
        <time>2024-07-10T16:42:08Z</time>
      </trkpt>
      <trkpt lat="42.59081" lon="1.79014">
        <ele>1622.4</ele>
        <time>2024-07-10T16:42:16Z</time>
      </trkpt>
      <trkpt lat="42.59076" lon="1.79021">
        <ele>1622</ele>
        <time>2024-07-10T16:42:23Z</time>
      </trkpt>
      <trkpt lat="42.59068" lon="1.79039">
        <ele>1621.8</ele>
        <time>2024-07-10T16:42:33Z</time>
      </trkpt>
      <trkpt lat="42.59067" lon="1.79042">
        <ele>1622.4</ele>
        <time>2024-07-10T16:42:41Z</time>
      </trkpt>
      <trkpt lat="42.59067" lon="1.79042">
        <ele>1624.2</ele>
        <time>2024-07-10T16:42:56Z</time>
      </trkpt>
      <trkpt lat="42.59066" lon="1.79044">
        <ele>1623.8</ele>
        <time>2024-07-10T16:43:15Z</time>
      </trkpt>
      <trkpt lat="42.59055" lon="1.79051">
        <ele>1630.6</ele>
        <time>2024-07-10T16:47:42Z</time>
      </trkpt>
      <trkpt lat="42.59052" lon="1.79053">
        <ele>1630.4</ele>
        <time>2024-07-10T16:47:48Z</time>
      </trkpt>
      <trkpt lat="42.59053" lon="1.79053">
        <ele>1628.6</ele>
        <time>2024-07-10T16:47:57Z</time>
      </trkpt>
      <trkpt lat="42.59054" lon="1.7906">
        <ele>1628.4</ele>
        <time>2024-07-10T16:48:27Z</time>
      </trkpt>
      <trkpt lat="42.59056" lon="1.79067">
        <ele>1625.6</ele>
        <time>2024-07-10T16:48:35Z</time>
      </trkpt>
      <trkpt lat="42.59057" lon="1.79067">
        <ele>1626.4</ele>
        <time>2024-07-10T16:48:45Z</time>
      </trkpt>
      <trkpt lat="42.59065" lon="1.79072">
        <ele>1621.6</ele>
        <time>2024-07-10T16:55:21Z</time>
      </trkpt>
      <trkpt lat="42.59065" lon="1.79081">
        <ele>1620.2</ele>
        <time>2024-07-10T16:55:28Z</time>
      </trkpt>
      <trkpt lat="42.59059" lon="1.7909">
        <ele>1618.6</ele>
        <time>2024-07-10T16:55:34Z</time>
      </trkpt>
      <trkpt lat="42.5906" lon="1.79092">
        <ele>1617.4</ele>
        <time>2024-07-10T16:55:36Z</time>
      </trkpt>
      <trkpt lat="42.59061" lon="1.79093">
        <ele>1617</ele>
        <time>2024-07-10T16:55:37Z</time>
      </trkpt>
      <trkpt lat="42.59067" lon="1.79096">
        <ele>1615.8</ele>
        <time>2024-07-10T16:55:42Z</time>
      </trkpt>
      <trkpt lat="42.59069" lon="1.79098">
        <ele>1615.2</ele>
        <time>2024-07-10T16:55:45Z</time>
      </trkpt>
      <trkpt lat="42.59068" lon="1.79103">
        <ele>1613.6</ele>
        <time>2024-07-10T16:55:48Z</time>
      </trkpt>
      <trkpt lat="42.5906" lon="1.79108">
        <ele>1608.2</ele>
        <time>2024-07-10T16:55:56Z</time>
      </trkpt>
      <trkpt lat="42.5905" lon="1.79112">
        <ele>1603</ele>
        <time>2024-07-10T16:56:04Z</time>
      </trkpt>
      <trkpt lat="42.59049" lon="1.79115">
        <ele>1602</ele>
        <time>2024-07-10T16:56:07Z</time>
      </trkpt>
      <trkpt lat="42.5905" lon="1.79118">
        <ele>1601.4</ele>
        <time>2024-07-10T16:56:09Z</time>
      </trkpt>
      <trkpt lat="42.5906" lon="1.79126">
        <ele>1598</ele>
        <time>2024-07-10T16:56:17Z</time>
      </trkpt>
      <trkpt lat="42.59067" lon="1.79139">
        <ele>1596.6</ele>
        <time>2024-07-10T16:56:25Z</time>
      </trkpt>
      <trkpt lat="42.59071" lon="1.7915">
        <ele>1594.6</ele>
        <time>2024-07-10T16:56:32Z</time>
      </trkpt>
      <trkpt lat="42.59071" lon="1.79152">
        <ele>1594.4</ele>
        <time>2024-07-10T16:56:34Z</time>
      </trkpt>
      <trkpt lat="42.59066" lon="1.79155">
        <ele>1593.2</ele>
        <time>2024-07-10T16:56:37Z</time>
      </trkpt>
      <trkpt lat="42.59064" lon="1.79154">
        <ele>1592.4</ele>
        <time>2024-07-10T16:56:39Z</time>
      </trkpt>
      <trkpt lat="42.59059" lon="1.79153">
        <ele>1591</ele>
        <time>2024-07-10T16:56:43Z</time>
      </trkpt>
      <trkpt lat="42.5905" lon="1.79154">
        <ele>1588.6</ele>
        <time>2024-07-10T16:56:50Z</time>
      </trkpt>
      <trkpt lat="42.59041" lon="1.79152">
        <ele>1587.2</ele>
        <time>2024-07-10T16:56:57Z</time>
      </trkpt>
      <trkpt lat="42.59041" lon="1.79152">
        <ele>1587.2</ele>
        <time>2024-07-10T16:56:58Z</time>
      </trkpt>
      <trkpt lat="42.5904" lon="1.79152">
        <ele>1587.2</ele>
        <time>2024-07-10T16:57:04Z</time>
      </trkpt>
      <trkpt lat="42.5904" lon="1.79152">
        <ele>1587.8</ele>
        <time>2024-07-10T16:57:14Z</time>
      </trkpt>
      <trkpt lat="42.59032" lon="1.79152">
        <ele>1587</ele>
        <time>2024-07-10T16:58:06Z</time>
      </trkpt>
      <trkpt lat="42.59028" lon="1.79153">
        <ele>1586.8</ele>
        <time>2024-07-10T16:58:09Z</time>
      </trkpt>
      <trkpt lat="42.59024" lon="1.79154">
        <ele>1586.6</ele>
        <time>2024-07-10T16:58:11Z</time>
      </trkpt>
      <trkpt lat="42.59017" lon="1.79158">
        <ele>1587.4</ele>
        <time>2024-07-10T16:58:18Z</time>
      </trkpt>
      <trkpt lat="42.59014" lon="1.79161">
        <ele>1586.8</ele>
        <time>2024-07-10T16:58:21Z</time>
      </trkpt>
      <trkpt lat="42.59014" lon="1.79167">
        <ele>1585.8</ele>
        <time>2024-07-10T16:58:25Z</time>
      </trkpt>
      <trkpt lat="42.59004" lon="1.79171">
        <ele>1582</ele>
        <time>2024-07-10T16:58:33Z</time>
      </trkpt>
      <trkpt lat="42.58994" lon="1.79176">
        <ele>1577</ele>
        <time>2024-07-10T16:58:41Z</time>
      </trkpt>
      <trkpt lat="42.58987" lon="1.79181">
        <ele>1575.4</ele>
        <time>2024-07-10T16:58:47Z</time>
      </trkpt>
      <trkpt lat="42.58986" lon="1.79181">
        <ele>1575.2</ele>
        <time>2024-07-10T16:58:48Z</time>
      </trkpt>
      <trkpt lat="42.58982" lon="1.79182">
        <ele>1574</ele>
        <time>2024-07-10T16:58:51Z</time>
      </trkpt>
      <trkpt lat="42.58978" lon="1.79184">
        <ele>1571.6</ele>
        <time>2024-07-10T16:58:55Z</time>
      </trkpt>
      <trkpt lat="42.58964" lon="1.79198">
        <ele>1564.4</ele>
        <time>2024-07-10T16:59:06Z</time>
      </trkpt>
      <trkpt lat="42.58956" lon="1.79206">
        <ele>1561.8</ele>
        <time>2024-07-10T16:59:13Z</time>
      </trkpt>
      <trkpt lat="42.58951" lon="1.79213">
        <ele>1561.2</ele>
        <time>2024-07-10T16:59:20Z</time>
      </trkpt>
      <trkpt lat="42.58949" lon="1.79221">
        <ele>1559.4</ele>
        <time>2024-07-10T16:59:26Z</time>
      </trkpt>
      <trkpt lat="42.58944" lon="1.79231">
        <ele>1558.4</ele>
        <time>2024-07-10T16:59:33Z</time>
      </trkpt>
      <trkpt lat="42.58942" lon="1.79232">
        <ele>1558</ele>
        <time>2024-07-10T16:59:35Z</time>
      </trkpt>
      <trkpt lat="42.58942" lon="1.79234">
        <ele>1558</ele>
        <time>2024-07-10T16:59:37Z</time>
      </trkpt>
      <trkpt lat="42.58943" lon="1.79236">
        <ele>1557.8</ele>
        <time>2024-07-10T16:59:38Z</time>
      </trkpt>
      <trkpt lat="42.58943" lon="1.7924">
        <ele>1557.6</ele>
        <time>2024-07-10T16:59:40Z</time>
      </trkpt>
      <trkpt lat="42.5894" lon="1.79244">
        <ele>1556.4</ele>
        <time>2024-07-10T16:59:44Z</time>
      </trkpt>
      <trkpt lat="42.58935" lon="1.79256">
        <ele>1554.6</ele>
        <time>2024-07-10T16:59:52Z</time>
      </trkpt>
      <trkpt lat="42.5893" lon="1.79263">
        <ele>1554.4</ele>
        <time>2024-07-10T16:59:57Z</time>
      </trkpt>
      <trkpt lat="42.58929" lon="1.79266">
        <ele>1554.4</ele>
        <time>2024-07-10T16:59:59Z</time>
      </trkpt>
      <trkpt lat="42.58927" lon="1.79277">
        <ele>1551.2</ele>
        <time>2024-07-10T17:00:06Z</time>
      </trkpt>
      <trkpt lat="42.58926" lon="1.7928">
        <ele>1550.4</ele>
        <time>2024-07-10T17:00:08Z</time>
      </trkpt>
      <trkpt lat="42.58924" lon="1.79281">
        <ele>1549.8</ele>
        <time>2024-07-10T17:00:10Z</time>
      </trkpt>
      <trkpt lat="42.58923" lon="1.79282">
        <ele>1549.2</ele>
        <time>2024-07-10T17:00:12Z</time>
      </trkpt>
      <trkpt lat="42.58922" lon="1.79287">
        <ele>1547.4</ele>
        <time>2024-07-10T17:00:16Z</time>
      </trkpt>
      <trkpt lat="42.58922" lon="1.7929">
        <ele>1546.6</ele>
        <time>2024-07-10T17:00:18Z</time>
      </trkpt>
      <trkpt lat="42.5892" lon="1.79296">
        <ele>1546.2</ele>
        <time>2024-07-10T17:00:22Z</time>
      </trkpt>
      <trkpt lat="42.58915" lon="1.79304">
        <ele>1546.6</ele>
        <time>2024-07-10T17:00:28Z</time>
      </trkpt>
      <trkpt lat="42.58905" lon="1.79313">
        <ele>1546.2</ele>
        <time>2024-07-10T17:00:36Z</time>
      </trkpt>
      <trkpt lat="42.58897" lon="1.79323">
        <ele>1542.6</ele>
        <time>2024-07-10T17:00:45Z</time>
      </trkpt>
      <trkpt lat="42.5889" lon="1.79333">
        <ele>1539</ele>
        <time>2024-07-10T17:00:53Z</time>
      </trkpt>
      <trkpt lat="42.58886" lon="1.79343">
        <ele>1537.6</ele>
        <time>2024-07-10T17:01:00Z</time>
      </trkpt>
      <trkpt lat="42.58882" lon="1.79349">
        <ele>1536.2</ele>
        <time>2024-07-10T17:01:04Z</time>
      </trkpt>
      <trkpt lat="42.58879" lon="1.79351">
        <ele>1535.6</ele>
        <time>2024-07-10T17:01:07Z</time>
      </trkpt>
      <trkpt lat="42.58877" lon="1.79352">
        <ele>1535.2</ele>
        <time>2024-07-10T17:01:09Z</time>
      </trkpt>
      <trkpt lat="42.58871" lon="1.79358">
        <ele>1534.8</ele>
        <time>2024-07-10T17:01:14Z</time>
      </trkpt>
      <trkpt lat="42.5886" lon="1.79364">
        <ele>1532.6</ele>
        <time>2024-07-10T17:01:22Z</time>
      </trkpt>
      <trkpt lat="42.58847" lon="1.79371">
        <ele>1528.8</ele>
        <time>2024-07-10T17:01:32Z</time>
      </trkpt>
      <trkpt lat="42.58845" lon="1.79373">
        <ele>1528.4</ele>
        <time>2024-07-10T17:01:34Z</time>
      </trkpt>
      <trkpt lat="42.58837" lon="1.79377">
        <ele>1528.4</ele>
        <time>2024-07-10T17:01:40Z</time>
      </trkpt>
      <trkpt lat="42.58823" lon="1.79386">
        <ele>1528.4</ele>
        <time>2024-07-10T17:01:48Z</time>
      </trkpt>
      <trkpt lat="42.58812" lon="1.79391">
        <ele>1526.4</ele>
        <time>2024-07-10T17:01:57Z</time>
      </trkpt>
      <trkpt lat="42.58797" lon="1.79394">
        <ele>1526</ele>
        <time>2024-07-10T17:02:05Z</time>
      </trkpt>
      <trkpt lat="42.5879" lon="1.79395">
        <ele>1525.6</ele>
        <time>2024-07-10T17:02:11Z</time>
      </trkpt>
      <trkpt lat="42.58779" lon="1.79397">
        <ele>1520.8</ele>
        <time>2024-07-10T17:02:19Z</time>
      </trkpt>
      <trkpt lat="42.58766" lon="1.79398">
        <ele>1517.2</ele>
        <time>2024-07-10T17:02:27Z</time>
      </trkpt>
      <trkpt lat="42.58754" lon="1.794">
        <ele>1515</ele>
        <time>2024-07-10T17:02:35Z</time>
      </trkpt>
      <trkpt lat="42.58742" lon="1.79409">
        <ele>1515.4</ele>
        <time>2024-07-10T17:02:44Z</time>
      </trkpt>
      <trkpt lat="42.58739" lon="1.79411">
        <ele>1515.8</ele>
        <time>2024-07-10T17:02:47Z</time>
      </trkpt>
      <trkpt lat="42.58734" lon="1.79412">
        <ele>1515.6</ele>
        <time>2024-07-10T17:02:51Z</time>
      </trkpt>
      <trkpt lat="42.58724" lon="1.79418">
        <ele>1514.8</ele>
        <time>2024-07-10T17:02:59Z</time>
      </trkpt>
      <trkpt lat="42.58718" lon="1.79425">
        <ele>1513</ele>
        <time>2024-07-10T17:03:05Z</time>
      </trkpt>
      <trkpt lat="42.58708" lon="1.79435">
        <ele>1511</ele>
        <time>2024-07-10T17:03:14Z</time>
      </trkpt>
      <trkpt lat="42.58697" lon="1.79443">
        <ele>1509</ele>
        <time>2024-07-10T17:03:22Z</time>
      </trkpt>
      <trkpt lat="42.58688" lon="1.79449">
        <ele>1507.2</ele>
        <time>2024-07-10T17:03:30Z</time>
      </trkpt>
      <trkpt lat="42.58685" lon="1.79451">
        <ele>1507</ele>
        <time>2024-07-10T17:03:33Z</time>
      </trkpt>
      <trkpt lat="42.58675" lon="1.79459">
        <ele>1507.2</ele>
        <time>2024-07-10T17:03:38Z</time>
      </trkpt>
      <trkpt lat="42.58665" lon="1.79469">
        <ele>1506.6</ele>
        <time>2024-07-10T17:03:46Z</time>
      </trkpt>
      <trkpt lat="42.5866" lon="1.79471">
        <ele>1505.2</ele>
        <time>2024-07-10T17:03:49Z</time>
      </trkpt>
      <trkpt lat="42.58655" lon="1.79473">
        <ele>1501.6</ele>
        <time>2024-07-10T17:03:54Z</time>
      </trkpt>
      <trkpt lat="42.5865" lon="1.79481">
        <ele>1498.6</ele>
        <time>2024-07-10T17:04:00Z</time>
      </trkpt>
      <trkpt lat="42.58639" lon="1.7949">
        <ele>1497.6</ele>
        <time>2024-07-10T17:04:08Z</time>
      </trkpt>
      <trkpt lat="42.58631" lon="1.79498">
        <ele>1494.2</ele>
        <time>2024-07-10T17:04:15Z</time>
      </trkpt>
      <trkpt lat="42.58631" lon="1.79498">
        <ele>1493.4</ele>
        <time>2024-07-10T17:04:17Z</time>
      </trkpt>
      <trkpt lat="42.58633" lon="1.79498">
        <ele>1492.2</ele>
        <time>2024-07-10T17:04:19Z</time>
      </trkpt>
      <trkpt lat="42.58639" lon="1.79498">
        <ele>1489.2</ele>
        <time>2024-07-10T17:04:23Z</time>
      </trkpt>
      <trkpt lat="42.58653" lon="1.795">
        <ele>1486.4</ele>
        <time>2024-07-10T17:04:33Z</time>
      </trkpt>
      <trkpt lat="42.58663" lon="1.79501">
        <ele>1484.6</ele>
        <time>2024-07-10T17:04:41Z</time>
      </trkpt>
      <trkpt lat="42.58674" lon="1.79504">
        <ele>1482.2</ele>
        <time>2024-07-10T17:04:49Z</time>
      </trkpt>
      <trkpt lat="42.58681" lon="1.79505">
        <ele>1481.2</ele>
        <time>2024-07-10T17:04:54Z</time>
      </trkpt>
      <trkpt lat="42.58681" lon="1.79506">
        <ele>1481</ele>
        <time>2024-07-10T17:04:55Z</time>
      </trkpt>
      <trkpt lat="42.58684" lon="1.7951">
        <ele>1479.8</ele>
        <time>2024-07-10T17:05:00Z</time>
      </trkpt>
      <trkpt lat="42.58695" lon="1.7951">
        <ele>1478.4</ele>
        <time>2024-07-10T17:05:09Z</time>
      </trkpt>
      <trkpt lat="42.58703" lon="1.79507">
        <ele>1477.8</ele>
        <time>2024-07-10T17:05:16Z</time>
      </trkpt>
      <trkpt lat="42.58713" lon="1.79509">
        <ele>1476</ele>
        <time>2024-07-10T17:05:24Z</time>
      </trkpt>
      <trkpt lat="42.58715" lon="1.7951">
        <ele>1475.2</ele>
        <time>2024-07-10T17:05:26Z</time>
      </trkpt>
      <trkpt lat="42.58722" lon="1.7951">
        <ele>1473.4</ele>
        <time>2024-07-10T17:05:32Z</time>
      </trkpt>
      <trkpt lat="42.58735" lon="1.79514">
        <ele>1469.6</ele>
        <time>2024-07-10T17:05:42Z</time>
      </trkpt>
      <trkpt lat="42.58739" lon="1.79515">
        <ele>1468.6</ele>
        <time>2024-07-10T17:05:45Z</time>
      </trkpt>
      <trkpt lat="42.58739" lon="1.79518">
        <ele>1467.6</ele>
        <time>2024-07-10T17:05:47Z</time>
      </trkpt>
      <trkpt lat="42.58738" lon="1.79524">
        <ele>1465.8</ele>
        <time>2024-07-10T17:05:51Z</time>
      </trkpt>
      <trkpt lat="42.58735" lon="1.79525">
        <ele>1465</ele>
        <time>2024-07-10T17:05:53Z</time>
      </trkpt>
      <trkpt lat="42.58734" lon="1.79525">
        <ele>1464.8</ele>
        <time>2024-07-10T17:05:54Z</time>
      </trkpt>
      <trkpt lat="42.58726" lon="1.79529">
        <ele>1464</ele>
        <time>2024-07-10T17:06:00Z</time>
      </trkpt>
      <trkpt lat="42.58721" lon="1.79531">
        <ele>1464</ele>
        <time>2024-07-10T17:06:05Z</time>
      </trkpt>
      <trkpt lat="42.58721" lon="1.79534">
        <ele>1463.8</ele>
        <time>2024-07-10T17:06:07Z</time>
      </trkpt>
      <trkpt lat="42.5872" lon="1.79534">
        <ele>1463.6</ele>
        <time>2024-07-10T17:06:08Z</time>
      </trkpt>
      <trkpt lat="42.58717" lon="1.79536">
        <ele>1462.4</ele>
        <time>2024-07-10T17:06:12Z</time>
      </trkpt>
      <trkpt lat="42.58717" lon="1.79537">
        <ele>1462.2</ele>
        <time>2024-07-10T17:06:13Z</time>
      </trkpt>
      <trkpt lat="42.58714" lon="1.79546">
        <ele>1461.2</ele>
        <time>2024-07-10T17:06:19Z</time>
      </trkpt>
      <trkpt lat="42.58709" lon="1.79556">
        <ele>1460.6</ele>
        <time>2024-07-10T17:06:27Z</time>
      </trkpt>
      <trkpt lat="42.58703" lon="1.79573">
        <ele>1458.2</ele>
        <time>2024-07-10T17:06:37Z</time>
      </trkpt>
      <trkpt lat="42.587" lon="1.79575">
        <ele>1457.2</ele>
        <time>2024-07-10T17:06:40Z</time>
      </trkpt>
      <trkpt lat="42.58698" lon="1.79576">
        <ele>1456.4</ele>
        <time>2024-07-10T17:06:43Z</time>
      </trkpt>
      <trkpt lat="42.58698" lon="1.79575">
        <ele>1455</ele>
        <time>2024-07-10T17:06:48Z</time>
      </trkpt>
      <trkpt lat="42.58693" lon="1.79577">
        <ele>1454.4</ele>
        <time>2024-07-10T17:06:54Z</time>
      </trkpt>
      <trkpt lat="42.58695" lon="1.79582">
        <ele>1454.2</ele>
        <time>2024-07-10T17:06:59Z</time>
      </trkpt>
      <trkpt lat="42.58697" lon="1.79598">
        <ele>1451.4</ele>
        <time>2024-07-10T17:07:09Z</time>
      </trkpt>
      <trkpt lat="42.58705" lon="1.79604">
        <ele>1447</ele>
        <time>2024-07-10T17:07:16Z</time>
      </trkpt>
      <trkpt lat="42.58701" lon="1.79609">
        <ele>1443.6</ele>
        <time>2024-07-10T17:07:21Z</time>
      </trkpt>
      <trkpt lat="42.58693" lon="1.79607">
        <ele>1441.6</ele>
        <time>2024-07-10T17:07:27Z</time>
      </trkpt>
      <trkpt lat="42.58684" lon="1.79609">
        <ele>1442</ele>
        <time>2024-07-10T17:07:32Z</time>
      </trkpt>
      <trkpt lat="42.58681" lon="1.7961">
        <ele>1442.4</ele>
        <time>2024-07-10T17:07:34Z</time>
      </trkpt>
      <trkpt lat="42.58678" lon="1.79611">
        <ele>1442.8</ele>
        <time>2024-07-10T17:07:37Z</time>
      </trkpt>
      <trkpt lat="42.58669" lon="1.79614">
        <ele>1443.8</ele>
        <time>2024-07-10T17:07:45Z</time>
      </trkpt>
      <trkpt lat="42.58654" lon="1.79615">
        <ele>1444.4</ele>
        <time>2024-07-10T17:07:54Z</time>
      </trkpt>
      <trkpt lat="42.58655" lon="1.79614">
        <ele>1444.8</ele>
        <time>2024-07-10T17:08:00Z</time>
      </trkpt>
      <trkpt lat="42.58668" lon="1.79612">
        <ele>1445.4</ele>
        <time>2024-07-10T17:08:07Z</time>
      </trkpt>
      <trkpt lat="42.58679" lon="1.79609">
        <ele>1445.4</ele>
        <time>2024-07-10T17:08:15Z</time>
      </trkpt>
      <trkpt lat="42.58683" lon="1.7961">
        <ele>1445.8</ele>
        <time>2024-07-10T17:08:19Z</time>
      </trkpt>
      <trkpt lat="42.58683" lon="1.79613">
        <ele>1446</ele>
        <time>2024-07-10T17:08:20Z</time>
      </trkpt>
      <trkpt lat="42.58685" lon="1.79615">
        <ele>1446.2</ele>
        <time>2024-07-10T17:08:21Z</time>
      </trkpt>
      <trkpt lat="42.58693" lon="1.79612">
        <ele>1446.2</ele>
        <time>2024-07-10T17:08:24Z</time>
      </trkpt>
      <trkpt lat="42.58701" lon="1.79604">
        <ele>1444.6</ele>
        <time>2024-07-10T17:08:30Z</time>
      </trkpt>
      <trkpt lat="42.58703" lon="1.79601">
        <ele>1444.4</ele>
        <time>2024-07-10T17:08:34Z</time>
      </trkpt>
      <trkpt lat="42.58702" lon="1.796">
        <ele>1444.2</ele>
        <time>2024-07-10T17:08:35Z</time>
      </trkpt>
      <trkpt lat="42.58695" lon="1.79596">
        <ele>1445.8</ele>
        <time>2024-07-10T17:08:43Z</time>
      </trkpt>
      <trkpt lat="42.58695" lon="1.79594">
        <ele>1446</ele>
        <time>2024-07-10T17:08:44Z</time>
      </trkpt>
      <trkpt lat="42.58695" lon="1.7959">
        <ele>1446.4</ele>
        <time>2024-07-10T17:08:47Z</time>
      </trkpt>
      <trkpt lat="42.58694" lon="1.79583">
        <ele>1447.4</ele>
        <time>2024-07-10T17:08:53Z</time>
      </trkpt>
      <trkpt lat="42.58691" lon="1.7958">
        <ele>1448.4</ele>
        <time>2024-07-10T17:08:58Z</time>
      </trkpt>
      <trkpt lat="42.58687" lon="1.79582">
        <ele>1449.2</ele>
        <time>2024-07-10T17:09:02Z</time>
      </trkpt>
      <trkpt lat="42.58684" lon="1.79587">
        <ele>1449.8</ele>
        <time>2024-07-10T17:09:06Z</time>
      </trkpt>
      <trkpt lat="42.58685" lon="1.79591">
        <ele>1450</ele>
        <time>2024-07-10T17:09:08Z</time>
      </trkpt>
      <trkpt lat="42.58686" lon="1.79592">
        <ele>1450</ele>
        <time>2024-07-10T17:09:09Z</time>
      </trkpt>
      <trkpt lat="42.58688" lon="1.79594">
        <ele>1448.8</ele>
        <time>2024-07-10T17:09:16Z</time>
      </trkpt>
      <trkpt lat="42.58688" lon="1.79594">
        <ele>1447.8</ele>
        <time>2024-07-10T17:09:21Z</time>
      </trkpt>
      <trkpt lat="42.58688" lon="1.79592">
        <ele>1447.4</ele>
        <time>2024-07-10T17:09:28Z</time>
      </trkpt>
      <trkpt lat="42.58688" lon="1.79592">
        <ele>1447.6</ele>
        <time>2024-07-10T17:09:35Z</time>
      </trkpt>
      <trkpt lat="42.58689" lon="1.79592">
        <ele>1448</ele>
        <time>2024-07-10T17:09:44Z</time>
      </trkpt>
      <trkpt lat="42.58695" lon="1.79601">
        <ele>1453.8</ele>
        <time>2024-07-10T17:10:31Z</time>
      </trkpt>
      <trkpt lat="42.58707" lon="1.79616">
        <ele>1451.2</ele>
        <time>2024-07-10T17:10:41Z</time>
      </trkpt>
      <trkpt lat="42.58717" lon="1.79631">
        <ele>1447.6</ele>
        <time>2024-07-10T17:10:52Z</time>
      </trkpt>
      <trkpt lat="42.58728" lon="1.79646">
        <ele>1446.2</ele>
        <time>2024-07-10T17:11:03Z</time>
      </trkpt>
      <trkpt lat="42.58734" lon="1.79655">
        <ele>1446.8</ele>
        <time>2024-07-10T17:11:12Z</time>
      </trkpt>
      <trkpt lat="42.58734" lon="1.79657">
        <ele>1446.8</ele>
        <time>2024-07-10T17:11:13Z</time>
      </trkpt>
      <trkpt lat="42.58742" lon="1.79669">
        <ele>1445.6</ele>
        <time>2024-07-10T17:11:22Z</time>
      </trkpt>
      <trkpt lat="42.58755" lon="1.79683">
        <ele>1441.4</ele>
        <time>2024-07-10T17:11:34Z</time>
      </trkpt>
      <trkpt lat="42.58769" lon="1.79699">
        <ele>1438.4</ele>
        <time>2024-07-10T17:11:47Z</time>
      </trkpt>
      <trkpt lat="42.58779" lon="1.79713">
        <ele>1441.2</ele>
        <time>2024-07-10T17:11:58Z</time>
      </trkpt>
      <trkpt lat="42.58786" lon="1.7972">
        <ele>1445.4</ele>
        <time>2024-07-10T17:12:04Z</time>
      </trkpt>
      <trkpt lat="42.58789" lon="1.79723">
        <ele>1447.6</ele>
        <time>2024-07-10T17:12:07Z</time>
      </trkpt>
      <trkpt lat="42.58791" lon="1.79727">
        <ele>1448.8</ele>
        <time>2024-07-10T17:12:10Z</time>
      </trkpt>
      <trkpt lat="42.58798" lon="1.7974">
        <ele>1449.6</ele>
        <time>2024-07-10T17:12:19Z</time>
      </trkpt>
      <trkpt lat="42.588" lon="1.79745">
        <ele>1450</ele>
        <time>2024-07-10T17:12:22Z</time>
      </trkpt>
      <trkpt lat="42.58799" lon="1.79751">
        <ele>1451.2</ele>
        <time>2024-07-10T17:12:26Z</time>
      </trkpt>
      <trkpt lat="42.58799" lon="1.79759">
        <ele>1451.4</ele>
        <time>2024-07-10T17:12:30Z</time>
      </trkpt>
      <trkpt lat="42.58801" lon="1.79763">
        <ele>1451</ele>
        <time>2024-07-10T17:12:33Z</time>
      </trkpt>
      <trkpt lat="42.58807" lon="1.79775">
        <ele>1448.4</ele>
        <time>2024-07-10T17:12:40Z</time>
      </trkpt>
      <trkpt lat="42.58815" lon="1.79789">
        <ele>1447.6</ele>
        <time>2024-07-10T17:12:50Z</time>
      </trkpt>
      <trkpt lat="42.58816" lon="1.79792">
        <ele>1447.6</ele>
        <time>2024-07-10T17:12:52Z</time>
      </trkpt>
      <trkpt lat="42.58819" lon="1.79798">
        <ele>1446.6</ele>
        <time>2024-07-10T17:12:56Z</time>
      </trkpt>
      <trkpt lat="42.58827" lon="1.79812">
        <ele>1443.8</ele>
        <time>2024-07-10T17:13:05Z</time>
      </trkpt>
      <trkpt lat="42.58834" lon="1.79823">
        <ele>1442.4</ele>
        <time>2024-07-10T17:13:13Z</time>
      </trkpt>
      <trkpt lat="42.58836" lon="1.79832">
        <ele>1441</ele>
        <time>2024-07-10T17:13:19Z</time>
      </trkpt>
      <trkpt lat="42.58836" lon="1.79834">
        <ele>1441</ele>
        <time>2024-07-10T17:13:20Z</time>
      </trkpt>
      <trkpt lat="42.58838" lon="1.79835">
        <ele>1440.8</ele>
        <time>2024-07-10T17:13:22Z</time>
      </trkpt>
      <trkpt lat="42.58839" lon="1.79834">
        <ele>1440.8</ele>
        <time>2024-07-10T17:13:25Z</time>
      </trkpt>
      <trkpt lat="42.5884" lon="1.79833">
        <ele>1440.8</ele>
        <time>2024-07-10T17:13:26Z</time>
      </trkpt>
      <trkpt lat="42.58846" lon="1.79833">
        <ele>1440.8</ele>
        <time>2024-07-10T17:13:31Z</time>
      </trkpt>
      <trkpt lat="42.58853" lon="1.79838">
        <ele>1440.2</ele>
        <time>2024-07-10T17:13:38Z</time>
      </trkpt>
      <trkpt lat="42.58854" lon="1.7984">
        <ele>1439.8</ele>
        <time>2024-07-10T17:13:40Z</time>
      </trkpt>
      <trkpt lat="42.58855" lon="1.79843">
        <ele>1439.2</ele>
        <time>2024-07-10T17:13:42Z</time>
      </trkpt>
      <trkpt lat="42.58855" lon="1.79845">
        <ele>1438.8</ele>
        <time>2024-07-10T17:13:44Z</time>
      </trkpt>
      <trkpt lat="42.58856" lon="1.79846">
        <ele>1438.6</ele>
        <time>2024-07-10T17:13:46Z</time>
      </trkpt>
      <trkpt lat="42.58856" lon="1.79846">
        <ele>1438.6</ele>
        <time>2024-07-10T17:13:48Z</time>
      </trkpt>
      <trkpt lat="42.58857" lon="1.79846">
        <ele>1439.2</ele>
        <time>2024-07-10T17:13:54Z</time>
      </trkpt>
      <trkpt lat="42.58857" lon="1.79847">
        <ele>1438.8</ele>
        <time>2024-07-10T17:14:01Z</time>
      </trkpt>
      <trkpt lat="42.58856" lon="1.79847">
        <ele>1438.4</ele>
        <time>2024-07-10T17:14:17Z</time>
      </trkpt>
      <trkpt lat="42.58861" lon="1.79817">
        <ele>1444</ele>
        <time>2024-07-10T17:17:34Z</time>
      </trkpt>
      <trkpt lat="42.58869" lon="1.79813">
        <ele>1444</ele>
        <time>2024-07-10T17:17:35Z</time>
      </trkpt>
      <trkpt lat="42.58871" lon="1.79833">
        <ele>1456.8</ele>
        <time>2024-07-10T17:17:36Z</time>
      </trkpt>
      <trkpt lat="42.58845" lon="1.79859">
        <ele>1458.4</ele>
        <time>2024-07-10T17:17:41Z</time>
      </trkpt>
      <trkpt lat="42.58851" lon="1.79856">
        <ele>1457.4</ele>
        <time>2024-07-10T17:17:44Z</time>
      </trkpt>
      <trkpt lat="42.58855" lon="1.79859">
        <ele>1451.4</ele>
        <time>2024-07-10T17:17:51Z</time>
      </trkpt>
      <trkpt lat="42.58854" lon="1.7986">
        <ele>1451.6</ele>
        <time>2024-07-10T17:17:55Z</time>
      </trkpt>
      <trkpt lat="42.58856" lon="1.79861">
        <ele>1453.2</ele>
        <time>2024-07-10T17:18:05Z</time>
      </trkpt>
      <trkpt lat="42.58858" lon="1.79857">
        <ele>1453.6</ele>
        <time>2024-07-10T17:18:16Z</time>
      </trkpt>
      <trkpt lat="42.58855" lon="1.79852">
        <ele>1452</ele>
        <time>2024-07-10T17:18:24Z</time>
      </trkpt>
      <trkpt lat="42.58856" lon="1.7985">
        <ele>1452</ele>
        <time>2024-07-10T17:18:28Z</time>
      </trkpt>
      <trkpt lat="42.58855" lon="1.79843">
        <ele>1452.6</ele>
        <time>2024-07-10T17:18:34Z</time>
      </trkpt>
      <trkpt lat="42.58848" lon="1.7984">
        <ele>1454.4</ele>
        <time>2024-07-10T17:18:42Z</time>
      </trkpt>
      <trkpt lat="42.58846" lon="1.7984">
        <ele>1454.6</ele>
        <time>2024-07-10T17:18:44Z</time>
      </trkpt>
      <trkpt lat="42.58842" lon="1.79839">
        <ele>1454.6</ele>
        <time>2024-07-10T17:18:48Z</time>
      </trkpt>
      <trkpt lat="42.58834" lon="1.79842">
        <ele>1456.2</ele>
        <time>2024-07-10T17:18:55Z</time>
      </trkpt>
      <trkpt lat="42.58829" lon="1.79845">
        <ele>1456.2</ele>
        <time>2024-07-10T17:18:59Z</time>
      </trkpt>
      <trkpt lat="42.58825" lon="1.79849">
        <ele>1455</ele>
        <time>2024-07-10T17:19:04Z</time>
      </trkpt>
      <trkpt lat="42.58819" lon="1.79852">
        <ele>1454.2</ele>
        <time>2024-07-10T17:19:08Z</time>
      </trkpt>
      <trkpt lat="42.58814" lon="1.79855">
        <ele>1451.2</ele>
        <time>2024-07-10T17:19:13Z</time>
      </trkpt>
      <trkpt lat="42.58806" lon="1.79864">
        <ele>1446.2</ele>
        <time>2024-07-10T17:19:23Z</time>
      </trkpt>
      <trkpt lat="42.58801" lon="1.79872">
        <ele>1441.6</ele>
        <time>2024-07-10T17:19:33Z</time>
      </trkpt>
      <trkpt lat="42.58801" lon="1.79874">
        <ele>1439.6</ele>
        <time>2024-07-10T17:19:39Z</time>
      </trkpt>
      <trkpt lat="42.58801" lon="1.79875">
        <ele>1439.8</ele>
        <time>2024-07-10T17:19:44Z</time>
      </trkpt>
      <trkpt lat="42.58805" lon="1.79877">
        <ele>1443.4</ele>
        <time>2024-07-10T17:19:49Z</time>
      </trkpt>
      <trkpt lat="42.58807" lon="1.7988">
        <ele>1450.4</ele>
        <time>2024-07-10T17:19:57Z</time>
      </trkpt>
      <trkpt lat="42.5881" lon="1.79879">
        <ele>1455.6</ele>
        <time>2024-07-10T17:20:03Z</time>
      </trkpt>
      <trkpt lat="42.58812" lon="1.79879">
        <ele>1457.8</ele>
        <time>2024-07-10T17:20:07Z</time>
      </trkpt>
      <trkpt lat="42.58812" lon="1.79877">
        <ele>1458</ele>
        <time>2024-07-10T17:20:08Z</time>
      </trkpt>
      <trkpt lat="42.5914" lon="1.80389">
        <ele>1442.4</ele>
        <time>2024-07-11T07:24:30Z</time>
      </trkpt>
      <trkpt lat="42.59135" lon="1.80367">
        <ele>1455.4</ele>
        <time>2024-07-11T07:24:42Z</time>
      </trkpt>
      <trkpt lat="42.59133" lon="1.80355">
        <ele>1455.2</ele>
        <time>2024-07-11T07:24:50Z</time>
      </trkpt>
      <trkpt lat="42.59128" lon="1.80341">
        <ele>1454.6</ele>
        <time>2024-07-11T07:24:58Z</time>
      </trkpt>
      <trkpt lat="42.59122" lon="1.80333">
        <ele>1454.4</ele>
        <time>2024-07-11T07:25:05Z</time>
      </trkpt>
      <trkpt lat="42.59119" lon="1.80328">
        <ele>1454.2</ele>
        <time>2024-07-11T07:25:10Z</time>
      </trkpt>
      <trkpt lat="42.59117" lon="1.80328">
        <ele>1454</ele>
        <time>2024-07-11T07:25:12Z</time>
      </trkpt>
      <trkpt lat="42.59111" lon="1.80325">
        <ele>1454</ele>
        <time>2024-07-11T07:25:18Z</time>
      </trkpt>
      <trkpt lat="42.59108" lon="1.80322">
        <ele>1454</ele>
        <time>2024-07-11T07:25:20Z</time>
      </trkpt>
      <trkpt lat="42.59099" lon="1.80301">
        <ele>1450.2</ele>
        <time>2024-07-11T07:25:33Z</time>
      </trkpt>
      <trkpt lat="42.59093" lon="1.80282">
        <ele>1447.6</ele>
        <time>2024-07-11T07:25:44Z</time>
      </trkpt>
      <trkpt lat="42.59083" lon="1.80261">
        <ele>1445.8</ele>
        <time>2024-07-11T07:25:57Z</time>
      </trkpt>
      <trkpt lat="42.5908" lon="1.8025">
        <ele>1445</ele>
        <time>2024-07-11T07:26:05Z</time>
      </trkpt>
      <trkpt lat="42.59074" lon="1.80238">
        <ele>1443.6</ele>
        <time>2024-07-11T07:26:14Z</time>
      </trkpt>
      <trkpt lat="42.59067" lon="1.80216">
        <ele>1440.6</ele>
        <time>2024-07-11T07:26:27Z</time>
      </trkpt>
      <trkpt lat="42.59062" lon="1.802">
        <ele>1439.4</ele>
        <time>2024-07-11T07:26:38Z</time>
      </trkpt>
      <trkpt lat="42.59056" lon="1.80184">
        <ele>1437.4</ele>
        <time>2024-07-11T07:26:49Z</time>
      </trkpt>
      <trkpt lat="42.59052" lon="1.80171">
        <ele>1435.8</ele>
        <time>2024-07-11T07:26:58Z</time>
      </trkpt>
      <trkpt lat="42.59047" lon="1.80159">
        <ele>1434.8</ele>
        <time>2024-07-11T07:27:07Z</time>
      </trkpt>
      <trkpt lat="42.59042" lon="1.80142">
        <ele>1434.2</ele>
        <time>2024-07-11T07:27:19Z</time>
      </trkpt>
      <trkpt lat="42.59035" lon="1.80123">
        <ele>1432.8</ele>
        <time>2024-07-11T07:27:32Z</time>
      </trkpt>
      <trkpt lat="42.5903" lon="1.80106">
        <ele>1433.2</ele>
        <time>2024-07-11T07:27:43Z</time>
      </trkpt>
      <trkpt lat="42.59026" lon="1.8009">
        <ele>1434</ele>
        <time>2024-07-11T07:27:53Z</time>
      </trkpt>
      <trkpt lat="42.5902" lon="1.80071">
        <ele>1434.6</ele>
        <time>2024-07-11T07:28:05Z</time>
      </trkpt>
      <trkpt lat="42.59012" lon="1.80054">
        <ele>1433.2</ele>
        <time>2024-07-11T07:28:17Z</time>
      </trkpt>
      <trkpt lat="42.59004" lon="1.80036">
        <ele>1433.8</ele>
        <time>2024-07-11T07:28:30Z</time>
      </trkpt>
      <trkpt lat="42.58998" lon="1.80024">
        <ele>1434</ele>
        <time>2024-07-11T07:28:40Z</time>
      </trkpt>
      <trkpt lat="42.58991" lon="1.80013">
        <ele>1433.8</ele>
        <time>2024-07-11T07:28:49Z</time>
      </trkpt>
      <trkpt lat="42.58982" lon="1.79999">
        <ele>1434.2</ele>
        <time>2024-07-11T07:29:01Z</time>
      </trkpt>
      <trkpt lat="42.58973" lon="1.79988">
        <ele>1435.6</ele>
        <time>2024-07-11T07:29:11Z</time>
      </trkpt>
      <trkpt lat="42.58966" lon="1.79978">
        <ele>1436.8</ele>
        <time>2024-07-11T07:29:19Z</time>
      </trkpt>
      <trkpt lat="42.58957" lon="1.79968">
        <ele>1438.4</ele>
        <time>2024-07-11T07:29:29Z</time>
      </trkpt>
      <trkpt lat="42.58949" lon="1.79959">
        <ele>1441.2</ele>
        <time>2024-07-11T07:29:38Z</time>
      </trkpt>
      <trkpt lat="42.58939" lon="1.79951">
        <ele>1441.2</ele>
        <time>2024-07-11T07:29:48Z</time>
      </trkpt>
      <trkpt lat="42.58927" lon="1.79942">
        <ele>1441.8</ele>
        <time>2024-07-11T07:29:59Z</time>
      </trkpt>
      <trkpt lat="42.58918" lon="1.79935">
        <ele>1442.6</ele>
        <time>2024-07-11T07:30:08Z</time>
      </trkpt>
      <trkpt lat="42.58907" lon="1.79923">
        <ele>1443.6</ele>
        <time>2024-07-11T07:30:19Z</time>
      </trkpt>
      <trkpt lat="42.589" lon="1.79914">
        <ele>1444.8</ele>
        <time>2024-07-11T07:30:28Z</time>
      </trkpt>
      <trkpt lat="42.58891" lon="1.7991">
        <ele>1443.6</ele>
        <time>2024-07-11T07:30:37Z</time>
      </trkpt>
      <trkpt lat="42.58887" lon="1.79909">
        <ele>1443.2</ele>
        <time>2024-07-11T07:30:41Z</time>
      </trkpt>
      <trkpt lat="42.58882" lon="1.79906">
        <ele>1442.8</ele>
        <time>2024-07-11T07:30:45Z</time>
      </trkpt>
      <trkpt lat="42.58873" lon="1.79898">
        <ele>1441</ele>
        <time>2024-07-11T07:30:54Z</time>
      </trkpt>
      <trkpt lat="42.58867" lon="1.7988">
        <ele>1440.8</ele>
        <time>2024-07-11T07:31:05Z</time>
      </trkpt>
      <trkpt lat="42.58862" lon="1.79866">
        <ele>1441.8</ele>
        <time>2024-07-11T07:31:14Z</time>
      </trkpt>
      <trkpt lat="42.58856" lon="1.79854">
        <ele>1443.6</ele>
        <time>2024-07-11T07:31:24Z</time>
      </trkpt>
      <trkpt lat="42.58851" lon="1.79844">
        <ele>1445.6</ele>
        <time>2024-07-11T07:31:31Z</time>
      </trkpt>
      <trkpt lat="42.58841" lon="1.79841">
        <ele>1446.8</ele>
        <time>2024-07-11T07:31:37Z</time>
      </trkpt>
      <trkpt lat="42.5883" lon="1.79842">
        <ele>1446.2</ele>
        <time>2024-07-11T07:31:46Z</time>
      </trkpt>
      <trkpt lat="42.58829" lon="1.79843">
        <ele>1446.4</ele>
        <time>2024-07-11T07:31:47Z</time>
      </trkpt>
      <trkpt lat="42.58824" lon="1.79849">
        <ele>1446.8</ele>
        <time>2024-07-11T07:31:54Z</time>
      </trkpt>
      <trkpt lat="42.5882" lon="1.79854">
        <ele>1446</ele>
        <time>2024-07-11T07:32:01Z</time>
      </trkpt>
      <trkpt lat="42.58818" lon="1.79854">
        <ele>1446</ele>
        <time>2024-07-11T07:32:02Z</time>
      </trkpt>
      <trkpt lat="42.58805" lon="1.7985">
        <ele>1444.4</ele>
        <time>2024-07-11T07:32:11Z</time>
      </trkpt>
      <trkpt lat="42.58795" lon="1.79853">
        <ele>1444</ele>
        <time>2024-07-11T07:32:18Z</time>
      </trkpt>
      <trkpt lat="42.58792" lon="1.79853">
        <ele>1444.2</ele>
        <time>2024-07-11T07:32:21Z</time>
      </trkpt>
      <trkpt lat="42.58787" lon="1.79852">
        <ele>1444.6</ele>
        <time>2024-07-11T07:32:25Z</time>
      </trkpt>
      <trkpt lat="42.5878" lon="1.79846">
        <ele>1445.8</ele>
        <time>2024-07-11T07:32:33Z</time>
      </trkpt>
      <trkpt lat="42.58778" lon="1.79843">
        <ele>1446.4</ele>
        <time>2024-07-11T07:32:36Z</time>
      </trkpt>
      <trkpt lat="42.58775" lon="1.79839">
        <ele>1446.8</ele>
        <time>2024-07-11T07:32:40Z</time>
      </trkpt>
      <trkpt lat="42.58774" lon="1.79837">
        <ele>1447.4</ele>
        <time>2024-07-11T07:32:42Z</time>
      </trkpt>
      <trkpt lat="42.5877" lon="1.7983">
        <ele>1451</ele>
        <time>2024-07-11T07:32:48Z</time>
      </trkpt>
      <trkpt lat="42.58768" lon="1.79825">
        <ele>1453.4</ele>
        <time>2024-07-11T07:32:51Z</time>
      </trkpt>
      <trkpt lat="42.58764" lon="1.79818">
        <ele>1455.6</ele>
        <time>2024-07-11T07:32:55Z</time>
      </trkpt>
      <trkpt lat="42.58758" lon="1.79818">
        <ele>1456.2</ele>
        <time>2024-07-11T07:32:58Z</time>
      </trkpt>
      <trkpt lat="42.58757" lon="1.79817">
        <ele>1456.4</ele>
        <time>2024-07-11T07:32:59Z</time>
      </trkpt>
      <trkpt lat="42.58749" lon="1.79813">
        <ele>1455.8</ele>
        <time>2024-07-11T07:33:05Z</time>
      </trkpt>
      <trkpt lat="42.58741" lon="1.79816">
        <ele>1454.4</ele>
        <time>2024-07-11T07:33:12Z</time>
      </trkpt>
      <trkpt lat="42.58736" lon="1.79822">
        <ele>1453.4</ele>
        <time>2024-07-11T07:33:18Z</time>
      </trkpt>
      <trkpt lat="42.58735" lon="1.79829">
        <ele>1452.6</ele>
        <time>2024-07-11T07:33:25Z</time>
      </trkpt>
      <trkpt lat="42.58733" lon="1.79832">
        <ele>1452.8</ele>
        <time>2024-07-11T07:33:31Z</time>
      </trkpt>
      <trkpt lat="42.58732" lon="1.79839">
        <ele>1452.4</ele>
        <time>2024-07-11T07:33:40Z</time>
      </trkpt>
      <trkpt lat="42.58731" lon="1.79845">
        <ele>1453.4</ele>
        <time>2024-07-11T07:33:47Z</time>
      </trkpt>
      <trkpt lat="42.58734" lon="1.79853">
        <ele>1454.4</ele>
        <time>2024-07-11T07:33:57Z</time>
      </trkpt>
      <trkpt lat="42.58734" lon="1.79854">
        <ele>1456.4</ele>
        <time>2024-07-11T07:34:04Z</time>
      </trkpt>
      <trkpt lat="42.58734" lon="1.79855">
        <ele>1457.4</ele>
        <time>2024-07-11T07:34:26Z</time>
      </trkpt>
      <trkpt lat="42.58737" lon="1.79858">
        <ele>1458</ele>
        <time>2024-07-11T07:34:41Z</time>
      </trkpt>
      <trkpt lat="42.5875" lon="1.79868">
        <ele>1458.2</ele>
        <time>2024-07-11T07:34:52Z</time>
      </trkpt>
      <trkpt lat="42.58754" lon="1.79872">
        <ele>1458.4</ele>
        <time>2024-07-11T07:34:56Z</time>
      </trkpt>
      <trkpt lat="42.58754" lon="1.79873">
        <ele>1458.4</ele>
        <time>2024-07-11T07:34:59Z</time>
      </trkpt>
      <trkpt lat="42.58753" lon="1.79873">
        <ele>1458.4</ele>
        <time>2024-07-11T07:35:05Z</time>
      </trkpt>
      <trkpt lat="42.58753" lon="1.79872">
        <ele>1457.6</ele>
        <time>2024-07-11T07:35:11Z</time>
      </trkpt>
      <trkpt lat="42.58754" lon="1.79873">
        <ele>1457.6</ele>
        <time>2024-07-11T07:35:20Z</time>
      </trkpt>
      <trkpt lat="42.58754" lon="1.79874">
        <ele>1460</ele>
        <time>2024-07-11T07:35:33Z</time>
      </trkpt>
      <trkpt lat="42.58757" lon="1.79879">
        <ele>1460</ele>
        <time>2024-07-11T07:35:44Z</time>
      </trkpt>
      <trkpt lat="42.58763" lon="1.79888">
        <ele>1460.2</ele>
        <time>2024-07-11T07:35:51Z</time>
      </trkpt>
      <trkpt lat="42.58766" lon="1.79892">
        <ele>1460.8</ele>
        <time>2024-07-11T07:35:56Z</time>
      </trkpt>
      <trkpt lat="42.58771" lon="1.79894">
        <ele>1461.8</ele>
        <time>2024-07-11T07:36:02Z</time>
      </trkpt>
      <trkpt lat="42.58775" lon="1.79895">
        <ele>1462.6</ele>
        <time>2024-07-11T07:36:06Z</time>
      </trkpt>
      <trkpt lat="42.58777" lon="1.79899">
        <ele>1463.6</ele>
        <time>2024-07-11T07:36:10Z</time>
      </trkpt>
      <trkpt lat="42.58782" lon="1.79906">
        <ele>1468</ele>
        <time>2024-07-11T07:36:19Z</time>
      </trkpt>
      <trkpt lat="42.58783" lon="1.79915">
        <ele>1469.6</ele>
        <time>2024-07-11T07:36:29Z</time>
      </trkpt>
      <trkpt lat="42.58786" lon="1.79922">
        <ele>1468.2</ele>
        <time>2024-07-11T07:36:37Z</time>
      </trkpt>
      <trkpt lat="42.58787" lon="1.79926">
        <ele>1466.8</ele>
        <time>2024-07-11T07:36:43Z</time>
      </trkpt>
      <trkpt lat="42.58788" lon="1.7993">
        <ele>1466</ele>
        <time>2024-07-11T07:36:49Z</time>
      </trkpt>
      <trkpt lat="42.58792" lon="1.79935">
        <ele>1466.2</ele>
        <time>2024-07-11T07:36:57Z</time>
      </trkpt>
      <trkpt lat="42.58794" lon="1.7994">
        <ele>1466.8</ele>
        <time>2024-07-11T07:37:04Z</time>
      </trkpt>
      <trkpt lat="42.58796" lon="1.79944">
        <ele>1468.4</ele>
        <time>2024-07-11T07:37:11Z</time>
      </trkpt>
      <trkpt lat="42.58799" lon="1.79947">
        <ele>1470.2</ele>
        <time>2024-07-11T07:37:20Z</time>
      </trkpt>
      <trkpt lat="42.58801" lon="1.7995">
        <ele>1470.8</ele>
        <time>2024-07-11T07:37:25Z</time>
      </trkpt>
      <trkpt lat="42.58808" lon="1.79954">
        <ele>1472.8</ele>
        <time>2024-07-11T07:37:33Z</time>
      </trkpt>
      <trkpt lat="42.58811" lon="1.79959">
        <ele>1474.6</ele>
        <time>2024-07-11T07:37:38Z</time>
      </trkpt>
      <trkpt lat="42.58813" lon="1.79965">
        <ele>1475.4</ele>
        <time>2024-07-11T07:37:45Z</time>
      </trkpt>
      <trkpt lat="42.58815" lon="1.79971">
        <ele>1476</ele>
        <time>2024-07-11T07:37:53Z</time>
      </trkpt>
      <trkpt lat="42.58818" lon="1.79978">
        <ele>1476.6</ele>
        <time>2024-07-11T07:38:02Z</time>
      </trkpt>
      <trkpt lat="42.58819" lon="1.79985">
        <ele>1477.2</ele>
        <time>2024-07-11T07:38:09Z</time>
      </trkpt>
      <trkpt lat="42.58819" lon="1.79993">
        <ele>1478.6</ele>
        <time>2024-07-11T07:38:16Z</time>
      </trkpt>
      <trkpt lat="42.58823" lon="1.80002">
        <ele>1479.8</ele>
        <time>2024-07-11T07:38:23Z</time>
      </trkpt>
      <trkpt lat="42.5882" lon="1.80009">
        <ele>1481.6</ele>
        <time>2024-07-11T07:38:29Z</time>
      </trkpt>
      <trkpt lat="42.58818" lon="1.80019">
        <ele>1483</ele>
        <time>2024-07-11T07:38:36Z</time>
      </trkpt>
      <trkpt lat="42.58821" lon="1.80028">
        <ele>1483.6</ele>
        <time>2024-07-11T07:38:43Z</time>
      </trkpt>
      <trkpt lat="42.58822" lon="1.80029">
        <ele>1483.6</ele>
        <time>2024-07-11T07:38:44Z</time>
      </trkpt>
      <trkpt lat="42.58821" lon="1.80037">
        <ele>1483</ele>
        <time>2024-07-11T07:38:50Z</time>
      </trkpt>
      <trkpt lat="42.58824" lon="1.80048">
        <ele>1484</ele>
        <time>2024-07-11T07:38:58Z</time>
      </trkpt>
      <trkpt lat="42.58825" lon="1.80051">
        <ele>1485</ele>
        <time>2024-07-11T07:39:01Z</time>
      </trkpt>
      <trkpt lat="42.58824" lon="1.80055">
        <ele>1486</ele>
        <time>2024-07-11T07:39:04Z</time>
      </trkpt>
      <trkpt lat="42.58824" lon="1.80064">
        <ele>1486.8</ele>
        <time>2024-07-11T07:39:11Z</time>
      </trkpt>
      <trkpt lat="42.58827" lon="1.80072">
        <ele>1487</ele>
        <time>2024-07-11T07:39:20Z</time>
      </trkpt>
      <trkpt lat="42.58828" lon="1.80081">
        <ele>1488</ele>
        <time>2024-07-11T07:39:28Z</time>
      </trkpt>
      <trkpt lat="42.58831" lon="1.80089">
        <ele>1488.2</ele>
        <time>2024-07-11T07:39:34Z</time>
      </trkpt>
      <trkpt lat="42.5883" lon="1.80096">
        <ele>1489.6</ele>
        <time>2024-07-11T07:39:41Z</time>
      </trkpt>
      <trkpt lat="42.58831" lon="1.80104">
        <ele>1490.2</ele>
        <time>2024-07-11T07:39:47Z</time>
      </trkpt>
      <trkpt lat="42.58831" lon="1.80116">
        <ele>1492.4</ele>
        <time>2024-07-11T07:39:57Z</time>
      </trkpt>
      <trkpt lat="42.58832" lon="1.80126">
        <ele>1493</ele>
        <time>2024-07-11T07:40:03Z</time>
      </trkpt>
      <trkpt lat="42.58835" lon="1.80142">
        <ele>1492.4</ele>
        <time>2024-07-11T07:40:13Z</time>
      </trkpt>
      <trkpt lat="42.58835" lon="1.80144">
        <ele>1493.4</ele>
        <time>2024-07-11T07:40:15Z</time>
      </trkpt>
      <trkpt lat="42.58836" lon="1.80151">
        <ele>1494.8</ele>
        <time>2024-07-11T07:40:20Z</time>
      </trkpt>
      <trkpt lat="42.58838" lon="1.80161">
        <ele>1497.8</ele>
        <time>2024-07-11T07:40:26Z</time>
      </trkpt>
      <trkpt lat="42.58838" lon="1.80162">
        <ele>1498</ele>
        <time>2024-07-11T07:40:27Z</time>
      </trkpt>
      <trkpt lat="42.58839" lon="1.80166">
        <ele>1499.2</ele>
        <time>2024-07-11T07:40:31Z</time>
      </trkpt>
      <trkpt lat="42.58838" lon="1.80167">
        <ele>1499.8</ele>
        <time>2024-07-11T07:40:33Z</time>
      </trkpt>
      <trkpt lat="42.58839" lon="1.80174">
        <ele>1501.4</ele>
        <time>2024-07-11T07:40:39Z</time>
      </trkpt>
      <trkpt lat="42.58841" lon="1.80184">
        <ele>1502</ele>
        <time>2024-07-11T07:40:47Z</time>
      </trkpt>
      <trkpt lat="42.58841" lon="1.80189">
        <ele>1502.8</ele>
        <time>2024-07-11T07:40:51Z</time>
      </trkpt>
      <trkpt lat="42.58842" lon="1.80193">
        <ele>1503.2</ele>
        <time>2024-07-11T07:40:53Z</time>
      </trkpt>
      <trkpt lat="42.58842" lon="1.80195">
        <ele>1503.8</ele>
        <time>2024-07-11T07:40:55Z</time>
      </trkpt>
      <trkpt lat="42.58842" lon="1.802">
        <ele>1504.8</ele>
        <time>2024-07-11T07:40:59Z</time>
      </trkpt>
      <trkpt lat="42.58842" lon="1.80204">
        <ele>1505.2</ele>
        <time>2024-07-11T07:41:02Z</time>
      </trkpt>
      <trkpt lat="42.58843" lon="1.80209">
        <ele>1504.8</ele>
        <time>2024-07-11T07:41:06Z</time>
      </trkpt>
      <trkpt lat="42.58844" lon="1.80216">
        <ele>1502.8</ele>
        <time>2024-07-11T07:41:13Z</time>
      </trkpt>
      <trkpt lat="42.58846" lon="1.80227">
        <ele>1499.8</ele>
        <time>2024-07-11T07:41:22Z</time>
      </trkpt>
      <trkpt lat="42.58848" lon="1.80234">
        <ele>1499.4</ele>
        <time>2024-07-11T07:41:28Z</time>
      </trkpt>
      <trkpt lat="42.58848" lon="1.80236">
        <ele>1499.4</ele>
        <time>2024-07-11T07:41:30Z</time>
      </trkpt>
      <trkpt lat="42.58848" lon="1.80242">
        <ele>1499.4</ele>
        <time>2024-07-11T07:41:35Z</time>
      </trkpt>
      <trkpt lat="42.5885" lon="1.80248">
        <ele>1500</ele>
        <time>2024-07-11T07:41:43Z</time>
      </trkpt>
      <trkpt lat="42.58849" lon="1.80252">
        <ele>1501.6</ele>
        <time>2024-07-11T07:41:48Z</time>
      </trkpt>
      <trkpt lat="42.58847" lon="1.80255">
        <ele>1503.8</ele>
        <time>2024-07-11T07:41:54Z</time>
      </trkpt>
      <trkpt lat="42.58847" lon="1.80258">
        <ele>1504.6</ele>
        <time>2024-07-11T07:42:00Z</time>
      </trkpt>
      <trkpt lat="42.58844" lon="1.80266">
        <ele>1505.2</ele>
        <time>2024-07-11T07:42:09Z</time>
      </trkpt>
      <trkpt lat="42.58838" lon="1.80274">
        <ele>1506.8</ele>
        <time>2024-07-11T07:42:17Z</time>
      </trkpt>
      <trkpt lat="42.58838" lon="1.80278">
        <ele>1508.4</ele>
        <time>2024-07-11T07:42:23Z</time>
      </trkpt>
      <trkpt lat="42.58841" lon="1.80286">
        <ele>1509.8</ele>
        <time>2024-07-11T07:42:30Z</time>
      </trkpt>
      <trkpt lat="42.58847" lon="1.80291">
        <ele>1512.8</ele>
        <time>2024-07-11T07:42:37Z</time>
      </trkpt>
      <trkpt lat="42.58857" lon="1.80303">
        <ele>1517.2</ele>
        <time>2024-07-11T07:42:45Z</time>
      </trkpt>
      <trkpt lat="42.5886" lon="1.80312">
        <ele>1519</ele>
        <time>2024-07-11T07:42:55Z</time>
      </trkpt>
      <trkpt lat="42.58868" lon="1.80325">
        <ele>1516.6</ele>
        <time>2024-07-11T07:43:05Z</time>
      </trkpt>
      <trkpt lat="42.58872" lon="1.80338">
        <ele>1515.6</ele>
        <time>2024-07-11T07:43:14Z</time>
      </trkpt>
      <trkpt lat="42.58869" lon="1.8035">
        <ele>1514</ele>
        <time>2024-07-11T07:43:22Z</time>
      </trkpt>
      <trkpt lat="42.58869" lon="1.80359">
        <ele>1514</ele>
        <time>2024-07-11T07:43:28Z</time>
      </trkpt>
      <trkpt lat="42.58869" lon="1.80361">
        <ele>1514.2</ele>
        <time>2024-07-11T07:43:29Z</time>
      </trkpt>
      <trkpt lat="42.58869" lon="1.80365">
        <ele>1514.4</ele>
        <time>2024-07-11T07:43:32Z</time>
      </trkpt>
      <trkpt lat="42.58868" lon="1.80368">
        <ele>1514.6</ele>
        <time>2024-07-11T07:43:34Z</time>
      </trkpt>
      <trkpt lat="42.58869" lon="1.80371">
        <ele>1514.6</ele>
        <time>2024-07-11T07:43:36Z</time>
      </trkpt>
      <trkpt lat="42.5887" lon="1.80382">
        <ele>1515.4</ele>
        <time>2024-07-11T07:43:44Z</time>
      </trkpt>
      <trkpt lat="42.58871" lon="1.80393">
        <ele>1515.4</ele>
        <time>2024-07-11T07:43:52Z</time>
      </trkpt>
      <trkpt lat="42.58876" lon="1.80402">
        <ele>1515.4</ele>
        <time>2024-07-11T07:44:00Z</time>
      </trkpt>
      <trkpt lat="42.58881" lon="1.80409">
        <ele>1518</ele>
        <time>2024-07-11T07:44:07Z</time>
      </trkpt>
      <trkpt lat="42.58883" lon="1.80413">
        <ele>1519.6</ele>
        <time>2024-07-11T07:44:11Z</time>
      </trkpt>
      <trkpt lat="42.58885" lon="1.80417">
        <ele>1520</ele>
        <time>2024-07-11T07:44:14Z</time>
      </trkpt>
      <trkpt lat="42.58887" lon="1.80424">
        <ele>1520</ele>
        <time>2024-07-11T07:44:19Z</time>
      </trkpt>
      <trkpt lat="42.58888" lon="1.80426">
        <ele>1520</ele>
        <time>2024-07-11T07:44:21Z</time>
      </trkpt>
      <trkpt lat="42.58895" lon="1.80435">
        <ele>1522.6</ele>
        <time>2024-07-11T07:44:30Z</time>
      </trkpt>
      <trkpt lat="42.58902" lon="1.80446">
        <ele>1524.8</ele>
        <time>2024-07-11T07:44:39Z</time>
      </trkpt>
      <trkpt lat="42.58906" lon="1.80453">
        <ele>1526.6</ele>
        <time>2024-07-11T07:44:47Z</time>
      </trkpt>
      <trkpt lat="42.5891" lon="1.80463">
        <ele>1526.4</ele>
        <time>2024-07-11T07:44:57Z</time>
      </trkpt>
      <trkpt lat="42.58911" lon="1.80467">
        <ele>1526</ele>
        <time>2024-07-11T07:45:00Z</time>
      </trkpt>
      <trkpt lat="42.58909" lon="1.80468">
        <ele>1525.8</ele>
        <time>2024-07-11T07:45:03Z</time>
      </trkpt>
      <trkpt lat="42.589" lon="1.80462">
        <ele>1526.6</ele>
        <time>2024-07-11T07:45:11Z</time>
      </trkpt>
      <trkpt lat="42.5889" lon="1.80457">
        <ele>1528.8</ele>
        <time>2024-07-11T07:45:20Z</time>
      </trkpt>
      <trkpt lat="42.58879" lon="1.80452">
        <ele>1534</ele>
        <time>2024-07-11T07:45:31Z</time>
      </trkpt>
      <trkpt lat="42.58871" lon="1.80448">
        <ele>1536</ele>
        <time>2024-07-11T07:45:41Z</time>
      </trkpt>
      <trkpt lat="42.58865" lon="1.80445">
        <ele>1536.8</ele>
        <time>2024-07-11T07:45:49Z</time>
      </trkpt>
      <trkpt lat="42.58859" lon="1.8044">
        <ele>1538.2</ele>
        <time>2024-07-11T07:45:55Z</time>
      </trkpt>
      <trkpt lat="42.58856" lon="1.80439">
        <ele>1538.6</ele>
        <time>2024-07-11T07:45:58Z</time>
      </trkpt>
      <trkpt lat="42.58854" lon="1.80438">
        <ele>1539.2</ele>
        <time>2024-07-11T07:46:01Z</time>
      </trkpt>
      <trkpt lat="42.5885" lon="1.80436">
        <ele>1539.8</ele>
        <time>2024-07-11T07:46:05Z</time>
      </trkpt>
      <trkpt lat="42.58845" lon="1.80432">
        <ele>1540</ele>
        <time>2024-07-11T07:46:09Z</time>
      </trkpt>
      <trkpt lat="42.58843" lon="1.8043">
        <ele>1540.2</ele>
        <time>2024-07-11T07:46:12Z</time>
      </trkpt>
      <trkpt lat="42.58836" lon="1.80423">
        <ele>1539.8</ele>
        <time>2024-07-11T07:46:20Z</time>
      </trkpt>
      <trkpt lat="42.58828" lon="1.80415">
        <ele>1540.8</ele>
        <time>2024-07-11T07:46:29Z</time>
      </trkpt>
      <trkpt lat="42.58822" lon="1.80406">
        <ele>1541.4</ele>
        <time>2024-07-11T07:46:37Z</time>
      </trkpt>
      <trkpt lat="42.58819" lon="1.80397">
        <ele>1542.6</ele>
        <time>2024-07-11T07:46:45Z</time>
      </trkpt>
      <trkpt lat="42.58817" lon="1.80394">
        <ele>1543.2</ele>
        <time>2024-07-11T07:46:48Z</time>
      </trkpt>
      <trkpt lat="42.58815" lon="1.80391">
        <ele>1543.2</ele>
        <time>2024-07-11T07:46:51Z</time>
      </trkpt>
      <trkpt lat="42.58814" lon="1.80389">
        <ele>1543</ele>
        <time>2024-07-11T07:46:53Z</time>
      </trkpt>
      <trkpt lat="42.5881" lon="1.80386">
        <ele>1542.8</ele>
        <time>2024-07-11T07:46:57Z</time>
      </trkpt>
      <trkpt lat="42.58807" lon="1.80377">
        <ele>1544</ele>
        <time>2024-07-11T07:47:04Z</time>
      </trkpt>
      <trkpt lat="42.588" lon="1.80367">
        <ele>1546.4</ele>
        <time>2024-07-11T07:47:11Z</time>
      </trkpt>
      <trkpt lat="42.58795" lon="1.80359">
        <ele>1548.8</ele>
        <time>2024-07-11T07:47:19Z</time>
      </trkpt>
      <trkpt lat="42.58792" lon="1.80355">
        <ele>1549.6</ele>
        <time>2024-07-11T07:47:23Z</time>
      </trkpt>
      <trkpt lat="42.58791" lon="1.80353">
        <ele>1550.4</ele>
        <time>2024-07-11T07:47:26Z</time>
      </trkpt>
      <trkpt lat="42.5879" lon="1.80355">
        <ele>1551.6</ele>
        <time>2024-07-11T07:47:28Z</time>
      </trkpt>
      <trkpt lat="42.5879" lon="1.80357">
        <ele>1552.4</ele>
        <time>2024-07-11T07:47:30Z</time>
      </trkpt>
      <trkpt lat="42.58792" lon="1.80359">
        <ele>1552.8</ele>
        <time>2024-07-11T07:47:32Z</time>
      </trkpt>
      <trkpt lat="42.58793" lon="1.80361">
        <ele>1552.8</ele>
        <time>2024-07-11T07:47:33Z</time>
      </trkpt>
      <trkpt lat="42.58792" lon="1.80364">
        <ele>1552.6</ele>
        <time>2024-07-11T07:47:35Z</time>
      </trkpt>
      <trkpt lat="42.58793" lon="1.80366">
        <ele>1552.2</ele>
        <time>2024-07-11T07:47:37Z</time>
      </trkpt>
      <trkpt lat="42.58796" lon="1.80375">
        <ele>1551</ele>
        <time>2024-07-11T07:47:44Z</time>
      </trkpt>
      <trkpt lat="42.58799" lon="1.80383">
        <ele>1549.4</ele>
        <time>2024-07-11T07:47:50Z</time>
      </trkpt>
      <trkpt lat="42.58799" lon="1.80385">
        <ele>1549</ele>
        <time>2024-07-11T07:47:52Z</time>
      </trkpt>
      <trkpt lat="42.58802" lon="1.80396">
        <ele>1549.2</ele>
        <time>2024-07-11T07:47:58Z</time>
      </trkpt>
      <trkpt lat="42.58801" lon="1.80398">
        <ele>1549.8</ele>
        <time>2024-07-11T07:48:00Z</time>
      </trkpt>
      <trkpt lat="42.58802" lon="1.80413">
        <ele>1551.6</ele>
        <time>2024-07-11T07:48:10Z</time>
      </trkpt>
      <trkpt lat="42.58807" lon="1.80427">
        <ele>1553.2</ele>
        <time>2024-07-11T07:48:20Z</time>
      </trkpt>
      <trkpt lat="42.58811" lon="1.80439">
        <ele>1552.8</ele>
        <time>2024-07-11T07:48:30Z</time>
      </trkpt>
      <trkpt lat="42.58816" lon="1.80452">
        <ele>1552.4</ele>
        <time>2024-07-11T07:48:40Z</time>
      </trkpt>
      <trkpt lat="42.5882" lon="1.80462">
        <ele>1552.4</ele>
        <time>2024-07-11T07:48:48Z</time>
      </trkpt>
      <trkpt lat="42.58825" lon="1.80473">
        <ele>1552.6</ele>
        <time>2024-07-11T07:48:56Z</time>
      </trkpt>
      <trkpt lat="42.58827" lon="1.80475">
        <ele>1552.8</ele>
        <time>2024-07-11T07:48:58Z</time>
      </trkpt>
      <trkpt lat="42.5883" lon="1.80482">
        <ele>1552.8</ele>
        <time>2024-07-11T07:49:03Z</time>
      </trkpt>
      <trkpt lat="42.58832" lon="1.80485">
        <ele>1553</ele>
        <time>2024-07-11T07:49:07Z</time>
      </trkpt>
      <trkpt lat="42.58841" lon="1.80494">
        <ele>1554.2</ele>
        <time>2024-07-11T07:49:17Z</time>
      </trkpt>
      <trkpt lat="42.58847" lon="1.80503">
        <ele>1556.2</ele>
        <time>2024-07-11T07:49:24Z</time>
      </trkpt>
      <trkpt lat="42.58857" lon="1.80513">
        <ele>1556.4</ele>
        <time>2024-07-11T07:49:34Z</time>
      </trkpt>
      <trkpt lat="42.58865" lon="1.80521">
        <ele>1557.4</ele>
        <time>2024-07-11T07:49:43Z</time>
      </trkpt>
      <trkpt lat="42.58873" lon="1.8053">
        <ele>1560.6</ele>
        <time>2024-07-11T07:49:53Z</time>
      </trkpt>
      <trkpt lat="42.5888" lon="1.80544">
        <ele>1563.6</ele>
        <time>2024-07-11T07:50:03Z</time>
      </trkpt>
      <trkpt lat="42.58887" lon="1.80559">
        <ele>1565</ele>
        <time>2024-07-11T07:50:13Z</time>
      </trkpt>
      <trkpt lat="42.58888" lon="1.80571">
        <ele>1564</ele>
        <time>2024-07-11T07:50:22Z</time>
      </trkpt>
      <trkpt lat="42.5889" lon="1.80584">
        <ele>1563.8</ele>
        <time>2024-07-11T07:50:32Z</time>
      </trkpt>
      <trkpt lat="42.58896" lon="1.80594">
        <ele>1564</ele>
        <time>2024-07-11T07:50:40Z</time>
      </trkpt>
      <trkpt lat="42.58901" lon="1.80602">
        <ele>1567.6</ele>
        <time>2024-07-11T07:50:49Z</time>
      </trkpt>
      <trkpt lat="42.58911" lon="1.80614">
        <ele>1570</ele>
        <time>2024-07-11T07:50:58Z</time>
      </trkpt>
      <trkpt lat="42.58914" lon="1.80617">
        <ele>1570.6</ele>
        <time>2024-07-11T07:51:01Z</time>
      </trkpt>
      <trkpt lat="42.58915" lon="1.80618">
        <ele>1570.8</ele>
        <time>2024-07-11T07:51:02Z</time>
      </trkpt>
      <trkpt lat="42.58921" lon="1.80623">
        <ele>1575</ele>
        <time>2024-07-11T07:51:11Z</time>
      </trkpt>
      <trkpt lat="42.58928" lon="1.80628">
        <ele>1578</ele>
        <time>2024-07-11T07:51:18Z</time>
      </trkpt>
      <trkpt lat="42.58935" lon="1.80634">
        <ele>1581</ele>
        <time>2024-07-11T07:51:26Z</time>
      </trkpt>
      <trkpt lat="42.58942" lon="1.80641">
        <ele>1585.6</ele>
        <time>2024-07-11T07:51:35Z</time>
      </trkpt>
      <trkpt lat="42.58948" lon="1.8065">
        <ele>1587.2</ele>
        <time>2024-07-11T07:51:44Z</time>
      </trkpt>
      <trkpt lat="42.58955" lon="1.80659">
        <ele>1587.4</ele>
        <time>2024-07-11T07:51:53Z</time>
      </trkpt>
      <trkpt lat="42.58958" lon="1.80664">
        <ele>1586.6</ele>
        <time>2024-07-11T07:51:57Z</time>
      </trkpt>
      <trkpt lat="42.58965" lon="1.80675">
        <ele>1585.2</ele>
        <time>2024-07-11T07:52:05Z</time>
      </trkpt>
      <trkpt lat="42.58966" lon="1.80675">
        <ele>1585</ele>
        <time>2024-07-11T07:52:06Z</time>
      </trkpt>
      <trkpt lat="42.58973" lon="1.8068">
        <ele>1584.4</ele>
        <time>2024-07-11T07:52:11Z</time>
      </trkpt>
      <trkpt lat="42.58981" lon="1.80692">
        <ele>1586.4</ele>
        <time>2024-07-11T07:52:21Z</time>
      </trkpt>
      <trkpt lat="42.5899" lon="1.80708">
        <ele>1585.2</ele>
        <time>2024-07-11T07:52:30Z</time>
      </trkpt>
      <trkpt lat="42.58994" lon="1.80721">
        <ele>1584.4</ele>
        <time>2024-07-11T07:52:40Z</time>
      </trkpt>
      <trkpt lat="42.58999" lon="1.80735">
        <ele>1585.6</ele>
        <time>2024-07-11T07:52:50Z</time>
      </trkpt>
      <trkpt lat="42.59005" lon="1.80749">
        <ele>1584</ele>
        <time>2024-07-11T07:53:02Z</time>
      </trkpt>
      <trkpt lat="42.59004" lon="1.80749">
        <ele>1586.2</ele>
        <time>2024-07-11T07:53:08Z</time>
      </trkpt>
      <trkpt lat="42.59004" lon="1.80747">
        <ele>1590.2</ele>
        <time>2024-07-11T07:53:14Z</time>
      </trkpt>
      <trkpt lat="42.59005" lon="1.80745">
        <ele>1594.4</ele>
        <time>2024-07-11T07:53:22Z</time>
      </trkpt>
      <trkpt lat="42.59009" lon="1.80747">
        <ele>1598.8</ele>
        <time>2024-07-11T07:53:29Z</time>
      </trkpt>
      <trkpt lat="42.59016" lon="1.80755">
        <ele>1601</ele>
        <time>2024-07-11T07:53:36Z</time>
      </trkpt>
      <trkpt lat="42.59017" lon="1.80762">
        <ele>1601.2</ele>
        <time>2024-07-11T07:53:43Z</time>
      </trkpt>
      <trkpt lat="42.59022" lon="1.80766">
        <ele>1601.4</ele>
        <time>2024-07-11T07:53:48Z</time>
      </trkpt>
      <trkpt lat="42.59025" lon="1.80774">
        <ele>1602.4</ele>
        <time>2024-07-11T07:53:55Z</time>
      </trkpt>
      <trkpt lat="42.59029" lon="1.80786">
        <ele>1602</ele>
        <time>2024-07-11T07:54:03Z</time>
      </trkpt>
      <trkpt lat="42.59035" lon="1.80794">
        <ele>1600.8</ele>
        <time>2024-07-11T07:54:10Z</time>
      </trkpt>
      <trkpt lat="42.59034" lon="1.80801">
        <ele>1599.2</ele>
        <time>2024-07-11T07:54:16Z</time>
      </trkpt>
      <trkpt lat="42.59036" lon="1.80808">
        <ele>1599.2</ele>
        <time>2024-07-11T07:54:23Z</time>
      </trkpt>
      <trkpt lat="42.59037" lon="1.80802">
        <ele>1605</ele>
        <time>2024-07-11T07:54:31Z</time>
      </trkpt>
      <trkpt lat="42.59042" lon="1.80806">
        <ele>1613.8</ele>
        <time>2024-07-11T07:54:38Z</time>
      </trkpt>
      <trkpt lat="42.59046" lon="1.80808">
        <ele>1616.6</ele>
        <time>2024-07-11T07:54:47Z</time>
      </trkpt>
      <trkpt lat="42.59053" lon="1.80816">
        <ele>1622.4</ele>
        <time>2024-07-11T07:54:56Z</time>
      </trkpt>
      <trkpt lat="42.59055" lon="1.8082">
        <ele>1624.2</ele>
        <time>2024-07-11T07:54:59Z</time>
      </trkpt>
      <trkpt lat="42.59058" lon="1.80823">
        <ele>1624.8</ele>
        <time>2024-07-11T07:55:02Z</time>
      </trkpt>
      <trkpt lat="42.5906" lon="1.80825">
        <ele>1624.6</ele>
        <time>2024-07-11T07:55:04Z</time>
      </trkpt>
      <trkpt lat="42.59062" lon="1.80826">
        <ele>1624</ele>
        <time>2024-07-11T07:55:06Z</time>
      </trkpt>
      <trkpt lat="42.59063" lon="1.80828">
        <ele>1623</ele>
        <time>2024-07-11T07:55:08Z</time>
      </trkpt>
      <trkpt lat="42.59067" lon="1.80837">
        <ele>1621</ele>
        <time>2024-07-11T07:55:16Z</time>
      </trkpt>
      <trkpt lat="42.59071" lon="1.80837">
        <ele>1622.2</ele>
        <time>2024-07-11T07:55:21Z</time>
      </trkpt>
      <trkpt lat="42.59078" lon="1.80841">
        <ele>1624.4</ele>
        <time>2024-07-11T07:55:28Z</time>
      </trkpt>
      <trkpt lat="42.59083" lon="1.80848">
        <ele>1624.8</ele>
        <time>2024-07-11T07:55:34Z</time>
      </trkpt>
      <trkpt lat="42.5909" lon="1.80858">
        <ele>1626.4</ele>
        <time>2024-07-11T07:55:39Z</time>
      </trkpt>
      <trkpt lat="42.59091" lon="1.80859">
        <ele>1626.6</ele>
        <time>2024-07-11T07:55:40Z</time>
      </trkpt>
      <trkpt lat="42.59094" lon="1.80868">
        <ele>1626.8</ele>
        <time>2024-07-11T07:55:46Z</time>
      </trkpt>
      <trkpt lat="42.59095" lon="1.80871">
        <ele>1625.8</ele>
        <time>2024-07-11T07:55:51Z</time>
      </trkpt>
      <trkpt lat="42.59099" lon="1.80874">
        <ele>1624.2</ele>
        <time>2024-07-11T07:55:58Z</time>
      </trkpt>
      <trkpt lat="42.59103" lon="1.8088">
        <ele>1624</ele>
        <time>2024-07-11T07:56:05Z</time>
      </trkpt>
      <trkpt lat="42.59107" lon="1.80888">
        <ele>1621.8</ele>
        <time>2024-07-11T07:56:12Z</time>
      </trkpt>
      <trkpt lat="42.59113" lon="1.80896">
        <ele>1620.6</ele>
        <time>2024-07-11T07:56:18Z</time>
      </trkpt>
      <trkpt lat="42.59115" lon="1.80903">
        <ele>1620.6</ele>
        <time>2024-07-11T07:56:24Z</time>
      </trkpt>
      <trkpt lat="42.59116" lon="1.80908">
        <ele>1621</ele>
        <time>2024-07-11T07:56:31Z</time>
      </trkpt>
      <trkpt lat="42.5912" lon="1.80916">
        <ele>1622.2</ele>
        <time>2024-07-11T07:56:37Z</time>
      </trkpt>
      <trkpt lat="42.59124" lon="1.80928">
        <ele>1621.6</ele>
        <time>2024-07-11T07:56:44Z</time>
      </trkpt>
      <trkpt lat="42.59121" lon="1.80932">
        <ele>1622</ele>
        <time>2024-07-11T07:56:49Z</time>
      </trkpt>
      <trkpt lat="42.59122" lon="1.80935">
        <ele>1625</ele>
        <time>2024-07-11T07:56:55Z</time>
      </trkpt>
      <trkpt lat="42.59126" lon="1.80942">
        <ele>1631.6</ele>
        <time>2024-07-11T07:57:01Z</time>
      </trkpt>
      <trkpt lat="42.59128" lon="1.8095">
        <ele>1631</ele>
        <time>2024-07-11T07:57:09Z</time>
      </trkpt>
      <trkpt lat="42.59129" lon="1.80955">
        <ele>1629.8</ele>
        <time>2024-07-11T07:57:15Z</time>
      </trkpt>
      <trkpt lat="42.59132" lon="1.80961">
        <ele>1630.2</ele>
        <time>2024-07-11T07:57:24Z</time>
      </trkpt>
      <trkpt lat="42.59135" lon="1.80966">
        <ele>1631.2</ele>
        <time>2024-07-11T07:57:30Z</time>
      </trkpt>
      <trkpt lat="42.5914" lon="1.80978">
        <ele>1632.8</ele>
        <time>2024-07-11T07:57:39Z</time>
      </trkpt>
      <trkpt lat="42.59138" lon="1.80984">
        <ele>1633.8</ele>
        <time>2024-07-11T07:57:44Z</time>
      </trkpt>
      <trkpt lat="42.59141" lon="1.80991">
        <ele>1634.4</ele>
        <time>2024-07-11T07:57:47Z</time>
      </trkpt>
      <trkpt lat="42.59144" lon="1.81">
        <ele>1635.2</ele>
        <time>2024-07-11T07:57:51Z</time>
      </trkpt>
      <trkpt lat="42.59144" lon="1.80996">
        <ele>1636.8</ele>
        <time>2024-07-11T07:57:59Z</time>
      </trkpt>
      <trkpt lat="42.59147" lon="1.80992">
        <ele>1640.4</ele>
        <time>2024-07-11T07:58:05Z</time>
      </trkpt>
      <trkpt lat="42.59149" lon="1.80992">
        <ele>1641.6</ele>
        <time>2024-07-11T07:58:07Z</time>
      </trkpt>
      <trkpt lat="42.5916" lon="1.80993">
        <ele>1646</ele>
        <time>2024-07-11T07:58:16Z</time>
      </trkpt>
      <trkpt lat="42.59165" lon="1.80997">
        <ele>1650.4</ele>
        <time>2024-07-11T07:58:22Z</time>
      </trkpt>
      <trkpt lat="42.59169" lon="1.81009">
        <ele>1648.6</ele>
        <time>2024-07-11T07:58:29Z</time>
      </trkpt>
      <trkpt lat="42.59171" lon="1.81009">
        <ele>1647.4</ele>
        <time>2024-07-11T07:58:32Z</time>
      </trkpt>
      <trkpt lat="42.59173" lon="1.8101">
        <ele>1647</ele>
        <time>2024-07-11T07:58:34Z</time>
      </trkpt>
      <trkpt lat="42.59178" lon="1.81017">
        <ele>1649.4</ele>
        <time>2024-07-11T07:58:41Z</time>
      </trkpt>
      <trkpt lat="42.59182" lon="1.81026">
        <ele>1652.2</ele>
        <time>2024-07-11T07:58:47Z</time>
      </trkpt>
      <trkpt lat="42.59185" lon="1.81032">
        <ele>1651.8</ele>
        <time>2024-07-11T07:58:54Z</time>
      </trkpt>
      <trkpt lat="42.59187" lon="1.81047">
        <ele>1651.6</ele>
        <time>2024-07-11T07:59:01Z</time>
      </trkpt>
      <trkpt lat="42.59192" lon="1.81051">
        <ele>1650.8</ele>
        <time>2024-07-11T07:59:06Z</time>
      </trkpt>
      <trkpt lat="42.59193" lon="1.81061">
        <ele>1653.6</ele>
        <time>2024-07-11T07:59:14Z</time>
      </trkpt>
      <trkpt lat="42.59196" lon="1.81066">
        <ele>1656</ele>
        <time>2024-07-11T07:59:19Z</time>
      </trkpt>
      <trkpt lat="42.59196" lon="1.81067">
        <ele>1656.4</ele>
        <time>2024-07-11T07:59:20Z</time>
      </trkpt>
      <trkpt lat="42.59196" lon="1.81068">
        <ele>1656.8</ele>
        <time>2024-07-11T07:59:21Z</time>
      </trkpt>
      <trkpt lat="42.59197" lon="1.81073">
        <ele>1657.8</ele>
        <time>2024-07-11T07:59:25Z</time>
      </trkpt>
      <trkpt lat="42.592" lon="1.81079">
        <ele>1656.8</ele>
        <time>2024-07-11T07:59:31Z</time>
      </trkpt>
      <trkpt lat="42.59203" lon="1.81081">
        <ele>1656.2</ele>
        <time>2024-07-11T07:59:37Z</time>
      </trkpt>
      <trkpt lat="42.59209" lon="1.81084">
        <ele>1660</ele>
        <time>2024-07-11T07:59:46Z</time>
      </trkpt>
      <trkpt lat="42.59214" lon="1.81085">
        <ele>1663.6</ele>
        <time>2024-07-11T07:59:52Z</time>
      </trkpt>
      <trkpt lat="42.59217" lon="1.81085">
        <ele>1665.8</ele>
        <time>2024-07-11T07:59:55Z</time>
      </trkpt>
      <trkpt lat="42.5922" lon="1.81085">
        <ele>1666.8</ele>
        <time>2024-07-11T07:59:57Z</time>
      </trkpt>
      <trkpt lat="42.59224" lon="1.81086">
        <ele>1668.2</ele>
        <time>2024-07-11T08:00:02Z</time>
      </trkpt>
      <trkpt lat="42.59226" lon="1.81089">
        <ele>1668.6</ele>
        <time>2024-07-11T08:00:04Z</time>
      </trkpt>
      <trkpt lat="42.59229" lon="1.81091">
        <ele>1668.6</ele>
        <time>2024-07-11T08:00:08Z</time>
      </trkpt>
      <trkpt lat="42.59234" lon="1.81092">
        <ele>1666.6</ele>
        <time>2024-07-11T08:00:12Z</time>
      </trkpt>
      <trkpt lat="42.59243" lon="1.81099">
        <ele>1664.2</ele>
        <time>2024-07-11T08:00:18Z</time>
      </trkpt>
      <trkpt lat="42.59253" lon="1.81107">
        <ele>1655.2</ele>
        <time>2024-07-11T08:00:26Z</time>
      </trkpt>
      <trkpt lat="42.59253" lon="1.81108">
        <ele>1654.2</ele>
        <time>2024-07-11T08:00:27Z</time>
      </trkpt>
      <trkpt lat="42.59253" lon="1.81113">
        <ele>1651.6</ele>
        <time>2024-07-11T08:00:31Z</time>
      </trkpt>
      <trkpt lat="42.59253" lon="1.81121">
        <ele>1649</ele>
        <time>2024-07-11T08:00:39Z</time>
      </trkpt>
      <trkpt lat="42.59255" lon="1.81127">
        <ele>1647.6</ele>
        <time>2024-07-11T08:00:43Z</time>
      </trkpt>
      <trkpt lat="42.59256" lon="1.81133">
        <ele>1646.8</ele>
        <time>2024-07-11T08:00:46Z</time>
      </trkpt>
      <trkpt lat="42.5926" lon="1.8114">
        <ele>1646</ele>
        <time>2024-07-11T08:00:51Z</time>
      </trkpt>
      <trkpt lat="42.5926" lon="1.81139">
        <ele>1646.4</ele>
        <time>2024-07-11T08:00:54Z</time>
      </trkpt>
      <trkpt lat="42.59261" lon="1.81139">
        <ele>1647.4</ele>
        <time>2024-07-11T08:00:55Z</time>
      </trkpt>
      <trkpt lat="42.59269" lon="1.81137">
        <ele>1652.4</ele>
        <time>2024-07-11T08:01:03Z</time>
      </trkpt>
      <trkpt lat="42.59275" lon="1.81139">
        <ele>1654.2</ele>
        <time>2024-07-11T08:01:09Z</time>
      </trkpt>
      <trkpt lat="42.59278" lon="1.81138">
        <ele>1654.6</ele>
        <time>2024-07-11T08:01:12Z</time>
      </trkpt>
      <trkpt lat="42.59281" lon="1.81137">
        <ele>1657</ele>
        <time>2024-07-11T08:01:16Z</time>
      </trkpt>
      <trkpt lat="42.59284" lon="1.81135">
        <ele>1661.8</ele>
        <time>2024-07-11T08:01:22Z</time>
      </trkpt>
      <trkpt lat="42.59286" lon="1.81134">
        <ele>1662.4</ele>
        <time>2024-07-11T08:01:24Z</time>
      </trkpt>
      <trkpt lat="42.59292" lon="1.81133">
        <ele>1663.4</ele>
        <time>2024-07-11T08:01:29Z</time>
      </trkpt>
      <trkpt lat="42.59295" lon="1.81135">
        <ele>1666.4</ele>
        <time>2024-07-11T08:01:34Z</time>
      </trkpt>
      <trkpt lat="42.59296" lon="1.81136">
        <ele>1667.4</ele>
        <time>2024-07-11T08:01:36Z</time>
      </trkpt>
      <trkpt lat="42.59299" lon="1.81139">
        <ele>1668.4</ele>
        <time>2024-07-11T08:01:39Z</time>
      </trkpt>
      <trkpt lat="42.59303" lon="1.81141">
        <ele>1668.6</ele>
        <time>2024-07-11T08:01:41Z</time>
      </trkpt>
      <trkpt lat="42.59307" lon="1.81141">
        <ele>1668.8</ele>
        <time>2024-07-11T08:01:47Z</time>
      </trkpt>
      <trkpt lat="42.5931" lon="1.81145">
        <ele>1671</ele>
        <time>2024-07-11T08:01:53Z</time>
      </trkpt>
      <trkpt lat="42.59313" lon="1.81151">
        <ele>1673.2</ele>
        <time>2024-07-11T08:01:59Z</time>
      </trkpt>
      <trkpt lat="42.59317" lon="1.81153">
        <ele>1674.4</ele>
        <time>2024-07-11T08:02:02Z</time>
      </trkpt>
      <trkpt lat="42.59318" lon="1.81154">
        <ele>1675.6</ele>
        <time>2024-07-11T08:02:04Z</time>
      </trkpt>
      <trkpt lat="42.59325" lon="1.81161">
        <ele>1678.2</ele>
        <time>2024-07-11T08:02:12Z</time>
      </trkpt>
      <trkpt lat="42.59327" lon="1.8117">
        <ele>1677.4</ele>
        <time>2024-07-11T08:02:18Z</time>
      </trkpt>
      <trkpt lat="42.59326" lon="1.8117">
        <ele>1674.4</ele>
        <time>2024-07-11T08:02:26Z</time>
      </trkpt>
      <trkpt lat="42.5932" lon="1.81172">
        <ele>1671</ele>
        <time>2024-07-11T08:02:32Z</time>
      </trkpt>
      <trkpt lat="42.59319" lon="1.81172">
        <ele>1670.6</ele>
        <time>2024-07-11T08:02:33Z</time>
      </trkpt>
      <trkpt lat="42.59318" lon="1.81171">
        <ele>1670.2</ele>
        <time>2024-07-11T08:02:34Z</time>
      </trkpt>
      <trkpt lat="42.59314" lon="1.81168">
        <ele>1670.2</ele>
        <time>2024-07-11T08:02:38Z</time>
      </trkpt>
      <trkpt lat="42.59313" lon="1.81168">
        <ele>1671.8</ele>
        <time>2024-07-11T08:02:41Z</time>
      </trkpt>
      <trkpt lat="42.59311" lon="1.81167">
        <ele>1673</ele>
        <time>2024-07-11T08:02:43Z</time>
      </trkpt>
      <trkpt lat="42.59301" lon="1.81163">
        <ele>1678.2</ele>
        <time>2024-07-11T08:02:51Z</time>
      </trkpt>
      <trkpt lat="42.59301" lon="1.81164">
        <ele>1679.6</ele>
        <time>2024-07-11T08:02:53Z</time>
      </trkpt>
      <trkpt lat="42.59297" lon="1.81164">
        <ele>1681.2</ele>
        <time>2024-07-11T08:02:57Z</time>
      </trkpt>
      <trkpt lat="42.59294" lon="1.81166">
        <ele>1681.6</ele>
        <time>2024-07-11T08:03:02Z</time>
      </trkpt>
      <trkpt lat="42.59294" lon="1.81167">
        <ele>1681.6</ele>
        <time>2024-07-11T08:03:03Z</time>
      </trkpt>
      <trkpt lat="42.59295" lon="1.81171">
        <ele>1680.2</ele>
        <time>2024-07-11T08:03:07Z</time>
      </trkpt>
      <trkpt lat="42.59296" lon="1.81171">
        <ele>1679.8</ele>
        <time>2024-07-11T08:03:08Z</time>
      </trkpt>
      <trkpt lat="42.59302" lon="1.8117">
        <ele>1676.8</ele>
        <time>2024-07-11T08:03:15Z</time>
      </trkpt>
      <trkpt lat="42.59305" lon="1.81175">
        <ele>1677.2</ele>
        <time>2024-07-11T08:03:20Z</time>
      </trkpt>
      <trkpt lat="42.59308" lon="1.81177">
        <ele>1676.8</ele>
        <time>2024-07-11T08:03:24Z</time>
      </trkpt>
      <trkpt lat="42.59315" lon="1.81182">
        <ele>1676.6</ele>
        <time>2024-07-11T08:03:31Z</time>
      </trkpt>
      <trkpt lat="42.5932" lon="1.8119">
        <ele>1675.6</ele>
        <time>2024-07-11T08:03:37Z</time>
      </trkpt>
      <trkpt lat="42.59322" lon="1.81193">
        <ele>1674.2</ele>
        <time>2024-07-11T08:03:41Z</time>
      </trkpt>
      <trkpt lat="42.59323" lon="1.81196">
        <ele>1673.8</ele>
        <time>2024-07-11T08:03:43Z</time>
      </trkpt>
      <trkpt lat="42.59325" lon="1.812">
        <ele>1673.6</ele>
        <time>2024-07-11T08:03:45Z</time>
      </trkpt>
      <trkpt lat="42.59327" lon="1.81203">
        <ele>1673.4</ele>
        <time>2024-07-11T08:03:47Z</time>
      </trkpt>
      <trkpt lat="42.59331" lon="1.81208">
        <ele>1673</ele>
        <time>2024-07-11T08:03:53Z</time>
      </trkpt>
      <trkpt lat="42.59333" lon="1.81212">
        <ele>1672.8</ele>
        <time>2024-07-11T08:03:58Z</time>
      </trkpt>
      <trkpt lat="42.59333" lon="1.81212">
        <ele>1672.8</ele>
        <time>2024-07-11T08:03:59Z</time>
      </trkpt>
      <trkpt lat="42.59336" lon="1.81212">
        <ele>1672.8</ele>
        <time>2024-07-11T08:04:02Z</time>
      </trkpt>
      <trkpt lat="42.59338" lon="1.81214">
        <ele>1672.8</ele>
        <time>2024-07-11T08:04:04Z</time>
      </trkpt>
      <trkpt lat="42.59339" lon="1.81215">
        <ele>1672.8</ele>
        <time>2024-07-11T08:04:05Z</time>
      </trkpt>
      <trkpt lat="42.59342" lon="1.8122">
        <ele>1672.8</ele>
        <time>2024-07-11T08:04:09Z</time>
      </trkpt>
      <trkpt lat="42.59342" lon="1.81222">
        <ele>1672.6</ele>
        <time>2024-07-11T08:04:10Z</time>
      </trkpt>
      <trkpt lat="42.59341" lon="1.81224">
        <ele>1672.4</ele>
        <time>2024-07-11T08:04:12Z</time>
      </trkpt>
      <trkpt lat="42.5934" lon="1.81224">
        <ele>1672.4</ele>
        <time>2024-07-11T08:04:14Z</time>
      </trkpt>
      <trkpt lat="42.59338" lon="1.81223">
        <ele>1672.4</ele>
        <time>2024-07-11T08:04:21Z</time>
      </trkpt>
      <trkpt lat="42.59338" lon="1.81224">
        <ele>1673.6</ele>
        <time>2024-07-11T08:04:28Z</time>
      </trkpt>
      <trkpt lat="42.59342" lon="1.81226">
        <ele>1679.6</ele>
        <time>2024-07-11T08:04:35Z</time>
      </trkpt>
      <trkpt lat="42.59344" lon="1.81225">
        <ele>1684.2</ele>
        <time>2024-07-11T08:04:39Z</time>
      </trkpt>
      <trkpt lat="42.59348" lon="1.81224">
        <ele>1691</ele>
        <time>2024-07-11T08:04:46Z</time>
      </trkpt>
      <trkpt lat="42.59354" lon="1.81222">
        <ele>1693.8</ele>
        <time>2024-07-11T08:04:54Z</time>
      </trkpt>
      <trkpt lat="42.59357" lon="1.81225">
        <ele>1693.8</ele>
        <time>2024-07-11T08:04:58Z</time>
      </trkpt>
      <trkpt lat="42.59365" lon="1.81232">
        <ele>1693</ele>
        <time>2024-07-11T08:05:05Z</time>
      </trkpt>
      <trkpt lat="42.5937" lon="1.81239">
        <ele>1689.4</ele>
        <time>2024-07-11T08:05:14Z</time>
      </trkpt>
      <trkpt lat="42.59373" lon="1.81245">
        <ele>1689.4</ele>
        <time>2024-07-11T08:05:20Z</time>
      </trkpt>
      <trkpt lat="42.59382" lon="1.81256">
        <ele>1690.6</ele>
        <time>2024-07-11T08:05:28Z</time>
      </trkpt>
      <trkpt lat="42.59388" lon="1.81262">
        <ele>1688.8</ele>
        <time>2024-07-11T08:05:34Z</time>
      </trkpt>
      <trkpt lat="42.5939" lon="1.81263">
        <ele>1688.4</ele>
        <time>2024-07-11T08:05:36Z</time>
      </trkpt>
      <trkpt lat="42.59394" lon="1.81268">
        <ele>1687.6</ele>
        <time>2024-07-11T08:05:40Z</time>
      </trkpt>
      <trkpt lat="42.59402" lon="1.81274">
        <ele>1686.2</ele>
        <time>2024-07-11T08:05:48Z</time>
      </trkpt>
      <trkpt lat="42.59404" lon="1.81275">
        <ele>1686.2</ele>
        <time>2024-07-11T08:05:50Z</time>
      </trkpt>
      <trkpt lat="42.59407" lon="1.81277">
        <ele>1686.8</ele>
        <time>2024-07-11T08:05:53Z</time>
      </trkpt>
      <trkpt lat="42.59416" lon="1.81286">
        <ele>1689.2</ele>
        <time>2024-07-11T08:06:01Z</time>
      </trkpt>
      <trkpt lat="42.59425" lon="1.81295">
        <ele>1688.6</ele>
        <time>2024-07-11T08:06:08Z</time>
      </trkpt>
      <trkpt lat="42.59425" lon="1.81297">
        <ele>1688.6</ele>
        <time>2024-07-11T08:06:09Z</time>
      </trkpt>
      <trkpt lat="42.59427" lon="1.81306">
        <ele>1688.4</ele>
        <time>2024-07-11T08:06:13Z</time>
      </trkpt>
      <trkpt lat="42.59431" lon="1.81315">
        <ele>1688.4</ele>
        <time>2024-07-11T08:06:21Z</time>
      </trkpt>
      <trkpt lat="42.59438" lon="1.81323">
        <ele>1690.4</ele>
        <time>2024-07-11T08:06:30Z</time>
      </trkpt>
      <trkpt lat="42.59441" lon="1.81327">
        <ele>1691.8</ele>
        <time>2024-07-11T08:06:34Z</time>
      </trkpt>
      <trkpt lat="42.59451" lon="1.8133">
        <ele>1693.2</ele>
        <time>2024-07-11T08:06:41Z</time>
      </trkpt>
      <trkpt lat="42.59457" lon="1.81335">
        <ele>1694.6</ele>
        <time>2024-07-11T08:06:47Z</time>
      </trkpt>
      <trkpt lat="42.5946" lon="1.81337">
        <ele>1695</ele>
        <time>2024-07-11T08:06:49Z</time>
      </trkpt>
      <trkpt lat="42.59465" lon="1.81337">
        <ele>1695</ele>
        <time>2024-07-11T08:06:52Z</time>
      </trkpt>
      <trkpt lat="42.59469" lon="1.81344">
        <ele>1696</ele>
        <time>2024-07-11T08:07:00Z</time>
      </trkpt>
      <trkpt lat="42.59482" lon="1.81355">
        <ele>1697.4</ele>
        <time>2024-07-11T08:07:08Z</time>
      </trkpt>
      <trkpt lat="42.59482" lon="1.81357">
        <ele>1696.4</ele>
        <time>2024-07-11T08:07:09Z</time>
      </trkpt>
      <trkpt lat="42.59485" lon="1.81367">
        <ele>1692</ele>
        <time>2024-07-11T08:07:15Z</time>
      </trkpt>
      <trkpt lat="42.59488" lon="1.81374">
        <ele>1692.6</ele>
        <time>2024-07-11T08:07:20Z</time>
      </trkpt>
      <trkpt lat="42.5949" lon="1.81374">
        <ele>1692.8</ele>
        <time>2024-07-11T08:07:21Z</time>
      </trkpt>
      <trkpt lat="42.59494" lon="1.81379">
        <ele>1693.8</ele>
        <time>2024-07-11T08:07:26Z</time>
      </trkpt>
      <trkpt lat="42.59495" lon="1.81384">
        <ele>1694.8</ele>
        <time>2024-07-11T08:07:30Z</time>
      </trkpt>
      <trkpt lat="42.59497" lon="1.81388">
        <ele>1695.2</ele>
        <time>2024-07-11T08:07:33Z</time>
      </trkpt>
      <trkpt lat="42.59499" lon="1.81387">
        <ele>1695.6</ele>
        <time>2024-07-11T08:07:35Z</time>
      </trkpt>
      <trkpt lat="42.59502" lon="1.81388">
        <ele>1697</ele>
        <time>2024-07-11T08:07:39Z</time>
      </trkpt>
      <trkpt lat="42.59503" lon="1.81389">
        <ele>1697.8</ele>
        <time>2024-07-11T08:07:40Z</time>
      </trkpt>
      <trkpt lat="42.59506" lon="1.81397">
        <ele>1699.4</ele>
        <time>2024-07-11T08:07:45Z</time>
      </trkpt>
      <trkpt lat="42.59507" lon="1.81401">
        <ele>1699</ele>
        <time>2024-07-11T08:07:48Z</time>
      </trkpt>
      <trkpt lat="42.5951" lon="1.81406">
        <ele>1698.6</ele>
        <time>2024-07-11T08:07:51Z</time>
      </trkpt>
      <trkpt lat="42.59513" lon="1.8141">
        <ele>1697</ele>
        <time>2024-07-11T08:07:54Z</time>
      </trkpt>
      <trkpt lat="42.59514" lon="1.81412">
        <ele>1696</ele>
        <time>2024-07-11T08:07:56Z</time>
      </trkpt>
      <trkpt lat="42.59521" lon="1.81424">
        <ele>1694.4</ele>
        <time>2024-07-11T08:08:04Z</time>
      </trkpt>
      <trkpt lat="42.59524" lon="1.81429">
        <ele>1693.8</ele>
        <time>2024-07-11T08:08:09Z</time>
      </trkpt>
      <trkpt lat="42.59527" lon="1.81431">
        <ele>1694.6</ele>
        <time>2024-07-11T08:08:12Z</time>
      </trkpt>
      <trkpt lat="42.59534" lon="1.81441">
        <ele>1696.4</ele>
        <time>2024-07-11T08:08:21Z</time>
      </trkpt>
      <trkpt lat="42.59538" lon="1.81452">
        <ele>1696.2</ele>
        <time>2024-07-11T08:08:28Z</time>
      </trkpt>
      <trkpt lat="42.59544" lon="1.81466">
        <ele>1695.8</ele>
        <time>2024-07-11T08:08:35Z</time>
      </trkpt>
      <trkpt lat="42.59545" lon="1.81471">
        <ele>1695.4</ele>
        <time>2024-07-11T08:08:38Z</time>
      </trkpt>
      <trkpt lat="42.59545" lon="1.81476">
        <ele>1695.2</ele>
        <time>2024-07-11T08:08:41Z</time>
      </trkpt>
      <trkpt lat="42.59545" lon="1.81478">
        <ele>1695.2</ele>
        <time>2024-07-11T08:08:42Z</time>
      </trkpt>
      <trkpt lat="42.59545" lon="1.81482">
        <ele>1695.4</ele>
        <time>2024-07-11T08:08:45Z</time>
      </trkpt>
      <trkpt lat="42.59546" lon="1.81486">
        <ele>1695.6</ele>
        <time>2024-07-11T08:08:48Z</time>
      </trkpt>
      <trkpt lat="42.5955" lon="1.81495">
        <ele>1696.4</ele>
        <time>2024-07-11T08:08:56Z</time>
      </trkpt>
      <trkpt lat="42.59561" lon="1.81501">
        <ele>1702.4</ele>
        <time>2024-07-11T08:09:06Z</time>
      </trkpt>
      <trkpt lat="42.59565" lon="1.81511">
        <ele>1700.8</ele>
        <time>2024-07-11T08:09:13Z</time>
      </trkpt>
      <trkpt lat="42.59568" lon="1.81515">
        <ele>1699.6</ele>
        <time>2024-07-11T08:09:15Z</time>
      </trkpt>
      <trkpt lat="42.59573" lon="1.81523">
        <ele>1695.8</ele>
        <time>2024-07-11T08:09:22Z</time>
      </trkpt>
      <trkpt lat="42.59579" lon="1.81525">
        <ele>1695</ele>
        <time>2024-07-11T08:09:28Z</time>
      </trkpt>
      <trkpt lat="42.59579" lon="1.81526">
        <ele>1695</ele>
        <time>2024-07-11T08:09:29Z</time>
      </trkpt>
      <trkpt lat="42.5958" lon="1.81525">
        <ele>1695.4</ele>
        <time>2024-07-11T08:09:31Z</time>
      </trkpt>
      <trkpt lat="42.59582" lon="1.81522">
        <ele>1696.2</ele>
        <time>2024-07-11T08:09:33Z</time>
      </trkpt>
      <trkpt lat="42.59585" lon="1.8152">
        <ele>1697</ele>
        <time>2024-07-11T08:09:35Z</time>
      </trkpt>
      <trkpt lat="42.59589" lon="1.81518">
        <ele>1698.6</ele>
        <time>2024-07-11T08:09:39Z</time>
      </trkpt>
      <trkpt lat="42.59591" lon="1.81515">
        <ele>1699.2</ele>
        <time>2024-07-11T08:09:41Z</time>
      </trkpt>
      <trkpt lat="42.59595" lon="1.81511">
        <ele>1700.2</ele>
        <time>2024-07-11T08:09:45Z</time>
      </trkpt>
      <trkpt lat="42.59603" lon="1.81509">
        <ele>1699</ele>
        <time>2024-07-11T08:09:53Z</time>
      </trkpt>
      <trkpt lat="42.59604" lon="1.81509">
        <ele>1698.8</ele>
        <time>2024-07-11T08:09:55Z</time>
      </trkpt>
      <trkpt lat="42.59608" lon="1.81509">
        <ele>1700</ele>
        <time>2024-07-11T08:10:00Z</time>
      </trkpt>
      <trkpt lat="42.59612" lon="1.81506">
        <ele>1701.4</ele>
        <time>2024-07-11T08:10:04Z</time>
      </trkpt>
      <trkpt lat="42.59613" lon="1.81503">
        <ele>1701.8</ele>
        <time>2024-07-11T08:10:06Z</time>
      </trkpt>
      <trkpt lat="42.59614" lon="1.81501">
        <ele>1701.8</ele>
        <time>2024-07-11T08:10:07Z</time>
      </trkpt>
      <trkpt lat="42.59616" lon="1.81502">
        <ele>1702.4</ele>
        <time>2024-07-11T08:10:11Z</time>
      </trkpt>
      <trkpt lat="42.59616" lon="1.81502">
        <ele>1702.4</ele>
        <time>2024-07-11T08:10:12Z</time>
      </trkpt>
      <trkpt lat="42.59618" lon="1.81508">
        <ele>1703.4</ele>
        <time>2024-07-11T08:10:16Z</time>
      </trkpt>
      <trkpt lat="42.59617" lon="1.81511">
        <ele>1703.8</ele>
        <time>2024-07-11T08:10:19Z</time>
      </trkpt>
      <trkpt lat="42.59618" lon="1.81511">
        <ele>1703.8</ele>
        <time>2024-07-11T08:10:24Z</time>
      </trkpt>
      <trkpt lat="42.59618" lon="1.81511">
        <ele>1703</ele>
        <time>2024-07-11T08:10:34Z</time>
      </trkpt>
      <trkpt lat="42.59614" lon="1.81518">
        <ele>1702.8</ele>
        <time>2024-07-11T08:10:50Z</time>
      </trkpt>
      <trkpt lat="42.59612" lon="1.81522">
        <ele>1701.4</ele>
        <time>2024-07-11T08:10:55Z</time>
      </trkpt>
      <trkpt lat="42.59615" lon="1.81523">
        <ele>1699.6</ele>
        <time>2024-07-11T08:11:00Z</time>
      </trkpt>
      <trkpt lat="42.59617" lon="1.81523">
        <ele>1699</ele>
        <time>2024-07-11T08:11:04Z</time>
      </trkpt>
      <trkpt lat="42.59619" lon="1.8152">
        <ele>1699.2</ele>
        <time>2024-07-11T08:11:09Z</time>
      </trkpt>
      <trkpt lat="42.59623" lon="1.8152">
        <ele>1700</ele>
        <time>2024-07-11T08:11:13Z</time>
      </trkpt>
      <trkpt lat="42.59625" lon="1.81524">
        <ele>1701.6</ele>
        <time>2024-07-11T08:11:19Z</time>
      </trkpt>
      <trkpt lat="42.59622" lon="1.81526">
        <ele>1702.6</ele>
        <time>2024-07-11T08:11:22Z</time>
      </trkpt>
      <trkpt lat="42.59621" lon="1.81526">
        <ele>1703.4</ele>
        <time>2024-07-11T08:11:24Z</time>
      </trkpt>
      <trkpt lat="42.59617" lon="1.81529">
        <ele>1706.4</ele>
        <time>2024-07-11T08:11:32Z</time>
      </trkpt>
      <trkpt lat="42.59614" lon="1.81531">
        <ele>1709</ele>
        <time>2024-07-11T08:11:38Z</time>
      </trkpt>
      <trkpt lat="42.59617" lon="1.81529">
        <ele>1710.2</ele>
        <time>2024-07-11T08:11:43Z</time>
      </trkpt>
      <trkpt lat="42.59618" lon="1.81529">
        <ele>1712.8</ele>
        <time>2024-07-11T08:11:47Z</time>
      </trkpt>
      <trkpt lat="42.59625" lon="1.81532">
        <ele>1716.2</ele>
        <time>2024-07-11T08:11:55Z</time>
      </trkpt>
      <trkpt lat="42.59629" lon="1.81532">
        <ele>1716.4</ele>
        <time>2024-07-11T08:12:01Z</time>
      </trkpt>
      <trkpt lat="42.59631" lon="1.81531">
        <ele>1717.4</ele>
        <time>2024-07-11T08:12:03Z</time>
      </trkpt>
      <trkpt lat="42.59638" lon="1.81532">
        <ele>1719.6</ele>
        <time>2024-07-11T08:12:08Z</time>
      </trkpt>
      <trkpt lat="42.59637" lon="1.81535">
        <ele>1720.2</ele>
        <time>2024-07-11T08:12:11Z</time>
      </trkpt>
      <trkpt lat="42.59637" lon="1.81536">
        <ele>1720.4</ele>
        <time>2024-07-11T08:12:12Z</time>
      </trkpt>
      <trkpt lat="42.59633" lon="1.81542">
        <ele>1721</ele>
        <time>2024-07-11T08:12:19Z</time>
      </trkpt>
      <trkpt lat="42.59628" lon="1.81544">
        <ele>1720.4</ele>
        <time>2024-07-11T08:12:25Z</time>
      </trkpt>
      <trkpt lat="42.59626" lon="1.81545">
        <ele>1719.8</ele>
        <time>2024-07-11T08:12:30Z</time>
      </trkpt>
      <trkpt lat="42.59622" lon="1.81549">
        <ele>1720.2</ele>
        <time>2024-07-11T08:12:36Z</time>
      </trkpt>
      <trkpt lat="42.59619" lon="1.81552">
        <ele>1721.8</ele>
        <time>2024-07-11T08:12:43Z</time>
      </trkpt>
      <trkpt lat="42.59622" lon="1.81552">
        <ele>1723</ele>
        <time>2024-07-11T08:12:49Z</time>
      </trkpt>
      <trkpt lat="42.59627" lon="1.81552">
        <ele>1722.6</ele>
        <time>2024-07-11T08:12:54Z</time>
      </trkpt>
      <trkpt lat="42.5963" lon="1.81552">
        <ele>1722.4</ele>
        <time>2024-07-11T08:13:01Z</time>
      </trkpt>
      <trkpt lat="42.59634" lon="1.81554">
        <ele>1725.6</ele>
        <time>2024-07-11T08:13:07Z</time>
      </trkpt>
      <trkpt lat="42.5964" lon="1.81561">
        <ele>1728.4</ele>
        <time>2024-07-11T08:13:14Z</time>
      </trkpt>
      <trkpt lat="42.59643" lon="1.81564">
        <ele>1729.2</ele>
        <time>2024-07-11T08:13:21Z</time>
      </trkpt>
      <trkpt lat="42.59648" lon="1.8157">
        <ele>1733.8</ele>
        <time>2024-07-11T08:13:29Z</time>
      </trkpt>
      <trkpt lat="42.59653" lon="1.81577">
        <ele>1735.4</ele>
        <time>2024-07-11T08:13:37Z</time>
      </trkpt>
      <trkpt lat="42.59648" lon="1.81579">
        <ele>1736.4</ele>
        <time>2024-07-11T08:13:43Z</time>
      </trkpt>
      <trkpt lat="42.59643" lon="1.81577">
        <ele>1736.8</ele>
        <time>2024-07-11T08:13:46Z</time>
      </trkpt>
      <trkpt lat="42.5964" lon="1.81577">
        <ele>1738.6</ele>
        <time>2024-07-11T08:13:49Z</time>
      </trkpt>
      <trkpt lat="42.59637" lon="1.81579">
        <ele>1742.4</ele>
        <time>2024-07-11T08:13:55Z</time>
      </trkpt>
      <trkpt lat="42.59636" lon="1.81579">
        <ele>1746.8</ele>
        <time>2024-07-11T08:14:01Z</time>
      </trkpt>
      <trkpt lat="42.59635" lon="1.81578">
        <ele>1748.6</ele>
        <time>2024-07-11T08:14:05Z</time>
      </trkpt>
      <trkpt lat="42.59629" lon="1.8158">
        <ele>1751.6</ele>
        <time>2024-07-11T08:14:13Z</time>
      </trkpt>
      <trkpt lat="42.59629" lon="1.81578">
        <ele>1752.4</ele>
        <time>2024-07-11T08:14:19Z</time>
      </trkpt>
      <trkpt lat="42.59633" lon="1.8158">
        <ele>1753.2</ele>
        <time>2024-07-11T08:14:25Z</time>
      </trkpt>
      <trkpt lat="42.59637" lon="1.81587">
        <ele>1754.4</ele>
        <time>2024-07-11T08:14:32Z</time>
      </trkpt>
      <trkpt lat="42.5964" lon="1.81593">
        <ele>1755.8</ele>
        <time>2024-07-11T08:14:38Z</time>
      </trkpt>
      <trkpt lat="42.59644" lon="1.81598">
        <ele>1757.2</ele>
        <time>2024-07-11T08:14:44Z</time>
      </trkpt>
      <trkpt lat="42.59648" lon="1.816">
        <ele>1756.8</ele>
        <time>2024-07-11T08:14:46Z</time>
      </trkpt>
      <trkpt lat="42.59658" lon="1.81608">
        <ele>1755.8</ele>
        <time>2024-07-11T08:14:51Z</time>
      </trkpt>
      <trkpt lat="42.59659" lon="1.8161">
        <ele>1755.8</ele>
        <time>2024-07-11T08:14:52Z</time>
      </trkpt>
      <trkpt lat="42.5966" lon="1.81618">
        <ele>1755.8</ele>
        <time>2024-07-11T08:14:57Z</time>
      </trkpt>
      <trkpt lat="42.59661" lon="1.81625">
        <ele>1755.6</ele>
        <time>2024-07-11T08:15:05Z</time>
      </trkpt>
      <trkpt lat="42.59666" lon="1.81636">
        <ele>1754.2</ele>
        <time>2024-07-11T08:15:16Z</time>
      </trkpt>
      <trkpt lat="42.59667" lon="1.81636">
        <ele>1754.2</ele>
        <time>2024-07-11T08:15:17Z</time>
      </trkpt>
      <trkpt lat="42.5967" lon="1.81642">
        <ele>1754.8</ele>
        <time>2024-07-11T08:15:23Z</time>
      </trkpt>
      <trkpt lat="42.59675" lon="1.81651">
        <ele>1754.6</ele>
        <time>2024-07-11T08:15:32Z</time>
      </trkpt>
      <trkpt lat="42.59678" lon="1.81654">
        <ele>1754</ele>
        <time>2024-07-11T08:15:36Z</time>
      </trkpt>
      <trkpt lat="42.59681" lon="1.81657">
        <ele>1753.8</ele>
        <time>2024-07-11T08:15:39Z</time>
      </trkpt>
      <trkpt lat="42.59682" lon="1.81659">
        <ele>1753.8</ele>
        <time>2024-07-11T08:15:41Z</time>
      </trkpt>
      <trkpt lat="42.59682" lon="1.81661">
        <ele>1753.8</ele>
        <time>2024-07-11T08:15:45Z</time>
      </trkpt>
      <trkpt lat="42.59684" lon="1.81668">
        <ele>1755.4</ele>
        <time>2024-07-11T08:15:50Z</time>
      </trkpt>
      <trkpt lat="42.59685" lon="1.8167">
        <ele>1755.6</ele>
        <time>2024-07-11T08:15:51Z</time>
      </trkpt>
      <trkpt lat="42.59691" lon="1.81682">
        <ele>1754.8</ele>
        <time>2024-07-11T08:15:59Z</time>
      </trkpt>
      <trkpt lat="42.59692" lon="1.81683">
        <ele>1754.6</ele>
        <time>2024-07-11T08:16:00Z</time>
      </trkpt>
      <trkpt lat="42.59694" lon="1.81686">
        <ele>1757.4</ele>
        <time>2024-07-11T08:16:06Z</time>
      </trkpt>
      <trkpt lat="42.59699" lon="1.8169">
        <ele>1763.6</ele>
        <time>2024-07-11T08:16:12Z</time>
      </trkpt>
      <trkpt lat="42.59705" lon="1.81698">
        <ele>1765.8</ele>
        <time>2024-07-11T08:16:19Z</time>
      </trkpt>
      <trkpt lat="42.5971" lon="1.81708">
        <ele>1762.8</ele>
        <time>2024-07-11T08:16:26Z</time>
      </trkpt>
      <trkpt lat="42.5971" lon="1.81709">
        <ele>1762</ele>
        <time>2024-07-11T08:16:27Z</time>
      </trkpt>
      <trkpt lat="42.59713" lon="1.81718">
        <ele>1759.6</ele>
        <time>2024-07-11T08:16:32Z</time>
      </trkpt>
      <trkpt lat="42.59714" lon="1.81724">
        <ele>1757.6</ele>
        <time>2024-07-11T08:16:38Z</time>
      </trkpt>
      <trkpt lat="42.59716" lon="1.81734">
        <ele>1757.4</ele>
        <time>2024-07-11T08:16:45Z</time>
      </trkpt>
      <trkpt lat="42.59717" lon="1.8174">
        <ele>1759</ele>
        <time>2024-07-11T08:16:52Z</time>
      </trkpt>
      <trkpt lat="42.59717" lon="1.81743">
        <ele>1760.8</ele>
        <time>2024-07-11T08:16:58Z</time>
      </trkpt>
      <trkpt lat="42.5972" lon="1.81748">
        <ele>1763</ele>
        <time>2024-07-11T08:17:05Z</time>
      </trkpt>
      <trkpt lat="42.59724" lon="1.81752">
        <ele>1767</ele>
        <time>2024-07-11T08:17:13Z</time>
      </trkpt>
      <trkpt lat="42.59727" lon="1.81757">
        <ele>1769</ele>
        <time>2024-07-11T08:17:19Z</time>
      </trkpt>
      <trkpt lat="42.59732" lon="1.8176">
        <ele>1769.8</ele>
        <time>2024-07-11T08:17:25Z</time>
      </trkpt>
      <trkpt lat="42.59736" lon="1.81765">
        <ele>1770.4</ele>
        <time>2024-07-11T08:17:30Z</time>
      </trkpt>
      <trkpt lat="42.59739" lon="1.81765">
        <ele>1770.2</ele>
        <time>2024-07-11T08:17:35Z</time>
      </trkpt>
      <trkpt lat="42.59741" lon="1.81769">
        <ele>1770.6</ele>
        <time>2024-07-11T08:17:41Z</time>
      </trkpt>
      <trkpt lat="42.59744" lon="1.81775">
        <ele>1772</ele>
        <time>2024-07-11T08:17:48Z</time>
      </trkpt>
      <trkpt lat="42.59746" lon="1.81779">
        <ele>1772.4</ele>
        <time>2024-07-11T08:17:54Z</time>
      </trkpt>
      <trkpt lat="42.59751" lon="1.8178">
        <ele>1773.8</ele>
        <time>2024-07-11T08:18:01Z</time>
      </trkpt>
      <trkpt lat="42.59753" lon="1.81783">
        <ele>1774.6</ele>
        <time>2024-07-11T08:18:06Z</time>
      </trkpt>
      <trkpt lat="42.59759" lon="1.81789">
        <ele>1777.6</ele>
        <time>2024-07-11T08:18:14Z</time>
      </trkpt>
      <trkpt lat="42.5976" lon="1.81791">
        <ele>1778.2</ele>
        <time>2024-07-11T08:18:15Z</time>
      </trkpt>
      <trkpt lat="42.59762" lon="1.81796">
        <ele>1780.6</ele>
        <time>2024-07-11T08:18:19Z</time>
      </trkpt>
      <trkpt lat="42.59765" lon="1.81801">
        <ele>1785.2</ele>
        <time>2024-07-11T08:18:26Z</time>
      </trkpt>
      <trkpt lat="42.5977" lon="1.81801">
        <ele>1788.6</ele>
        <time>2024-07-11T08:18:30Z</time>
      </trkpt>
      <trkpt lat="42.59771" lon="1.81801">
        <ele>1792.2</ele>
        <time>2024-07-11T08:18:33Z</time>
      </trkpt>
      <trkpt lat="42.59774" lon="1.81804">
        <ele>1799.2</ele>
        <time>2024-07-11T08:18:38Z</time>
      </trkpt>
      <trkpt lat="42.59777" lon="1.81802">
        <ele>1806.4</ele>
        <time>2024-07-11T08:18:45Z</time>
      </trkpt>
      <trkpt lat="42.59779" lon="1.81804">
        <ele>1807</ele>
        <time>2024-07-11T08:18:47Z</time>
      </trkpt>
      <trkpt lat="42.59783" lon="1.81806">
        <ele>1806.6</ele>
        <time>2024-07-11T08:18:51Z</time>
      </trkpt>
      <trkpt lat="42.59787" lon="1.81806">
        <ele>1801.6</ele>
        <time>2024-07-11T08:18:58Z</time>
      </trkpt>
      <trkpt lat="42.59791" lon="1.81804">
        <ele>1800.2</ele>
        <time>2024-07-11T08:19:04Z</time>
      </trkpt>
      <trkpt lat="42.59796" lon="1.81802">
        <ele>1801.4</ele>
        <time>2024-07-11T08:19:11Z</time>
      </trkpt>
      <trkpt lat="42.59807" lon="1.81807">
        <ele>1804.8</ele>
        <time>2024-07-11T08:19:20Z</time>
      </trkpt>
      <trkpt lat="42.59815" lon="1.81809">
        <ele>1803.2</ele>
        <time>2024-07-11T08:19:28Z</time>
      </trkpt>
      <trkpt lat="42.59822" lon="1.81813">
        <ele>1802.8</ele>
        <time>2024-07-11T08:19:35Z</time>
      </trkpt>
      <trkpt lat="42.59827" lon="1.81815">
        <ele>1806.2</ele>
        <time>2024-07-11T08:19:43Z</time>
      </trkpt>
      <trkpt lat="42.59831" lon="1.81824">
        <ele>1804.6</ele>
        <time>2024-07-11T08:19:51Z</time>
      </trkpt>
      <trkpt lat="42.59839" lon="1.81832">
        <ele>1806</ele>
        <time>2024-07-11T08:20:00Z</time>
      </trkpt>
      <trkpt lat="42.59843" lon="1.81838">
        <ele>1806</ele>
        <time>2024-07-11T08:20:05Z</time>
      </trkpt>
      <trkpt lat="42.59851" lon="1.81845">
        <ele>1803.8</ele>
        <time>2024-07-11T08:20:12Z</time>
      </trkpt>
      <trkpt lat="42.59853" lon="1.81845">
        <ele>1803.4</ele>
        <time>2024-07-11T08:20:13Z</time>
      </trkpt>
      <trkpt lat="42.59857" lon="1.8185">
        <ele>1800.8</ele>
        <time>2024-07-11T08:20:19Z</time>
      </trkpt>
      <trkpt lat="42.59861" lon="1.81854">
        <ele>1797</ele>
        <time>2024-07-11T08:20:25Z</time>
      </trkpt>
      <trkpt lat="42.59863" lon="1.81862">
        <ele>1796.4</ele>
        <time>2024-07-11T08:20:31Z</time>
      </trkpt>
      <trkpt lat="42.59869" lon="1.8187">
        <ele>1801.4</ele>
        <time>2024-07-11T08:20:39Z</time>
      </trkpt>
      <trkpt lat="42.59871" lon="1.81871">
        <ele>1801.8</ele>
        <time>2024-07-11T08:20:40Z</time>
      </trkpt>
      <trkpt lat="42.59871" lon="1.81874">
        <ele>1802</ele>
        <time>2024-07-11T08:20:42Z</time>
      </trkpt>
      <trkpt lat="42.59871" lon="1.81878">
        <ele>1801.8</ele>
        <time>2024-07-11T08:20:44Z</time>
      </trkpt>
      <trkpt lat="42.59871" lon="1.81881">
        <ele>1801.8</ele>
        <time>2024-07-11T08:20:50Z</time>
      </trkpt>
      <trkpt lat="42.59871" lon="1.81882">
        <ele>1802.4</ele>
        <time>2024-07-11T08:20:59Z</time>
      </trkpt>
      <trkpt lat="42.59875" lon="1.81885">
        <ele>1802.4</ele>
        <time>2024-07-11T08:21:12Z</time>
      </trkpt>
      <trkpt lat="42.59883" lon="1.81893">
        <ele>1802.6</ele>
        <time>2024-07-11T08:21:22Z</time>
      </trkpt>
      <trkpt lat="42.59884" lon="1.81894">
        <ele>1802.6</ele>
        <time>2024-07-11T08:21:27Z</time>
      </trkpt>
      <trkpt lat="42.59888" lon="1.81898">
        <ele>1802.4</ele>
        <time>2024-07-11T08:21:34Z</time>
      </trkpt>
      <trkpt lat="42.59894" lon="1.81903">
        <ele>1800.6</ele>
        <time>2024-07-11T08:21:41Z</time>
      </trkpt>
      <trkpt lat="42.59901" lon="1.8191">
        <ele>1798</ele>
        <time>2024-07-11T08:21:49Z</time>
      </trkpt>
      <trkpt lat="42.59902" lon="1.81909">
        <ele>1797.6</ele>
        <time>2024-07-11T08:21:50Z</time>
      </trkpt>
      <trkpt lat="42.59903" lon="1.8191">
        <ele>1797.2</ele>
        <time>2024-07-11T08:21:51Z</time>
      </trkpt>
      <trkpt lat="42.59907" lon="1.81917">
        <ele>1795.6</ele>
        <time>2024-07-11T08:21:56Z</time>
      </trkpt>
      <trkpt lat="42.59908" lon="1.81932">
        <ele>1793.4</ele>
        <time>2024-07-11T08:22:05Z</time>
      </trkpt>
      <trkpt lat="42.59911" lon="1.8195">
        <ele>1790</ele>
        <time>2024-07-11T08:22:17Z</time>
      </trkpt>
      <trkpt lat="42.5991" lon="1.81953">
        <ele>1789.4</ele>
        <time>2024-07-11T08:22:20Z</time>
      </trkpt>
      <trkpt lat="42.59911" lon="1.81958">
        <ele>1788.6</ele>
        <time>2024-07-11T08:22:24Z</time>
      </trkpt>
      <trkpt lat="42.59912" lon="1.8197">
        <ele>1786.4</ele>
        <time>2024-07-11T08:22:31Z</time>
      </trkpt>
      <trkpt lat="42.59913" lon="1.81984">
        <ele>1784</ele>
        <time>2024-07-11T08:22:41Z</time>
      </trkpt>
      <trkpt lat="42.59912" lon="1.82001">
        <ele>1781.2</ele>
        <time>2024-07-11T08:22:52Z</time>
      </trkpt>
      <trkpt lat="42.59912" lon="1.82017">
        <ele>1777.4</ele>
        <time>2024-07-11T08:23:01Z</time>
      </trkpt>
      <trkpt lat="42.59907" lon="1.82033">
        <ele>1774</ele>
        <time>2024-07-11T08:23:10Z</time>
      </trkpt>
      <trkpt lat="42.59902" lon="1.82045">
        <ele>1774.2</ele>
        <time>2024-07-11T08:23:19Z</time>
      </trkpt>
      <trkpt lat="42.59896" lon="1.82061">
        <ele>1777.2</ele>
        <time>2024-07-11T08:23:30Z</time>
      </trkpt>
      <trkpt lat="42.59895" lon="1.82072">
        <ele>1778.2</ele>
        <time>2024-07-11T08:23:37Z</time>
      </trkpt>
      <trkpt lat="42.59891" lon="1.82079">
        <ele>1779.4</ele>
        <time>2024-07-11T08:23:44Z</time>
      </trkpt>
      <trkpt lat="42.5989" lon="1.82082">
        <ele>1780.2</ele>
        <time>2024-07-11T08:23:47Z</time>
      </trkpt>
      <trkpt lat="42.5989" lon="1.82087">
        <ele>1780.8</ele>
        <time>2024-07-11T08:23:50Z</time>
      </trkpt>
      <trkpt lat="42.59886" lon="1.82101">
        <ele>1782.2</ele>
        <time>2024-07-11T08:23:59Z</time>
      </trkpt>
      <trkpt lat="42.59884" lon="1.82116">
        <ele>1782.8</ele>
        <time>2024-07-11T08:24:08Z</time>
      </trkpt>
      <trkpt lat="42.59881" lon="1.82123">
        <ele>1782.8</ele>
        <time>2024-07-11T08:24:14Z</time>
      </trkpt>
      <trkpt lat="42.59881" lon="1.82124">
        <ele>1782.8</ele>
        <time>2024-07-11T08:24:15Z</time>
      </trkpt>
      <trkpt lat="42.59878" lon="1.82129">
        <ele>1783.8</ele>
        <time>2024-07-11T08:24:23Z</time>
      </trkpt>
      <trkpt lat="42.59877" lon="1.82131">
        <ele>1784</ele>
        <time>2024-07-11T08:24:24Z</time>
      </trkpt>
      <trkpt lat="42.59875" lon="1.82139">
        <ele>1785</ele>
        <time>2024-07-11T08:24:30Z</time>
      </trkpt>
      <trkpt lat="42.59874" lon="1.82147">
        <ele>1785.6</ele>
        <time>2024-07-11T08:24:37Z</time>
      </trkpt>
      <trkpt lat="42.59872" lon="1.82162">
        <ele>1787.2</ele>
        <time>2024-07-11T08:24:48Z</time>
      </trkpt>
      <trkpt lat="42.59874" lon="1.82175">
        <ele>1788.2</ele>
        <time>2024-07-11T08:24:56Z</time>
      </trkpt>
      <trkpt lat="42.59873" lon="1.82189">
        <ele>1788.6</ele>
        <time>2024-07-11T08:25:04Z</time>
      </trkpt>
      <trkpt lat="42.5987" lon="1.82193">
        <ele>1789.2</ele>
        <time>2024-07-11T08:25:07Z</time>
      </trkpt>
      <trkpt lat="42.5987" lon="1.82199">
        <ele>1790</ele>
        <time>2024-07-11T08:25:11Z</time>
      </trkpt>
      <trkpt lat="42.59871" lon="1.82209">
        <ele>1788.4</ele>
        <time>2024-07-11T08:25:18Z</time>
      </trkpt>
      <trkpt lat="42.5987" lon="1.8221">
        <ele>1788</ele>
        <time>2024-07-11T08:25:19Z</time>
      </trkpt>
      <trkpt lat="42.5987" lon="1.82211">
        <ele>1787.8</ele>
        <time>2024-07-11T08:25:20Z</time>
      </trkpt>
      <trkpt lat="42.59871" lon="1.82216">
        <ele>1787.6</ele>
        <time>2024-07-11T08:25:24Z</time>
      </trkpt>
      <trkpt lat="42.59871" lon="1.8222">
        <ele>1788.6</ele>
        <time>2024-07-11T08:25:27Z</time>
      </trkpt>
      <trkpt lat="42.5987" lon="1.82223">
        <ele>1789.8</ele>
        <time>2024-07-11T08:25:30Z</time>
      </trkpt>
      <trkpt lat="42.59873" lon="1.8223">
        <ele>1791.4</ele>
        <time>2024-07-11T08:25:37Z</time>
      </trkpt>
      <trkpt lat="42.59878" lon="1.82239">
        <ele>1791.6</ele>
        <time>2024-07-11T08:25:44Z</time>
      </trkpt>
      <trkpt lat="42.59879" lon="1.82252">
        <ele>1791.8</ele>
        <time>2024-07-11T08:25:52Z</time>
      </trkpt>
      <trkpt lat="42.59879" lon="1.82264">
        <ele>1792</ele>
        <time>2024-07-11T08:25:59Z</time>
      </trkpt>
      <trkpt lat="42.5988" lon="1.82275">
        <ele>1792.2</ele>
        <time>2024-07-11T08:26:07Z</time>
      </trkpt>
      <trkpt lat="42.59881" lon="1.82277">
        <ele>1792</ele>
        <time>2024-07-11T08:26:09Z</time>
      </trkpt>
      <trkpt lat="42.59883" lon="1.82285">
        <ele>1791.6</ele>
        <time>2024-07-11T08:26:14Z</time>
      </trkpt>
      <trkpt lat="42.59884" lon="1.823">
        <ele>1791.6</ele>
        <time>2024-07-11T08:26:23Z</time>
      </trkpt>
      <trkpt lat="42.59885" lon="1.82303">
        <ele>1791.6</ele>
        <time>2024-07-11T08:26:25Z</time>
      </trkpt>
      <trkpt lat="42.59887" lon="1.82305">
        <ele>1792.2</ele>
        <time>2024-07-11T08:26:28Z</time>
      </trkpt>
      <trkpt lat="42.59888" lon="1.82307">
        <ele>1792.6</ele>
        <time>2024-07-11T08:26:29Z</time>
      </trkpt>
      <trkpt lat="42.59889" lon="1.82308">
        <ele>1792.8</ele>
        <time>2024-07-11T08:26:30Z</time>
      </trkpt>
      <trkpt lat="42.59893" lon="1.82321">
        <ele>1796</ele>
        <time>2024-07-11T08:26:37Z</time>
      </trkpt>
      <trkpt lat="42.59897" lon="1.82334">
        <ele>1799.8</ele>
        <time>2024-07-11T08:26:44Z</time>
      </trkpt>
      <trkpt lat="42.59898" lon="1.82338">
        <ele>1800.6</ele>
        <time>2024-07-11T08:26:50Z</time>
      </trkpt>
      <trkpt lat="42.59901" lon="1.82341">
        <ele>1798.4</ele>
        <time>2024-07-11T08:26:56Z</time>
      </trkpt>
      <trkpt lat="42.59902" lon="1.82341">
        <ele>1797.6</ele>
        <time>2024-07-11T08:27:01Z</time>
      </trkpt>
      <trkpt lat="42.59907" lon="1.82348">
        <ele>1796.8</ele>
        <time>2024-07-11T08:27:06Z</time>
      </trkpt>
      <trkpt lat="42.5991" lon="1.82359">
        <ele>1795.8</ele>
        <time>2024-07-11T08:27:14Z</time>
      </trkpt>
      <trkpt lat="42.59917" lon="1.82375">
        <ele>1794.6</ele>
        <time>2024-07-11T08:27:25Z</time>
      </trkpt>
      <trkpt lat="42.59917" lon="1.82377">
        <ele>1794</ele>
        <time>2024-07-11T08:27:26Z</time>
      </trkpt>
      <trkpt lat="42.59917" lon="1.82391">
        <ele>1791.4</ele>
        <time>2024-07-11T08:27:33Z</time>
      </trkpt>
      <trkpt lat="42.59918" lon="1.82393">
        <ele>1791.2</ele>
        <time>2024-07-11T08:27:34Z</time>
      </trkpt>
      <trkpt lat="42.59919" lon="1.82405">
        <ele>1792</ele>
        <time>2024-07-11T08:27:41Z</time>
      </trkpt>
      <trkpt lat="42.59914" lon="1.82417">
        <ele>1795.6</ele>
        <time>2024-07-11T08:27:48Z</time>
      </trkpt>
      <trkpt lat="42.59912" lon="1.82423">
        <ele>1796.6</ele>
        <time>2024-07-11T08:27:53Z</time>
      </trkpt>
      <trkpt lat="42.59913" lon="1.82422">
        <ele>1797.8</ele>
        <time>2024-07-11T08:27:55Z</time>
      </trkpt>
      <trkpt lat="42.59913" lon="1.82423">
        <ele>1798.2</ele>
        <time>2024-07-11T08:27:56Z</time>
      </trkpt>
      <trkpt lat="42.59916" lon="1.82426">
        <ele>1798</ele>
        <time>2024-07-11T08:28:01Z</time>
      </trkpt>
      <trkpt lat="42.59918" lon="1.82431">
        <ele>1796.2</ele>
        <time>2024-07-11T08:28:06Z</time>
      </trkpt>
      <trkpt lat="42.59918" lon="1.82432">
        <ele>1796.2</ele>
        <time>2024-07-11T08:28:07Z</time>
      </trkpt>
      <trkpt lat="42.59917" lon="1.82433">
        <ele>1796</ele>
        <time>2024-07-11T08:28:08Z</time>
      </trkpt>
      <trkpt lat="42.59914" lon="1.82435">
        <ele>1796.2</ele>
        <time>2024-07-11T08:28:12Z</time>
      </trkpt>
      <trkpt lat="42.59913" lon="1.82441">
        <ele>1798</ele>
        <time>2024-07-11T08:28:19Z</time>
      </trkpt>
      <trkpt lat="42.59913" lon="1.82445">
        <ele>1799</ele>
        <time>2024-07-11T08:28:22Z</time>
      </trkpt>
      <trkpt lat="42.59912" lon="1.8245">
        <ele>1799.2</ele>
        <time>2024-07-11T08:28:26Z</time>
      </trkpt>
      <trkpt lat="42.59912" lon="1.82452">
        <ele>1799.2</ele>
        <time>2024-07-11T08:28:27Z</time>
      </trkpt>
      <trkpt lat="42.5991" lon="1.82463">
        <ele>1800.2</ele>
        <time>2024-07-11T08:28:35Z</time>
      </trkpt>
      <trkpt lat="42.59908" lon="1.82467">
        <ele>1800.6</ele>
        <time>2024-07-11T08:28:39Z</time>
      </trkpt>
      <trkpt lat="42.59907" lon="1.82472">
        <ele>1801.8</ele>
        <time>2024-07-11T08:28:43Z</time>
      </trkpt>
      <trkpt lat="42.59907" lon="1.82481">
        <ele>1802.4</ele>
        <time>2024-07-11T08:28:51Z</time>
      </trkpt>
      <trkpt lat="42.59908" lon="1.82486">
        <ele>1802.8</ele>
        <time>2024-07-11T08:28:58Z</time>
      </trkpt>
      <trkpt lat="42.59908" lon="1.82487">
        <ele>1804.2</ele>
        <time>2024-07-11T08:29:04Z</time>
      </trkpt>
      <trkpt lat="42.59908" lon="1.82487">
        <ele>1804.6</ele>
        <time>2024-07-11T08:29:09Z</time>
      </trkpt>
      <trkpt lat="42.59908" lon="1.82492">
        <ele>1805</ele>
        <time>2024-07-11T08:29:49Z</time>
      </trkpt>
      <trkpt lat="42.5991" lon="1.825">
        <ele>1804.6</ele>
        <time>2024-07-11T08:29:55Z</time>
      </trkpt>
      <trkpt lat="42.5991" lon="1.82508">
        <ele>1804.4</ele>
        <time>2024-07-11T08:30:03Z</time>
      </trkpt>
      <trkpt lat="42.59912" lon="1.82509">
        <ele>1805.4</ele>
        <time>2024-07-11T08:30:09Z</time>
      </trkpt>
      <trkpt lat="42.59913" lon="1.82517">
        <ele>1806.8</ele>
        <time>2024-07-11T08:30:16Z</time>
      </trkpt>
      <trkpt lat="42.59914" lon="1.82525">
        <ele>1808</ele>
        <time>2024-07-11T08:30:22Z</time>
      </trkpt>
      <trkpt lat="42.59912" lon="1.82534">
        <ele>1809.2</ele>
        <time>2024-07-11T08:30:30Z</time>
      </trkpt>
      <trkpt lat="42.5991" lon="1.82549">
        <ele>1811.4</ele>
        <time>2024-07-11T08:30:40Z</time>
      </trkpt>
      <trkpt lat="42.59908" lon="1.82568">
        <ele>1811.4</ele>
        <time>2024-07-11T08:30:53Z</time>
      </trkpt>
      <trkpt lat="42.59905" lon="1.82578">
        <ele>1811.4</ele>
        <time>2024-07-11T08:31:01Z</time>
      </trkpt>
      <trkpt lat="42.59905" lon="1.82581">
        <ele>1812</ele>
        <time>2024-07-11T08:31:03Z</time>
      </trkpt>
      <trkpt lat="42.59904" lon="1.82586">
        <ele>1813.2</ele>
        <time>2024-07-11T08:31:07Z</time>
      </trkpt>
      <trkpt lat="42.59905" lon="1.8259">
        <ele>1813.4</ele>
        <time>2024-07-11T08:31:11Z</time>
      </trkpt>
      <trkpt lat="42.59906" lon="1.82591">
        <ele>1813.6</ele>
        <time>2024-07-11T08:31:14Z</time>
      </trkpt>
      <trkpt lat="42.5991" lon="1.82593">
        <ele>1815</ele>
        <time>2024-07-11T08:31:20Z</time>
      </trkpt>
      <trkpt lat="42.59912" lon="1.82598">
        <ele>1817.6</ele>
        <time>2024-07-11T08:31:28Z</time>
      </trkpt>
      <trkpt lat="42.59915" lon="1.82606">
        <ele>1819.6</ele>
        <time>2024-07-11T08:31:39Z</time>
      </trkpt>
      <trkpt lat="42.59918" lon="1.82612">
        <ele>1820.4</ele>
        <time>2024-07-11T08:31:46Z</time>
      </trkpt>
      <trkpt lat="42.5992" lon="1.8262">
        <ele>1822.2</ele>
        <time>2024-07-11T08:31:55Z</time>
      </trkpt>
      <trkpt lat="42.59921" lon="1.82627">
        <ele>1824</ele>
        <time>2024-07-11T08:32:01Z</time>
      </trkpt>
      <trkpt lat="42.59921" lon="1.82639">
        <ele>1826.8</ele>
        <time>2024-07-11T08:32:10Z</time>
      </trkpt>
      <trkpt lat="42.59924" lon="1.82653">
        <ele>1828</ele>
        <time>2024-07-11T08:32:21Z</time>
      </trkpt>
      <trkpt lat="42.59924" lon="1.82654">
        <ele>1828.2</ele>
        <time>2024-07-11T08:32:30Z</time>
      </trkpt>
      <trkpt lat="42.59924" lon="1.82654">
        <ele>1828.2</ele>
        <time>2024-07-11T08:32:54Z</time>
      </trkpt>
      <trkpt lat="42.59926" lon="1.82659">
        <ele>1828.2</ele>
        <time>2024-07-11T08:33:06Z</time>
      </trkpt>
      <trkpt lat="42.59927" lon="1.82661">
        <ele>1828.6</ele>
        <time>2024-07-11T08:33:11Z</time>
      </trkpt>
      <trkpt lat="42.59927" lon="1.82661">
        <ele>1829</ele>
        <time>2024-07-11T08:33:19Z</time>
      </trkpt>
      <trkpt lat="42.59929" lon="1.82673">
        <ele>1829.8</ele>
        <time>2024-07-11T08:35:46Z</time>
      </trkpt>
      <trkpt lat="42.59934" lon="1.82688">
        <ele>1829.2</ele>
        <time>2024-07-11T08:35:54Z</time>
      </trkpt>
      <trkpt lat="42.59933" lon="1.82703">
        <ele>1827.8</ele>
        <time>2024-07-11T08:36:05Z</time>
      </trkpt>
      <trkpt lat="42.59934" lon="1.8271">
        <ele>1829.8</ele>
        <time>2024-07-11T08:36:12Z</time>
      </trkpt>
      <trkpt lat="42.59934" lon="1.82718">
        <ele>1830.6</ele>
        <time>2024-07-11T08:36:19Z</time>
      </trkpt>
      <trkpt lat="42.59933" lon="1.82724">
        <ele>1831.6</ele>
        <time>2024-07-11T08:36:25Z</time>
      </trkpt>
      <trkpt lat="42.59934" lon="1.82727">
        <ele>1832.2</ele>
        <time>2024-07-11T08:36:28Z</time>
      </trkpt>
      <trkpt lat="42.59934" lon="1.82731">
        <ele>1832.6</ele>
        <time>2024-07-11T08:36:31Z</time>
      </trkpt>
      <trkpt lat="42.59935" lon="1.82747">
        <ele>1832.6</ele>
        <time>2024-07-11T08:36:41Z</time>
      </trkpt>
      <trkpt lat="42.59938" lon="1.82759">
        <ele>1834</ele>
        <time>2024-07-11T08:36:50Z</time>
      </trkpt>
      <trkpt lat="42.59939" lon="1.82764">
        <ele>1834.8</ele>
        <time>2024-07-11T08:36:54Z</time>
      </trkpt>
      <trkpt lat="42.5994" lon="1.82767">
        <ele>1835</ele>
        <time>2024-07-11T08:36:56Z</time>
      </trkpt>
      <trkpt lat="42.5994" lon="1.82768">
        <ele>1835</ele>
        <time>2024-07-11T08:36:57Z</time>
      </trkpt>
      <trkpt lat="42.59941" lon="1.82776">
        <ele>1835.4</ele>
        <time>2024-07-11T08:37:05Z</time>
      </trkpt>
      <trkpt lat="42.59941" lon="1.82781">
        <ele>1835.4</ele>
        <time>2024-07-11T08:37:09Z</time>
      </trkpt>
      <trkpt lat="42.59941" lon="1.82784">
        <ele>1835.4</ele>
        <time>2024-07-11T08:37:11Z</time>
      </trkpt>
      <trkpt lat="42.59942" lon="1.82787">
        <ele>1835.4</ele>
        <time>2024-07-11T08:37:13Z</time>
      </trkpt>
      <trkpt lat="42.59942" lon="1.82792">
        <ele>1835.6</ele>
        <time>2024-07-11T08:37:17Z</time>
      </trkpt>
      <trkpt lat="42.5994" lon="1.82795">
        <ele>1836</ele>
        <time>2024-07-11T08:37:19Z</time>
      </trkpt>
      <trkpt lat="42.5994" lon="1.82802">
        <ele>1836.2</ele>
        <time>2024-07-11T08:37:22Z</time>
      </trkpt>
      <trkpt lat="42.59939" lon="1.82809">
        <ele>1839</ele>
        <time>2024-07-11T08:37:28Z</time>
      </trkpt>
      <trkpt lat="42.59934" lon="1.82815">
        <ele>1842.2</ele>
        <time>2024-07-11T08:37:35Z</time>
      </trkpt>
      <trkpt lat="42.59931" lon="1.82822">
        <ele>1844.8</ele>
        <time>2024-07-11T08:37:45Z</time>
      </trkpt>
      <trkpt lat="42.59929" lon="1.82827">
        <ele>1845.4</ele>
        <time>2024-07-11T08:37:53Z</time>
      </trkpt>
      <trkpt lat="42.59929" lon="1.82832">
        <ele>1846</ele>
        <time>2024-07-11T08:38:02Z</time>
      </trkpt>
      <trkpt lat="42.59929" lon="1.82838">
        <ele>1846.4</ele>
        <time>2024-07-11T08:38:07Z</time>
      </trkpt>
      <trkpt lat="42.5993" lon="1.82848">
        <ele>1846.8</ele>
        <time>2024-07-11T08:38:15Z</time>
      </trkpt>
      <trkpt lat="42.59931" lon="1.82853">
        <ele>1850.2</ele>
        <time>2024-07-11T08:38:21Z</time>
      </trkpt>
      <trkpt lat="42.5993" lon="1.8286">
        <ele>1853.2</ele>
        <time>2024-07-11T08:38:28Z</time>
      </trkpt>
      <trkpt lat="42.5993" lon="1.82866">
        <ele>1854</ele>
        <time>2024-07-11T08:38:34Z</time>
      </trkpt>
      <trkpt lat="42.5993" lon="1.82872">
        <ele>1854</ele>
        <time>2024-07-11T08:38:40Z</time>
      </trkpt>
      <trkpt lat="42.5993" lon="1.82877">
        <ele>1854.2</ele>
        <time>2024-07-11T08:38:46Z</time>
      </trkpt>
      <trkpt lat="42.59929" lon="1.82882">
        <ele>1855.8</ele>
        <time>2024-07-11T08:38:53Z</time>
      </trkpt>
      <trkpt lat="42.59925" lon="1.8288">
        <ele>1858.8</ele>
        <time>2024-07-11T08:39:01Z</time>
      </trkpt>
      <trkpt lat="42.59921" lon="1.82881">
        <ele>1863.2</ele>
        <time>2024-07-11T08:39:10Z</time>
      </trkpt>
      <trkpt lat="42.59922" lon="1.82887">
        <ele>1865.2</ele>
        <time>2024-07-11T08:39:17Z</time>
      </trkpt>
      <trkpt lat="42.59922" lon="1.82892">
        <ele>1865.2</ele>
        <time>2024-07-11T08:39:24Z</time>
      </trkpt>
      <trkpt lat="42.59924" lon="1.82897">
        <ele>1865.2</ele>
        <time>2024-07-11T08:39:32Z</time>
      </trkpt>
      <trkpt lat="42.59919" lon="1.82898">
        <ele>1865.2</ele>
        <time>2024-07-11T08:39:37Z</time>
      </trkpt>
      <trkpt lat="42.59921" lon="1.829">
        <ele>1866.6</ele>
        <time>2024-07-11T08:39:42Z</time>
      </trkpt>
      <trkpt lat="42.59926" lon="1.82906">
        <ele>1867.8</ele>
        <time>2024-07-11T08:39:51Z</time>
      </trkpt>
      <trkpt lat="42.59926" lon="1.82911">
        <ele>1868.8</ele>
        <time>2024-07-11T08:39:57Z</time>
      </trkpt>
      <trkpt lat="42.59922" lon="1.82914">
        <ele>1869</ele>
        <time>2024-07-11T08:40:03Z</time>
      </trkpt>
      <trkpt lat="42.59918" lon="1.82916">
        <ele>1870.6</ele>
        <time>2024-07-11T08:40:10Z</time>
      </trkpt>
      <trkpt lat="42.59914" lon="1.8292">
        <ele>1871.6</ele>
        <time>2024-07-11T08:40:17Z</time>
      </trkpt>
      <trkpt lat="42.59912" lon="1.82925">
        <ele>1870.2</ele>
        <time>2024-07-11T08:40:23Z</time>
      </trkpt>
      <trkpt lat="42.59912" lon="1.82929">
        <ele>1869.6</ele>
        <time>2024-07-11T08:40:28Z</time>
      </trkpt>
      <trkpt lat="42.59913" lon="1.82933">
        <ele>1870.2</ele>
        <time>2024-07-11T08:40:35Z</time>
      </trkpt>
      <trkpt lat="42.59912" lon="1.82937">
        <ele>1872.4</ele>
        <time>2024-07-11T08:40:41Z</time>
      </trkpt>
      <trkpt lat="42.59914" lon="1.82942">
        <ele>1875</ele>
        <time>2024-07-11T08:40:47Z</time>
      </trkpt>
      <trkpt lat="42.59917" lon="1.82951">
        <ele>1878.4</ele>
        <time>2024-07-11T08:40:54Z</time>
      </trkpt>
      <trkpt lat="42.59919" lon="1.82958">
        <ele>1879</ele>
        <time>2024-07-11T08:41:00Z</time>
      </trkpt>
      <trkpt lat="42.59918" lon="1.82959">
        <ele>1879</ele>
        <time>2024-07-11T08:41:01Z</time>
      </trkpt>
      <trkpt lat="42.5992" lon="1.82961">
        <ele>1879.4</ele>
        <time>2024-07-11T08:41:04Z</time>
      </trkpt>
      <trkpt lat="42.5992" lon="1.82964">
        <ele>1880.6</ele>
        <time>2024-07-11T08:41:06Z</time>
      </trkpt>
      <trkpt lat="42.59923" lon="1.8297">
        <ele>1882.6</ele>
        <time>2024-07-11T08:41:10Z</time>
      </trkpt>
      <trkpt lat="42.59923" lon="1.82973">
        <ele>1883.2</ele>
        <time>2024-07-11T08:41:12Z</time>
      </trkpt>
      <trkpt lat="42.59924" lon="1.82977">
        <ele>1883.8</ele>
        <time>2024-07-11T08:41:15Z</time>
      </trkpt>
      <trkpt lat="42.59925" lon="1.8299">
        <ele>1883.8</ele>
        <time>2024-07-11T08:41:22Z</time>
      </trkpt>
      <trkpt lat="42.59925" lon="1.82993">
        <ele>1883.4</ele>
        <time>2024-07-11T08:41:25Z</time>
      </trkpt>
      <trkpt lat="42.59926" lon="1.82996">
        <ele>1883</ele>
        <time>2024-07-11T08:41:27Z</time>
      </trkpt>
      <trkpt lat="42.59927" lon="1.83006">
        <ele>1883</ele>
        <time>2024-07-11T08:41:32Z</time>
      </trkpt>
      <trkpt lat="42.59928" lon="1.83009">
        <ele>1883.2</ele>
        <time>2024-07-11T08:41:34Z</time>
      </trkpt>
      <trkpt lat="42.5993" lon="1.83016">
        <ele>1884.6</ele>
        <time>2024-07-11T08:41:39Z</time>
      </trkpt>
      <trkpt lat="42.59931" lon="1.83019">
        <ele>1885</ele>
        <time>2024-07-11T08:41:41Z</time>
      </trkpt>
      <trkpt lat="42.59931" lon="1.83024">
        <ele>1884.6</ele>
        <time>2024-07-11T08:41:44Z</time>
      </trkpt>
      <trkpt lat="42.59931" lon="1.83029">
        <ele>1884</ele>
        <time>2024-07-11T08:41:47Z</time>
      </trkpt>
      <trkpt lat="42.59929" lon="1.83043">
        <ele>1881.6</ele>
        <time>2024-07-11T08:41:55Z</time>
      </trkpt>
      <trkpt lat="42.5993" lon="1.83047">
        <ele>1881</ele>
        <time>2024-07-11T08:41:59Z</time>
      </trkpt>
      <trkpt lat="42.59929" lon="1.83053">
        <ele>1883</ele>
        <time>2024-07-11T08:42:05Z</time>
      </trkpt>
      <trkpt lat="42.59929" lon="1.8306">
        <ele>1884.6</ele>
        <time>2024-07-11T08:42:11Z</time>
      </trkpt>
      <trkpt lat="42.59928" lon="1.83062">
        <ele>1885</ele>
        <time>2024-07-11T08:42:17Z</time>
      </trkpt>
      <trkpt lat="42.5993" lon="1.83064">
        <ele>1884.4</ele>
        <time>2024-07-11T08:42:22Z</time>
      </trkpt>
      <trkpt lat="42.59932" lon="1.83072">
        <ele>1884.8</ele>
        <time>2024-07-11T08:42:31Z</time>
      </trkpt>
      <trkpt lat="42.59936" lon="1.83076">
        <ele>1885.8</ele>
        <time>2024-07-11T08:42:36Z</time>
      </trkpt>
      <trkpt lat="42.59937" lon="1.8308">
        <ele>1886.8</ele>
        <time>2024-07-11T08:42:39Z</time>
      </trkpt>
      <trkpt lat="42.59939" lon="1.83089">
        <ele>1888.4</ele>
        <time>2024-07-11T08:42:46Z</time>
      </trkpt>
      <trkpt lat="42.59939" lon="1.83096">
        <ele>1890.6</ele>
        <time>2024-07-11T08:42:53Z</time>
      </trkpt>
      <trkpt lat="42.59938" lon="1.83102">
        <ele>1892</ele>
        <time>2024-07-11T08:43:00Z</time>
      </trkpt>
      <trkpt lat="42.5994" lon="1.83107">
        <ele>1892.6</ele>
        <time>2024-07-11T08:43:05Z</time>
      </trkpt>
      <trkpt lat="42.59941" lon="1.83112">
        <ele>1892.4</ele>
        <time>2024-07-11T08:43:10Z</time>
      </trkpt>
      <trkpt lat="42.59939" lon="1.83116">
        <ele>1891.8</ele>
        <time>2024-07-11T08:43:16Z</time>
      </trkpt>
      <trkpt lat="42.59941" lon="1.83119">
        <ele>1893</ele>
        <time>2024-07-11T08:43:22Z</time>
      </trkpt>
      <trkpt lat="42.5994" lon="1.83125">
        <ele>1894.2</ele>
        <time>2024-07-11T08:43:27Z</time>
      </trkpt>
      <trkpt lat="42.59938" lon="1.83131">
        <ele>1894.6</ele>
        <time>2024-07-11T08:43:34Z</time>
      </trkpt>
      <trkpt lat="42.59941" lon="1.83138">
        <ele>1898.2</ele>
        <time>2024-07-11T08:43:42Z</time>
      </trkpt>
      <trkpt lat="42.59943" lon="1.83143">
        <ele>1901</ele>
        <time>2024-07-11T08:43:49Z</time>
      </trkpt>
      <trkpt lat="42.59945" lon="1.8315">
        <ele>1901.6</ele>
        <time>2024-07-11T08:43:56Z</time>
      </trkpt>
      <trkpt lat="42.59946" lon="1.83157">
        <ele>1901.6</ele>
        <time>2024-07-11T08:44:01Z</time>
      </trkpt>
      <trkpt lat="42.59945" lon="1.83168">
        <ele>1902.6</ele>
        <time>2024-07-11T08:44:09Z</time>
      </trkpt>
      <trkpt lat="42.59943" lon="1.83175">
        <ele>1904.4</ele>
        <time>2024-07-11T08:44:14Z</time>
      </trkpt>
      <trkpt lat="42.59942" lon="1.83186">
        <ele>1906.4</ele>
        <time>2024-07-11T08:44:23Z</time>
      </trkpt>
      <trkpt lat="42.59936" lon="1.83191">
        <ele>1906.6</ele>
        <time>2024-07-11T08:44:32Z</time>
      </trkpt>
      <trkpt lat="42.59936" lon="1.83198">
        <ele>1906.2</ele>
        <time>2024-07-11T08:44:40Z</time>
      </trkpt>
      <trkpt lat="42.59933" lon="1.83203">
        <ele>1906.2</ele>
        <time>2024-07-11T08:44:46Z</time>
      </trkpt>
      <trkpt lat="42.5993" lon="1.83209">
        <ele>1907.4</ele>
        <time>2024-07-11T08:44:54Z</time>
      </trkpt>
      <trkpt lat="42.59925" lon="1.83219">
        <ele>1909.4</ele>
        <time>2024-07-11T08:45:02Z</time>
      </trkpt>
      <trkpt lat="42.59926" lon="1.83224">
        <ele>1911.8</ele>
        <time>2024-07-11T08:45:08Z</time>
      </trkpt>
      <trkpt lat="42.59927" lon="1.83225">
        <ele>1912</ele>
        <time>2024-07-11T08:45:09Z</time>
      </trkpt>
      <trkpt lat="42.59928" lon="1.83229">
        <ele>1913.6</ele>
        <time>2024-07-11T08:45:13Z</time>
      </trkpt>
      <trkpt lat="42.59929" lon="1.83236">
        <ele>1916</ele>
        <time>2024-07-11T08:45:19Z</time>
      </trkpt>
      <trkpt lat="42.5993" lon="1.83244">
        <ele>1916.4</ele>
        <time>2024-07-11T08:45:25Z</time>
      </trkpt>
      <trkpt lat="42.59931" lon="1.83247">
        <ele>1916.4</ele>
        <time>2024-07-11T08:45:27Z</time>
      </trkpt>
      <trkpt lat="42.5993" lon="1.83252">
        <ele>1917.2</ele>
        <time>2024-07-11T08:45:31Z</time>
      </trkpt>
      <trkpt lat="42.5993" lon="1.83254">
        <ele>1917.6</ele>
        <time>2024-07-11T08:45:32Z</time>
      </trkpt>
      <trkpt lat="42.59928" lon="1.83261">
        <ele>1918</ele>
        <time>2024-07-11T08:45:37Z</time>
      </trkpt>
      <trkpt lat="42.59923" lon="1.83268">
        <ele>1916.8</ele>
        <time>2024-07-11T08:45:42Z</time>
      </trkpt>
      <trkpt lat="42.59921" lon="1.83272">
        <ele>1916.6</ele>
        <time>2024-07-11T08:45:45Z</time>
      </trkpt>
      <trkpt lat="42.59922" lon="1.83276">
        <ele>1916.2</ele>
        <time>2024-07-11T08:45:52Z</time>
      </trkpt>
      <trkpt lat="42.59924" lon="1.83275">
        <ele>1912.4</ele>
        <time>2024-07-11T08:45:58Z</time>
      </trkpt>
      <trkpt lat="42.59924" lon="1.83284">
        <ele>1909.6</ele>
        <time>2024-07-11T08:46:05Z</time>
      </trkpt>
      <trkpt lat="42.59926" lon="1.83291">
        <ele>1909</ele>
        <time>2024-07-11T08:46:08Z</time>
      </trkpt>
      <trkpt lat="42.59925" lon="1.83294">
        <ele>1909.6</ele>
        <time>2024-07-11T08:46:11Z</time>
      </trkpt>
      <trkpt lat="42.5992" lon="1.83306">
        <ele>1909.4</ele>
        <time>2024-07-11T08:46:19Z</time>
      </trkpt>
      <trkpt lat="42.59918" lon="1.83315">
        <ele>1907.6</ele>
        <time>2024-07-11T08:46:24Z</time>
      </trkpt>
      <trkpt lat="42.59917" lon="1.83317">
        <ele>1907.4</ele>
        <time>2024-07-11T08:46:25Z</time>
      </trkpt>
      <trkpt lat="42.59917" lon="1.83329">
        <ele>1906.8</ele>
        <time>2024-07-11T08:46:33Z</time>
      </trkpt>
      <trkpt lat="42.59916" lon="1.83334">
        <ele>1904.8</ele>
        <time>2024-07-11T08:46:36Z</time>
      </trkpt>
      <trkpt lat="42.59912" lon="1.83341">
        <ele>1902.8</ele>
        <time>2024-07-11T08:46:40Z</time>
      </trkpt>
      <trkpt lat="42.59909" lon="1.83346">
        <ele>1901.8</ele>
        <time>2024-07-11T08:46:45Z</time>
      </trkpt>
      <trkpt lat="42.59908" lon="1.83349">
        <ele>1902.2</ele>
        <time>2024-07-11T08:46:47Z</time>
      </trkpt>
      <trkpt lat="42.59908" lon="1.8335">
        <ele>1902.4</ele>
        <time>2024-07-11T08:46:48Z</time>
      </trkpt>
      <trkpt lat="42.59906" lon="1.83353">
        <ele>1903</ele>
        <time>2024-07-11T08:46:50Z</time>
      </trkpt>
      <trkpt lat="42.59904" lon="1.83356">
        <ele>1903.2</ele>
        <time>2024-07-11T08:46:52Z</time>
      </trkpt>
      <trkpt lat="42.59904" lon="1.83357">
        <ele>1903.4</ele>
        <time>2024-07-11T08:46:53Z</time>
      </trkpt>
      <trkpt lat="42.59902" lon="1.83368">
        <ele>1901.4</ele>
        <time>2024-07-11T08:47:01Z</time>
      </trkpt>
      <trkpt lat="42.599" lon="1.83375">
        <ele>1900</ele>
        <time>2024-07-11T08:47:08Z</time>
      </trkpt>
      <trkpt lat="42.59898" lon="1.83385">
        <ele>1900.6</ele>
        <time>2024-07-11T08:47:17Z</time>
      </trkpt>
      <trkpt lat="42.59899" lon="1.83389">
        <ele>1902</ele>
        <time>2024-07-11T08:47:21Z</time>
      </trkpt>
      <trkpt lat="42.59899" lon="1.83391">
        <ele>1902.2</ele>
        <time>2024-07-11T08:47:22Z</time>
      </trkpt>
      <trkpt lat="42.59895" lon="1.83399">
        <ele>1904</ele>
        <time>2024-07-11T08:47:29Z</time>
      </trkpt>
      <trkpt lat="42.59895" lon="1.834">
        <ele>1904.4</ele>
        <time>2024-07-11T08:47:30Z</time>
      </trkpt>
      <trkpt lat="42.59894" lon="1.83402">
        <ele>1905.6</ele>
        <time>2024-07-11T08:47:32Z</time>
      </trkpt>
      <trkpt lat="42.59894" lon="1.83405">
        <ele>1906.6</ele>
        <time>2024-07-11T08:47:35Z</time>
      </trkpt>
      <trkpt lat="42.59894" lon="1.83406">
        <ele>1906.8</ele>
        <time>2024-07-11T08:47:36Z</time>
      </trkpt>
      <trkpt lat="42.59891" lon="1.83413">
        <ele>1907.4</ele>
        <time>2024-07-11T08:47:41Z</time>
      </trkpt>
      <trkpt lat="42.5989" lon="1.83416">
        <ele>1907.2</ele>
        <time>2024-07-11T08:47:43Z</time>
      </trkpt>
      <trkpt lat="42.59885" lon="1.83423">
        <ele>1905.6</ele>
        <time>2024-07-11T08:47:49Z</time>
      </trkpt>
      <trkpt lat="42.59884" lon="1.8343">
        <ele>1905.2</ele>
        <time>2024-07-11T08:47:56Z</time>
      </trkpt>
      <trkpt lat="42.59881" lon="1.83439">
        <ele>1906.8</ele>
        <time>2024-07-11T08:48:03Z</time>
      </trkpt>
      <trkpt lat="42.59881" lon="1.83445">
        <ele>1909</ele>
        <time>2024-07-11T08:48:11Z</time>
      </trkpt>
      <trkpt lat="42.59882" lon="1.83446">
        <ele>1910.8</ele>
        <time>2024-07-11T08:48:19Z</time>
      </trkpt>
      <trkpt lat="42.59882" lon="1.83446">
        <ele>1911.2</ele>
        <time>2024-07-11T08:48:26Z</time>
      </trkpt>
      <trkpt lat="42.59876" lon="1.83451">
        <ele>1907.8</ele>
        <time>2024-07-11T08:49:49Z</time>
      </trkpt>
      <trkpt lat="42.59874" lon="1.83456">
        <ele>1909.6</ele>
        <time>2024-07-11T08:49:54Z</time>
      </trkpt>
      <trkpt lat="42.59873" lon="1.83458">
        <ele>1912</ele>
        <time>2024-07-11T08:49:58Z</time>
      </trkpt>
      <trkpt lat="42.59872" lon="1.8346">
        <ele>1915.4</ele>
        <time>2024-07-11T08:50:02Z</time>
      </trkpt>
      <trkpt lat="42.59867" lon="1.83468">
        <ele>1917</ele>
        <time>2024-07-11T08:50:09Z</time>
      </trkpt>
      <trkpt lat="42.59868" lon="1.83479">
        <ele>1916.2</ele>
        <time>2024-07-11T08:50:16Z</time>
      </trkpt>
      <trkpt lat="42.59865" lon="1.83484">
        <ele>1916.4</ele>
        <time>2024-07-11T08:50:21Z</time>
      </trkpt>
      <trkpt lat="42.59862" lon="1.83489">
        <ele>1917</ele>
        <time>2024-07-11T08:50:27Z</time>
      </trkpt>
      <trkpt lat="42.5986" lon="1.83494">
        <ele>1917.2</ele>
        <time>2024-07-11T08:50:33Z</time>
      </trkpt>
      <trkpt lat="42.59858" lon="1.83497">
        <ele>1917.4</ele>
        <time>2024-07-11T08:50:38Z</time>
      </trkpt>
      <trkpt lat="42.59859" lon="1.83505">
        <ele>1920.2</ele>
        <time>2024-07-11T08:50:46Z</time>
      </trkpt>
      <trkpt lat="42.59858" lon="1.83512">
        <ele>1921.2</ele>
        <time>2024-07-11T08:50:53Z</time>
      </trkpt>
      <trkpt lat="42.59854" lon="1.8352">
        <ele>1921</ele>
        <time>2024-07-11T08:51:00Z</time>
      </trkpt>
      <trkpt lat="42.59854" lon="1.83531">
        <ele>1922.2</ele>
        <time>2024-07-11T08:51:08Z</time>
      </trkpt>
      <trkpt lat="42.59853" lon="1.83539">
        <ele>1922.8</ele>
        <time>2024-07-11T08:51:13Z</time>
      </trkpt>
      <trkpt lat="42.59853" lon="1.8354">
        <ele>1923</ele>
        <time>2024-07-11T08:51:14Z</time>
      </trkpt>
      <trkpt lat="42.5985" lon="1.83545">
        <ele>1924.4</ele>
        <time>2024-07-11T08:51:19Z</time>
      </trkpt>
      <trkpt lat="42.59849" lon="1.83549">
        <ele>1924.8</ele>
        <time>2024-07-11T08:51:21Z</time>
      </trkpt>
      <trkpt lat="42.59845" lon="1.83554">
        <ele>1923.8</ele>
        <time>2024-07-11T08:51:28Z</time>
      </trkpt>
      <trkpt lat="42.59842" lon="1.83551">
        <ele>1924</ele>
        <time>2024-07-11T08:51:32Z</time>
      </trkpt>
      <trkpt lat="42.59841" lon="1.8355">
        <ele>1924.2</ele>
        <time>2024-07-11T08:51:34Z</time>
      </trkpt>
      <trkpt lat="42.59839" lon="1.83552">
        <ele>1924.2</ele>
        <time>2024-07-11T08:51:39Z</time>
      </trkpt>
      <trkpt lat="42.59836" lon="1.83558">
        <ele>1924</ele>
        <time>2024-07-11T08:51:47Z</time>
      </trkpt>
      <trkpt lat="42.59836" lon="1.83564">
        <ele>1925.2</ele>
        <time>2024-07-11T08:51:54Z</time>
      </trkpt>
      <trkpt lat="42.59839" lon="1.83571">
        <ele>1926.4</ele>
        <time>2024-07-11T08:52:00Z</time>
      </trkpt>
      <trkpt lat="42.5984" lon="1.8358">
        <ele>1927.4</ele>
        <time>2024-07-11T08:52:06Z</time>
      </trkpt>
      <trkpt lat="42.59842" lon="1.83599">
        <ele>1928.2</ele>
        <time>2024-07-11T08:52:17Z</time>
      </trkpt>
      <trkpt lat="42.59841" lon="1.83601">
        <ele>1928.2</ele>
        <time>2024-07-11T08:52:18Z</time>
      </trkpt>
      <trkpt lat="42.59841" lon="1.83609">
        <ele>1929.4</ele>
        <time>2024-07-11T08:52:23Z</time>
      </trkpt>
      <trkpt lat="42.5984" lon="1.83618">
        <ele>1931.2</ele>
        <time>2024-07-11T08:52:27Z</time>
      </trkpt>
      <trkpt lat="42.59838" lon="1.83623">
        <ele>1932.2</ele>
        <time>2024-07-11T08:52:30Z</time>
      </trkpt>
      <trkpt lat="42.59838" lon="1.83627">
        <ele>1932.8</ele>
        <time>2024-07-11T08:52:34Z</time>
      </trkpt>
      <trkpt lat="42.59836" lon="1.83631">
        <ele>1933.4</ele>
        <time>2024-07-11T08:52:37Z</time>
      </trkpt>
      <trkpt lat="42.59832" lon="1.83649">
        <ele>1934.4</ele>
        <time>2024-07-11T08:52:47Z</time>
      </trkpt>
      <trkpt lat="42.59831" lon="1.83658">
        <ele>1933.6</ele>
        <time>2024-07-11T08:52:53Z</time>
      </trkpt>
      <trkpt lat="42.5983" lon="1.8366">
        <ele>1933</ele>
        <time>2024-07-11T08:52:55Z</time>
      </trkpt>
      <trkpt lat="42.5983" lon="1.83664">
        <ele>1932.6</ele>
        <time>2024-07-11T08:52:58Z</time>
      </trkpt>
      <trkpt lat="42.5983" lon="1.83667">
        <ele>1932.4</ele>
        <time>2024-07-11T08:53:00Z</time>
      </trkpt>
      <trkpt lat="42.59827" lon="1.83676">
        <ele>1932.4</ele>
        <time>2024-07-11T08:53:04Z</time>
      </trkpt>
      <trkpt lat="42.59824" lon="1.83681">
        <ele>1933</ele>
        <time>2024-07-11T08:53:06Z</time>
      </trkpt>
      <trkpt lat="42.59823" lon="1.83688">
        <ele>1933</ele>
        <time>2024-07-11T08:53:10Z</time>
      </trkpt>
      <trkpt lat="42.59822" lon="1.83703">
        <ele>1931.6</ele>
        <time>2024-07-11T08:53:18Z</time>
      </trkpt>
      <trkpt lat="42.5982" lon="1.83717">
        <ele>1934.4</ele>
        <time>2024-07-11T08:53:25Z</time>
      </trkpt>
      <trkpt lat="42.5982" lon="1.83727">
        <ele>1936.6</ele>
        <time>2024-07-11T08:53:31Z</time>
      </trkpt>
      <trkpt lat="42.59819" lon="1.83729">
        <ele>1936.6</ele>
        <time>2024-07-11T08:53:32Z</time>
      </trkpt>
      <trkpt lat="42.5982" lon="1.83738">
        <ele>1937.6</ele>
        <time>2024-07-11T08:53:37Z</time>
      </trkpt>
      <trkpt lat="42.59821" lon="1.83742">
        <ele>1938</ele>
        <time>2024-07-11T08:53:39Z</time>
      </trkpt>
      <trkpt lat="42.59821" lon="1.83754">
        <ele>1937</ele>
        <time>2024-07-11T08:53:46Z</time>
      </trkpt>
      <trkpt lat="42.5982" lon="1.83755">
        <ele>1936.8</ele>
        <time>2024-07-11T08:53:47Z</time>
      </trkpt>
      <trkpt lat="42.59818" lon="1.83762">
        <ele>1936.6</ele>
        <time>2024-07-11T08:53:54Z</time>
      </trkpt>
      <trkpt lat="42.59815" lon="1.83769">
        <ele>1938.4</ele>
        <time>2024-07-11T08:54:01Z</time>
      </trkpt>
      <trkpt lat="42.59815" lon="1.83769">
        <ele>1938.6</ele>
        <time>2024-07-11T08:54:02Z</time>
      </trkpt>
      <trkpt lat="42.59816" lon="1.83774">
        <ele>1938.6</ele>
        <time>2024-07-11T08:54:08Z</time>
      </trkpt>
      <trkpt lat="42.59818" lon="1.83779">
        <ele>1937.2</ele>
        <time>2024-07-11T08:54:15Z</time>
      </trkpt>
      <trkpt lat="42.59817" lon="1.83787">
        <ele>1935.8</ele>
        <time>2024-07-11T08:54:23Z</time>
      </trkpt>
      <trkpt lat="42.59815" lon="1.83793">
        <ele>1937.2</ele>
        <time>2024-07-11T08:54:31Z</time>
      </trkpt>
      <trkpt lat="42.59814" lon="1.83798">
        <ele>1939.8</ele>
        <time>2024-07-11T08:54:37Z</time>
      </trkpt>
      <trkpt lat="42.59816" lon="1.83803">
        <ele>1944</ele>
        <time>2024-07-11T08:54:45Z</time>
      </trkpt>
      <trkpt lat="42.59817" lon="1.83808">
        <ele>1945.6</ele>
        <time>2024-07-11T08:54:52Z</time>
      </trkpt>
      <trkpt lat="42.59818" lon="1.83816">
        <ele>1945.6</ele>
        <time>2024-07-11T08:54:59Z</time>
      </trkpt>
      <trkpt lat="42.59815" lon="1.83823">
        <ele>1947.2</ele>
        <time>2024-07-11T08:55:09Z</time>
      </trkpt>
      <trkpt lat="42.59816" lon="1.83829">
        <ele>1949.4</ele>
        <time>2024-07-11T08:55:14Z</time>
      </trkpt>
      <trkpt lat="42.59817" lon="1.83837">
        <ele>1950.8</ele>
        <time>2024-07-11T08:55:18Z</time>
      </trkpt>
      <trkpt lat="42.59816" lon="1.83839">
        <ele>1950.8</ele>
        <time>2024-07-11T08:55:19Z</time>
      </trkpt>
      <trkpt lat="42.59813" lon="1.83847">
        <ele>1949.4</ele>
        <time>2024-07-11T08:55:26Z</time>
      </trkpt>
      <trkpt lat="42.59812" lon="1.83854">
        <ele>1948.6</ele>
        <time>2024-07-11T08:55:32Z</time>
      </trkpt>
      <trkpt lat="42.5981" lon="1.83861">
        <ele>1950.4</ele>
        <time>2024-07-11T08:55:39Z</time>
      </trkpt>
      <trkpt lat="42.59805" lon="1.83869">
        <ele>1954.8</ele>
        <time>2024-07-11T08:55:47Z</time>
      </trkpt>
      <trkpt lat="42.59802" lon="1.83877">
        <ele>1956</ele>
        <time>2024-07-11T08:55:54Z</time>
      </trkpt>
      <trkpt lat="42.59799" lon="1.83884">
        <ele>1956.8</ele>
        <time>2024-07-11T08:56:00Z</time>
      </trkpt>
      <trkpt lat="42.598" lon="1.83892">
        <ele>1958.6</ele>
        <time>2024-07-11T08:56:08Z</time>
      </trkpt>
      <trkpt lat="42.59802" lon="1.83901">
        <ele>1958.8</ele>
        <time>2024-07-11T08:56:14Z</time>
      </trkpt>
      <trkpt lat="42.59804" lon="1.8391">
        <ele>1956.4</ele>
        <time>2024-07-11T08:56:22Z</time>
      </trkpt>
      <trkpt lat="42.59805" lon="1.83916">
        <ele>1955.8</ele>
        <time>2024-07-11T08:56:29Z</time>
      </trkpt>
      <trkpt lat="42.59807" lon="1.83925">
        <ele>1958</ele>
        <time>2024-07-11T08:56:38Z</time>
      </trkpt>
      <trkpt lat="42.59807" lon="1.83929">
        <ele>1959</ele>
        <time>2024-07-11T08:56:42Z</time>
      </trkpt>
      <trkpt lat="42.59808" lon="1.83934">
        <ele>1960</ele>
        <time>2024-07-11T08:56:48Z</time>
      </trkpt>
      <trkpt lat="42.59809" lon="1.83936">
        <ele>1960.2</ele>
        <time>2024-07-11T08:56:50Z</time>
      </trkpt>
      <trkpt lat="42.59808" lon="1.8394">
        <ele>1961.8</ele>
        <time>2024-07-11T08:56:53Z</time>
      </trkpt>
      <trkpt lat="42.59808" lon="1.83946">
        <ele>1963.6</ele>
        <time>2024-07-11T08:56:59Z</time>
      </trkpt>
      <trkpt lat="42.59808" lon="1.83952">
        <ele>1965</ele>
        <time>2024-07-11T08:57:05Z</time>
      </trkpt>
      <trkpt lat="42.59808" lon="1.83959">
        <ele>1965.4</ele>
        <time>2024-07-11T08:57:12Z</time>
      </trkpt>
      <trkpt lat="42.59809" lon="1.83965">
        <ele>1966.4</ele>
        <time>2024-07-11T08:57:17Z</time>
      </trkpt>
      <trkpt lat="42.5981" lon="1.83975">
        <ele>1967</ele>
        <time>2024-07-11T08:57:25Z</time>
      </trkpt>
      <trkpt lat="42.59808" lon="1.83982">
        <ele>1967.8</ele>
        <time>2024-07-11T08:57:33Z</time>
      </trkpt>
      <trkpt lat="42.59807" lon="1.83987">
        <ele>1969.4</ele>
        <time>2024-07-11T08:57:39Z</time>
      </trkpt>
      <trkpt lat="42.59809" lon="1.8399">
        <ele>1969.8</ele>
        <time>2024-07-11T08:57:41Z</time>
      </trkpt>
      <trkpt lat="42.59811" lon="1.83993">
        <ele>1970</ele>
        <time>2024-07-11T08:57:43Z</time>
      </trkpt>
      <trkpt lat="42.59812" lon="1.83995">
        <ele>1970</ele>
        <time>2024-07-11T08:57:45Z</time>
      </trkpt>
      <trkpt lat="42.59811" lon="1.83996">
        <ele>1970</ele>
        <time>2024-07-11T08:57:46Z</time>
      </trkpt>
      <trkpt lat="42.5981" lon="1.84">
        <ele>1970</ele>
        <time>2024-07-11T08:57:48Z</time>
      </trkpt>
      <trkpt lat="42.59812" lon="1.84006">
        <ele>1970</ele>
        <time>2024-07-11T08:57:50Z</time>
      </trkpt>
      <trkpt lat="42.59816" lon="1.84016">
        <ele>1970.8</ele>
        <time>2024-07-11T08:57:57Z</time>
      </trkpt>
      <trkpt lat="42.59815" lon="1.84018">
        <ele>1970.8</ele>
        <time>2024-07-11T08:57:59Z</time>
      </trkpt>
      <trkpt lat="42.59818" lon="1.84023">
        <ele>1971</ele>
        <time>2024-07-11T08:58:02Z</time>
      </trkpt>
      <trkpt lat="42.59822" lon="1.84037">
        <ele>1971.2</ele>
        <time>2024-07-11T08:58:10Z</time>
      </trkpt>
      <trkpt lat="42.59824" lon="1.84041">
        <ele>1971</ele>
        <time>2024-07-11T08:58:13Z</time>
      </trkpt>
      <trkpt lat="42.59824" lon="1.84046">
        <ele>1970.6</ele>
        <time>2024-07-11T08:58:16Z</time>
      </trkpt>
      <trkpt lat="42.59824" lon="1.84059">
        <ele>1968.2</ele>
        <time>2024-07-11T08:58:25Z</time>
      </trkpt>
      <trkpt lat="42.59824" lon="1.84064">
        <ele>1967.6</ele>
        <time>2024-07-11T08:58:28Z</time>
      </trkpt>
      <trkpt lat="42.59823" lon="1.84072">
        <ele>1967.4</ele>
        <time>2024-07-11T08:58:32Z</time>
      </trkpt>
      <trkpt lat="42.59822" lon="1.84074">
        <ele>1967.4</ele>
        <time>2024-07-11T08:58:33Z</time>
      </trkpt>
      <trkpt lat="42.59822" lon="1.84083">
        <ele>1967.4</ele>
        <time>2024-07-11T08:58:38Z</time>
      </trkpt>
      <trkpt lat="42.59822" lon="1.84095">
        <ele>1967</ele>
        <time>2024-07-11T08:58:44Z</time>
      </trkpt>
      <trkpt lat="42.59822" lon="1.84096">
        <ele>1967</ele>
        <time>2024-07-11T08:58:45Z</time>
      </trkpt>
      <trkpt lat="42.59824" lon="1.84107">
        <ele>1967.2</ele>
        <time>2024-07-11T08:58:51Z</time>
      </trkpt>
      <trkpt lat="42.59825" lon="1.84109">
        <ele>1967.4</ele>
        <time>2024-07-11T08:58:52Z</time>
      </trkpt>
      <trkpt lat="42.59826" lon="1.84123">
        <ele>1968</ele>
        <time>2024-07-11T08:59:00Z</time>
      </trkpt>
      <trkpt lat="42.59832" lon="1.84138">
        <ele>1967.2</ele>
        <time>2024-07-11T08:59:09Z</time>
      </trkpt>
      <trkpt lat="42.59841" lon="1.84153">
        <ele>1965</ele>
        <time>2024-07-11T08:59:18Z</time>
      </trkpt>
      <trkpt lat="42.59847" lon="1.84165">
        <ele>1965.6</ele>
        <time>2024-07-11T08:59:26Z</time>
      </trkpt>
      <trkpt lat="42.5985" lon="1.84175">
        <ele>1966</ele>
        <time>2024-07-11T08:59:33Z</time>
      </trkpt>
      <trkpt lat="42.59851" lon="1.84177">
        <ele>1966</ele>
        <time>2024-07-11T08:59:34Z</time>
      </trkpt>
      <trkpt lat="42.59853" lon="1.84189">
        <ele>1965.6</ele>
        <time>2024-07-11T08:59:41Z</time>
      </trkpt>
      <trkpt lat="42.59855" lon="1.84203">
        <ele>1966.4</ele>
        <time>2024-07-11T08:59:49Z</time>
      </trkpt>
      <trkpt lat="42.59858" lon="1.8422">
        <ele>1966.4</ele>
        <time>2024-07-11T08:59:59Z</time>
      </trkpt>
      <trkpt lat="42.59859" lon="1.84233">
        <ele>1965.8</ele>
        <time>2024-07-11T09:00:07Z</time>
      </trkpt>
      <trkpt lat="42.59859" lon="1.84246">
        <ele>1965.2</ele>
        <time>2024-07-11T09:00:14Z</time>
      </trkpt>
      <trkpt lat="42.59861" lon="1.8426">
        <ele>1965.8</ele>
        <time>2024-07-11T09:00:22Z</time>
      </trkpt>
      <trkpt lat="42.59861" lon="1.84279">
        <ele>1966</ele>
        <time>2024-07-11T09:00:33Z</time>
      </trkpt>
      <trkpt lat="42.59862" lon="1.84289">
        <ele>1966.2</ele>
        <time>2024-07-11T09:00:39Z</time>
      </trkpt>
      <trkpt lat="42.59862" lon="1.84293">
        <ele>1966.2</ele>
        <time>2024-07-11T09:00:41Z</time>
      </trkpt>
      <trkpt lat="42.59863" lon="1.84299">
        <ele>1966</ele>
        <time>2024-07-11T09:00:44Z</time>
      </trkpt>
      <trkpt lat="42.59863" lon="1.84311">
        <ele>1966</ele>
        <time>2024-07-11T09:00:50Z</time>
      </trkpt>
      <trkpt lat="42.59862" lon="1.84313">
        <ele>1966</ele>
        <time>2024-07-11T09:00:51Z</time>
      </trkpt>
      <trkpt lat="42.59863" lon="1.84328">
        <ele>1967.6</ele>
        <time>2024-07-11T09:01:00Z</time>
      </trkpt>
      <trkpt lat="42.59864" lon="1.84331">
        <ele>1968.2</ele>
        <time>2024-07-11T09:01:02Z</time>
      </trkpt>
      <trkpt lat="42.59865" lon="1.84335">
        <ele>1968.8</ele>
        <time>2024-07-11T09:01:05Z</time>
      </trkpt>
      <trkpt lat="42.59866" lon="1.84339">
        <ele>1969.2</ele>
        <time>2024-07-11T09:01:07Z</time>
      </trkpt>
      <trkpt lat="42.59867" lon="1.84347">
        <ele>1969.6</ele>
        <time>2024-07-11T09:01:11Z</time>
      </trkpt>
      <trkpt lat="42.59873" lon="1.84356">
        <ele>1969.8</ele>
        <time>2024-07-11T09:01:17Z</time>
      </trkpt>
      <trkpt lat="42.59873" lon="1.84358">
        <ele>1969.8</ele>
        <time>2024-07-11T09:01:18Z</time>
      </trkpt>
      <trkpt lat="42.59875" lon="1.84361">
        <ele>1969.8</ele>
        <time>2024-07-11T09:01:21Z</time>
      </trkpt>
      <trkpt lat="42.59876" lon="1.84365">
        <ele>1969.6</ele>
        <time>2024-07-11T09:01:24Z</time>
      </trkpt>
      <trkpt lat="42.59876" lon="1.8437">
        <ele>1969.2</ele>
        <time>2024-07-11T09:01:28Z</time>
      </trkpt>
      <trkpt lat="42.59878" lon="1.84372">
        <ele>1969.2</ele>
        <time>2024-07-11T09:01:29Z</time>
      </trkpt>
      <trkpt lat="42.59882" lon="1.8438">
        <ele>1969</ele>
        <time>2024-07-11T09:01:33Z</time>
      </trkpt>
      <trkpt lat="42.59884" lon="1.84385">
        <ele>1969.8</ele>
        <time>2024-07-11T09:01:36Z</time>
      </trkpt>
      <trkpt lat="42.59885" lon="1.84389">
        <ele>1970.4</ele>
        <time>2024-07-11T09:01:38Z</time>
      </trkpt>
      <trkpt lat="42.59886" lon="1.8439">
        <ele>1970.4</ele>
        <time>2024-07-11T09:01:39Z</time>
      </trkpt>
      <trkpt lat="42.59887" lon="1.84391">
        <ele>1970.4</ele>
        <time>2024-07-11T09:01:40Z</time>
      </trkpt>
      <trkpt lat="42.59889" lon="1.84397">
        <ele>1969.8</ele>
        <time>2024-07-11T09:01:44Z</time>
      </trkpt>
      <trkpt lat="42.59889" lon="1.84398">
        <ele>1969.4</ele>
        <time>2024-07-11T09:01:45Z</time>
      </trkpt>
      <trkpt lat="42.59892" lon="1.84407">
        <ele>1967.8</ele>
        <time>2024-07-11T09:01:49Z</time>
      </trkpt>
      <trkpt lat="42.59895" lon="1.84422">
        <ele>1966</ele>
        <time>2024-07-11T09:01:57Z</time>
      </trkpt>
      <trkpt lat="42.59896" lon="1.84426">
        <ele>1965.8</ele>
        <time>2024-07-11T09:02:00Z</time>
      </trkpt>
      <trkpt lat="42.59895" lon="1.8443">
        <ele>1965.6</ele>
        <time>2024-07-11T09:02:02Z</time>
      </trkpt>
      <trkpt lat="42.59897" lon="1.84442">
        <ele>1965.6</ele>
        <time>2024-07-11T09:02:09Z</time>
      </trkpt>
      <trkpt lat="42.59897" lon="1.84445">
        <ele>1966</ele>
        <time>2024-07-11T09:02:10Z</time>
      </trkpt>
      <trkpt lat="42.59899" lon="1.84456">
        <ele>1967.8</ele>
        <time>2024-07-11T09:02:16Z</time>
      </trkpt>
      <trkpt lat="42.59899" lon="1.84458">
        <ele>1968</ele>
        <time>2024-07-11T09:02:17Z</time>
      </trkpt>
      <trkpt lat="42.59899" lon="1.8446">
        <ele>1968</ele>
        <time>2024-07-11T09:02:18Z</time>
      </trkpt>
      <trkpt lat="42.59898" lon="1.84467">
        <ele>1968.4</ele>
        <time>2024-07-11T09:02:22Z</time>
      </trkpt>
      <trkpt lat="42.59898" lon="1.84476">
        <ele>1968.8</ele>
        <time>2024-07-11T09:02:27Z</time>
      </trkpt>
      <trkpt lat="42.59898" lon="1.8448">
        <ele>1968.8</ele>
        <time>2024-07-11T09:02:29Z</time>
      </trkpt>
      <trkpt lat="42.59897" lon="1.8449">
        <ele>1969</ele>
        <time>2024-07-11T09:02:34Z</time>
      </trkpt>
      <trkpt lat="42.59898" lon="1.84494">
        <ele>1969</ele>
        <time>2024-07-11T09:02:36Z</time>
      </trkpt>
      <trkpt lat="42.59898" lon="1.84499">
        <ele>1968.8</ele>
        <time>2024-07-11T09:02:39Z</time>
      </trkpt>
      <trkpt lat="42.59898" lon="1.84502">
        <ele>1968.4</ele>
        <time>2024-07-11T09:02:41Z</time>
      </trkpt>
      <trkpt lat="42.59899" lon="1.84515">
        <ele>1968</ele>
        <time>2024-07-11T09:02:47Z</time>
      </trkpt>
      <trkpt lat="42.59899" lon="1.84517">
        <ele>1968</ele>
        <time>2024-07-11T09:02:48Z</time>
      </trkpt>
      <trkpt lat="42.59901" lon="1.84524">
        <ele>1969</ele>
        <time>2024-07-11T09:02:52Z</time>
      </trkpt>
      <trkpt lat="42.59902" lon="1.84532">
        <ele>1970.8</ele>
        <time>2024-07-11T09:02:56Z</time>
      </trkpt>
      <trkpt lat="42.59903" lon="1.84535">
        <ele>1971.4</ele>
        <time>2024-07-11T09:02:58Z</time>
      </trkpt>
      <trkpt lat="42.59904" lon="1.84542">
        <ele>1972.2</ele>
        <time>2024-07-11T09:03:03Z</time>
      </trkpt>
      <trkpt lat="42.59905" lon="1.84554">
        <ele>1973</ele>
        <time>2024-07-11T09:03:09Z</time>
      </trkpt>
      <trkpt lat="42.59905" lon="1.84555">
        <ele>1972.8</ele>
        <time>2024-07-11T09:03:10Z</time>
      </trkpt>
      <trkpt lat="42.59907" lon="1.84559">
        <ele>1972.2</ele>
        <time>2024-07-11T09:03:13Z</time>
      </trkpt>
      <trkpt lat="42.59908" lon="1.84567">
        <ele>1972</ele>
        <time>2024-07-11T09:03:18Z</time>
      </trkpt>
      <trkpt lat="42.59909" lon="1.84571">
        <ele>1972</ele>
        <time>2024-07-11T09:03:20Z</time>
      </trkpt>
      <trkpt lat="42.59911" lon="1.84579">
        <ele>1970.8</ele>
        <time>2024-07-11T09:03:24Z</time>
      </trkpt>
      <trkpt lat="42.59911" lon="1.84583">
        <ele>1970</ele>
        <time>2024-07-11T09:03:27Z</time>
      </trkpt>
      <trkpt lat="42.59914" lon="1.8459">
        <ele>1969.2</ele>
        <time>2024-07-11T09:03:32Z</time>
      </trkpt>
      <trkpt lat="42.59917" lon="1.84594">
        <ele>1968.8</ele>
        <time>2024-07-11T09:03:34Z</time>
      </trkpt>
      <trkpt lat="42.5992" lon="1.84602">
        <ele>1967.8</ele>
        <time>2024-07-11T09:03:39Z</time>
      </trkpt>
      <trkpt lat="42.59924" lon="1.8461">
        <ele>1967.6</ele>
        <time>2024-07-11T09:03:44Z</time>
      </trkpt>
      <trkpt lat="42.59926" lon="1.84616">
        <ele>1968.2</ele>
        <time>2024-07-11T09:03:47Z</time>
      </trkpt>
      <trkpt lat="42.59928" lon="1.8462">
        <ele>1968.6</ele>
        <time>2024-07-11T09:03:50Z</time>
      </trkpt>
      <trkpt lat="42.59929" lon="1.84623">
        <ele>1968.6</ele>
        <time>2024-07-11T09:03:51Z</time>
      </trkpt>
      <trkpt lat="42.5993" lon="1.84627">
        <ele>1968.8</ele>
        <time>2024-07-11T09:03:53Z</time>
      </trkpt>
      <trkpt lat="42.59931" lon="1.84629">
        <ele>1968.8</ele>
        <time>2024-07-11T09:03:54Z</time>
      </trkpt>
      <trkpt lat="42.59932" lon="1.84632">
        <ele>1968.8</ele>
        <time>2024-07-11T09:03:56Z</time>
      </trkpt>
      <trkpt lat="42.59932" lon="1.84638">
        <ele>1969</ele>
        <time>2024-07-11T09:03:59Z</time>
      </trkpt>
      <trkpt lat="42.59933" lon="1.84639">
        <ele>1969.2</ele>
        <time>2024-07-11T09:04:00Z</time>
      </trkpt>
      <trkpt lat="42.59934" lon="1.84643">
        <ele>1969.4</ele>
        <time>2024-07-11T09:04:02Z</time>
      </trkpt>
      <trkpt lat="42.59937" lon="1.84649">
        <ele>1970</ele>
        <time>2024-07-11T09:04:06Z</time>
      </trkpt>
      <trkpt lat="42.5994" lon="1.84656">
        <ele>1970.4</ele>
        <time>2024-07-11T09:04:10Z</time>
      </trkpt>
      <trkpt lat="42.5994" lon="1.8466">
        <ele>1970.6</ele>
        <time>2024-07-11T09:04:12Z</time>
      </trkpt>
      <trkpt lat="42.59945" lon="1.84674">
        <ele>1971</ele>
        <time>2024-07-11T09:04:20Z</time>
      </trkpt>
      <trkpt lat="42.59946" lon="1.84682">
        <ele>1970.4</ele>
        <time>2024-07-11T09:04:24Z</time>
      </trkpt>
      <trkpt lat="42.59946" lon="1.84686">
        <ele>1970.2</ele>
        <time>2024-07-11T09:04:26Z</time>
      </trkpt>
      <trkpt lat="42.59947" lon="1.84701">
        <ele>1969.8</ele>
        <time>2024-07-11T09:04:34Z</time>
      </trkpt>
      <trkpt lat="42.59948" lon="1.84706">
        <ele>1969.6</ele>
        <time>2024-07-11T09:04:37Z</time>
      </trkpt>
      <trkpt lat="42.59949" lon="1.84714">
        <ele>1969.6</ele>
        <time>2024-07-11T09:04:41Z</time>
      </trkpt>
      <trkpt lat="42.59947" lon="1.84728">
        <ele>1967.6</ele>
        <time>2024-07-11T09:04:49Z</time>
      </trkpt>
      <trkpt lat="42.59947" lon="1.8473">
        <ele>1967.4</ele>
        <time>2024-07-11T09:04:50Z</time>
      </trkpt>
      <trkpt lat="42.59947" lon="1.84737">
        <ele>1967.8</ele>
        <time>2024-07-11T09:04:54Z</time>
      </trkpt>
      <trkpt lat="42.59946" lon="1.84741">
        <ele>1968.6</ele>
        <time>2024-07-11T09:04:56Z</time>
      </trkpt>
      <trkpt lat="42.59947" lon="1.84747">
        <ele>1969.6</ele>
        <time>2024-07-11T09:04:59Z</time>
      </trkpt>
      <trkpt lat="42.59946" lon="1.8475">
        <ele>1970</ele>
        <time>2024-07-11T09:05:01Z</time>
      </trkpt>
      <trkpt lat="42.59947" lon="1.8476">
        <ele>1970.8</ele>
        <time>2024-07-11T09:05:07Z</time>
      </trkpt>
      <trkpt lat="42.59948" lon="1.84762">
        <ele>1970.8</ele>
        <time>2024-07-11T09:05:08Z</time>
      </trkpt>
      <trkpt lat="42.59949" lon="1.84773">
        <ele>1972.4</ele>
        <time>2024-07-11T09:05:15Z</time>
      </trkpt>
      <trkpt lat="42.59949" lon="1.84779">
        <ele>1973</ele>
        <time>2024-07-11T09:05:18Z</time>
      </trkpt>
      <trkpt lat="42.59949" lon="1.84784">
        <ele>1973.4</ele>
        <time>2024-07-11T09:05:21Z</time>
      </trkpt>
      <trkpt lat="42.59949" lon="1.84801">
        <ele>1971.4</ele>
        <time>2024-07-11T09:05:30Z</time>
      </trkpt>
      <trkpt lat="42.5995" lon="1.84808">
        <ele>1971.2</ele>
        <time>2024-07-11T09:05:34Z</time>
      </trkpt>
      <trkpt lat="42.59948" lon="1.84811">
        <ele>1971.4</ele>
        <time>2024-07-11T09:05:36Z</time>
      </trkpt>
      <trkpt lat="42.59948" lon="1.84816">
        <ele>1971.4</ele>
        <time>2024-07-11T09:05:39Z</time>
      </trkpt>
      <trkpt lat="42.59949" lon="1.8482">
        <ele>1971.4</ele>
        <time>2024-07-11T09:05:41Z</time>
      </trkpt>
      <trkpt lat="42.59949" lon="1.84821">
        <ele>1971.4</ele>
        <time>2024-07-11T09:05:42Z</time>
      </trkpt>
      <trkpt lat="42.5995" lon="1.8483">
        <ele>1971.8</ele>
        <time>2024-07-11T09:05:47Z</time>
      </trkpt>
      <trkpt lat="42.59951" lon="1.84834">
        <ele>1972</ele>
        <time>2024-07-11T09:05:49Z</time>
      </trkpt>
      <trkpt lat="42.59951" lon="1.84842">
        <ele>1972</ele>
        <time>2024-07-11T09:05:53Z</time>
      </trkpt>
      <trkpt lat="42.59952" lon="1.8485">
        <ele>1971.8</ele>
        <time>2024-07-11T09:05:56Z</time>
      </trkpt>
      <trkpt lat="42.59952" lon="1.84859">
        <ele>1971.8</ele>
        <time>2024-07-11T09:06:01Z</time>
      </trkpt>
      <trkpt lat="42.59952" lon="1.84861">
        <ele>1971.8</ele>
        <time>2024-07-11T09:06:02Z</time>
      </trkpt>
      <trkpt lat="42.59953" lon="1.84875">
        <ele>1971.4</ele>
        <time>2024-07-11T09:06:09Z</time>
      </trkpt>
      <trkpt lat="42.59953" lon="1.84889">
        <ele>1971.2</ele>
        <time>2024-07-11T09:06:16Z</time>
      </trkpt>
      <trkpt lat="42.59954" lon="1.849">
        <ele>1971.6</ele>
        <time>2024-07-11T09:06:22Z</time>
      </trkpt>
      <trkpt lat="42.59954" lon="1.84911">
        <ele>1972.4</ele>
        <time>2024-07-11T09:06:29Z</time>
      </trkpt>
      <trkpt lat="42.59955" lon="1.84914">
        <ele>1972.6</ele>
        <time>2024-07-11T09:06:30Z</time>
      </trkpt>
      <trkpt lat="42.59957" lon="1.84921">
        <ele>1973.2</ele>
        <time>2024-07-11T09:06:34Z</time>
      </trkpt>
      <trkpt lat="42.59959" lon="1.84925">
        <ele>1973.8</ele>
        <time>2024-07-11T09:06:36Z</time>
      </trkpt>
      <trkpt lat="42.59959" lon="1.84927">
        <ele>1974</ele>
        <time>2024-07-11T09:06:37Z</time>
      </trkpt>
      <trkpt lat="42.5996" lon="1.84931">
        <ele>1974.6</ele>
        <time>2024-07-11T09:06:39Z</time>
      </trkpt>
      <trkpt lat="42.59959" lon="1.8494">
        <ele>1975.4</ele>
        <time>2024-07-11T09:06:43Z</time>
      </trkpt>
      <trkpt lat="42.59961" lon="1.84949">
        <ele>1974</ele>
        <time>2024-07-11T09:06:50Z</time>
      </trkpt>
      <trkpt lat="42.59961" lon="1.8495">
        <ele>1973.8</ele>
        <time>2024-07-11T09:06:51Z</time>
      </trkpt>
      <trkpt lat="42.59962" lon="1.84953">
        <ele>1973.6</ele>
        <time>2024-07-11T09:06:53Z</time>
      </trkpt>
      <trkpt lat="42.59962" lon="1.84957">
        <ele>1973.4</ele>
        <time>2024-07-11T09:06:55Z</time>
      </trkpt>
      <trkpt lat="42.59963" lon="1.84959">
        <ele>1973.4</ele>
        <time>2024-07-11T09:06:56Z</time>
      </trkpt>
      <trkpt lat="42.59965" lon="1.84963">
        <ele>1973.2</ele>
        <time>2024-07-11T09:06:58Z</time>
      </trkpt>
      <trkpt lat="42.59965" lon="1.84967">
        <ele>1973.2</ele>
        <time>2024-07-11T09:07:00Z</time>
      </trkpt>
      <trkpt lat="42.59965" lon="1.8497">
        <ele>1973.2</ele>
        <time>2024-07-11T09:07:02Z</time>
      </trkpt>
      <trkpt lat="42.59967" lon="1.8498">
        <ele>1973.6</ele>
        <time>2024-07-11T09:07:06Z</time>
      </trkpt>
      <trkpt lat="42.59969" lon="1.84985">
        <ele>1974</ele>
        <time>2024-07-11T09:07:08Z</time>
      </trkpt>
      <trkpt lat="42.5997" lon="1.8499">
        <ele>1974.8</ele>
        <time>2024-07-11T09:07:11Z</time>
      </trkpt>
      <trkpt lat="42.59971" lon="1.84995">
        <ele>1975.4</ele>
        <time>2024-07-11T09:07:14Z</time>
      </trkpt>
      <trkpt lat="42.59974" lon="1.85008">
        <ele>1975.4</ele>
        <time>2024-07-11T09:07:21Z</time>
      </trkpt>
      <trkpt lat="42.59977" lon="1.85022">
        <ele>1975.4</ele>
        <time>2024-07-11T09:07:29Z</time>
      </trkpt>
      <trkpt lat="42.5998" lon="1.85039">
        <ele>1973.8</ele>
        <time>2024-07-11T09:07:38Z</time>
      </trkpt>
      <trkpt lat="42.59985" lon="1.85051">
        <ele>1972.4</ele>
        <time>2024-07-11T09:07:45Z</time>
      </trkpt>
      <trkpt lat="42.59987" lon="1.85061">
        <ele>1973</ele>
        <time>2024-07-11T09:07:51Z</time>
      </trkpt>
      <trkpt lat="42.59989" lon="1.85075">
        <ele>1973.4</ele>
        <time>2024-07-11T09:07:59Z</time>
      </trkpt>
      <trkpt lat="42.5999" lon="1.85091">
        <ele>1973.8</ele>
        <time>2024-07-11T09:08:07Z</time>
      </trkpt>
      <trkpt lat="42.59989" lon="1.85101">
        <ele>1975.2</ele>
        <time>2024-07-11T09:08:12Z</time>
      </trkpt>
      <trkpt lat="42.5999" lon="1.85107">
        <ele>1975.4</ele>
        <time>2024-07-11T09:08:16Z</time>
      </trkpt>
      <trkpt lat="42.59989" lon="1.85118">
        <ele>1975</ele>
        <time>2024-07-11T09:08:22Z</time>
      </trkpt>
      <trkpt lat="42.59989" lon="1.85119">
        <ele>1974.8</ele>
        <time>2024-07-11T09:08:23Z</time>
      </trkpt>
      <trkpt lat="42.59989" lon="1.85123">
        <ele>1974.4</ele>
        <time>2024-07-11T09:08:25Z</time>
      </trkpt>
      <trkpt lat="42.5999" lon="1.85126">
        <ele>1974</ele>
        <time>2024-07-11T09:08:27Z</time>
      </trkpt>
      <trkpt lat="42.59991" lon="1.85138">
        <ele>1973.4</ele>
        <time>2024-07-11T09:08:33Z</time>
      </trkpt>
      <trkpt lat="42.59992" lon="1.85141">
        <ele>1973.8</ele>
        <time>2024-07-11T09:08:35Z</time>
      </trkpt>
      <trkpt lat="42.59994" lon="1.85155">
        <ele>1974</ele>
        <time>2024-07-11T09:08:43Z</time>
      </trkpt>
      <trkpt lat="42.5999" lon="1.85171">
        <ele>1976.4</ele>
        <time>2024-07-11T09:08:52Z</time>
      </trkpt>
      <trkpt lat="42.59986" lon="1.85181">
        <ele>1978.6</ele>
        <time>2024-07-11T09:08:59Z</time>
      </trkpt>
      <trkpt lat="42.59986" lon="1.85182">
        <ele>1979</ele>
        <time>2024-07-11T09:09:00Z</time>
      </trkpt>
      <trkpt lat="42.59985" lon="1.85187">
        <ele>1979.8</ele>
        <time>2024-07-11T09:09:04Z</time>
      </trkpt>
      <trkpt lat="42.59983" lon="1.85192">
        <ele>1980.4</ele>
        <time>2024-07-11T09:09:07Z</time>
      </trkpt>
      <trkpt lat="42.59982" lon="1.85195">
        <ele>1981.2</ele>
        <time>2024-07-11T09:09:10Z</time>
      </trkpt>
      <trkpt lat="42.59981" lon="1.85203">
        <ele>1982.2</ele>
        <time>2024-07-11T09:09:14Z</time>
      </trkpt>
      <trkpt lat="42.59981" lon="1.85205">
        <ele>1982.2</ele>
        <time>2024-07-11T09:09:15Z</time>
      </trkpt>
      <trkpt lat="42.59976" lon="1.8522">
        <ele>1983.4</ele>
        <time>2024-07-11T09:09:22Z</time>
      </trkpt>
      <trkpt lat="42.59968" lon="1.85231">
        <ele>1986.8</ele>
        <time>2024-07-11T09:09:31Z</time>
      </trkpt>
      <trkpt lat="42.59964" lon="1.85243">
        <ele>1984.8</ele>
        <time>2024-07-11T09:09:39Z</time>
      </trkpt>
      <trkpt lat="42.59964" lon="1.85244">
        <ele>1984.6</ele>
        <time>2024-07-11T09:09:40Z</time>
      </trkpt>
      <trkpt lat="42.59963" lon="1.85251">
        <ele>1983.8</ele>
        <time>2024-07-11T09:09:44Z</time>
      </trkpt>
      <trkpt lat="42.59962" lon="1.85253">
        <ele>1983.6</ele>
        <time>2024-07-11T09:09:45Z</time>
      </trkpt>
      <trkpt lat="42.5996" lon="1.85257">
        <ele>1983.4</ele>
        <time>2024-07-11T09:09:47Z</time>
      </trkpt>
      <trkpt lat="42.59959" lon="1.85263">
        <ele>1982.8</ele>
        <time>2024-07-11T09:09:51Z</time>
      </trkpt>
      <trkpt lat="42.5996" lon="1.85273">
        <ele>1982.2</ele>
        <time>2024-07-11T09:09:57Z</time>
      </trkpt>
      <trkpt lat="42.59958" lon="1.85275">
        <ele>1982.4</ele>
        <time>2024-07-11T09:09:58Z</time>
      </trkpt>
      <trkpt lat="42.59958" lon="1.85279">
        <ele>1982.4</ele>
        <time>2024-07-11T09:10:01Z</time>
      </trkpt>
      <trkpt lat="42.59958" lon="1.85284">
        <ele>1983</ele>
        <time>2024-07-11T09:10:03Z</time>
      </trkpt>
      <trkpt lat="42.59956" lon="1.85297">
        <ele>1982.8</ele>
        <time>2024-07-11T09:10:11Z</time>
      </trkpt>
      <trkpt lat="42.59956" lon="1.853">
        <ele>1982.6</ele>
        <time>2024-07-11T09:10:13Z</time>
      </trkpt>
      <trkpt lat="42.59956" lon="1.85303">
        <ele>1982.6</ele>
        <time>2024-07-11T09:10:15Z</time>
      </trkpt>
      <trkpt lat="42.59956" lon="1.85305">
        <ele>1982.6</ele>
        <time>2024-07-11T09:10:16Z</time>
      </trkpt>
      <trkpt lat="42.59956" lon="1.85317">
        <ele>1982.2</ele>
        <time>2024-07-11T09:10:25Z</time>
      </trkpt>
      <trkpt lat="42.59957" lon="1.85325">
        <ele>1981.4</ele>
        <time>2024-07-11T09:10:33Z</time>
      </trkpt>
      <trkpt lat="42.59957" lon="1.85334">
        <ele>1980.4</ele>
        <time>2024-07-11T09:10:39Z</time>
      </trkpt>
      <trkpt lat="42.59957" lon="1.85345">
        <ele>1979.8</ele>
        <time>2024-07-11T09:10:46Z</time>
      </trkpt>
      <trkpt lat="42.5996" lon="1.85358">
        <ele>1979.6</ele>
        <time>2024-07-11T09:10:54Z</time>
      </trkpt>
      <trkpt lat="42.59958" lon="1.85363">
        <ele>1980.8</ele>
        <time>2024-07-11T09:11:00Z</time>
      </trkpt>
      <trkpt lat="42.59955" lon="1.85371">
        <ele>1981.2</ele>
        <time>2024-07-11T09:11:10Z</time>
      </trkpt>
      <trkpt lat="42.59955" lon="1.85382">
        <ele>1980</ele>
        <time>2024-07-11T09:11:17Z</time>
      </trkpt>
      <trkpt lat="42.59951" lon="1.85389">
        <ele>1979.6</ele>
        <time>2024-07-11T09:11:22Z</time>
      </trkpt>
      <trkpt lat="42.5995" lon="1.85393">
        <ele>1979.2</ele>
        <time>2024-07-11T09:11:26Z</time>
      </trkpt>
      <trkpt lat="42.59944" lon="1.85409">
        <ele>1977.8</ele>
        <time>2024-07-11T09:11:38Z</time>
      </trkpt>
      <trkpt lat="42.59943" lon="1.85412">
        <ele>1977.8</ele>
        <time>2024-07-11T09:11:41Z</time>
      </trkpt>
      <trkpt lat="42.59945" lon="1.85414">
        <ele>1977.6</ele>
        <time>2024-07-11T09:11:43Z</time>
      </trkpt>
      <trkpt lat="42.59946" lon="1.85415">
        <ele>1977.6</ele>
        <time>2024-07-11T09:11:44Z</time>
      </trkpt>
      <trkpt lat="42.59948" lon="1.85417">
        <ele>1977.6</ele>
        <time>2024-07-11T09:11:46Z</time>
      </trkpt>
      <trkpt lat="42.59949" lon="1.85422">
        <ele>1978</ele>
        <time>2024-07-11T09:11:49Z</time>
      </trkpt>
      <trkpt lat="42.59948" lon="1.85435">
        <ele>1980.2</ele>
        <time>2024-07-11T09:11:56Z</time>
      </trkpt>
      <trkpt lat="42.59948" lon="1.85452">
        <ele>1980</ele>
        <time>2024-07-11T09:12:05Z</time>
      </trkpt>
      <trkpt lat="42.59951" lon="1.85467">
        <ele>1978.2</ele>
        <time>2024-07-11T09:12:13Z</time>
      </trkpt>
      <trkpt lat="42.59951" lon="1.85484">
        <ele>1977.4</ele>
        <time>2024-07-11T09:12:22Z</time>
      </trkpt>
      <trkpt lat="42.59946" lon="1.85496">
        <ele>1977.8</ele>
        <time>2024-07-11T09:12:29Z</time>
      </trkpt>
      <trkpt lat="42.59944" lon="1.85501">
        <ele>1978</ele>
        <time>2024-07-11T09:12:32Z</time>
      </trkpt>
      <trkpt lat="42.59944" lon="1.85507">
        <ele>1979</ele>
        <time>2024-07-11T09:12:37Z</time>
      </trkpt>
      <trkpt lat="42.59944" lon="1.85512">
        <ele>1979.4</ele>
        <time>2024-07-11T09:12:41Z</time>
      </trkpt>
      <trkpt lat="42.59945" lon="1.85514">
        <ele>1979.4</ele>
        <time>2024-07-11T09:12:44Z</time>
      </trkpt>
      <trkpt lat="42.59947" lon="1.85523">
        <ele>1980.6</ele>
        <time>2024-07-11T09:12:52Z</time>
      </trkpt>
      <trkpt lat="42.5995" lon="1.85527">
        <ele>1981.2</ele>
        <time>2024-07-11T09:12:56Z</time>
      </trkpt>
      <trkpt lat="42.59951" lon="1.85535">
        <ele>1985.6</ele>
        <time>2024-07-11T09:13:02Z</time>
      </trkpt>
      <trkpt lat="42.59952" lon="1.85538">
        <ele>1986.4</ele>
        <time>2024-07-11T09:13:04Z</time>
      </trkpt>
      <trkpt lat="42.59956" lon="1.85544">
        <ele>1986.6</ele>
        <time>2024-07-11T09:13:08Z</time>
      </trkpt>
      <trkpt lat="42.5996" lon="1.85559">
        <ele>1985.8</ele>
        <time>2024-07-11T09:13:16Z</time>
      </trkpt>
      <trkpt lat="42.5996" lon="1.8556">
        <ele>1985.8</ele>
        <time>2024-07-11T09:13:17Z</time>
      </trkpt>
      <trkpt lat="42.59961" lon="1.85562">
        <ele>1985.6</ele>
        <time>2024-07-11T09:13:18Z</time>
      </trkpt>
      <trkpt lat="42.59963" lon="1.85565">
        <ele>1985.4</ele>
        <time>2024-07-11T09:13:21Z</time>
      </trkpt>
      <trkpt lat="42.59963" lon="1.85566">
        <ele>1985</ele>
        <time>2024-07-11T09:13:22Z</time>
      </trkpt>
      <trkpt lat="42.59963" lon="1.85571">
        <ele>1982.2</ele>
        <time>2024-07-11T09:13:29Z</time>
      </trkpt>
      <trkpt lat="42.59968" lon="1.85581">
        <ele>1982.2</ele>
        <time>2024-07-11T09:13:36Z</time>
      </trkpt>
      <trkpt lat="42.59975" lon="1.85598">
        <ele>1983.2</ele>
        <time>2024-07-11T09:13:46Z</time>
      </trkpt>
      <trkpt lat="42.59987" lon="1.85613">
        <ele>1983.4</ele>
        <time>2024-07-11T09:13:58Z</time>
      </trkpt>
      <trkpt lat="42.59991" lon="1.85623">
        <ele>1985</ele>
        <time>2024-07-11T09:14:05Z</time>
      </trkpt>
      <trkpt lat="42.59995" lon="1.85627">
        <ele>1985.8</ele>
        <time>2024-07-11T09:14:09Z</time>
      </trkpt>
      <trkpt lat="42.59998" lon="1.8563">
        <ele>1986.6</ele>
        <time>2024-07-11T09:14:13Z</time>
      </trkpt>
      <trkpt lat="42.60003" lon="1.85643">
        <ele>1988.2</ele>
        <time>2024-07-11T09:14:21Z</time>
      </trkpt>
      <trkpt lat="42.60009" lon="1.85653">
        <ele>1988.2</ele>
        <time>2024-07-11T09:14:31Z</time>
      </trkpt>
      <trkpt lat="42.6001" lon="1.85655">
        <ele>1988.2</ele>
        <time>2024-07-11T09:14:32Z</time>
      </trkpt>
      <trkpt lat="42.6001" lon="1.85659">
        <ele>1987.4</ele>
        <time>2024-07-11T09:14:36Z</time>
      </trkpt>
      <trkpt lat="42.6001" lon="1.85663">
        <ele>1985.4</ele>
        <time>2024-07-11T09:14:41Z</time>
      </trkpt>
      <trkpt lat="42.6001" lon="1.85671">
        <ele>1983.6</ele>
        <time>2024-07-11T09:14:47Z</time>
      </trkpt>
      <trkpt lat="42.60011" lon="1.85682">
        <ele>1984</ele>
        <time>2024-07-11T09:14:54Z</time>
      </trkpt>
      <trkpt lat="42.60015" lon="1.85687">
        <ele>1983.4</ele>
        <time>2024-07-11T09:14:58Z</time>
      </trkpt>
      <trkpt lat="42.6002" lon="1.85689">
        <ele>1983</ele>
        <time>2024-07-11T09:15:00Z</time>
      </trkpt>
      <trkpt lat="42.60023" lon="1.85692">
        <ele>1983</ele>
        <time>2024-07-11T09:15:02Z</time>
      </trkpt>
      <trkpt lat="42.60022" lon="1.85701">
        <ele>1986.8</ele>
        <time>2024-07-11T09:15:06Z</time>
      </trkpt>
      <trkpt lat="42.60025" lon="1.85712">
        <ele>1989.6</ele>
        <time>2024-07-11T09:15:13Z</time>
      </trkpt>
      <trkpt lat="42.60029" lon="1.85725">
        <ele>1989.8</ele>
        <time>2024-07-11T09:15:20Z</time>
      </trkpt>
      <trkpt lat="42.60029" lon="1.85726">
        <ele>1990</ele>
        <time>2024-07-11T09:15:21Z</time>
      </trkpt>
      <trkpt lat="42.60029" lon="1.85729">
        <ele>1990.2</ele>
        <time>2024-07-11T09:15:23Z</time>
      </trkpt>
      <trkpt lat="42.60032" lon="1.85736">
        <ele>1991.8</ele>
        <time>2024-07-11T09:15:28Z</time>
      </trkpt>
      <trkpt lat="42.60033" lon="1.85737">
        <ele>1992</ele>
        <time>2024-07-11T09:15:29Z</time>
      </trkpt>
      <trkpt lat="42.60039" lon="1.85742">
        <ele>1990.8</ele>
        <time>2024-07-11T09:15:35Z</time>
      </trkpt>
      <trkpt lat="42.60046" lon="1.85752">
        <ele>1990.6</ele>
        <time>2024-07-11T09:15:44Z</time>
      </trkpt>
      <trkpt lat="42.6005" lon="1.85755">
        <ele>1991.2</ele>
        <time>2024-07-11T09:15:48Z</time>
      </trkpt>
      <trkpt lat="42.60052" lon="1.85758">
        <ele>1992.6</ele>
        <time>2024-07-11T09:15:51Z</time>
      </trkpt>
      <trkpt lat="42.60056" lon="1.85765">
        <ele>1994.8</ele>
        <time>2024-07-11T09:15:57Z</time>
      </trkpt>
      <trkpt lat="42.60056" lon="1.85768">
        <ele>1995.8</ele>
        <time>2024-07-11T09:15:59Z</time>
      </trkpt>
      <trkpt lat="42.60057" lon="1.85772">
        <ele>1996.8</ele>
        <time>2024-07-11T09:16:03Z</time>
      </trkpt>
      <trkpt lat="42.60056" lon="1.85777">
        <ele>1996.4</ele>
        <time>2024-07-11T09:16:09Z</time>
      </trkpt>
      <trkpt lat="42.60063" lon="1.85784">
        <ele>1996</ele>
        <time>2024-07-11T09:16:17Z</time>
      </trkpt>
      <trkpt lat="42.60064" lon="1.85797">
        <ele>1996.2</ele>
        <time>2024-07-11T09:16:23Z</time>
      </trkpt>
      <trkpt lat="42.60063" lon="1.85803">
        <ele>1995.8</ele>
        <time>2024-07-11T09:16:29Z</time>
      </trkpt>
      <trkpt lat="42.60063" lon="1.85816">
        <ele>1995.4</ele>
        <time>2024-07-11T09:16:38Z</time>
      </trkpt>
      <trkpt lat="42.60064" lon="1.85821">
        <ele>1995.6</ele>
        <time>2024-07-11T09:16:40Z</time>
      </trkpt>
      <trkpt lat="42.60065" lon="1.85831">
        <ele>1999</ele>
        <time>2024-07-11T09:16:46Z</time>
      </trkpt>
      <trkpt lat="42.60065" lon="1.85842">
        <ele>2001</ele>
        <time>2024-07-11T09:16:52Z</time>
      </trkpt>
      <trkpt lat="42.60068" lon="1.85857">
        <ele>2001.6</ele>
        <time>2024-07-11T09:17:02Z</time>
      </trkpt>
      <trkpt lat="42.60069" lon="1.85863">
        <ele>2002</ele>
        <time>2024-07-11T09:17:05Z</time>
      </trkpt>
      <trkpt lat="42.6007" lon="1.85868">
        <ele>2002</ele>
        <time>2024-07-11T09:17:09Z</time>
      </trkpt>
      <trkpt lat="42.60071" lon="1.85871">
        <ele>2001.6</ele>
        <time>2024-07-11T09:17:12Z</time>
      </trkpt>
      <trkpt lat="42.60076" lon="1.85872">
        <ele>2001.4</ele>
        <time>2024-07-11T09:17:17Z</time>
      </trkpt>
      <trkpt lat="42.60077" lon="1.85872">
        <ele>2001.4</ele>
        <time>2024-07-11T09:17:18Z</time>
      </trkpt>
      <trkpt lat="42.60078" lon="1.85869">
        <ele>2001.4</ele>
        <time>2024-07-11T09:17:20Z</time>
      </trkpt>
      <trkpt lat="42.60078" lon="1.85867">
        <ele>2001.4</ele>
        <time>2024-07-11T09:17:22Z</time>
      </trkpt>
      <trkpt lat="42.60082" lon="1.85866">
        <ele>2002</ele>
        <time>2024-07-11T09:17:25Z</time>
      </trkpt>
      <trkpt lat="42.60088" lon="1.85865">
        <ele>2003.4</ele>
        <time>2024-07-11T09:17:29Z</time>
      </trkpt>
      <trkpt lat="42.60097" lon="1.85872">
        <ele>2004</ele>
        <time>2024-07-11T09:17:36Z</time>
      </trkpt>
      <trkpt lat="42.60098" lon="1.85873">
        <ele>2004</ele>
        <time>2024-07-11T09:17:37Z</time>
      </trkpt>
      <trkpt lat="42.60106" lon="1.85882">
        <ele>2004.8</ele>
        <time>2024-07-11T09:17:44Z</time>
      </trkpt>
      <trkpt lat="42.60116" lon="1.85894">
        <ele>2001.2</ele>
        <time>2024-07-11T09:17:53Z</time>
      </trkpt>
      <trkpt lat="42.60123" lon="1.85906">
        <ele>2001</ele>
        <time>2024-07-11T09:18:00Z</time>
      </trkpt>
      <trkpt lat="42.60132" lon="1.85918">
        <ele>2002.6</ele>
        <time>2024-07-11T09:18:08Z</time>
      </trkpt>
      <trkpt lat="42.60132" lon="1.85936">
        <ele>2001.2</ele>
        <time>2024-07-11T09:18:16Z</time>
      </trkpt>
      <trkpt lat="42.60132" lon="1.85938">
        <ele>2000.8</ele>
        <time>2024-07-11T09:18:17Z</time>
      </trkpt>
      <trkpt lat="42.60135" lon="1.85944">
        <ele>1998.4</ele>
        <time>2024-07-11T09:18:22Z</time>
      </trkpt>
      <trkpt lat="42.60145" lon="1.85946">
        <ele>1997</ele>
        <time>2024-07-11T09:18:30Z</time>
      </trkpt>
      <trkpt lat="42.60154" lon="1.85954">
        <ele>1996.8</ele>
        <time>2024-07-11T09:18:38Z</time>
      </trkpt>
      <trkpt lat="42.60156" lon="1.85953">
        <ele>1996.4</ele>
        <time>2024-07-11T09:18:40Z</time>
      </trkpt>
      <trkpt lat="42.60158" lon="1.85948">
        <ele>1995.6</ele>
        <time>2024-07-11T09:18:44Z</time>
      </trkpt>
      <trkpt lat="42.60164" lon="1.85947">
        <ele>1995</ele>
        <time>2024-07-11T09:18:49Z</time>
      </trkpt>
      <trkpt lat="42.60166" lon="1.85949">
        <ele>1994.4</ele>
        <time>2024-07-11T09:18:51Z</time>
      </trkpt>
      <trkpt lat="42.60169" lon="1.85955">
        <ele>1992.6</ele>
        <time>2024-07-11T09:18:58Z</time>
      </trkpt>
      <trkpt lat="42.6017" lon="1.85957">
        <ele>1991</ele>
        <time>2024-07-11T09:19:00Z</time>
      </trkpt>
      <trkpt lat="42.60172" lon="1.85962">
        <ele>1989.4</ele>
        <time>2024-07-11T09:19:03Z</time>
      </trkpt>
      <trkpt lat="42.60172" lon="1.85963">
        <ele>1989.2</ele>
        <time>2024-07-11T09:19:04Z</time>
      </trkpt>
      <trkpt lat="42.60173" lon="1.85966">
        <ele>1988.6</ele>
        <time>2024-07-11T09:19:06Z</time>
      </trkpt>
      <trkpt lat="42.60173" lon="1.85973">
        <ele>1988.4</ele>
        <time>2024-07-11T09:19:10Z</time>
      </trkpt>
      <trkpt lat="42.60175" lon="1.85978">
        <ele>1989.2</ele>
        <time>2024-07-11T09:19:16Z</time>
      </trkpt>
      <trkpt lat="42.60176" lon="1.85978">
        <ele>1989.6</ele>
        <time>2024-07-11T09:19:21Z</time>
      </trkpt>
      <trkpt lat="42.60175" lon="1.85978">
        <ele>1990.2</ele>
        <time>2024-07-11T09:19:30Z</time>
      </trkpt>
      <trkpt lat="42.6018" lon="1.85984">
        <ele>1990.2</ele>
        <time>2024-07-11T09:19:49Z</time>
      </trkpt>
      <trkpt lat="42.60183" lon="1.85993">
        <ele>1988.2</ele>
        <time>2024-07-11T09:19:54Z</time>
      </trkpt>
      <trkpt lat="42.60185" lon="1.85995">
        <ele>1987.6</ele>
        <time>2024-07-11T09:19:56Z</time>
      </trkpt>
      <trkpt lat="42.60186" lon="1.85997">
        <ele>1987.2</ele>
        <time>2024-07-11T09:19:57Z</time>
      </trkpt>
      <trkpt lat="42.60188" lon="1.86001">
        <ele>1986</ele>
        <time>2024-07-11T09:20:01Z</time>
      </trkpt>
      <trkpt lat="42.60189" lon="1.86002">
        <ele>1985.8</ele>
        <time>2024-07-11T09:20:02Z</time>
      </trkpt>
      <trkpt lat="42.60191" lon="1.86006">
        <ele>1985</ele>
        <time>2024-07-11T09:20:05Z</time>
      </trkpt>
      <trkpt lat="42.60192" lon="1.86009">
        <ele>1984.4</ele>
        <time>2024-07-11T09:20:07Z</time>
      </trkpt>
      <trkpt lat="42.60192" lon="1.8601">
        <ele>1984.2</ele>
        <time>2024-07-11T09:20:08Z</time>
      </trkpt>
      <trkpt lat="42.60197" lon="1.86026">
        <ele>1983</ele>
        <time>2024-07-11T09:20:19Z</time>
      </trkpt>
      <trkpt lat="42.60201" lon="1.86039">
        <ele>1983</ele>
        <time>2024-07-11T09:20:28Z</time>
      </trkpt>
      <trkpt lat="42.60203" lon="1.86051">
        <ele>1982.4</ele>
        <time>2024-07-11T09:20:35Z</time>
      </trkpt>
      <trkpt lat="42.60203" lon="1.86054">
        <ele>1982.4</ele>
        <time>2024-07-11T09:20:37Z</time>
      </trkpt>
      <trkpt lat="42.60205" lon="1.86059">
        <ele>1982.8</ele>
        <time>2024-07-11T09:20:40Z</time>
      </trkpt>
      <trkpt lat="42.60212" lon="1.8607">
        <ele>1983.2</ele>
        <time>2024-07-11T09:20:48Z</time>
      </trkpt>
      <trkpt lat="42.60214" lon="1.86075">
        <ele>1983.2</ele>
        <time>2024-07-11T09:20:52Z</time>
      </trkpt>
      <trkpt lat="42.60214" lon="1.86082">
        <ele>1983</ele>
        <time>2024-07-11T09:20:55Z</time>
      </trkpt>
      <trkpt lat="42.60211" lon="1.86103">
        <ele>1981.6</ele>
        <time>2024-07-11T09:21:06Z</time>
      </trkpt>
      <trkpt lat="42.60209" lon="1.86118">
        <ele>1982.2</ele>
        <time>2024-07-11T09:21:14Z</time>
      </trkpt>
      <trkpt lat="42.60212" lon="1.86135">
        <ele>1981.6</ele>
        <time>2024-07-11T09:21:23Z</time>
      </trkpt>
      <trkpt lat="42.60208" lon="1.86152">
        <ele>1981.4</ele>
        <time>2024-07-11T09:21:32Z</time>
      </trkpt>
      <trkpt lat="42.60209" lon="1.86164">
        <ele>1980.8</ele>
        <time>2024-07-11T09:21:39Z</time>
      </trkpt>
      <trkpt lat="42.6021" lon="1.86177">
        <ele>1980.6</ele>
        <time>2024-07-11T09:21:46Z</time>
      </trkpt>
      <trkpt lat="42.60212" lon="1.86189">
        <ele>1981</ele>
        <time>2024-07-11T09:21:53Z</time>
      </trkpt>
      <trkpt lat="42.60212" lon="1.86191">
        <ele>1981</ele>
        <time>2024-07-11T09:21:54Z</time>
      </trkpt>
      <trkpt lat="42.60215" lon="1.86202">
        <ele>1981.2</ele>
        <time>2024-07-11T09:22:01Z</time>
      </trkpt>
      <trkpt lat="42.60219" lon="1.86211">
        <ele>1981.6</ele>
        <time>2024-07-11T09:22:08Z</time>
      </trkpt>
      <trkpt lat="42.60219" lon="1.86215">
        <ele>1982</ele>
        <time>2024-07-11T09:22:11Z</time>
      </trkpt>
      <trkpt lat="42.60219" lon="1.86217">
        <ele>1982.2</ele>
        <time>2024-07-11T09:22:13Z</time>
      </trkpt>
      <trkpt lat="42.60219" lon="1.8622">
        <ele>1982.6</ele>
        <time>2024-07-11T09:22:15Z</time>
      </trkpt>
      <trkpt lat="42.60219" lon="1.86222">
        <ele>1982.8</ele>
        <time>2024-07-11T09:22:16Z</time>
      </trkpt>
      <trkpt lat="42.60217" lon="1.86229">
        <ele>1984.6</ele>
        <time>2024-07-11T09:22:22Z</time>
      </trkpt>
      <trkpt lat="42.60218" lon="1.86229">
        <ele>1985.2</ele>
        <time>2024-07-11T09:22:27Z</time>
      </trkpt>
      <trkpt lat="42.6022" lon="1.8623">
        <ele>1985.2</ele>
        <time>2024-07-11T09:22:30Z</time>
      </trkpt>
      <trkpt lat="42.60222" lon="1.86232">
        <ele>1985.2</ele>
        <time>2024-07-11T09:22:32Z</time>
      </trkpt>
      <trkpt lat="42.60222" lon="1.86233">
        <ele>1985.4</ele>
        <time>2024-07-11T09:22:33Z</time>
      </trkpt>
      <trkpt lat="42.60223" lon="1.8624">
        <ele>1986</ele>
        <time>2024-07-11T09:22:37Z</time>
      </trkpt>
      <trkpt lat="42.60223" lon="1.86244">
        <ele>1986.6</ele>
        <time>2024-07-11T09:22:39Z</time>
      </trkpt>
      <trkpt lat="42.60223" lon="1.86255">
        <ele>1987.2</ele>
        <time>2024-07-11T09:22:47Z</time>
      </trkpt>
      <trkpt lat="42.60229" lon="1.86266">
        <ele>1987.2</ele>
        <time>2024-07-11T09:22:56Z</time>
      </trkpt>
      <trkpt lat="42.60236" lon="1.8627">
        <ele>1987.8</ele>
        <time>2024-07-11T09:23:01Z</time>
      </trkpt>
      <trkpt lat="42.60237" lon="1.86274">
        <ele>1988.2</ele>
        <time>2024-07-11T09:23:03Z</time>
      </trkpt>
      <trkpt lat="42.60237" lon="1.86277">
        <ele>1988.4</ele>
        <time>2024-07-11T09:23:05Z</time>
      </trkpt>
      <trkpt lat="42.60235" lon="1.86282">
        <ele>1988.8</ele>
        <time>2024-07-11T09:23:08Z</time>
      </trkpt>
      <trkpt lat="42.60232" lon="1.86295">
        <ele>1989.2</ele>
        <time>2024-07-11T09:23:16Z</time>
      </trkpt>
      <trkpt lat="42.6023" lon="1.86304">
        <ele>1988.6</ele>
        <time>2024-07-11T09:23:22Z</time>
      </trkpt>
      <trkpt lat="42.60231" lon="1.86306">
        <ele>1988.8</ele>
        <time>2024-07-11T09:23:24Z</time>
      </trkpt>
      <trkpt lat="42.60237" lon="1.86319">
        <ele>1989.8</ele>
        <time>2024-07-11T09:23:32Z</time>
      </trkpt>
      <trkpt lat="42.60237" lon="1.86331">
        <ele>1989.8</ele>
        <time>2024-07-11T09:23:38Z</time>
      </trkpt>
      <trkpt lat="42.60237" lon="1.86345">
        <ele>1990.2</ele>
        <time>2024-07-11T09:23:46Z</time>
      </trkpt>
      <trkpt lat="42.60237" lon="1.86357">
        <ele>1991.4</ele>
        <time>2024-07-11T09:23:54Z</time>
      </trkpt>
      <trkpt lat="42.60241" lon="1.86368">
        <ele>1991</ele>
        <time>2024-07-11T09:24:01Z</time>
      </trkpt>
      <trkpt lat="42.60247" lon="1.86379">
        <ele>1990</ele>
        <time>2024-07-11T09:24:08Z</time>
      </trkpt>
      <trkpt lat="42.60255" lon="1.86391">
        <ele>1990.4</ele>
        <time>2024-07-11T09:24:16Z</time>
      </trkpt>
      <trkpt lat="42.60259" lon="1.86403">
        <ele>1990.6</ele>
        <time>2024-07-11T09:24:23Z</time>
      </trkpt>
      <trkpt lat="42.60261" lon="1.86414">
        <ele>1989.8</ele>
        <time>2024-07-11T09:24:29Z</time>
      </trkpt>
      <trkpt lat="42.60264" lon="1.86428">
        <ele>1988.4</ele>
        <time>2024-07-11T09:24:37Z</time>
      </trkpt>
      <trkpt lat="42.60262" lon="1.86443">
        <ele>1987.6</ele>
        <time>2024-07-11T09:24:47Z</time>
      </trkpt>
      <trkpt lat="42.60259" lon="1.86455">
        <ele>1987.4</ele>
        <time>2024-07-11T09:24:55Z</time>
      </trkpt>
      <trkpt lat="42.60259" lon="1.86459">
        <ele>1987.6</ele>
        <time>2024-07-11T09:24:58Z</time>
      </trkpt>
      <trkpt lat="42.60259" lon="1.86462">
        <ele>1988.2</ele>
        <time>2024-07-11T09:25:01Z</time>
      </trkpt>
      <trkpt lat="42.60261" lon="1.86467">
        <ele>1988.8</ele>
        <time>2024-07-11T09:25:06Z</time>
      </trkpt>
      <trkpt lat="42.60263" lon="1.86469">
        <ele>1989</ele>
        <time>2024-07-11T09:25:09Z</time>
      </trkpt>
      <trkpt lat="42.60266" lon="1.86471">
        <ele>1989.8</ele>
        <time>2024-07-11T09:25:12Z</time>
      </trkpt>
      <trkpt lat="42.60268" lon="1.86469">
        <ele>1990.6</ele>
        <time>2024-07-11T09:25:15Z</time>
      </trkpt>
      <trkpt lat="42.60268" lon="1.8647">
        <ele>1991</ele>
        <time>2024-07-11T09:25:16Z</time>
      </trkpt>
      <trkpt lat="42.60269" lon="1.86469">
        <ele>1992.8</ele>
        <time>2024-07-11T09:25:20Z</time>
      </trkpt>
      <trkpt lat="42.60273" lon="1.86466">
        <ele>1996.2</ele>
        <time>2024-07-11T09:25:26Z</time>
      </trkpt>
      <trkpt lat="42.60277" lon="1.8646">
        <ele>1999.2</ele>
        <time>2024-07-11T09:25:34Z</time>
      </trkpt>
      <trkpt lat="42.60281" lon="1.86459">
        <ele>2001.4</ele>
        <time>2024-07-11T09:25:40Z</time>
      </trkpt>
      <trkpt lat="42.60289" lon="1.86459">
        <ele>2001.4</ele>
        <time>2024-07-11T09:25:48Z</time>
      </trkpt>
      <trkpt lat="42.60292" lon="1.86464">
        <ele>2001.4</ele>
        <time>2024-07-11T09:25:54Z</time>
      </trkpt>
      <trkpt lat="42.60295" lon="1.8647">
        <ele>2001.4</ele>
        <time>2024-07-11T09:26:00Z</time>
      </trkpt>
      <trkpt lat="42.60295" lon="1.86471">
        <ele>2001.6</ele>
        <time>2024-07-11T09:26:06Z</time>
      </trkpt>
      <trkpt lat="42.60296" lon="1.86472">
        <ele>2001.8</ele>
        <time>2024-07-11T09:26:12Z</time>
      </trkpt>
      <trkpt lat="42.60298" lon="1.86476">
        <ele>2002</ele>
        <time>2024-07-11T09:26:19Z</time>
      </trkpt>
      <trkpt lat="42.60294" lon="1.86479">
        <ele>2002.6</ele>
        <time>2024-07-11T09:26:26Z</time>
      </trkpt>
      <trkpt lat="42.60296" lon="1.86482">
        <ele>2004.6</ele>
        <time>2024-07-11T09:26:32Z</time>
      </trkpt>
      <trkpt lat="42.60298" lon="1.86485">
        <ele>2005</ele>
        <time>2024-07-11T09:26:35Z</time>
      </trkpt>
      <trkpt lat="42.60302" lon="1.86488">
        <ele>2005.2</ele>
        <time>2024-07-11T09:26:40Z</time>
      </trkpt>
      <trkpt lat="42.60303" lon="1.86495">
        <ele>2003.4</ele>
        <time>2024-07-11T09:26:48Z</time>
      </trkpt>
      <trkpt lat="42.60298" lon="1.86497">
        <ele>2003.4</ele>
        <time>2024-07-11T09:26:55Z</time>
      </trkpt>
      <trkpt lat="42.60294" lon="1.86501">
        <ele>2005.8</ele>
        <time>2024-07-11T09:27:03Z</time>
      </trkpt>
      <trkpt lat="42.60295" lon="1.86505">
        <ele>2006.6</ele>
        <time>2024-07-11T09:27:08Z</time>
      </trkpt>
      <trkpt lat="42.60298" lon="1.8651">
        <ele>2009.6</ele>
        <time>2024-07-11T09:27:14Z</time>
      </trkpt>
      <trkpt lat="42.60299" lon="1.86514">
        <ele>2011.2</ele>
        <time>2024-07-11T09:27:20Z</time>
      </trkpt>
      <trkpt lat="42.603" lon="1.8652">
        <ele>2012.2</ele>
        <time>2024-07-11T09:27:26Z</time>
      </trkpt>
      <trkpt lat="42.60304" lon="1.86525">
        <ele>2013.4</ele>
        <time>2024-07-11T09:27:33Z</time>
      </trkpt>
      <trkpt lat="42.60307" lon="1.86534">
        <ele>2016.6</ele>
        <time>2024-07-11T09:27:43Z</time>
      </trkpt>
      <trkpt lat="42.60311" lon="1.86538">
        <ele>2018.4</ele>
        <time>2024-07-11T09:27:50Z</time>
      </trkpt>
      <trkpt lat="42.60314" lon="1.86543">
        <ele>2018.6</ele>
        <time>2024-07-11T09:27:57Z</time>
      </trkpt>
      <trkpt lat="42.60319" lon="1.86548">
        <ele>2019.6</ele>
        <time>2024-07-11T09:28:03Z</time>
      </trkpt>
      <trkpt lat="42.60326" lon="1.86559">
        <ele>2022</ele>
        <time>2024-07-11T09:28:15Z</time>
      </trkpt>
      <trkpt lat="42.60327" lon="1.8656">
        <ele>2022.2</ele>
        <time>2024-07-11T09:28:16Z</time>
      </trkpt>
      <trkpt lat="42.60329" lon="1.86569">
        <ele>2022.8</ele>
        <time>2024-07-11T09:28:24Z</time>
      </trkpt>
      <trkpt lat="42.6033" lon="1.86573">
        <ele>2022.8</ele>
        <time>2024-07-11T09:28:27Z</time>
      </trkpt>
      <trkpt lat="42.60331" lon="1.86574">
        <ele>2023</ele>
        <time>2024-07-11T09:28:29Z</time>
      </trkpt>
      <trkpt lat="42.60332" lon="1.86575">
        <ele>2023</ele>
        <time>2024-07-11T09:28:30Z</time>
      </trkpt>
      <trkpt lat="42.60332" lon="1.86576">
        <ele>2023.2</ele>
        <time>2024-07-11T09:28:31Z</time>
      </trkpt>
      <trkpt lat="42.60335" lon="1.86578">
        <ele>2024</ele>
        <time>2024-07-11T09:28:36Z</time>
      </trkpt>
      <trkpt lat="42.60338" lon="1.8658">
        <ele>2025</ele>
        <time>2024-07-11T09:28:39Z</time>
      </trkpt>
      <trkpt lat="42.60341" lon="1.86582">
        <ele>2025.6</ele>
        <time>2024-07-11T09:28:43Z</time>
      </trkpt>
      <trkpt lat="42.60344" lon="1.86586">
        <ele>2027</ele>
        <time>2024-07-11T09:28:50Z</time>
      </trkpt>
      <trkpt lat="42.60345" lon="1.86592">
        <ele>2029.2</ele>
        <time>2024-07-11T09:28:58Z</time>
      </trkpt>
      <trkpt lat="42.60346" lon="1.86598">
        <ele>2030.2</ele>
        <time>2024-07-11T09:29:05Z</time>
      </trkpt>
      <trkpt lat="42.60347" lon="1.86606">
        <ele>2030</ele>
        <time>2024-07-11T09:29:14Z</time>
      </trkpt>
      <trkpt lat="42.60347" lon="1.86611">
        <ele>2031.4</ele>
        <time>2024-07-11T09:29:21Z</time>
      </trkpt>
      <trkpt lat="42.60342" lon="1.86615">
        <ele>2033</ele>
        <time>2024-07-11T09:29:28Z</time>
      </trkpt>
      <trkpt lat="42.60344" lon="1.86619">
        <ele>2034.2</ele>
        <time>2024-07-11T09:29:35Z</time>
      </trkpt>
      <trkpt lat="42.60345" lon="1.86626">
        <ele>2035.6</ele>
        <time>2024-07-11T09:29:43Z</time>
      </trkpt>
      <trkpt lat="42.60345" lon="1.86631">
        <ele>2039</ele>
        <time>2024-07-11T09:29:51Z</time>
      </trkpt>
      <trkpt lat="42.60344" lon="1.86637">
        <ele>2041.4</ele>
        <time>2024-07-11T09:29:59Z</time>
      </trkpt>
      <trkpt lat="42.60348" lon="1.8664">
        <ele>2042.4</ele>
        <time>2024-07-11T09:30:08Z</time>
      </trkpt>
      <trkpt lat="42.60352" lon="1.86642">
        <ele>2043.4</ele>
        <time>2024-07-11T09:30:15Z</time>
      </trkpt>
      <trkpt lat="42.60347" lon="1.86647">
        <ele>2044.4</ele>
        <time>2024-07-11T09:30:22Z</time>
      </trkpt>
      <trkpt lat="42.60342" lon="1.86652">
        <ele>2046.6</ele>
        <time>2024-07-11T09:30:29Z</time>
      </trkpt>
      <trkpt lat="42.60341" lon="1.86656">
        <ele>2048</ele>
        <time>2024-07-11T09:30:35Z</time>
      </trkpt>
      <trkpt lat="42.60342" lon="1.8666">
        <ele>2047.4</ele>
        <time>2024-07-11T09:30:43Z</time>
      </trkpt>
      <trkpt lat="42.60342" lon="1.86663">
        <ele>2048.2</ele>
        <time>2024-07-11T09:30:50Z</time>
      </trkpt>
      <trkpt lat="42.60342" lon="1.86668">
        <ele>2050.2</ele>
        <time>2024-07-11T09:31:03Z</time>
      </trkpt>
      <trkpt lat="42.60345" lon="1.86679">
        <ele>2053</ele>
        <time>2024-07-11T09:31:14Z</time>
      </trkpt>
      <trkpt lat="42.60344" lon="1.86683">
        <ele>2054.6</ele>
        <time>2024-07-11T09:31:21Z</time>
      </trkpt>
      <trkpt lat="42.60344" lon="1.8669">
        <ele>2057.8</ele>
        <time>2024-07-11T09:31:28Z</time>
      </trkpt>
      <trkpt lat="42.60346" lon="1.86692">
        <ele>2059.4</ele>
        <time>2024-07-11T09:31:34Z</time>
      </trkpt>
      <trkpt lat="42.60341" lon="1.86696">
        <ele>2063</ele>
        <time>2024-07-11T09:31:41Z</time>
      </trkpt>
      <trkpt lat="42.60339" lon="1.86701">
        <ele>2064.2</ele>
        <time>2024-07-11T09:31:47Z</time>
      </trkpt>
      <trkpt lat="42.60334" lon="1.86708">
        <ele>2066</ele>
        <time>2024-07-11T09:31:57Z</time>
      </trkpt>
      <trkpt lat="42.60329" lon="1.86714">
        <ele>2066.6</ele>
        <time>2024-07-11T09:32:05Z</time>
      </trkpt>
      <trkpt lat="42.60328" lon="1.86718">
        <ele>2065.8</ele>
        <time>2024-07-11T09:32:12Z</time>
      </trkpt>
      <trkpt lat="42.60325" lon="1.86721">
        <ele>2064.4</ele>
        <time>2024-07-11T09:32:17Z</time>
      </trkpt>
      <trkpt lat="42.60325" lon="1.86727">
        <ele>2064</ele>
        <time>2024-07-11T09:32:22Z</time>
      </trkpt>
      <trkpt lat="42.60325" lon="1.86728">
        <ele>2064</ele>
        <time>2024-07-11T09:32:23Z</time>
      </trkpt>
      <trkpt lat="42.60323" lon="1.86739">
        <ele>2064.2</ele>
        <time>2024-07-11T09:32:31Z</time>
      </trkpt>
      <trkpt lat="42.60324" lon="1.86751">
        <ele>2064.4</ele>
        <time>2024-07-11T09:32:40Z</time>
      </trkpt>
      <trkpt lat="42.60324" lon="1.86752">
        <ele>2064.6</ele>
        <time>2024-07-11T09:32:47Z</time>
      </trkpt>
      <trkpt lat="42.60324" lon="1.86756">
        <ele>2065</ele>
        <time>2024-07-11T09:32:56Z</time>
      </trkpt>
      <trkpt lat="42.6033" lon="1.86764">
        <ele>2065.6</ele>
        <time>2024-07-11T09:33:05Z</time>
      </trkpt>
      <trkpt lat="42.60334" lon="1.86769">
        <ele>2066.6</ele>
        <time>2024-07-11T09:33:13Z</time>
      </trkpt>
      <trkpt lat="42.60337" lon="1.86774">
        <ele>2068.2</ele>
        <time>2024-07-11T09:33:21Z</time>
      </trkpt>
      <trkpt lat="42.60337" lon="1.86778">
        <ele>2070</ele>
        <time>2024-07-11T09:33:27Z</time>
      </trkpt>
      <trkpt lat="42.6034" lon="1.86784">
        <ele>2072.6</ele>
        <time>2024-07-11T09:33:35Z</time>
      </trkpt>
      <trkpt lat="42.60341" lon="1.86792">
        <ele>2073.4</ele>
        <time>2024-07-11T09:33:43Z</time>
      </trkpt>
      <trkpt lat="42.60343" lon="1.86797">
        <ele>2073.8</ele>
        <time>2024-07-11T09:33:50Z</time>
      </trkpt>
      <trkpt lat="42.6035" lon="1.86805">
        <ele>2076.6</ele>
        <time>2024-07-11T09:34:02Z</time>
      </trkpt>
      <trkpt lat="42.60349" lon="1.86815">
        <ele>2079</ele>
        <time>2024-07-11T09:34:09Z</time>
      </trkpt>
      <trkpt lat="42.6035" lon="1.86822">
        <ele>2079.8</ele>
        <time>2024-07-11T09:34:15Z</time>
      </trkpt>
      <trkpt lat="42.60352" lon="1.86821">
        <ele>2080</ele>
        <time>2024-07-11T09:34:17Z</time>
      </trkpt>
      <trkpt lat="42.60353" lon="1.8682">
        <ele>2080.2</ele>
        <time>2024-07-11T09:34:19Z</time>
      </trkpt>
      <trkpt lat="42.60355" lon="1.86818">
        <ele>2080.8</ele>
        <time>2024-07-11T09:34:23Z</time>
      </trkpt>
      <trkpt lat="42.60356" lon="1.86812">
        <ele>2081.4</ele>
        <time>2024-07-11T09:34:27Z</time>
      </trkpt>
      <trkpt lat="42.60358" lon="1.86808">
        <ele>2082</ele>
        <time>2024-07-11T09:34:31Z</time>
      </trkpt>
      <trkpt lat="42.60363" lon="1.86807">
        <ele>2084</ele>
        <time>2024-07-11T09:34:38Z</time>
      </trkpt>
      <trkpt lat="42.60366" lon="1.8681">
        <ele>2085.4</ele>
        <time>2024-07-11T09:34:44Z</time>
      </trkpt>
      <trkpt lat="42.60369" lon="1.86812">
        <ele>2086.8</ele>
        <time>2024-07-11T09:34:52Z</time>
      </trkpt>
      <trkpt lat="42.60374" lon="1.86816">
        <ele>2090.2</ele>
        <time>2024-07-11T09:34:59Z</time>
      </trkpt>
      <trkpt lat="42.60374" lon="1.8682">
        <ele>2092.6</ele>
        <time>2024-07-11T09:35:04Z</time>
      </trkpt>
      <trkpt lat="42.60375" lon="1.86822">
        <ele>2094</ele>
        <time>2024-07-11T09:35:10Z</time>
      </trkpt>
      <trkpt lat="42.60379" lon="1.86824">
        <ele>2095.6</ele>
        <time>2024-07-11T09:35:16Z</time>
      </trkpt>
      <trkpt lat="42.6038" lon="1.86833">
        <ele>2097.4</ele>
        <time>2024-07-11T09:35:25Z</time>
      </trkpt>
      <trkpt lat="42.60382" lon="1.86833">
        <ele>2098.2</ele>
        <time>2024-07-11T09:35:31Z</time>
      </trkpt>
      <trkpt lat="42.60384" lon="1.86829">
        <ele>2100.4</ele>
        <time>2024-07-11T09:35:39Z</time>
      </trkpt>
      <trkpt lat="42.60386" lon="1.86829">
        <ele>2101</ele>
        <time>2024-07-11T09:35:45Z</time>
      </trkpt>
      <trkpt lat="42.60389" lon="1.86832">
        <ele>2100.8</ele>
        <time>2024-07-11T09:35:50Z</time>
      </trkpt>
      <trkpt lat="42.60391" lon="1.86834">
        <ele>2100.8</ele>
        <time>2024-07-11T09:35:56Z</time>
      </trkpt>
      <trkpt lat="42.60392" lon="1.86837">
        <ele>2101.6</ele>
        <time>2024-07-11T09:36:02Z</time>
      </trkpt>
      <trkpt lat="42.60394" lon="1.86836">
        <ele>2102.6</ele>
        <time>2024-07-11T09:36:08Z</time>
      </trkpt>
      <trkpt lat="42.60396" lon="1.86834">
        <ele>2104</ele>
        <time>2024-07-11T09:36:12Z</time>
        <extensions>
          <visugpx:TrkExtension xmlns:visugpx="https://www.visugpx.com/editgpx/">
            <visugpx:node>1</visugpx:node>
            </visugpx:TrkExtension>
        </extensions>
      </trkpt>
    </trkseg>
  </trk>
  <trk>
    <name><![CDATA[GR10 20Km D+1570m]]></name>
    <extensions>
      <line xmlns="http://www.topografix.com/GPX/gpx_style/0/2">
        <color>ff0000</color>
        <width>4</width>
      </line>
    </extensions>
    <trkseg>
      <trkpt lat="42.63695" lon="1.74089">
        <ele>2331.6</ele>
      </trkpt>
      <trkpt lat="42.63694" lon="1.74094">
        <ele>2329.8</ele>
      </trkpt>
      <trkpt lat="42.637" lon="1.74097">
        <ele>2330.6</ele>
      </trkpt>
      <trkpt lat="42.6371" lon="1.74108">
        <ele>2329.4</ele>
      </trkpt>
      <trkpt lat="42.63721" lon="1.74126">
        <ele>2325.4</ele>
      </trkpt>
      <trkpt lat="42.63726" lon="1.74142">
        <ele>2320.9</ele>
      </trkpt>
      <trkpt lat="42.63736" lon="1.74163">
        <ele>2316.7</ele>
      </trkpt>
      <trkpt lat="42.63741" lon="1.74179">
        <ele>2312.9</ele>
      </trkpt>
      <trkpt lat="42.63744" lon="1.74184">
        <ele>2312</ele>
      </trkpt>
      <trkpt lat="42.63744" lon="1.74187">
        <ele>2311.1</ele>
      </trkpt>
      <trkpt lat="42.63745" lon="1.74191">
        <ele>2310</ele>
      </trkpt>
      <trkpt lat="42.63746" lon="1.74195">
        <ele>2309</ele>
      </trkpt>
      <trkpt lat="42.63747" lon="1.74198">
        <ele>2308.3</ele>
      </trkpt>
      <trkpt lat="42.63749" lon="1.742">
        <ele>2308.2</ele>
      </trkpt>
      <trkpt lat="42.63752" lon="1.74205">
        <ele>2307.4</ele>
      </trkpt>
      <trkpt lat="42.63756" lon="1.74211">
        <ele>2306.5</ele>
      </trkpt>
      <trkpt lat="42.63759" lon="1.74215">
        <ele>2306</ele>
      </trkpt>
      <trkpt lat="42.6376" lon="1.74217">
        <ele>2305.7</ele>
      </trkpt>
      <trkpt lat="42.63761" lon="1.74221">
        <ele>2304.7</ele>
      </trkpt>
      <trkpt lat="42.63762" lon="1.74228">
        <ele>2303</ele>
      </trkpt>
      <trkpt lat="42.63763" lon="1.74233">
        <ele>2301.9</ele>
      </trkpt>
      <trkpt lat="42.63763" lon="1.74236">
        <ele>2301.1</ele>
      </trkpt>
      <trkpt lat="42.63762" lon="1.74242">
        <ele>2299.3</ele>
      </trkpt>
      <trkpt lat="42.63761" lon="1.74246">
        <ele>2298</ele>
      </trkpt>
      <trkpt lat="42.63763" lon="1.74248">
        <ele>2297.9</ele>
      </trkpt>
      <trkpt lat="42.63765" lon="1.7425">
        <ele>2297.7</ele>
      </trkpt>
      <trkpt lat="42.63767" lon="1.74252">
        <ele>2297.6</ele>
      </trkpt>
      <trkpt lat="42.63768" lon="1.74254">
        <ele>2297.4</ele>
      </trkpt>
      <trkpt lat="42.63768" lon="1.74257">
        <ele>2296.8</ele>
      </trkpt>
      <trkpt lat="42.63767" lon="1.74262">
        <ele>2295.6</ele>
      </trkpt>
      <trkpt lat="42.63768" lon="1.74266">
        <ele>2295</ele>
      </trkpt>
      <trkpt lat="42.6377" lon="1.74272">
        <ele>2294.2</ele>
      </trkpt>
      <trkpt lat="42.63772" lon="1.74277">
        <ele>2293.7</ele>
      </trkpt>
      <trkpt lat="42.63771" lon="1.7428">
        <ele>2293.1</ele>
      </trkpt>
      <trkpt lat="42.63771" lon="1.74283">
        <ele>2292.7</ele>
      </trkpt>
      <trkpt lat="42.6377" lon="1.74287">
        <ele>2292</ele>
      </trkpt>
      <trkpt lat="42.6377" lon="1.74291">
        <ele>2291.6</ele>
      </trkpt>
      <trkpt lat="42.6377" lon="1.74294">
        <ele>2291.3</ele>
      </trkpt>
      <trkpt lat="42.6377" lon="1.74297">
        <ele>2291</ele>
      </trkpt>
      <trkpt lat="42.63771" lon="1.74299">
        <ele>2291</ele>
      </trkpt>
      <trkpt lat="42.63771" lon="1.74302">
        <ele>2290.7</ele>
      </trkpt>
      <trkpt lat="42.63771" lon="1.74305">
        <ele>2290.4</ele>
      </trkpt>
      <trkpt lat="42.63772" lon="1.74307">
        <ele>2290.2</ele>
      </trkpt>
      <trkpt lat="42.63774" lon="1.74312">
        <ele>2289.7</ele>
      </trkpt>
      <trkpt lat="42.63776" lon="1.74315">
        <ele>2289.5</ele>
      </trkpt>
      <trkpt lat="42.63778" lon="1.74317">
        <ele>2289.6</ele>
      </trkpt>
      <trkpt lat="42.63778" lon="1.74321">
        <ele>2288.7</ele>
      </trkpt>
      <trkpt lat="42.63778" lon="1.74326">
        <ele>2287.6</ele>
      </trkpt>
      <trkpt lat="42.63778" lon="1.74328">
        <ele>2287.2</ele>
      </trkpt>
      <trkpt lat="42.63777" lon="1.7433">
        <ele>2286.5</ele>
      </trkpt>
      <trkpt lat="42.63776" lon="1.74333">
        <ele>2285.7</ele>
      </trkpt>
      <trkpt lat="42.63776" lon="1.74338">
        <ele>2284.9</ele>
      </trkpt>
      <trkpt lat="42.63776" lon="1.74342">
        <ele>2284.3</ele>
      </trkpt>
      <trkpt lat="42.63777" lon="1.74347">
        <ele>2283.9</ele>
      </trkpt>
      <trkpt lat="42.63777" lon="1.74351">
        <ele>2283.3</ele>
      </trkpt>
      <trkpt lat="42.63777" lon="1.74355">
        <ele>2282.7</ele>
      </trkpt>
      <trkpt lat="42.63776" lon="1.74359">
        <ele>2281.9</ele>
      </trkpt>
      <trkpt lat="42.63776" lon="1.74364">
        <ele>2281.2</ele>
      </trkpt>
      <trkpt lat="42.63776" lon="1.74366">
        <ele>2281</ele>
      </trkpt>
      <trkpt lat="42.63776" lon="1.74369">
        <ele>2280.7</ele>
      </trkpt>
      <trkpt lat="42.63776" lon="1.74371">
        <ele>2280.5</ele>
      </trkpt>
      <trkpt lat="42.63776" lon="1.74377">
        <ele>2279.8</ele>
      </trkpt>
      <trkpt lat="42.63777" lon="1.74381">
        <ele>2279.7</ele>
      </trkpt>
      <trkpt lat="42.63778" lon="1.74384">
        <ele>2279.6</ele>
      </trkpt>
      <trkpt lat="42.63779" lon="1.74387">
        <ele>2279.6</ele>
      </trkpt>
      <trkpt lat="42.63781" lon="1.7439">
        <ele>2280</ele>
      </trkpt>
      <trkpt lat="42.63781" lon="1.74393">
        <ele>2279.9</ele>
      </trkpt>
      <trkpt lat="42.63781" lon="1.74396">
        <ele>2279.8</ele>
      </trkpt>
      <trkpt lat="42.63782" lon="1.744">
        <ele>2280</ele>
      </trkpt>
      <trkpt lat="42.63782" lon="1.74405">
        <ele>2279.8</ele>
      </trkpt>
      <trkpt lat="42.63783" lon="1.7441">
        <ele>2279.9</ele>
      </trkpt>
      <trkpt lat="42.63784" lon="1.74414">
        <ele>2280.1</ele>
      </trkpt>
      <trkpt lat="42.63784" lon="1.7442">
        <ele>2279.7</ele>
      </trkpt>
      <trkpt lat="42.63784" lon="1.74423">
        <ele>2279.5</ele>
      </trkpt>
      <trkpt lat="42.63783" lon="1.74428">
        <ele>2278.7</ele>
      </trkpt>
      <trkpt lat="42.63781" lon="1.74432">
        <ele>2277.8</ele>
      </trkpt>
      <trkpt lat="42.63779" lon="1.74437">
        <ele>2276.9</ele>
      </trkpt>
      <trkpt lat="42.63777" lon="1.74441">
        <ele>2276.1</ele>
      </trkpt>
      <trkpt lat="42.63776" lon="1.74443">
        <ele>2275.7</ele>
      </trkpt>
      <trkpt lat="42.63774" lon="1.74445">
        <ele>2275.1</ele>
      </trkpt>
      <trkpt lat="42.63772" lon="1.74448">
        <ele>2274.5</ele>
      </trkpt>
      <trkpt lat="42.63771" lon="1.74451">
        <ele>2274.2</ele>
      </trkpt>
      <trkpt lat="42.63771" lon="1.74455">
        <ele>2274</ele>
      </trkpt>
      <trkpt lat="42.63771" lon="1.74459">
        <ele>2273.7</ele>
      </trkpt>
      <trkpt lat="42.63772" lon="1.74465">
        <ele>2273.6</ele>
      </trkpt>
      <trkpt lat="42.63773" lon="1.74469">
        <ele>2273.5</ele>
      </trkpt>
      <trkpt lat="42.63774" lon="1.74473">
        <ele>2273.4</ele>
      </trkpt>
      <trkpt lat="42.63777" lon="1.74477">
        <ele>2273.7</ele>
      </trkpt>
      <trkpt lat="42.6378" lon="1.7448">
        <ele>2274</ele>
      </trkpt>
      <trkpt lat="42.63782" lon="1.74482">
        <ele>2274.1</ele>
      </trkpt>
      <trkpt lat="42.63783" lon="1.74483">
        <ele>2274.2</ele>
      </trkpt>
      <trkpt lat="42.63784" lon="1.74485">
        <ele>2274.2</ele>
      </trkpt>
      <trkpt lat="42.63786" lon="1.7449">
        <ele>2274.2</ele>
      </trkpt>
      <trkpt lat="42.63787" lon="1.74494">
        <ele>2274</ele>
      </trkpt>
      <trkpt lat="42.63787" lon="1.74497">
        <ele>2273.8</ele>
      </trkpt>
      <trkpt lat="42.63787" lon="1.74501">
        <ele>2273.5</ele>
      </trkpt>
      <trkpt lat="42.63788" lon="1.74504">
        <ele>2273.3</ele>
      </trkpt>
      <trkpt lat="42.63787" lon="1.74507">
        <ele>2272.8</ele>
      </trkpt>
      <trkpt lat="42.63787" lon="1.7451">
        <ele>2272.5</ele>
      </trkpt>
      <trkpt lat="42.63788" lon="1.74515">
        <ele>2271.9</ele>
      </trkpt>
      <trkpt lat="42.63789" lon="1.7452">
        <ele>2271.4</ele>
      </trkpt>
      <trkpt lat="42.63788" lon="1.74524">
        <ele>2270.8</ele>
      </trkpt>
      <trkpt lat="42.63789" lon="1.74529">
        <ele>2270.2</ele>
      </trkpt>
      <trkpt lat="42.6379" lon="1.74539">
        <ele>2268.9</ele>
      </trkpt>
      <trkpt lat="42.63791" lon="1.74545">
        <ele>2268.1</ele>
      </trkpt>
      <trkpt lat="42.63791" lon="1.74547">
        <ele>2267.8</ele>
      </trkpt>
      <trkpt lat="42.63791" lon="1.74551">
        <ele>2267.2</ele>
      </trkpt>
      <trkpt lat="42.63791" lon="1.74555">
        <ele>2266.7</ele>
      </trkpt>
      <trkpt lat="42.63791" lon="1.74559">
        <ele>2266.3</ele>
      </trkpt>
      <trkpt lat="42.6379" lon="1.74561">
        <ele>2266.3</ele>
      </trkpt>
      <trkpt lat="42.63791" lon="1.74565">
        <ele>2265.9</ele>
      </trkpt>
      <trkpt lat="42.6379" lon="1.74569">
        <ele>2265.7</ele>
      </trkpt>
      <trkpt lat="42.6379" lon="1.74574">
        <ele>2265.4</ele>
      </trkpt>
      <trkpt lat="42.6379" lon="1.74579">
        <ele>2265</ele>
      </trkpt>
      <trkpt lat="42.63791" lon="1.74582">
        <ele>2264.7</ele>
      </trkpt>
      <trkpt lat="42.63793" lon="1.74585">
        <ele>2264.5</ele>
      </trkpt>
      <trkpt lat="42.63794" lon="1.74587">
        <ele>2264.7</ele>
      </trkpt>
      <trkpt lat="42.63793" lon="1.7459">
        <ele>2265.1</ele>
      </trkpt>
      <trkpt lat="42.63792" lon="1.74592">
        <ele>2265.4</ele>
      </trkpt>
      <trkpt lat="42.6379" lon="1.74598">
        <ele>2266.1</ele>
      </trkpt>
      <trkpt lat="42.63788" lon="1.74602">
        <ele>2266.6</ele>
      </trkpt>
      <trkpt lat="42.63787" lon="1.74607">
        <ele>2267</ele>
      </trkpt>
      <trkpt lat="42.63786" lon="1.74612">
        <ele>2267.4</ele>
      </trkpt>
      <trkpt lat="42.63785" lon="1.74618">
        <ele>2267.7</ele>
      </trkpt>
      <trkpt lat="42.63786" lon="1.74622">
        <ele>2268</ele>
      </trkpt>
      <trkpt lat="42.63786" lon="1.74628">
        <ele>2268.4</ele>
      </trkpt>
      <trkpt lat="42.63785" lon="1.7463">
        <ele>2268.5</ele>
      </trkpt>
      <trkpt lat="42.63783" lon="1.74632">
        <ele>2268.4</ele>
      </trkpt>
      <trkpt lat="42.63781" lon="1.74635">
        <ele>2268.3</ele>
      </trkpt>
      <trkpt lat="42.63779" lon="1.74637">
        <ele>2268.1</ele>
      </trkpt>
      <trkpt lat="42.63779" lon="1.74641">
        <ele>2268.4</ele>
      </trkpt>
      <trkpt lat="42.63779" lon="1.74645">
        <ele>2268.8</ele>
      </trkpt>
      <trkpt lat="42.63778" lon="1.74648">
        <ele>2269</ele>
      </trkpt>
      <trkpt lat="42.63777" lon="1.74651">
        <ele>2269.2</ele>
      </trkpt>
      <trkpt lat="42.63776" lon="1.74654">
        <ele>2269.3</ele>
      </trkpt>
      <trkpt lat="42.63776" lon="1.74659">
        <ele>2269.9</ele>
      </trkpt>
      <trkpt lat="42.63776" lon="1.74666">
        <ele>2270.6</ele>
      </trkpt>
      <trkpt lat="42.63777" lon="1.74673">
        <ele>2271.3</ele>
      </trkpt>
      <trkpt lat="42.63776" lon="1.7468">
        <ele>2271.6</ele>
      </trkpt>
      <trkpt lat="42.63776" lon="1.74687">
        <ele>2272.1</ele>
      </trkpt>
      <trkpt lat="42.63777" lon="1.74693">
        <ele>2272.8</ele>
      </trkpt>
      <trkpt lat="42.63778" lon="1.747">
        <ele>2272.4</ele>
      </trkpt>
      <trkpt lat="42.6378" lon="1.74704">
        <ele>2271.6</ele>
      </trkpt>
      <trkpt lat="42.63781" lon="1.74708">
        <ele>2270.9</ele>
      </trkpt>
      <trkpt lat="42.63783" lon="1.7471">
        <ele>2270.2</ele>
      </trkpt>
      <trkpt lat="42.63783" lon="1.74713">
        <ele>2269.7</ele>
      </trkpt>
      <trkpt lat="42.63782" lon="1.74718">
        <ele>2269.2</ele>
      </trkpt>
      <trkpt lat="42.63781" lon="1.74724">
        <ele>2268.7</ele>
      </trkpt>
      <trkpt lat="42.6378" lon="1.74727">
        <ele>2268.6</ele>
      </trkpt>
      <trkpt lat="42.6378" lon="1.74732">
        <ele>2267.9</ele>
      </trkpt>
      <trkpt lat="42.63781" lon="1.74735">
        <ele>2267.1</ele>
      </trkpt>
      <trkpt lat="42.63781" lon="1.74738">
        <ele>2266.7</ele>
      </trkpt>
      <trkpt lat="42.63781" lon="1.74741">
        <ele>2266.3</ele>
      </trkpt>
      <trkpt lat="42.6378" lon="1.74744">
        <ele>2266.1</ele>
      </trkpt>
      <trkpt lat="42.63781" lon="1.74748">
        <ele>2265.2</ele>
      </trkpt>
      <trkpt lat="42.63783" lon="1.74755">
        <ele>2264.2</ele>
      </trkpt>
      <trkpt lat="42.63784" lon="1.74761">
        <ele>2263.7</ele>
      </trkpt>
      <trkpt lat="42.63785" lon="1.74766">
        <ele>2263.2</ele>
      </trkpt>
      <trkpt lat="42.63787" lon="1.74769">
        <ele>2262.6</ele>
      </trkpt>
      <trkpt lat="42.63789" lon="1.74774">
        <ele>2261.8</ele>
      </trkpt>
      <trkpt lat="42.63791" lon="1.74777">
        <ele>2261.2</ele>
      </trkpt>
      <trkpt lat="42.63792" lon="1.74781">
        <ele>2260.6</ele>
      </trkpt>
      <trkpt lat="42.63792" lon="1.74785">
        <ele>2260.1</ele>
      </trkpt>
      <trkpt lat="42.63792" lon="1.7479">
        <ele>2259.6</ele>
      </trkpt>
      <trkpt lat="42.63791" lon="1.74797">
        <ele>2259.1</ele>
      </trkpt>
      <trkpt lat="42.63791" lon="1.74802">
        <ele>2258.6</ele>
      </trkpt>
      <trkpt lat="42.63791" lon="1.74805">
        <ele>2258.3</ele>
      </trkpt>
      <trkpt lat="42.63792" lon="1.74808">
        <ele>2257.9</ele>
      </trkpt>
      <trkpt lat="42.63793" lon="1.74812">
        <ele>2257.5</ele>
      </trkpt>
      <trkpt lat="42.63793" lon="1.74818">
        <ele>2257.5</ele>
      </trkpt>
      <trkpt lat="42.63793" lon="1.74822">
        <ele>2257.4</ele>
      </trkpt>
      <trkpt lat="42.63794" lon="1.74823">
        <ele>2257.2</ele>
      </trkpt>
      <trkpt lat="42.63797" lon="1.74825">
        <ele>2256.5</ele>
      </trkpt>
      <trkpt lat="42.63803" lon="1.74827">
        <ele>2255.3</ele>
      </trkpt>
      <trkpt lat="42.63804" lon="1.74828">
        <ele>2255.1</ele>
      </trkpt>
      <trkpt lat="42.63806" lon="1.7483">
        <ele>2254.7</ele>
      </trkpt>
      <trkpt lat="42.63808" lon="1.74831">
        <ele>2254.2</ele>
      </trkpt>
      <trkpt lat="42.6381" lon="1.74831">
        <ele>2253.6</ele>
      </trkpt>
      <trkpt lat="42.6381" lon="1.74833">
        <ele>2253.7</ele>
      </trkpt>
      <trkpt lat="42.63811" lon="1.74835">
        <ele>2253.1</ele>
      </trkpt>
      <trkpt lat="42.63812" lon="1.74837">
        <ele>2252.5</ele>
      </trkpt>
      <trkpt lat="42.63814" lon="1.74836">
        <ele>2252.1</ele>
      </trkpt>
      <trkpt lat="42.63815" lon="1.74835">
        <ele>2252</ele>
      </trkpt>
      <trkpt lat="42.63816" lon="1.74835">
        <ele>2251.7</ele>
      </trkpt>
      <trkpt lat="42.63819" lon="1.74835">
        <ele>2250.9</ele>
      </trkpt>
      <trkpt lat="42.6382" lon="1.74836">
        <ele>2250.5</ele>
      </trkpt>
      <trkpt lat="42.63819" lon="1.74838">
        <ele>2250.5</ele>
      </trkpt>
      <trkpt lat="42.6382" lon="1.74841">
        <ele>2249.9</ele>
      </trkpt>
      <trkpt lat="42.63821" lon="1.74845">
        <ele>2249.2</ele>
      </trkpt>
      <trkpt lat="42.63822" lon="1.74848">
        <ele>2248.7</ele>
      </trkpt>
      <trkpt lat="42.63824" lon="1.7485">
        <ele>2248.1</ele>
      </trkpt>
      <trkpt lat="42.63825" lon="1.74848">
        <ele>2248.1</ele>
      </trkpt>
      <trkpt lat="42.63827" lon="1.74846">
        <ele>2247.8</ele>
      </trkpt>
      <trkpt lat="42.63828" lon="1.74842">
        <ele>2247.9</ele>
      </trkpt>
      <trkpt lat="42.6383" lon="1.7484">
        <ele>2247.6</ele>
      </trkpt>
      <trkpt lat="42.63832" lon="1.74841">
        <ele>2247</ele>
      </trkpt>
      <trkpt lat="42.63833" lon="1.74842">
        <ele>2246.8</ele>
      </trkpt>
      <trkpt lat="42.63834" lon="1.74845">
        <ele>2246.6</ele>
      </trkpt>
      <trkpt lat="42.63834" lon="1.74849">
        <ele>2246.4</ele>
      </trkpt>
      <trkpt lat="42.63832" lon="1.74855">
        <ele>2246.4</ele>
      </trkpt>
      <trkpt lat="42.63832" lon="1.7486">
        <ele>2246.2</ele>
      </trkpt>
      <trkpt lat="42.63831" lon="1.74865">
        <ele>2246</ele>
      </trkpt>
      <trkpt lat="42.63831" lon="1.74868">
        <ele>2245.8</ele>
      </trkpt>
      <trkpt lat="42.63832" lon="1.74873">
        <ele>2245.3</ele>
      </trkpt>
      <trkpt lat="42.63832" lon="1.74878">
        <ele>2244.9</ele>
      </trkpt>
      <trkpt lat="42.63833" lon="1.74884">
        <ele>2244.4</ele>
      </trkpt>
      <trkpt lat="42.63833" lon="1.74887">
        <ele>2244.2</ele>
      </trkpt>
      <trkpt lat="42.63835" lon="1.7489">
        <ele>2244.1</ele>
      </trkpt>
      <trkpt lat="42.63836" lon="1.74892">
        <ele>2244.1</ele>
      </trkpt>
      <trkpt lat="42.63837" lon="1.74893">
        <ele>2244.1</ele>
      </trkpt>
      <trkpt lat="42.63839" lon="1.74897">
        <ele>2244.1</ele>
      </trkpt>
      <trkpt lat="42.6384" lon="1.74902">
        <ele>2243.9</ele>
      </trkpt>
      <trkpt lat="42.6384" lon="1.74909">
        <ele>2243.6</ele>
      </trkpt>
      <trkpt lat="42.63838" lon="1.74913">
        <ele>2243.3</ele>
      </trkpt>
      <trkpt lat="42.63837" lon="1.74919">
        <ele>2243.2</ele>
      </trkpt>
      <trkpt lat="42.63836" lon="1.74924">
        <ele>2243.3</ele>
      </trkpt>
      <trkpt lat="42.63836" lon="1.74927">
        <ele>2243.4</ele>
      </trkpt>
      <trkpt lat="42.63835" lon="1.74932">
        <ele>2243.6</ele>
      </trkpt>
      <trkpt lat="42.63834" lon="1.74938">
        <ele>2243.8</ele>
      </trkpt>
      <trkpt lat="42.63833" lon="1.74941">
        <ele>2243.8</ele>
      </trkpt>
      <trkpt lat="42.63832" lon="1.74944">
        <ele>2243.8</ele>
      </trkpt>
      <trkpt lat="42.63831" lon="1.74948">
        <ele>2243.7</ele>
      </trkpt>
      <trkpt lat="42.6383" lon="1.74953">
        <ele>2243.6</ele>
      </trkpt>
      <trkpt lat="42.63829" lon="1.74957">
        <ele>2243.5</ele>
      </trkpt>
      <trkpt lat="42.63828" lon="1.74961">
        <ele>2243.3</ele>
      </trkpt>
      <trkpt lat="42.63825" lon="1.74965">
        <ele>2242.9</ele>
      </trkpt>
      <trkpt lat="42.63823" lon="1.74968">
        <ele>2242.6</ele>
      </trkpt>
      <trkpt lat="42.63823" lon="1.7497">
        <ele>2242.5</ele>
      </trkpt>
      <trkpt lat="42.63822" lon="1.74975">
        <ele>2242.5</ele>
      </trkpt>
      <trkpt lat="42.63822" lon="1.74979">
        <ele>2242.7</ele>
      </trkpt>
      <trkpt lat="42.63822" lon="1.74982">
        <ele>2242.9</ele>
      </trkpt>
      <trkpt lat="42.63821" lon="1.74986">
        <ele>2242.9</ele>
      </trkpt>
      <trkpt lat="42.6382" lon="1.74989">
        <ele>2243</ele>
      </trkpt>
      <trkpt lat="42.63819" lon="1.74993">
        <ele>2243.1</ele>
      </trkpt>
      <trkpt lat="42.63817" lon="1.74997">
        <ele>2243.1</ele>
      </trkpt>
      <trkpt lat="42.63814" lon="1.75">
        <ele>2242.9</ele>
      </trkpt>
      <trkpt lat="42.63813" lon="1.75003">
        <ele>2242.7</ele>
      </trkpt>
      <trkpt lat="42.63811" lon="1.75006">
        <ele>2242.5</ele>
      </trkpt>
      <trkpt lat="42.63808" lon="1.75008">
        <ele>2242.2</ele>
      </trkpt>
      <trkpt lat="42.63807" lon="1.75009">
        <ele>2242.1</ele>
      </trkpt>
      <trkpt lat="42.63805" lon="1.75011">
        <ele>2242</ele>
      </trkpt>
      <trkpt lat="42.63803" lon="1.75011">
        <ele>2241.8</ele>
      </trkpt>
      <trkpt lat="42.63801" lon="1.7501">
        <ele>2241.7</ele>
      </trkpt>
      <trkpt lat="42.63798" lon="1.75011">
        <ele>2241.5</ele>
      </trkpt>
      <trkpt lat="42.63795" lon="1.7501">
        <ele>2241.3</ele>
      </trkpt>
      <trkpt lat="42.63793" lon="1.75009">
        <ele>2241.3</ele>
      </trkpt>
      <trkpt lat="42.63791" lon="1.7501">
        <ele>2241.1</ele>
      </trkpt>
      <trkpt lat="42.6379" lon="1.75012">
        <ele>2241</ele>
      </trkpt>
      <trkpt lat="42.63789" lon="1.75015">
        <ele>2240.8</ele>
      </trkpt>
      <trkpt lat="42.63788" lon="1.7502">
        <ele>2240.5</ele>
      </trkpt>
      <trkpt lat="42.63786" lon="1.75023">
        <ele>2240.1</ele>
      </trkpt>
      <trkpt lat="42.63784" lon="1.75026">
        <ele>2239.8</ele>
      </trkpt>
      <trkpt lat="42.63783" lon="1.75029">
        <ele>2239.4</ele>
      </trkpt>
      <trkpt lat="42.63783" lon="1.75032">
        <ele>2238.9</ele>
      </trkpt>
      <trkpt lat="42.63782" lon="1.75035">
        <ele>2238.2</ele>
      </trkpt>
      <trkpt lat="42.6378" lon="1.7504">
        <ele>2237.1</ele>
      </trkpt>
      <trkpt lat="42.63778" lon="1.75043">
        <ele>2236.3</ele>
      </trkpt>
      <trkpt lat="42.63777" lon="1.75051">
        <ele>2234.8</ele>
      </trkpt>
      <trkpt lat="42.63777" lon="1.75054">
        <ele>2234.2</ele>
      </trkpt>
      <trkpt lat="42.63776" lon="1.75054">
        <ele>2234.2</ele>
      </trkpt>
      <trkpt lat="42.63774" lon="1.75054">
        <ele>2234</ele>
      </trkpt>
      <trkpt lat="42.63772" lon="1.75053">
        <ele>2234.1</ele>
      </trkpt>
      <trkpt lat="42.63769" lon="1.75051">
        <ele>2234.2</ele>
      </trkpt>
      <trkpt lat="42.63767" lon="1.75049">
        <ele>2234.5</ele>
      </trkpt>
      <trkpt lat="42.63765" lon="1.7505">
        <ele>2234.2</ele>
      </trkpt>
      <trkpt lat="42.63766" lon="1.75056">
        <ele>2233.1</ele>
      </trkpt>
      <trkpt lat="42.63766" lon="1.75062">
        <ele>2232.1</ele>
      </trkpt>
      <trkpt lat="42.63767" lon="1.75071">
        <ele>2230.7</ele>
      </trkpt>
      <trkpt lat="42.63767" lon="1.75081">
        <ele>2229</ele>
      </trkpt>
      <trkpt lat="42.63768" lon="1.75089">
        <ele>2227.4</ele>
      </trkpt>
      <trkpt lat="42.63769" lon="1.75096">
        <ele>2225.8</ele>
      </trkpt>
      <trkpt lat="42.63771" lon="1.75105">
        <ele>2223.7</ele>
      </trkpt>
      <trkpt lat="42.63773" lon="1.75107">
        <ele>2223.2</ele>
      </trkpt>
      <trkpt lat="42.63776" lon="1.75109">
        <ele>2222.6</ele>
      </trkpt>
      <trkpt lat="42.63778" lon="1.75112">
        <ele>2221.9</ele>
      </trkpt>
      <trkpt lat="42.6378" lon="1.75115">
        <ele>2221.7</ele>
      </trkpt>
      <trkpt lat="42.63782" lon="1.75117">
        <ele>2221.8</ele>
      </trkpt>
      <trkpt lat="42.63784" lon="1.75118">
        <ele>2221.9</ele>
      </trkpt>
      <trkpt lat="42.63788" lon="1.7512">
        <ele>2222.3</ele>
      </trkpt>
      <trkpt lat="42.63794" lon="1.75124">
        <ele>2222.4</ele>
      </trkpt>
      <trkpt lat="42.63797" lon="1.75127">
        <ele>2222.1</ele>
      </trkpt>
      <trkpt lat="42.63798" lon="1.7513">
        <ele>2221.5</ele>
      </trkpt>
      <trkpt lat="42.638" lon="1.75131">
        <ele>2221.5</ele>
      </trkpt>
      <trkpt lat="42.63802" lon="1.75132">
        <ele>2221.5</ele>
      </trkpt>
      <trkpt lat="42.63803" lon="1.75134">
        <ele>2221.1</ele>
      </trkpt>
      <trkpt lat="42.63805" lon="1.75135">
        <ele>2221.1</ele>
      </trkpt>
      <trkpt lat="42.63806" lon="1.75137">
        <ele>2220.6</ele>
      </trkpt>
      <trkpt lat="42.63807" lon="1.75142">
        <ele>2219.8</ele>
      </trkpt>
      <trkpt lat="42.63809" lon="1.75146">
        <ele>2219.6</ele>
      </trkpt>
      <trkpt lat="42.63808" lon="1.75149">
        <ele>2219.1</ele>
      </trkpt>
      <trkpt lat="42.63809" lon="1.75152">
        <ele>2218.9</ele>
      </trkpt>
      <trkpt lat="42.63812" lon="1.75157">
        <ele>2218.6</ele>
      </trkpt>
      <trkpt lat="42.63813" lon="1.75163">
        <ele>2218</ele>
      </trkpt>
      <trkpt lat="42.63815" lon="1.75167">
        <ele>2217.7</ele>
      </trkpt>
      <trkpt lat="42.63816" lon="1.7517">
        <ele>2217.8</ele>
      </trkpt>
      <trkpt lat="42.63818" lon="1.75174">
        <ele>2217.9</ele>
      </trkpt>
      <trkpt lat="42.63817" lon="1.75177">
        <ele>2217.9</ele>
      </trkpt>
      <trkpt lat="42.63816" lon="1.7518">
        <ele>2217.9</ele>
      </trkpt>
      <trkpt lat="42.63814" lon="1.75183">
        <ele>2217.8</ele>
      </trkpt>
      <trkpt lat="42.63812" lon="1.75187">
        <ele>2217.9</ele>
      </trkpt>
      <trkpt lat="42.63808" lon="1.75194">
        <ele>2218</ele>
      </trkpt>
      <trkpt lat="42.63807" lon="1.75199">
        <ele>2218.5</ele>
      </trkpt>
      <trkpt lat="42.63807" lon="1.75205">
        <ele>2219.2</ele>
      </trkpt>
      <trkpt lat="42.63807" lon="1.75209">
        <ele>2219.6</ele>
      </trkpt>
      <trkpt lat="42.63808" lon="1.75213">
        <ele>2220.1</ele>
      </trkpt>
      <trkpt lat="42.63809" lon="1.75215">
        <ele>2220.4</ele>
      </trkpt>
      <trkpt lat="42.63809" lon="1.75218">
        <ele>2220.8</ele>
      </trkpt>
      <trkpt lat="42.63808" lon="1.75221">
        <ele>2221</ele>
      </trkpt>
      <trkpt lat="42.63808" lon="1.75224">
        <ele>2221.6</ele>
      </trkpt>
      <trkpt lat="42.63809" lon="1.75228">
        <ele>2222.7</ele>
      </trkpt>
      <trkpt lat="42.63808" lon="1.7523">
        <ele>2223.2</ele>
      </trkpt>
      <trkpt lat="42.63807" lon="1.75232">
        <ele>2223.6</ele>
      </trkpt>
      <trkpt lat="42.63804" lon="1.75234">
        <ele>2223.9</ele>
      </trkpt>
      <trkpt lat="42.63801" lon="1.75234">
        <ele>2223.8</ele>
      </trkpt>
      <trkpt lat="42.63797" lon="1.75235">
        <ele>2223.9</ele>
      </trkpt>
      <trkpt lat="42.63792" lon="1.75236">
        <ele>2224</ele>
      </trkpt>
      <trkpt lat="42.63787" lon="1.75236">
        <ele>2223.8</ele>
      </trkpt>
      <trkpt lat="42.63784" lon="1.75235">
        <ele>2223.4</ele>
      </trkpt>
      <trkpt lat="42.6378" lon="1.75234">
        <ele>2223</ele>
      </trkpt>
      <trkpt lat="42.63776" lon="1.75235">
        <ele>2223.2</ele>
      </trkpt>
      <trkpt lat="42.63772" lon="1.75235">
        <ele>2223.1</ele>
      </trkpt>
      <trkpt lat="42.63768" lon="1.75234">
        <ele>2222.7</ele>
      </trkpt>
      <trkpt lat="42.63765" lon="1.75235">
        <ele>2222.9</ele>
      </trkpt>
      <trkpt lat="42.63762" lon="1.75236">
        <ele>2223.2</ele>
      </trkpt>
      <trkpt lat="42.6376" lon="1.75237">
        <ele>2223.5</ele>
      </trkpt>
      <trkpt lat="42.63755" lon="1.75237">
        <ele>2223.4</ele>
      </trkpt>
      <trkpt lat="42.6375" lon="1.75237">
        <ele>2223.3</ele>
      </trkpt>
      <trkpt lat="42.63746" lon="1.75237">
        <ele>2223.2</ele>
      </trkpt>
      <trkpt lat="42.63743" lon="1.75239">
        <ele>2223.7</ele>
      </trkpt>
      <trkpt lat="42.6374" lon="1.75241">
        <ele>2224.3</ele>
      </trkpt>
      <trkpt lat="42.63737" lon="1.75241">
        <ele>2224.1</ele>
      </trkpt>
      <trkpt lat="42.63734" lon="1.7524">
        <ele>2223.7</ele>
      </trkpt>
      <trkpt lat="42.63731" lon="1.7524">
        <ele>2223.5</ele>
      </trkpt>
      <trkpt lat="42.63728" lon="1.75242">
        <ele>2224</ele>
      </trkpt>
      <trkpt lat="42.63726" lon="1.75243">
        <ele>2224.2</ele>
      </trkpt>
      <trkpt lat="42.63723" lon="1.75243">
        <ele>2224</ele>
      </trkpt>
      <trkpt lat="42.63719" lon="1.75242">
        <ele>2223.4</ele>
      </trkpt>
      <trkpt lat="42.63717" lon="1.75241">
        <ele>2223</ele>
      </trkpt>
      <trkpt lat="42.63714" lon="1.7524">
        <ele>2222.5</ele>
      </trkpt>
      <trkpt lat="42.63712" lon="1.75241">
        <ele>2222.5</ele>
      </trkpt>
      <trkpt lat="42.6371" lon="1.75242">
        <ele>2222.6</ele>
      </trkpt>
      <trkpt lat="42.63708" lon="1.75243">
        <ele>2222.6</ele>
      </trkpt>
      <trkpt lat="42.63705" lon="1.75243">
        <ele>2222.3</ele>
      </trkpt>
      <trkpt lat="42.63703" lon="1.75244">
        <ele>2222.3</ele>
      </trkpt>
      <trkpt lat="42.63701" lon="1.75245">
        <ele>2222.2</ele>
      </trkpt>
      <trkpt lat="42.637" lon="1.75247">
        <ele>2222.4</ele>
      </trkpt>
      <trkpt lat="42.63698" lon="1.75249">
        <ele>2222.4</ele>
      </trkpt>
      <trkpt lat="42.63696" lon="1.75251">
        <ele>2222.6</ele>
      </trkpt>
      <trkpt lat="42.63695" lon="1.75255">
        <ele>2223.7</ele>
      </trkpt>
      <trkpt lat="42.63694" lon="1.75258">
        <ele>2224.6</ele>
      </trkpt>
      <trkpt lat="42.63693" lon="1.75262">
        <ele>2225.8</ele>
      </trkpt>
      <trkpt lat="42.6369" lon="1.75264">
        <ele>2226.1</ele>
      </trkpt>
      <trkpt lat="42.63687" lon="1.75268">
        <ele>2226.8</ele>
      </trkpt>
      <trkpt lat="42.63684" lon="1.75272">
        <ele>2227.3</ele>
      </trkpt>
      <trkpt lat="42.63683" lon="1.75276">
        <ele>2228.1</ele>
      </trkpt>
      <trkpt lat="42.63682" lon="1.75279">
        <ele>2228.7</ele>
      </trkpt>
      <trkpt lat="42.6368" lon="1.75284">
        <ele>2229.5</ele>
      </trkpt>
      <trkpt lat="42.63675" lon="1.75289">
        <ele>2229.4</ele>
      </trkpt>
      <trkpt lat="42.63672" lon="1.75294">
        <ele>2229.6</ele>
      </trkpt>
      <trkpt lat="42.63669" lon="1.75297">
        <ele>2229.3</ele>
      </trkpt>
      <trkpt lat="42.63666" lon="1.75301">
        <ele>2229</ele>
      </trkpt>
      <trkpt lat="42.63665" lon="1.75305">
        <ele>2229.5</ele>
      </trkpt>
      <trkpt lat="42.63664" lon="1.75308">
        <ele>2229.7</ele>
      </trkpt>
      <trkpt lat="42.63661" lon="1.7531">
        <ele>2229.3</ele>
      </trkpt>
      <trkpt lat="42.63659" lon="1.75311">
        <ele>2228.9</ele>
      </trkpt>
      <trkpt lat="42.63656" lon="1.75313">
        <ele>2228.3</ele>
      </trkpt>
      <trkpt lat="42.63653" lon="1.75317">
        <ele>2228</ele>
      </trkpt>
      <trkpt lat="42.63651" lon="1.7532">
        <ele>2227.8</ele>
      </trkpt>
      <trkpt lat="42.63646" lon="1.75329">
        <ele>2227.1</ele>
      </trkpt>
      <trkpt lat="42.63641" lon="1.7534">
        <ele>2226.8</ele>
      </trkpt>
      <trkpt lat="42.63637" lon="1.75349">
        <ele>2226.7</ele>
      </trkpt>
      <trkpt lat="42.63633" lon="1.75355">
        <ele>2226.2</ele>
      </trkpt>
      <trkpt lat="42.63631" lon="1.75359">
        <ele>2225.9</ele>
      </trkpt>
      <trkpt lat="42.63628" lon="1.75362">
        <ele>2225.2</ele>
      </trkpt>
      <trkpt lat="42.63626" lon="1.75363">
        <ele>2224.5</ele>
      </trkpt>
      <trkpt lat="42.63626" lon="1.75363">
        <ele>2224.5</ele>
      </trkpt>
      <trkpt lat="42.63624" lon="1.75363">
        <ele>2223.8</ele>
      </trkpt>
      <trkpt lat="42.63623" lon="1.75363">
        <ele>2223.4</ele>
      </trkpt>
      <trkpt lat="42.63622" lon="1.75362">
        <ele>2223</ele>
      </trkpt>
      <trkpt lat="42.63619" lon="1.75361">
        <ele>2221.8</ele>
      </trkpt>
      <trkpt lat="42.63618" lon="1.7536">
        <ele>2221.4</ele>
      </trkpt>
      <trkpt lat="42.63617" lon="1.75361">
        <ele>2221.1</ele>
      </trkpt>
      <trkpt lat="42.63616" lon="1.75363">
        <ele>2220.9</ele>
      </trkpt>
      <trkpt lat="42.63614" lon="1.75365">
        <ele>2220.2</ele>
      </trkpt>
      <trkpt lat="42.63612" lon="1.75366">
        <ele>2219.5</ele>
      </trkpt>
      <trkpt lat="42.6361" lon="1.75369">
        <ele>2219.3</ele>
      </trkpt>
      <trkpt lat="42.63609" lon="1.75374">
        <ele>2219.4</ele>
      </trkpt>
      <trkpt lat="42.63608" lon="1.7538">
        <ele>2219.5</ele>
      </trkpt>
      <trkpt lat="42.63605" lon="1.75385">
        <ele>2219.3</ele>
      </trkpt>
      <trkpt lat="42.63603" lon="1.75389">
        <ele>2219.1</ele>
      </trkpt>
      <trkpt lat="42.63602" lon="1.75395">
        <ele>2218.6</ele>
      </trkpt>
      <trkpt lat="42.63602" lon="1.75403">
        <ele>2218</ele>
      </trkpt>
      <trkpt lat="42.63602" lon="1.75409">
        <ele>2217.6</ele>
      </trkpt>
      <trkpt lat="42.63599" lon="1.75417">
        <ele>2216.3</ele>
      </trkpt>
      <trkpt lat="42.63599" lon="1.75424">
        <ele>2215.6</ele>
      </trkpt>
      <trkpt lat="42.63599" lon="1.75435">
        <ele>2214.5</ele>
      </trkpt>
      <trkpt lat="42.63599" lon="1.75441">
        <ele>2213.9</ele>
      </trkpt>
      <trkpt lat="42.636" lon="1.75445">
        <ele>2213.7</ele>
      </trkpt>
      <trkpt lat="42.636" lon="1.75448">
        <ele>2212.9</ele>
      </trkpt>
      <trkpt lat="42.63599" lon="1.75452">
        <ele>2211.6</ele>
      </trkpt>
      <trkpt lat="42.63598" lon="1.75455">
        <ele>2210.6</ele>
      </trkpt>
      <trkpt lat="42.63596" lon="1.75455">
        <ele>2210</ele>
      </trkpt>
      <trkpt lat="42.63594" lon="1.75455">
        <ele>2209.4</ele>
      </trkpt>
      <trkpt lat="42.63592" lon="1.75455">
        <ele>2208.8</ele>
      </trkpt>
      <trkpt lat="42.63586" lon="1.75454">
        <ele>2207.4</ele>
      </trkpt>
      <trkpt lat="42.63583" lon="1.75455">
        <ele>2206.4</ele>
      </trkpt>
      <trkpt lat="42.63581" lon="1.75456">
        <ele>2206.5</ele>
      </trkpt>
      <trkpt lat="42.63578" lon="1.75457">
        <ele>2206.7</ele>
      </trkpt>
      <trkpt lat="42.63577" lon="1.75459">
        <ele>2206.3</ele>
      </trkpt>
      <trkpt lat="42.63575" lon="1.75462">
        <ele>2205.8</ele>
      </trkpt>
      <trkpt lat="42.6357" lon="1.75468">
        <ele>2204.7</ele>
      </trkpt>
      <trkpt lat="42.63566" lon="1.75471">
        <ele>2204.3</ele>
      </trkpt>
      <trkpt lat="42.63565" lon="1.75472">
        <ele>2204.1</ele>
      </trkpt>
      <trkpt lat="42.63562" lon="1.75474">
        <ele>2203.7</ele>
      </trkpt>
      <trkpt lat="42.63559" lon="1.75479">
        <ele>2202.2</ele>
      </trkpt>
      <trkpt lat="42.63555" lon="1.7548">
        <ele>2202.3</ele>
      </trkpt>
      <trkpt lat="42.63552" lon="1.7548">
        <ele>2203.1</ele>
      </trkpt>
      <trkpt lat="42.6355" lon="1.75481">
        <ele>2203.3</ele>
      </trkpt>
      <trkpt lat="42.63547" lon="1.75482">
        <ele>2203.7</ele>
      </trkpt>
      <trkpt lat="42.63545" lon="1.75483">
        <ele>2203.9</ele>
      </trkpt>
      <trkpt lat="42.63542" lon="1.75483">
        <ele>2204.7</ele>
      </trkpt>
      <trkpt lat="42.63539" lon="1.75486">
        <ele>2204.5</ele>
      </trkpt>
      <trkpt lat="42.63536" lon="1.75489">
        <ele>2204.3</ele>
      </trkpt>
      <trkpt lat="42.63531" lon="1.75492">
        <ele>2204.7</ele>
      </trkpt>
      <trkpt lat="42.63528" lon="1.75495">
        <ele>2204.6</ele>
      </trkpt>
      <trkpt lat="42.63524" lon="1.75498">
        <ele>2204.7</ele>
      </trkpt>
      <trkpt lat="42.63521" lon="1.755">
        <ele>2205</ele>
      </trkpt>
      <trkpt lat="42.63517" lon="1.75504">
        <ele>2204.9</ele>
      </trkpt>
      <trkpt lat="42.63512" lon="1.75507">
        <ele>2205.4</ele>
      </trkpt>
      <trkpt lat="42.63506" lon="1.75511">
        <ele>2205.8</ele>
      </trkpt>
      <trkpt lat="42.63501" lon="1.75514">
        <ele>2206.2</ele>
      </trkpt>
      <trkpt lat="42.63497" lon="1.75516">
        <ele>2207.5</ele>
      </trkpt>
      <trkpt lat="42.63494" lon="1.75519">
        <ele>2208.2</ele>
      </trkpt>
      <trkpt lat="42.63492" lon="1.75522">
        <ele>2208.4</ele>
      </trkpt>
      <trkpt lat="42.63492" lon="1.75525">
        <ele>2207.5</ele>
      </trkpt>
      <trkpt lat="42.63491" lon="1.75529">
        <ele>2206.9</ele>
      </trkpt>
      <trkpt lat="42.63488" lon="1.75536">
        <ele>2207.3</ele>
      </trkpt>
      <trkpt lat="42.63485" lon="1.75544">
        <ele>2207.4</ele>
      </trkpt>
      <trkpt lat="42.63483" lon="1.75551">
        <ele>2207.1</ele>
      </trkpt>
      <trkpt lat="42.6348" lon="1.75557">
        <ele>2207.6</ele>
      </trkpt>
      <trkpt lat="42.63478" lon="1.75559">
        <ele>2208.3</ele>
      </trkpt>
      <trkpt lat="42.63477" lon="1.75557">
        <ele>2209.2</ele>
      </trkpt>
      <trkpt lat="42.63478" lon="1.75554">
        <ele>2209.2</ele>
      </trkpt>
      <trkpt lat="42.63478" lon="1.75552">
        <ele>2209.6</ele>
      </trkpt>
      <trkpt lat="42.63478" lon="1.75551">
        <ele>2209.8</ele>
      </trkpt>
      <trkpt lat="42.63477" lon="1.75551">
        <ele>2210.4</ele>
      </trkpt>
      <trkpt lat="42.63476" lon="1.75551">
        <ele>2210.9</ele>
      </trkpt>
      <trkpt lat="42.63472" lon="1.7556">
        <ele>2211.3</ele>
      </trkpt>
      <trkpt lat="42.63468" lon="1.75567">
        <ele>2212.3</ele>
      </trkpt>
      <trkpt lat="42.63465" lon="1.75574">
        <ele>2212.6</ele>
      </trkpt>
      <trkpt lat="42.63461" lon="1.75578">
        <ele>2213.8</ele>
      </trkpt>
      <trkpt lat="42.6346" lon="1.75583">
        <ele>2213.2</ele>
      </trkpt>
      <trkpt lat="42.63458" lon="1.75587">
        <ele>2213.6</ele>
      </trkpt>
      <trkpt lat="42.63455" lon="1.7559">
        <ele>2214.6</ele>
      </trkpt>
      <trkpt lat="42.63452" lon="1.75595">
        <ele>2215.2</ele>
      </trkpt>
      <trkpt lat="42.63451" lon="1.75599">
        <ele>2215</ele>
      </trkpt>
      <trkpt lat="42.63451" lon="1.75602">
        <ele>2214.5</ele>
      </trkpt>
      <trkpt lat="42.6345" lon="1.7561">
        <ele>2213.6</ele>
      </trkpt>
      <trkpt lat="42.63451" lon="1.75614">
        <ele>2213</ele>
      </trkpt>
      <trkpt lat="42.63452" lon="1.7562">
        <ele>2212.6</ele>
      </trkpt>
      <trkpt lat="42.63456" lon="1.75627">
        <ele>2210.7</ele>
      </trkpt>
      <trkpt lat="42.63463" lon="1.75637">
        <ele>2207</ele>
      </trkpt>
      <trkpt lat="42.63466" lon="1.75646">
        <ele>2205.5</ele>
      </trkpt>
      <trkpt lat="42.63467" lon="1.75654">
        <ele>2205</ele>
      </trkpt>
      <trkpt lat="42.63467" lon="1.75664">
        <ele>2205.2</ele>
      </trkpt>
      <trkpt lat="42.63467" lon="1.75681">
        <ele>2204.8</ele>
      </trkpt>
      <trkpt lat="42.63469" lon="1.7569">
        <ele>2203.2</ele>
      </trkpt>
      <trkpt lat="42.63472" lon="1.75699">
        <ele>2200.8</ele>
      </trkpt>
      <trkpt lat="42.63474" lon="1.75715">
        <ele>2198.7</ele>
      </trkpt>
      <trkpt lat="42.63474" lon="1.75726">
        <ele>2198.3</ele>
      </trkpt>
      <trkpt lat="42.63475" lon="1.75742">
        <ele>2198.6</ele>
      </trkpt>
      <trkpt lat="42.63477" lon="1.75749">
        <ele>2198.1</ele>
      </trkpt>
      <trkpt lat="42.63479" lon="1.75758">
        <ele>2198.3</ele>
      </trkpt>
      <trkpt lat="42.63482" lon="1.7577">
        <ele>2198.5</ele>
      </trkpt>
      <trkpt lat="42.63486" lon="1.75786">
        <ele>2199.5</ele>
      </trkpt>
      <trkpt lat="42.63487" lon="1.75793">
        <ele>2200.4</ele>
      </trkpt>
      <trkpt lat="42.63484" lon="1.75801">
        <ele>2202.9</ele>
      </trkpt>
      <trkpt lat="42.63478" lon="1.75811">
        <ele>2207.3</ele>
      </trkpt>
      <trkpt lat="42.63478" lon="1.75818">
        <ele>2209</ele>
      </trkpt>
      <trkpt lat="42.63474" lon="1.75824">
        <ele>2212</ele>
      </trkpt>
      <trkpt lat="42.6347" lon="1.75831">
        <ele>2215.5</ele>
      </trkpt>
      <trkpt lat="42.63472" lon="1.75845">
        <ele>2218.5</ele>
      </trkpt>
      <trkpt lat="42.63473" lon="1.75855">
        <ele>2220.9</ele>
      </trkpt>
      <trkpt lat="42.63474" lon="1.75873">
        <ele>2226.1</ele>
      </trkpt>
      <trkpt lat="42.63469" lon="1.75882">
        <ele>2231.1</ele>
      </trkpt>
      <trkpt lat="42.63461" lon="1.75895">
        <ele>2238.7</ele>
      </trkpt>
      <trkpt lat="42.63458" lon="1.75898">
        <ele>2240.9</ele>
      </trkpt>
      <trkpt lat="42.63443" lon="1.75887">
        <ele>2244</ele>
      </trkpt>
      <trkpt lat="42.6343" lon="1.75881">
        <ele>2247.7</ele>
      </trkpt>
      <trkpt lat="42.63417" lon="1.7588">
        <ele>2253.3</ele>
      </trkpt>
      <trkpt lat="42.63413" lon="1.75882">
        <ele>2256.1</ele>
      </trkpt>
      <trkpt lat="42.63414" lon="1.75896">
        <ele>2260.1</ele>
      </trkpt>
      <trkpt lat="42.63421" lon="1.75924">
        <ele>2266.3</ele>
      </trkpt>
      <trkpt lat="42.63432" lon="1.75954">
        <ele>2270</ele>
      </trkpt>
      <trkpt lat="42.63444" lon="1.7598">
        <ele>2270.5</ele>
      </trkpt>
      <trkpt lat="42.63448" lon="1.7599">
        <ele>2270.8</ele>
      </trkpt>
      <trkpt lat="42.63449" lon="1.76003">
        <ele>2273.6</ele>
      </trkpt>
      <trkpt lat="42.63453" lon="1.76014">
        <ele>2273.7</ele>
      </trkpt>
      <trkpt lat="42.63455" lon="1.76028">
        <ele>2275.9</ele>
      </trkpt>
      <trkpt lat="42.63457" lon="1.76039">
        <ele>2278.8</ele>
      </trkpt>
      <trkpt lat="42.6346" lon="1.76049">
        <ele>2280.2</ele>
      </trkpt>
      <trkpt lat="42.63465" lon="1.76059">
        <ele>2280.9</ele>
      </trkpt>
      <trkpt lat="42.63482" lon="1.7607">
        <ele>2276.1</ele>
      </trkpt>
      <trkpt lat="42.63494" lon="1.76085">
        <ele>2278.7</ele>
      </trkpt>
      <trkpt lat="42.63499" lon="1.7609">
        <ele>2278.9</ele>
      </trkpt>
      <trkpt lat="42.63503" lon="1.76097">
        <ele>2280.6</ele>
      </trkpt>
      <trkpt lat="42.6351" lon="1.76104">
        <ele>2280.9</ele>
      </trkpt>
      <trkpt lat="42.63515" lon="1.76112">
        <ele>2282.3</ele>
      </trkpt>
      <trkpt lat="42.63521" lon="1.7612">
        <ele>2282.6</ele>
      </trkpt>
      <trkpt lat="42.63525" lon="1.76126">
        <ele>2282.8</ele>
      </trkpt>
      <trkpt lat="42.63529" lon="1.76131">
        <ele>2282.4</ele>
      </trkpt>
      <trkpt lat="42.63533" lon="1.76138">
        <ele>2282.5</ele>
      </trkpt>
      <trkpt lat="42.63537" lon="1.76144">
        <ele>2281.8</ele>
      </trkpt>
      <trkpt lat="42.63539" lon="1.76148">
        <ele>2281.8</ele>
      </trkpt>
      <trkpt lat="42.63542" lon="1.76153">
        <ele>2281.4</ele>
      </trkpt>
      <trkpt lat="42.63548" lon="1.76164">
        <ele>2280.9</ele>
      </trkpt>
      <trkpt lat="42.6355" lon="1.7617">
        <ele>2281.7</ele>
      </trkpt>
      <trkpt lat="42.63552" lon="1.76173">
        <ele>2281.6</ele>
      </trkpt>
      <trkpt lat="42.63556" lon="1.76175">
        <ele>2280.1</ele>
      </trkpt>
      <trkpt lat="42.63558" lon="1.76177">
        <ele>2280.1</ele>
      </trkpt>
      <trkpt lat="42.63559" lon="1.76178">
        <ele>2280.1</ele>
      </trkpt>
      <trkpt lat="42.63561" lon="1.7618">
        <ele>2280.2</ele>
      </trkpt>
      <trkpt lat="42.63565" lon="1.76183">
        <ele>2280</ele>
      </trkpt>
      <trkpt lat="42.63566" lon="1.76184">
        <ele>2280.1</ele>
      </trkpt>
      <trkpt lat="42.63568" lon="1.76187">
        <ele>2280.9</ele>
      </trkpt>
      <trkpt lat="42.63569" lon="1.7619">
        <ele>2282</ele>
      </trkpt>
      <trkpt lat="42.63569" lon="1.76194">
        <ele>2283.9</ele>
      </trkpt>
      <trkpt lat="42.63568" lon="1.76198">
        <ele>2286.2</ele>
      </trkpt>
      <trkpt lat="42.63568" lon="1.76201">
        <ele>2287.7</ele>
      </trkpt>
      <trkpt lat="42.63571" lon="1.76203">
        <ele>2287.6</ele>
      </trkpt>
      <trkpt lat="42.63574" lon="1.76206">
        <ele>2288</ele>
      </trkpt>
      <trkpt lat="42.63576" lon="1.76206">
        <ele>2287.2</ele>
        <extensions>
          <visugpx:TrkExtension xmlns:visugpx="https://www.visugpx.com/editgpx/">
            <visugpx:node>1</visugpx:node>
            </visugpx:TrkExtension>
        </extensions>
      </trkpt>
      <trkpt lat="42.63577" lon="1.76207">
        <ele>2287.3</ele>
      </trkpt>
      <trkpt lat="42.6358" lon="1.76207">
        <ele>2286.2</ele>
      </trkpt>
      <trkpt lat="42.63585" lon="1.76207">
        <ele>2284.4</ele>
      </trkpt>
      <trkpt lat="42.63587" lon="1.76208">
        <ele>2284.2</ele>
      </trkpt>
      <trkpt lat="42.63591" lon="1.7621">
        <ele>2283.6</ele>
      </trkpt>
      <trkpt lat="42.63593" lon="1.76211">
        <ele>2283.4</ele>
      </trkpt>
      <trkpt lat="42.63594" lon="1.76213">
        <ele>2283.8</ele>
      </trkpt>
      <trkpt lat="42.63595" lon="1.76217">
        <ele>2284.9</ele>
      </trkpt>
      <trkpt lat="42.63597" lon="1.76219">
        <ele>2284.9</ele>
      </trkpt>
      <trkpt lat="42.636" lon="1.76223">
        <ele>2285.4</ele>
      </trkpt>
      <trkpt lat="42.636" lon="1.76226">
        <ele>2286.7</ele>
      </trkpt>
      <trkpt lat="42.63603" lon="1.76229">
        <ele>2286.9</ele>
      </trkpt>
      <trkpt lat="42.63606" lon="1.76232">
        <ele>2287</ele>
      </trkpt>
      <trkpt lat="42.6361" lon="1.76236">
        <ele>2286.9</ele>
      </trkpt>
      <trkpt lat="42.63613" lon="1.76239">
        <ele>2286.9</ele>
      </trkpt>
      <trkpt lat="42.63615" lon="1.76241">
        <ele>2286.9</ele>
      </trkpt>
      <trkpt lat="42.63618" lon="1.76242">
        <ele>2286.2</ele>
      </trkpt>
      <trkpt lat="42.63621" lon="1.76245">
        <ele>2286.2</ele>
      </trkpt>
      <trkpt lat="42.63623" lon="1.76249">
        <ele>2286.9</ele>
      </trkpt>
      <trkpt lat="42.63625" lon="1.76255">
        <ele>2288.2</ele>
      </trkpt>
      <trkpt lat="42.63626" lon="1.76264">
        <ele>2290.9</ele>
      </trkpt>
      <trkpt lat="42.63629" lon="1.76277">
        <ele>2294</ele>
      </trkpt>
      <trkpt lat="42.63631" lon="1.76283">
        <ele>2295.1</ele>
      </trkpt>
      <trkpt lat="42.63631" lon="1.76288">
        <ele>2296.7</ele>
      </trkpt>
      <trkpt lat="42.6363" lon="1.76295">
        <ele>2299.4</ele>
      </trkpt>
      <trkpt lat="42.63629" lon="1.763">
        <ele>2301.5</ele>
      </trkpt>
      <trkpt lat="42.6363" lon="1.76302">
        <ele>2301.7</ele>
      </trkpt>
      <trkpt lat="42.63632" lon="1.76303">
        <ele>2300.9</ele>
      </trkpt>
      <trkpt lat="42.63635" lon="1.76304">
        <ele>2299.6</ele>
      </trkpt>
      <trkpt lat="42.63644" lon="1.76306">
        <ele>2297.7</ele>
      </trkpt>
      <trkpt lat="42.63648" lon="1.76308">
        <ele>2298.2</ele>
      </trkpt>
      <trkpt lat="42.63652" lon="1.76312">
        <ele>2299.6</ele>
      </trkpt>
      <trkpt lat="42.63656" lon="1.76318">
        <ele>2301.9</ele>
      </trkpt>
      <trkpt lat="42.6366" lon="1.76321">
        <ele>2302.7</ele>
      </trkpt>
      <trkpt lat="42.63664" lon="1.76324">
        <ele>2303.4</ele>
      </trkpt>
      <trkpt lat="42.63667" lon="1.76325">
        <ele>2303.5</ele>
      </trkpt>
      <trkpt lat="42.63675" lon="1.76323">
        <ele>2304.5</ele>
      </trkpt>
      <trkpt lat="42.63681" lon="1.76322">
        <ele>2305.5</ele>
      </trkpt>
      <trkpt lat="42.63688" lon="1.76324">
        <ele>2307.8</ele>
      </trkpt>
      <trkpt lat="42.63691" lon="1.76324">
        <ele>2308.5</ele>
      </trkpt>
      <trkpt lat="42.63693" lon="1.76323">
        <ele>2308.7</ele>
      </trkpt>
      <trkpt lat="42.63697" lon="1.76318">
        <ele>2308.5</ele>
      </trkpt>
      <trkpt lat="42.637" lon="1.76312">
        <ele>2307.8</ele>
      </trkpt>
      <trkpt lat="42.63705" lon="1.76307">
        <ele>2308.2</ele>
      </trkpt>
      <trkpt lat="42.63708" lon="1.76305">
        <ele>2308.7</ele>
      </trkpt>
      <trkpt lat="42.63712" lon="1.76304">
        <ele>2309.9</ele>
      </trkpt>
      <trkpt lat="42.63714" lon="1.76303">
        <ele>2310.4</ele>
      </trkpt>
      <trkpt lat="42.63715" lon="1.76306">
        <ele>2311.5</ele>
      </trkpt>
      <trkpt lat="42.63718" lon="1.76311">
        <ele>2313.9</ele>
      </trkpt>
      <trkpt lat="42.6372" lon="1.76314">
        <ele>2315.4</ele>
      </trkpt>
      <trkpt lat="42.63721" lon="1.76317">
        <ele>2316.5</ele>
      </trkpt>
      <trkpt lat="42.63723" lon="1.76318">
        <ele>2317.2</ele>
      </trkpt>
      <trkpt lat="42.63724" lon="1.7632">
        <ele>2317.7</ele>
      </trkpt>
      <trkpt lat="42.63723" lon="1.76322">
        <ele>2318.2</ele>
      </trkpt>
      <trkpt lat="42.63721" lon="1.76324">
        <ele>2318.2</ele>
      </trkpt>
      <trkpt lat="42.63719" lon="1.7633">
        <ele>2319.1</ele>
      </trkpt>
      <trkpt lat="42.6372" lon="1.76332">
        <ele>2319.9</ele>
      </trkpt>
      <trkpt lat="42.63722" lon="1.76335">
        <ele>2321.1</ele>
      </trkpt>
      <trkpt lat="42.63725" lon="1.76338">
        <ele>2321.6</ele>
      </trkpt>
      <trkpt lat="42.63727" lon="1.76342">
        <ele>2322.2</ele>
      </trkpt>
      <trkpt lat="42.63729" lon="1.76348">
        <ele>2323.2</ele>
      </trkpt>
      <trkpt lat="42.63732" lon="1.76355">
        <ele>2324.7</ele>
      </trkpt>
      <trkpt lat="42.63737" lon="1.7636">
        <ele>2326.4</ele>
      </trkpt>
      <trkpt lat="42.63739" lon="1.76362">
        <ele>2327.3</ele>
      </trkpt>
      <trkpt lat="42.63742" lon="1.76363">
        <ele>2328.2</ele>
      </trkpt>
      <trkpt lat="42.63743" lon="1.76365">
        <ele>2329.1</ele>
      </trkpt>
      <trkpt lat="42.63746" lon="1.76369">
        <ele>2331.2</ele>
      </trkpt>
      <trkpt lat="42.63749" lon="1.76371">
        <ele>2332.7</ele>
      </trkpt>
      <trkpt lat="42.63752" lon="1.76374">
        <ele>2334</ele>
      </trkpt>
      <trkpt lat="42.63754" lon="1.76376">
        <ele>2334.7</ele>
      </trkpt>
      <trkpt lat="42.63754" lon="1.76377">
        <ele>2335.1</ele>
      </trkpt>
      <trkpt lat="42.63751" lon="1.76378">
        <ele>2335.6</ele>
      </trkpt>
      <trkpt lat="42.63748" lon="1.76382">
        <ele>2336.7</ele>
      </trkpt>
      <trkpt lat="42.63746" lon="1.76386">
        <ele>2337.6</ele>
      </trkpt>
      <trkpt lat="42.63747" lon="1.7639">
        <ele>2339.5</ele>
      </trkpt>
      <trkpt lat="42.63745" lon="1.76394">
        <ele>2340.6</ele>
      </trkpt>
      <trkpt lat="42.63744" lon="1.76398">
        <ele>2342</ele>
      </trkpt>
      <trkpt lat="42.63745" lon="1.76398">
        <ele>2342.3</ele>
      </trkpt>
      <trkpt lat="42.63748" lon="1.76397">
        <ele>2342.9</ele>
      </trkpt>
      <trkpt lat="42.63751" lon="1.76396">
        <ele>2343.1</ele>
      </trkpt>
      <trkpt lat="42.63752" lon="1.76398">
        <ele>2343.9</ele>
      </trkpt>
      <trkpt lat="42.6375" lon="1.764">
        <ele>2344.8</ele>
      </trkpt>
      <trkpt lat="42.63749" lon="1.76404">
        <ele>2346.2</ele>
      </trkpt>
      <trkpt lat="42.6375" lon="1.76405">
        <ele>2347</ele>
      </trkpt>
      <trkpt lat="42.63752" lon="1.76404">
        <ele>2346.6</ele>
      </trkpt>
      <trkpt lat="42.63755" lon="1.76405">
        <ele>2347.1</ele>
      </trkpt>
      <trkpt lat="42.63756" lon="1.76407">
        <ele>2348</ele>
      </trkpt>
      <trkpt lat="42.63755" lon="1.76408">
        <ele>2348.4</ele>
      </trkpt>
      <trkpt lat="42.63756" lon="1.7641">
        <ele>2349.4</ele>
      </trkpt>
      <trkpt lat="42.63758" lon="1.76411">
        <ele>2350</ele>
      </trkpt>
      <trkpt lat="42.63758" lon="1.76413">
        <ele>2350.9</ele>
      </trkpt>
      <trkpt lat="42.63755" lon="1.76415">
        <ele>2351.6</ele>
      </trkpt>
      <trkpt lat="42.63755" lon="1.76417">
        <ele>2352.5</ele>
      </trkpt>
      <trkpt lat="42.63758" lon="1.76419">
        <ele>2353.7</ele>
      </trkpt>
      <trkpt lat="42.63761" lon="1.76419">
        <ele>2354</ele>
      </trkpt>
      <trkpt lat="42.63761" lon="1.76421">
        <ele>2354.9</ele>
      </trkpt>
      <trkpt lat="42.63757" lon="1.76424">
        <ele>2356.1</ele>
      </trkpt>
      <trkpt lat="42.63753" lon="1.76426">
        <ele>2356.7</ele>
      </trkpt>
      <trkpt lat="42.63753" lon="1.76428">
        <ele>2357.6</ele>
      </trkpt>
      <trkpt lat="42.63757" lon="1.76429">
        <ele>2358.5</ele>
      </trkpt>
      <trkpt lat="42.63767" lon="1.76432">
        <ele>2361.1</ele>
      </trkpt>
      <trkpt lat="42.63777" lon="1.76437">
        <ele>2364.9</ele>
      </trkpt>
      <trkpt lat="42.63784" lon="1.76442">
        <ele>2366.6</ele>
      </trkpt>
      <trkpt lat="42.63791" lon="1.76449">
        <ele>2369.2</ele>
      </trkpt>
      <trkpt lat="42.63803" lon="1.76458">
        <ele>2372.3</ele>
      </trkpt>
      <trkpt lat="42.63811" lon="1.76465">
        <ele>2373.6</ele>
      </trkpt>
      <trkpt lat="42.63815" lon="1.76471">
        <ele>2375.2</ele>
      </trkpt>
      <trkpt lat="42.6382" lon="1.7648">
        <ele>2375.9</ele>
      </trkpt>
      <trkpt lat="42.63821" lon="1.76484">
        <ele>2376.5</ele>
      </trkpt>
      <trkpt lat="42.63821" lon="1.76487">
        <ele>2377.3</ele>
      </trkpt>
      <trkpt lat="42.63821" lon="1.76488">
        <ele>2377.6</ele>
      </trkpt>
      <trkpt lat="42.63819" lon="1.76486">
        <ele>2378.2</ele>
      </trkpt>
      <trkpt lat="42.63818" lon="1.76485">
        <ele>2378.5</ele>
      </trkpt>
      <trkpt lat="42.63816" lon="1.76484">
        <ele>2379.4</ele>
      </trkpt>
      <trkpt lat="42.63813" lon="1.76485">
        <ele>2381.5</ele>
      </trkpt>
      <trkpt lat="42.6381" lon="1.76485">
        <ele>2383.3</ele>
      </trkpt>
      <trkpt lat="42.63808" lon="1.76487">
        <ele>2385.4</ele>
      </trkpt>
      <trkpt lat="42.63806" lon="1.76487">
        <ele>2386.6</ele>
      </trkpt>
      <trkpt lat="42.63805" lon="1.76487">
        <ele>2387</ele>
      </trkpt>
      <trkpt lat="42.63805" lon="1.76489">
        <ele>2388</ele>
      </trkpt>
      <trkpt lat="42.63808" lon="1.76491">
        <ele>2387.1</ele>
      </trkpt>
      <trkpt lat="42.6381" lon="1.76493">
        <ele>2386.6</ele>
      </trkpt>
      <trkpt lat="42.63811" lon="1.76497">
        <ele>2387.5</ele>
      </trkpt>
      <trkpt lat="42.63811" lon="1.76501">
        <ele>2388.9</ele>
      </trkpt>
      <trkpt lat="42.6381" lon="1.76503">
        <ele>2390.1</ele>
      </trkpt>
      <trkpt lat="42.63809" lon="1.76502">
        <ele>2390.7</ele>
      </trkpt>
      <trkpt lat="42.63807" lon="1.765">
        <ele>2391.9</ele>
      </trkpt>
      <trkpt lat="42.63803" lon="1.765">
        <ele>2393.7</ele>
      </trkpt>
      <trkpt lat="42.63802" lon="1.765">
        <ele>2394</ele>
      </trkpt>
      <trkpt lat="42.63804" lon="1.76503">
        <ele>2394.1</ele>
      </trkpt>
      <trkpt lat="42.63805" lon="1.76508">
        <ele>2394.9</ele>
      </trkpt>
      <trkpt lat="42.63804" lon="1.76512">
        <ele>2396.2</ele>
      </trkpt>
      <trkpt lat="42.63803" lon="1.76514">
        <ele>2397.1</ele>
      </trkpt>
      <trkpt lat="42.63802" lon="1.76512">
        <ele>2397.1</ele>
      </trkpt>
      <trkpt lat="42.63799" lon="1.7651">
        <ele>2397.7</ele>
      </trkpt>
      <trkpt lat="42.63798" lon="1.76512">
        <ele>2398.7</ele>
      </trkpt>
      <trkpt lat="42.63799" lon="1.76516">
        <ele>2399.4</ele>
      </trkpt>
      <trkpt lat="42.63797" lon="1.76527">
        <ele>2403.7</ele>
      </trkpt>
      <trkpt lat="42.63797" lon="1.76537">
        <ele>2407</ele>
      </trkpt>
      <trkpt lat="42.63797" lon="1.76543">
        <ele>2409</ele>
      </trkpt>
      <trkpt lat="42.63797" lon="1.76546">
        <ele>2410</ele>
      </trkpt>
      <trkpt lat="42.63795" lon="1.76545">
        <ele>2411</ele>
      </trkpt>
      <trkpt lat="42.63792" lon="1.7654">
        <ele>2411.2</ele>
      </trkpt>
      <trkpt lat="42.63792" lon="1.76536">
        <ele>2409.8</ele>
      </trkpt>
      <trkpt lat="42.6379" lon="1.76533">
        <ele>2409.9</ele>
      </trkpt>
      <trkpt lat="42.63787" lon="1.7653">
        <ele>2410.5</ele>
      </trkpt>
      <trkpt lat="42.63786" lon="1.76527">
        <ele>2409.9</ele>
      </trkpt>
      <trkpt lat="42.63784" lon="1.76526">
        <ele>2410.6</ele>
      </trkpt>
      <trkpt lat="42.63779" lon="1.76526">
        <ele>2413.4</ele>
      </trkpt>
      <trkpt lat="42.63775" lon="1.76528">
        <ele>2414.7</ele>
      </trkpt>
      <trkpt lat="42.6377" lon="1.76534">
        <ele>2416.7</ele>
      </trkpt>
      <trkpt lat="42.63762" lon="1.76545">
        <ele>2420.9</ele>
      </trkpt>
      <trkpt lat="42.63755" lon="1.76556">
        <ele>2425.4</ele>
      </trkpt>
      <trkpt lat="42.63753" lon="1.76563">
        <ele>2426.5</ele>
      </trkpt>
      <trkpt lat="42.63751" lon="1.76567">
        <ele>2427.1</ele>
      </trkpt>
      <trkpt lat="42.63751" lon="1.76571">
        <ele>2427.8</ele>
      </trkpt>
      <trkpt lat="42.63752" lon="1.76574">
        <ele>2428.4</ele>
      </trkpt>
      <trkpt lat="42.63753" lon="1.76576">
        <ele>2428.8</ele>
      </trkpt>
      <trkpt lat="42.63757" lon="1.76576">
        <ele>2429</ele>
      </trkpt>
      <trkpt lat="42.63764" lon="1.76572">
        <ele>2428.7</ele>
      </trkpt>
      <trkpt lat="42.63769" lon="1.7657">
        <ele>2428.6</ele>
      </trkpt>
      <trkpt lat="42.63777" lon="1.7657">
        <ele>2429</ele>
      </trkpt>
      <trkpt lat="42.63782" lon="1.76573">
        <ele>2427.3</ele>
      </trkpt>
      <trkpt lat="42.63786" lon="1.76577">
        <ele>2426.2</ele>
      </trkpt>
      <trkpt lat="42.63791" lon="1.76584">
        <ele>2425.7</ele>
      </trkpt>
      <trkpt lat="42.63794" lon="1.76592">
        <ele>2423.7</ele>
      </trkpt>
      <trkpt lat="42.63793" lon="1.766">
        <ele>2423.1</ele>
      </trkpt>
      <trkpt lat="42.63793" lon="1.76612">
        <ele>2421.7</ele>
      </trkpt>
      <trkpt lat="42.63792" lon="1.76626">
        <ele>2419.8</ele>
      </trkpt>
      <trkpt lat="42.63793" lon="1.7663">
        <ele>2419.2</ele>
      </trkpt>
      <trkpt lat="42.63796" lon="1.76638">
        <ele>2417.8</ele>
      </trkpt>
      <trkpt lat="42.63803" lon="1.7665">
        <ele>2417.3</ele>
      </trkpt>
      <trkpt lat="42.63808" lon="1.76659">
        <ele>2416.6</ele>
      </trkpt>
      <trkpt lat="42.63813" lon="1.76669">
        <ele>2414.8</ele>
      </trkpt>
      <trkpt lat="42.63818" lon="1.76685">
        <ele>2413</ele>
      </trkpt>
      <trkpt lat="42.63821" lon="1.76691">
        <ele>2413</ele>
      </trkpt>
      <trkpt lat="42.63825" lon="1.76696">
        <ele>2413.1</ele>
      </trkpt>
      <trkpt lat="42.63831" lon="1.76709">
        <ele>2411.5</ele>
      </trkpt>
      <trkpt lat="42.63836" lon="1.76715">
        <ele>2410.5</ele>
      </trkpt>
      <trkpt lat="42.63847" lon="1.76724">
        <ele>2408.1</ele>
      </trkpt>
      <trkpt lat="42.63858" lon="1.76732">
        <ele>2406</ele>
      </trkpt>
      <trkpt lat="42.63868" lon="1.76739">
        <ele>2404.5</ele>
      </trkpt>
      <trkpt lat="42.63876" lon="1.76747">
        <ele>2403.9</ele>
      </trkpt>
      <trkpt lat="42.63887" lon="1.76754">
        <ele>2402.9</ele>
      </trkpt>
      <trkpt lat="42.63881" lon="1.76754">
        <ele>2402.7</ele>
      </trkpt>
      <trkpt lat="42.63871" lon="1.76752">
        <ele>2403.1</ele>
      </trkpt>
      <trkpt lat="42.63861" lon="1.76751">
        <ele>2403.4</ele>
      </trkpt>
      <trkpt lat="42.63846" lon="1.76749">
        <ele>2401.5</ele>
      </trkpt>
      <trkpt lat="42.63824" lon="1.76742">
        <ele>2399.1</ele>
      </trkpt>
      <trkpt lat="42.63804" lon="1.76738">
        <ele>2394.5</ele>
      </trkpt>
      <trkpt lat="42.63796" lon="1.76735">
        <ele>2393.1</ele>
      </trkpt>
      <trkpt lat="42.63785" lon="1.76729">
        <ele>2391.8</ele>
      </trkpt>
      <trkpt lat="42.63769" lon="1.76721">
        <ele>2387.1</ele>
      </trkpt>
      <trkpt lat="42.63762" lon="1.76716">
        <ele>2384.8</ele>
      </trkpt>
      <trkpt lat="42.63753" lon="1.76709">
        <ele>2382.1</ele>
      </trkpt>
      <trkpt lat="42.63731" lon="1.76691">
        <ele>2378.7</ele>
      </trkpt>
      <trkpt lat="42.63724" lon="1.76685">
        <ele>2378.3</ele>
      </trkpt>
      <trkpt lat="42.63713" lon="1.76681">
        <ele>2376</ele>
      </trkpt>
      <trkpt lat="42.63701" lon="1.7668">
        <ele>2372.2</ele>
      </trkpt>
      <trkpt lat="42.63686" lon="1.76682">
        <ele>2367.3</ele>
      </trkpt>
      <trkpt lat="42.6368" lon="1.76685">
        <ele>2364.7</ele>
      </trkpt>
      <trkpt lat="42.6367" lon="1.76689">
        <ele>2360.7</ele>
      </trkpt>
      <trkpt lat="42.63657" lon="1.76689">
        <ele>2361.5</ele>
      </trkpt>
      <trkpt lat="42.63665" lon="1.76698">
        <ele>2355.7</ele>
      </trkpt>
      <trkpt lat="42.63668" lon="1.7671">
        <ele>2350.5</ele>
      </trkpt>
      <trkpt lat="42.63674" lon="1.76718">
        <ele>2347.9</ele>
      </trkpt>
      <trkpt lat="42.63679" lon="1.76731">
        <ele>2343</ele>
      </trkpt>
      <trkpt lat="42.63687" lon="1.76743">
        <ele>2338.6</ele>
      </trkpt>
      <trkpt lat="42.63694" lon="1.76762">
        <ele>2331.7</ele>
      </trkpt>
      <trkpt lat="42.63699" lon="1.76774">
        <ele>2329.2</ele>
      </trkpt>
      <trkpt lat="42.63716" lon="1.76806">
        <ele>2323.5</ele>
      </trkpt>
      <trkpt lat="42.63724" lon="1.76825">
        <ele>2318.5</ele>
      </trkpt>
      <trkpt lat="42.63728" lon="1.76834">
        <ele>2316.3</ele>
      </trkpt>
      <trkpt lat="42.63737" lon="1.7686">
        <ele>2308.4</ele>
      </trkpt>
      <trkpt lat="42.63742" lon="1.7688">
        <ele>2303</ele>
      </trkpt>
      <trkpt lat="42.63746" lon="1.76896">
        <ele>2298.6</ele>
      </trkpt>
      <trkpt lat="42.63757" lon="1.76918">
        <ele>2292.4</ele>
      </trkpt>
      <trkpt lat="42.63764" lon="1.7694">
        <ele>2287</ele>
      </trkpt>
      <trkpt lat="42.63767" lon="1.76953">
        <ele>2284</ele>
      </trkpt>
      <trkpt lat="42.63776" lon="1.76975">
        <ele>2277.7</ele>
      </trkpt>
      <trkpt lat="42.63782" lon="1.77">
        <ele>2272.2</ele>
      </trkpt>
      <trkpt lat="42.63787" lon="1.77017">
        <ele>2268.7</ele>
      </trkpt>
      <trkpt lat="42.6379" lon="1.77024">
        <ele>2267.3</ele>
      </trkpt>
      <trkpt lat="42.63797" lon="1.7703">
        <ele>2266.4</ele>
      </trkpt>
      <trkpt lat="42.63806" lon="1.7704">
        <ele>2265.3</ele>
      </trkpt>
      <trkpt lat="42.63808" lon="1.77046">
        <ele>2264.7</ele>
      </trkpt>
      <trkpt lat="42.63809" lon="1.77058">
        <ele>2263.2</ele>
      </trkpt>
      <trkpt lat="42.63808" lon="1.77072">
        <ele>2262.1</ele>
      </trkpt>
      <trkpt lat="42.63799" lon="1.77105">
        <ele>2258.4</ele>
      </trkpt>
      <trkpt lat="42.6379" lon="1.77129">
        <ele>2254.9</ele>
      </trkpt>
      <trkpt lat="42.6378" lon="1.77147">
        <ele>2251.9</ele>
      </trkpt>
      <trkpt lat="42.63771" lon="1.77172">
        <ele>2247.6</ele>
      </trkpt>
      <trkpt lat="42.63767" lon="1.77183">
        <ele>2245.5</ele>
      </trkpt>
      <trkpt lat="42.63761" lon="1.77194">
        <ele>2243.5</ele>
      </trkpt>
      <trkpt lat="42.63757" lon="1.77202">
        <ele>2242</ele>
      </trkpt>
      <trkpt lat="42.63741" lon="1.77225">
        <ele>2236.3</ele>
      </trkpt>
      <trkpt lat="42.63735" lon="1.77231">
        <ele>2234.6</ele>
      </trkpt>
      <trkpt lat="42.63723" lon="1.7724">
        <ele>2231.6</ele>
      </trkpt>
      <trkpt lat="42.63718" lon="1.77255">
        <ele>2227.1</ele>
      </trkpt>
      <trkpt lat="42.63717" lon="1.77261">
        <ele>2225.5</ele>
      </trkpt>
      <trkpt lat="42.63719" lon="1.77272">
        <ele>2224.4</ele>
      </trkpt>
      <trkpt lat="42.6372" lon="1.77284">
        <ele>2222.8</ele>
      </trkpt>
      <trkpt lat="42.63723" lon="1.77309">
        <ele>2219.6</ele>
      </trkpt>
      <trkpt lat="42.63724" lon="1.7733">
        <ele>2216.2</ele>
      </trkpt>
      <trkpt lat="42.63726" lon="1.77338">
        <ele>2215.3</ele>
      </trkpt>
      <trkpt lat="42.63732" lon="1.77357">
        <ele>2213.5</ele>
      </trkpt>
      <trkpt lat="42.63739" lon="1.77373">
        <ele>2212.9</ele>
      </trkpt>
      <trkpt lat="42.63738" lon="1.77389">
        <ele>2208.5</ele>
      </trkpt>
      <trkpt lat="42.63739" lon="1.77398">
        <ele>2207.5</ele>
      </trkpt>
      <trkpt lat="42.63739" lon="1.77412">
        <ele>2205.1</ele>
      </trkpt>
      <trkpt lat="42.63742" lon="1.77439">
        <ele>2201.3</ele>
      </trkpt>
      <trkpt lat="42.63747" lon="1.77471">
        <ele>2198.6</ele>
      </trkpt>
      <trkpt lat="42.63753" lon="1.77487">
        <ele>2199.2</ele>
      </trkpt>
      <trkpt lat="42.63756" lon="1.77492">
        <ele>2200.1</ele>
      </trkpt>
      <trkpt lat="42.6376" lon="1.77503">
        <ele>2200.1</ele>
      </trkpt>
      <trkpt lat="42.63766" lon="1.77531">
        <ele>2196</ele>
      </trkpt>
      <trkpt lat="42.63772" lon="1.77554">
        <ele>2191.6</ele>
      </trkpt>
      <trkpt lat="42.63775" lon="1.77562">
        <ele>2190.3</ele>
      </trkpt>
      <trkpt lat="42.63781" lon="1.77573">
        <ele>2188.4</ele>
      </trkpt>
      <trkpt lat="42.63789" lon="1.77589">
        <ele>2183.6</ele>
      </trkpt>
      <trkpt lat="42.63796" lon="1.77593">
        <ele>2182.4</ele>
      </trkpt>
      <trkpt lat="42.63803" lon="1.77596">
        <ele>2181.4</ele>
      </trkpt>
      <trkpt lat="42.63817" lon="1.77615">
        <ele>2178.5</ele>
      </trkpt>
      <trkpt lat="42.6382" lon="1.77623">
        <ele>2177.1</ele>
      </trkpt>
      <trkpt lat="42.63825" lon="1.77649">
        <ele>2171.7</ele>
      </trkpt>
      <trkpt lat="42.63829" lon="1.77673">
        <ele>2167.7</ele>
      </trkpt>
      <trkpt lat="42.6383" lon="1.77682">
        <ele>2165.7</ele>
      </trkpt>
      <trkpt lat="42.63832" lon="1.77713">
        <ele>2159.4</ele>
      </trkpt>
      <trkpt lat="42.63834" lon="1.77743">
        <ele>2155.5</ele>
      </trkpt>
      <trkpt lat="42.63832" lon="1.77757">
        <ele>2153.8</ele>
      </trkpt>
      <trkpt lat="42.63823" lon="1.77784">
        <ele>2150.5</ele>
      </trkpt>
      <trkpt lat="42.6382" lon="1.77797">
        <ele>2148.9</ele>
      </trkpt>
      <trkpt lat="42.63821" lon="1.77849">
        <ele>2146.4</ele>
      </trkpt>
      <trkpt lat="42.63827" lon="1.77872">
        <ele>2147.3</ele>
      </trkpt>
      <trkpt lat="42.63829" lon="1.77884">
        <ele>2146.6</ele>
      </trkpt>
      <trkpt lat="42.63828" lon="1.77906">
        <ele>2146</ele>
      </trkpt>
      <trkpt lat="42.63821" lon="1.77939">
        <ele>2143.1</ele>
      </trkpt>
      <trkpt lat="42.63811" lon="1.7798">
        <ele>2138.9</ele>
      </trkpt>
      <trkpt lat="42.63808" lon="1.7799">
        <ele>2137.8</ele>
      </trkpt>
      <trkpt lat="42.63791" lon="1.7802">
        <ele>2133.9</ele>
      </trkpt>
      <trkpt lat="42.6378" lon="1.78041">
        <ele>2129.2</ele>
      </trkpt>
      <trkpt lat="42.63775" lon="1.78064">
        <ele>2124.2</ele>
      </trkpt>
      <trkpt lat="42.63775" lon="1.7807">
        <ele>2123.1</ele>
      </trkpt>
      <trkpt lat="42.63773" lon="1.78079">
        <ele>2120.4</ele>
      </trkpt>
      <trkpt lat="42.63769" lon="1.78103">
        <ele>2114.7</ele>
      </trkpt>
      <trkpt lat="42.63769" lon="1.78126">
        <ele>2111.4</ele>
      </trkpt>
      <trkpt lat="42.6377" lon="1.78133">
        <ele>2110.9</ele>
      </trkpt>
      <trkpt lat="42.6377" lon="1.7814">
        <ele>2110.1</ele>
      </trkpt>
      <trkpt lat="42.63764" lon="1.78153">
        <ele>2106.6</ele>
      </trkpt>
      <trkpt lat="42.63756" lon="1.78174">
        <ele>2101.1</ele>
      </trkpt>
      <trkpt lat="42.63748" lon="1.7819">
        <ele>2095.3</ele>
      </trkpt>
      <trkpt lat="42.63739" lon="1.78201">
        <ele>2090</ele>
      </trkpt>
      <trkpt lat="42.63737" lon="1.78212">
        <ele>2088.2</ele>
      </trkpt>
      <trkpt lat="42.63735" lon="1.78235">
        <ele>2085.7</ele>
      </trkpt>
      <trkpt lat="42.63733" lon="1.78248">
        <ele>2083.7</ele>
      </trkpt>
      <trkpt lat="42.63726" lon="1.78254">
        <ele>2079.3</ele>
      </trkpt>
      <trkpt lat="42.6372" lon="1.78256">
        <ele>2075.9</ele>
      </trkpt>
      <trkpt lat="42.63711" lon="1.78262">
        <ele>2071.4</ele>
      </trkpt>
      <trkpt lat="42.63707" lon="1.78261">
        <ele>2069.4</ele>
      </trkpt>
      <trkpt lat="42.63703" lon="1.78257">
        <ele>2067.7</ele>
      </trkpt>
      <trkpt lat="42.637" lon="1.78259">
        <ele>2066.1</ele>
      </trkpt>
      <trkpt lat="42.6369" lon="1.78256">
        <ele>2063.1</ele>
      </trkpt>
      <trkpt lat="42.63686" lon="1.78257">
        <ele>2062.7</ele>
      </trkpt>
      <trkpt lat="42.63683" lon="1.78263">
        <ele>2061.7</ele>
      </trkpt>
      <trkpt lat="42.63682" lon="1.78274">
        <ele>2060.2</ele>
      </trkpt>
      <trkpt lat="42.6368" lon="1.78281">
        <ele>2059</ele>
      </trkpt>
      <trkpt lat="42.63674" lon="1.78291">
        <ele>2056.7</ele>
      </trkpt>
      <trkpt lat="42.63666" lon="1.78303">
        <ele>2053.4</ele>
      </trkpt>
      <trkpt lat="42.6366" lon="1.78318">
        <ele>2053.5</ele>
      </trkpt>
      <trkpt lat="42.63641" lon="1.78359">
        <ele>2050.4</ele>
      </trkpt>
      <trkpt lat="42.63632" lon="1.78378">
        <ele>2048.8</ele>
      </trkpt>
      <trkpt lat="42.63623" lon="1.78391">
        <ele>2046</ele>
      </trkpt>
      <trkpt lat="42.63617" lon="1.78405">
        <ele>2044.6</ele>
      </trkpt>
      <trkpt lat="42.63601" lon="1.78432">
        <ele>2038.8</ele>
      </trkpt>
      <trkpt lat="42.63588" lon="1.7845">
        <ele>2033.5</ele>
      </trkpt>
      <trkpt lat="42.63579" lon="1.78465">
        <ele>2029.8</ele>
      </trkpt>
      <trkpt lat="42.63572" lon="1.7848">
        <ele>2025.4</ele>
      </trkpt>
      <trkpt lat="42.63569" lon="1.78491">
        <ele>2022.1</ele>
      </trkpt>
      <trkpt lat="42.63568" lon="1.78498">
        <ele>2020.3</ele>
      </trkpt>
      <trkpt lat="42.63567" lon="1.78545">
        <ele>2003.3</ele>
      </trkpt>
      <trkpt lat="42.63568" lon="1.78548">
        <ele>2002.6</ele>
      </trkpt>
      <trkpt lat="42.63572" lon="1.78559">
        <ele>1999.9</ele>
      </trkpt>
      <trkpt lat="42.63572" lon="1.78564">
        <ele>1997.6</ele>
      </trkpt>
      <trkpt lat="42.63576" lon="1.78569">
        <ele>1996.7</ele>
      </trkpt>
      <trkpt lat="42.63579" lon="1.78574">
        <ele>1995.3</ele>
      </trkpt>
      <trkpt lat="42.63579" lon="1.78577">
        <ele>1993.8</ele>
      </trkpt>
      <trkpt lat="42.63575" lon="1.78577">
        <ele>1992.6</ele>
      </trkpt>
      <trkpt lat="42.6357" lon="1.78577">
        <ele>1991</ele>
      </trkpt>
      <trkpt lat="42.63563" lon="1.78576">
        <ele>1989.3</ele>
      </trkpt>
      <trkpt lat="42.63565" lon="1.78582">
        <ele>1987.3</ele>
      </trkpt>
      <trkpt lat="42.63567" lon="1.78592">
        <ele>1983.9</ele>
      </trkpt>
      <trkpt lat="42.63571" lon="1.78604">
        <ele>1980.3</ele>
      </trkpt>
      <trkpt lat="42.63567" lon="1.78605">
        <ele>1978.7</ele>
      </trkpt>
      <trkpt lat="42.63565" lon="1.78605">
        <ele>1978.1</ele>
      </trkpt>
      <trkpt lat="42.63568" lon="1.78611">
        <ele>1976.6</ele>
      </trkpt>
      <trkpt lat="42.63573" lon="1.78619">
        <ele>1974.8</ele>
      </trkpt>
      <trkpt lat="42.6357" lon="1.78621">
        <ele>1973.2</ele>
      </trkpt>
      <trkpt lat="42.63565" lon="1.78621">
        <ele>1971.9</ele>
      </trkpt>
      <trkpt lat="42.63559" lon="1.7862">
        <ele>1970.7</ele>
      </trkpt>
      <trkpt lat="42.63563" lon="1.78634">
        <ele>1966.5</ele>
      </trkpt>
      <trkpt lat="42.63567" lon="1.78648">
        <ele>1962.7</ele>
      </trkpt>
      <trkpt lat="42.63567" lon="1.78659">
        <ele>1959.4</ele>
      </trkpt>
      <trkpt lat="42.63567" lon="1.78668">
        <ele>1956.7</ele>
      </trkpt>
      <trkpt lat="42.63566" lon="1.78676">
        <ele>1954.4</ele>
      </trkpt>
      <trkpt lat="42.63564" lon="1.78691">
        <ele>1950.1</ele>
      </trkpt>
      <trkpt lat="42.63563" lon="1.78701">
        <ele>1947.7</ele>
      </trkpt>
      <trkpt lat="42.63554" lon="1.78717">
        <ele>1942.8</ele>
      </trkpt>
      <trkpt lat="42.6355" lon="1.78728">
        <ele>1939.8</ele>
      </trkpt>
      <trkpt lat="42.63547" lon="1.78744">
        <ele>1936.2</ele>
      </trkpt>
      <trkpt lat="42.63547" lon="1.78759">
        <ele>1933.8</ele>
      </trkpt>
      <trkpt lat="42.6355" lon="1.7878">
        <ele>1931.1</ele>
      </trkpt>
      <trkpt lat="42.6355" lon="1.78787">
        <ele>1930</ele>
      </trkpt>
      <trkpt lat="42.63552" lon="1.78794">
        <ele>1929.2</ele>
      </trkpt>
      <trkpt lat="42.63554" lon="1.78799">
        <ele>1928.7</ele>
      </trkpt>
      <trkpt lat="42.6356" lon="1.78805">
        <ele>1928.6</ele>
      </trkpt>
      <trkpt lat="42.63566" lon="1.78823">
        <ele>1926.5</ele>
      </trkpt>
      <trkpt lat="42.63574" lon="1.78836">
        <ele>1925.9</ele>
      </trkpt>
      <trkpt lat="42.63594" lon="1.78865">
        <ele>1925.5</ele>
      </trkpt>
      <trkpt lat="42.63604" lon="1.78888">
        <ele>1924.8</ele>
      </trkpt>
      <trkpt lat="42.63621" lon="1.78908">
        <ele>1923.4</ele>
      </trkpt>
      <trkpt lat="42.63629" lon="1.78919">
        <ele>1922.6</ele>
      </trkpt>
      <trkpt lat="42.63635" lon="1.78943">
        <ele>1918.6</ele>
      </trkpt>
      <trkpt lat="42.63634" lon="1.78956">
        <ele>1916.5</ele>
      </trkpt>
      <trkpt lat="42.63636" lon="1.7897">
        <ele>1915.8</ele>
      </trkpt>
      <trkpt lat="42.63643" lon="1.79006">
        <ele>1911.9</ele>
      </trkpt>
      <trkpt lat="42.63644" lon="1.79009">
        <ele>1911.2</ele>
      </trkpt>
      <trkpt lat="42.63647" lon="1.79016">
        <ele>1909.7</ele>
      </trkpt>
      <trkpt lat="42.63654" lon="1.79024">
        <ele>1908.7</ele>
      </trkpt>
      <trkpt lat="42.63659" lon="1.79039">
        <ele>1905.7</ele>
      </trkpt>
      <trkpt lat="42.63665" lon="1.7905">
        <ele>1904.1</ele>
      </trkpt>
      <trkpt lat="42.63678" lon="1.79064">
        <ele>1903.4</ele>
      </trkpt>
      <trkpt lat="42.63689" lon="1.79082">
        <ele>1901</ele>
      </trkpt>
      <trkpt lat="42.63695" lon="1.79091">
        <ele>1899.1</ele>
      </trkpt>
      <trkpt lat="42.63697" lon="1.79095">
        <ele>1897.9</ele>
      </trkpt>
      <trkpt lat="42.637" lon="1.79105">
        <ele>1894.6</ele>
      </trkpt>
      <trkpt lat="42.637" lon="1.79116">
        <ele>1890.1</ele>
      </trkpt>
      <trkpt lat="42.63702" lon="1.79127">
        <ele>1885.8</ele>
      </trkpt>
      <trkpt lat="42.63691" lon="1.79158">
        <ele>1871.5</ele>
      </trkpt>
      <trkpt lat="42.63691" lon="1.79165">
        <ele>1869.5</ele>
      </trkpt>
      <trkpt lat="42.63692" lon="1.79171">
        <ele>1868.6</ele>
      </trkpt>
      <trkpt lat="42.63695" lon="1.79176">
        <ele>1868.6</ele>
      </trkpt>
      <trkpt lat="42.63705" lon="1.79184">
        <ele>1866.3</ele>
      </trkpt>
      <trkpt lat="42.6371" lon="1.79187">
        <ele>1865.2</ele>
      </trkpt>
      <trkpt lat="42.63723" lon="1.79204">
        <ele>1858.3</ele>
      </trkpt>
      <trkpt lat="42.63727" lon="1.79209">
        <ele>1856.4</ele>
      </trkpt>
      <trkpt lat="42.63736" lon="1.79221">
        <ele>1851.5</ele>
      </trkpt>
      <trkpt lat="42.63745" lon="1.79234">
        <ele>1844.6</ele>
      </trkpt>
      <trkpt lat="42.63749" lon="1.79239">
        <ele>1841.9</ele>
      </trkpt>
      <trkpt lat="42.63756" lon="1.79242">
        <ele>1841.1</ele>
      </trkpt>
      <trkpt lat="42.63761" lon="1.79242">
        <ele>1841.7</ele>
      </trkpt>
      <trkpt lat="42.63764" lon="1.79244">
        <ele>1841</ele>
      </trkpt>
      <trkpt lat="42.63763" lon="1.79251">
        <ele>1837.3</ele>
      </trkpt>
      <trkpt lat="42.63769" lon="1.79253">
        <ele>1837</ele>
      </trkpt>
      <trkpt lat="42.63778" lon="1.79255">
        <ele>1836.9</ele>
      </trkpt>
      <trkpt lat="42.63776" lon="1.79265">
        <ele>1830.7</ele>
      </trkpt>
      <trkpt lat="42.63781" lon="1.79268">
        <ele>1829.2</ele>
      </trkpt>
      <trkpt lat="42.63791" lon="1.79275">
        <ele>1825.6</ele>
      </trkpt>
      <trkpt lat="42.63796" lon="1.79279">
        <ele>1823.6</ele>
      </trkpt>
      <trkpt lat="42.63799" lon="1.79282">
        <ele>1822</ele>
      </trkpt>
      <trkpt lat="42.63793" lon="1.79284">
        <ele>1820.4</ele>
      </trkpt>
      <trkpt lat="42.63774" lon="1.79294">
        <ele>1813.8</ele>
      </trkpt>
      <trkpt lat="42.6376" lon="1.79307">
        <ele>1807.7</ele>
      </trkpt>
      <trkpt lat="42.63755" lon="1.79313">
        <ele>1805.6</ele>
      </trkpt>
      <trkpt lat="42.63752" lon="1.79319">
        <ele>1803.5</ele>
      </trkpt>
      <trkpt lat="42.63751" lon="1.7933">
        <ele>1799.2</ele>
      </trkpt>
      <trkpt lat="42.63756" lon="1.79341">
        <ele>1793.5</ele>
      </trkpt>
      <trkpt lat="42.63757" lon="1.79342">
        <ele>1792.9</ele>
      </trkpt>
      <trkpt lat="42.63765" lon="1.7934">
        <ele>1792.6</ele>
      </trkpt>
      <trkpt lat="42.6377" lon="1.79342">
        <ele>1790.8</ele>
      </trkpt>
      <trkpt lat="42.63789" lon="1.79365">
        <ele>1777.4</ele>
      </trkpt>
      <trkpt lat="42.63797" lon="1.79376">
        <ele>1771.7</ele>
      </trkpt>
      <trkpt lat="42.63799" lon="1.7938">
        <ele>1769.8</ele>
      </trkpt>
      <trkpt lat="42.63801" lon="1.79385">
        <ele>1767.4</ele>
      </trkpt>
      <trkpt lat="42.63801" lon="1.79386">
        <ele>1766.9</ele>
      </trkpt>
      <trkpt lat="42.638" lon="1.79386">
        <ele>1766.8</ele>
      </trkpt>
      <trkpt lat="42.63796" lon="1.79386">
        <ele>1766.5</ele>
      </trkpt>
      <trkpt lat="42.63789" lon="1.79388">
        <ele>1764.7</ele>
      </trkpt>
      <trkpt lat="42.63786" lon="1.7939">
        <ele>1763.3</ele>
      </trkpt>
      <trkpt lat="42.63785" lon="1.79391">
        <ele>1762.7</ele>
      </trkpt>
      <trkpt lat="42.63787" lon="1.79394">
        <ele>1761.4</ele>
      </trkpt>
      <trkpt lat="42.63789" lon="1.79397">
        <ele>1760.1</ele>
      </trkpt>
      <trkpt lat="42.63791" lon="1.79399">
        <ele>1759.3</ele>
      </trkpt>
      <trkpt lat="42.63792" lon="1.79402">
        <ele>1757.9</ele>
      </trkpt>
      <trkpt lat="42.63795" lon="1.79407">
        <ele>1755.9</ele>
      </trkpt>
      <trkpt lat="42.63797" lon="1.79408">
        <ele>1755.7</ele>
      </trkpt>
      <trkpt lat="42.63801" lon="1.79411">
        <ele>1754.9</ele>
      </trkpt>
      <trkpt lat="42.63801" lon="1.79412">
        <ele>1754.4</ele>
      </trkpt>
      <trkpt lat="42.63801" lon="1.79413">
        <ele>1753.9</ele>
      </trkpt>
      <trkpt lat="42.63794" lon="1.79415">
        <ele>1751.7</ele>
      </trkpt>
      <trkpt lat="42.63786" lon="1.79417">
        <ele>1749.3</ele>
      </trkpt>
      <trkpt lat="42.63781" lon="1.79418">
        <ele>1748</ele>
      </trkpt>
      <trkpt lat="42.63774" lon="1.79418">
        <ele>1746.3</ele>
      </trkpt>
      <trkpt lat="42.63773" lon="1.79419">
        <ele>1745.6</ele>
      </trkpt>
      <trkpt lat="42.63777" lon="1.79426">
        <ele>1743.7</ele>
      </trkpt>
      <trkpt lat="42.63783" lon="1.7944">
        <ele>1738.7</ele>
      </trkpt>
      <trkpt lat="42.63792" lon="1.79457">
        <ele>1731.7</ele>
      </trkpt>
      <trkpt lat="42.63795" lon="1.7946">
        <ele>1730.5</ele>
      </trkpt>
      <trkpt lat="42.63794" lon="1.79461">
        <ele>1729.9</ele>
      </trkpt>
      <trkpt lat="42.63792" lon="1.79461">
        <ele>1729.7</ele>
      </trkpt>
      <trkpt lat="42.63788" lon="1.79462">
        <ele>1728.8</ele>
      </trkpt>
      <trkpt lat="42.63783" lon="1.79462">
        <ele>1728.3</ele>
      </trkpt>
      <trkpt lat="42.63772" lon="1.79462">
        <ele>1726.2</ele>
      </trkpt>
      <trkpt lat="42.63767" lon="1.79463">
        <ele>1724.3</ele>
      </trkpt>
      <trkpt lat="42.6376" lon="1.79462">
        <ele>1722.8</ele>
      </trkpt>
      <trkpt lat="42.63754" lon="1.79462">
        <ele>1721.2</ele>
      </trkpt>
      <trkpt lat="42.63753" lon="1.79462">
        <ele>1720.9</ele>
      </trkpt>
      <trkpt lat="42.63755" lon="1.79468">
        <ele>1719</ele>
      </trkpt>
      <trkpt lat="42.63757" lon="1.79476">
        <ele>1716.2</ele>
      </trkpt>
      <trkpt lat="42.6376" lon="1.79486">
        <ele>1712.7</ele>
      </trkpt>
      <trkpt lat="42.63763" lon="1.79497">
        <ele>1708.6</ele>
      </trkpt>
      <trkpt lat="42.63766" lon="1.79501">
        <ele>1707.5</ele>
      </trkpt>
      <trkpt lat="42.63767" lon="1.79505">
        <ele>1706.3</ele>
      </trkpt>
      <trkpt lat="42.6377" lon="1.79511">
        <ele>1704.6</ele>
      </trkpt>
      <trkpt lat="42.63772" lon="1.79516">
        <ele>1703.2</ele>
      </trkpt>
      <trkpt lat="42.63777" lon="1.79524">
        <ele>1701.2</ele>
      </trkpt>
      <trkpt lat="42.63784" lon="1.79536">
        <ele>1697.3</ele>
      </trkpt>
      <trkpt lat="42.63792" lon="1.79544">
        <ele>1694.7</ele>
      </trkpt>
      <trkpt lat="42.63798" lon="1.7955">
        <ele>1692.7</ele>
      </trkpt>
      <trkpt lat="42.638" lon="1.79552">
        <ele>1692.1</ele>
      </trkpt>
      <trkpt lat="42.63804" lon="1.79556">
        <ele>1690.8</ele>
      </trkpt>
      <trkpt lat="42.63812" lon="1.79565">
        <ele>1687.8</ele>
      </trkpt>
      <trkpt lat="42.63818" lon="1.79568">
        <ele>1686.8</ele>
      </trkpt>
      <trkpt lat="42.63821" lon="1.79572">
        <ele>1685.3</ele>
      </trkpt>
      <trkpt lat="42.63824" lon="1.79575">
        <ele>1684.2</ele>
      </trkpt>
      <trkpt lat="42.63827" lon="1.79576">
        <ele>1683.8</ele>
      </trkpt>
      <trkpt lat="42.63827" lon="1.79577">
        <ele>1683.5</ele>
      </trkpt>
      <trkpt lat="42.63825" lon="1.7958">
        <ele>1682.3</ele>
      </trkpt>
      <trkpt lat="42.63821" lon="1.79583">
        <ele>1681.1</ele>
      </trkpt>
      <trkpt lat="42.6382" lon="1.79584">
        <ele>1680.8</ele>
      </trkpt>
      <trkpt lat="42.63821" lon="1.79586">
        <ele>1680.1</ele>
      </trkpt>
      <trkpt lat="42.63823" lon="1.79588">
        <ele>1679.4</ele>
      </trkpt>
      <trkpt lat="42.63828" lon="1.79593">
        <ele>1677.6</ele>
      </trkpt>
      <trkpt lat="42.63828" lon="1.79595">
        <ele>1676.9</ele>
      </trkpt>
      <trkpt lat="42.63824" lon="1.79599">
        <ele>1675.5</ele>
      </trkpt>
      <trkpt lat="42.6382" lon="1.79602">
        <ele>1674.6</ele>
      </trkpt>
      <trkpt lat="42.63818" lon="1.79603">
        <ele>1674.3</ele>
      </trkpt>
      <trkpt lat="42.63819" lon="1.79605">
        <ele>1673.6</ele>
      </trkpt>
      <trkpt lat="42.63825" lon="1.7961">
        <ele>1671.7</ele>
      </trkpt>
      <trkpt lat="42.63827" lon="1.79614">
        <ele>1670.6</ele>
        <extensions>
          <visugpx:TrkExtension xmlns:visugpx="https://www.visugpx.com/editgpx/">
            <visugpx:node>2</visugpx:node>
            </visugpx:TrkExtension>
        </extensions>
      </trkpt>
      <trkpt lat="42.63827" lon="1.79614">
        <ele>1670.6</ele>
      </trkpt>
      <trkpt lat="42.63827" lon="1.79619">
        <ele>1669.5</ele>
      </trkpt>
      <trkpt lat="42.63825" lon="1.79621">
        <ele>1669.1</ele>
      </trkpt>
      <trkpt lat="42.63813" lon="1.79631">
        <ele>1666.9</ele>
      </trkpt>
      <trkpt lat="42.63816" lon="1.79637">
        <ele>1665.5</ele>
      </trkpt>
      <trkpt lat="42.63818" lon="1.79646">
        <ele>1663.6</ele>
      </trkpt>
      <trkpt lat="42.63821" lon="1.79658">
        <ele>1661.3</ele>
      </trkpt>
      <trkpt lat="42.63822" lon="1.7966">
        <ele>1660.9</ele>
      </trkpt>
      <trkpt lat="42.63828" lon="1.79681">
        <ele>1658.2</ele>
      </trkpt>
      <trkpt lat="42.6383" lon="1.79688">
        <ele>1657.5</ele>
      </trkpt>
      <trkpt lat="42.63832" lon="1.79692">
        <ele>1657.2</ele>
      </trkpt>
      <trkpt lat="42.63834" lon="1.79695">
        <ele>1657.1</ele>
      </trkpt>
      <trkpt lat="42.63836" lon="1.79708">
        <ele>1656.5</ele>
      </trkpt>
      <trkpt lat="42.63842" lon="1.79725">
        <ele>1656.3</ele>
      </trkpt>
      <trkpt lat="42.63849" lon="1.79739">
        <ele>1656.3</ele>
      </trkpt>
      <trkpt lat="42.63856" lon="1.79752">
        <ele>1656.1</ele>
      </trkpt>
      <trkpt lat="42.63872" lon="1.79773">
        <ele>1656.7</ele>
      </trkpt>
      <trkpt lat="42.63878" lon="1.79783">
        <ele>1656.3</ele>
      </trkpt>
      <trkpt lat="42.63882" lon="1.79788">
        <ele>1656.2</ele>
      </trkpt>
      <trkpt lat="42.63888" lon="1.79795">
        <ele>1656.1</ele>
      </trkpt>
      <trkpt lat="42.63892" lon="1.79801">
        <ele>1656.1</ele>
      </trkpt>
      <trkpt lat="42.63897" lon="1.79809">
        <ele>1656.1</ele>
      </trkpt>
      <trkpt lat="42.63901" lon="1.79817">
        <ele>1655.9</ele>
      </trkpt>
      <trkpt lat="42.63905" lon="1.79825">
        <ele>1655.8</ele>
      </trkpt>
      <trkpt lat="42.6391" lon="1.79833">
        <ele>1655.8</ele>
      </trkpt>
      <trkpt lat="42.63916" lon="1.79841">
        <ele>1656.1</ele>
      </trkpt>
      <trkpt lat="42.63922" lon="1.79849">
        <ele>1655.9</ele>
      </trkpt>
      <trkpt lat="42.6393" lon="1.79857">
        <ele>1655.9</ele>
      </trkpt>
      <trkpt lat="42.63939" lon="1.79864">
        <ele>1656.1</ele>
      </trkpt>
      <trkpt lat="42.6395" lon="1.79873">
        <ele>1655.6</ele>
      </trkpt>
      <trkpt lat="42.63957" lon="1.79878">
        <ele>1655.2</ele>
      </trkpt>
      <trkpt lat="42.63966" lon="1.79884">
        <ele>1654.6</ele>
      </trkpt>
      <trkpt lat="42.63974" lon="1.79889">
        <ele>1654.1</ele>
      </trkpt>
      <trkpt lat="42.63981" lon="1.79893">
        <ele>1654.3</ele>
      </trkpt>
      <trkpt lat="42.63988" lon="1.79896">
        <ele>1654.4</ele>
      </trkpt>
      <trkpt lat="42.63994" lon="1.79899">
        <ele>1654.3</ele>
      </trkpt>
      <trkpt lat="42.63999" lon="1.79901">
        <ele>1654.2</ele>
      </trkpt>
      <trkpt lat="42.64003" lon="1.79902">
        <ele>1654.6</ele>
      </trkpt>
      <trkpt lat="42.64009" lon="1.79903">
        <ele>1655.4</ele>
      </trkpt>
      <trkpt lat="42.64013" lon="1.79904">
        <ele>1655.9</ele>
      </trkpt>
      <trkpt lat="42.64016" lon="1.79906">
        <ele>1655.9</ele>
      </trkpt>
      <trkpt lat="42.64019" lon="1.79907">
        <ele>1656.2</ele>
      </trkpt>
      <trkpt lat="42.64022" lon="1.79911">
        <ele>1655.7</ele>
      </trkpt>
      <trkpt lat="42.64024" lon="1.79915">
        <ele>1655</ele>
      </trkpt>
      <trkpt lat="42.64026" lon="1.7992">
        <ele>1654.5</ele>
      </trkpt>
      <trkpt lat="42.64028" lon="1.79925">
        <ele>1654.2</ele>
      </trkpt>
      <trkpt lat="42.64028" lon="1.79931">
        <ele>1653.5</ele>
      </trkpt>
      <trkpt lat="42.64028" lon="1.79935">
        <ele>1653.1</ele>
      </trkpt>
      <trkpt lat="42.64031" lon="1.7994">
        <ele>1653.4</ele>
      </trkpt>
      <trkpt lat="42.64035" lon="1.79943">
        <ele>1654.1</ele>
      </trkpt>
      <trkpt lat="42.6404" lon="1.79948">
        <ele>1654.7</ele>
      </trkpt>
      <trkpt lat="42.64044" lon="1.79953">
        <ele>1655</ele>
      </trkpt>
      <trkpt lat="42.64049" lon="1.7996">
        <ele>1654.8</ele>
      </trkpt>
      <trkpt lat="42.64056" lon="1.7997">
        <ele>1653.6</ele>
      </trkpt>
      <trkpt lat="42.64062" lon="1.79976">
        <ele>1654.6</ele>
      </trkpt>
      <trkpt lat="42.64065" lon="1.79981">
        <ele>1654.9</ele>
      </trkpt>
      <trkpt lat="42.64069" lon="1.79985">
        <ele>1655.3</ele>
      </trkpt>
      <trkpt lat="42.64072" lon="1.79988">
        <ele>1655.5</ele>
      </trkpt>
      <trkpt lat="42.64075" lon="1.79992">
        <ele>1655.4</ele>
      </trkpt>
      <trkpt lat="42.64079" lon="1.8">
        <ele>1654.5</ele>
      </trkpt>
      <trkpt lat="42.64082" lon="1.80007">
        <ele>1653.9</ele>
      </trkpt>
      <trkpt lat="42.64085" lon="1.80013">
        <ele>1653.5</ele>
      </trkpt>
      <trkpt lat="42.64088" lon="1.80018">
        <ele>1653.3</ele>
      </trkpt>
      <trkpt lat="42.64092" lon="1.80021">
        <ele>1653.5</ele>
      </trkpt>
      <trkpt lat="42.64095" lon="1.80023">
        <ele>1653.6</ele>
      </trkpt>
      <trkpt lat="42.64099" lon="1.80027">
        <ele>1653.4</ele>
      </trkpt>
      <trkpt lat="42.64101" lon="1.80031">
        <ele>1652.7</ele>
      </trkpt>
      <trkpt lat="42.64103" lon="1.80036">
        <ele>1651.6</ele>
      </trkpt>
      <trkpt lat="42.64104" lon="1.80041">
        <ele>1650.4</ele>
      </trkpt>
      <trkpt lat="42.64105" lon="1.80046">
        <ele>1649.2</ele>
      </trkpt>
      <trkpt lat="42.64108" lon="1.80051">
        <ele>1648.1</ele>
      </trkpt>
      <trkpt lat="42.64111" lon="1.80054">
        <ele>1647.4</ele>
      </trkpt>
      <trkpt lat="42.64115" lon="1.80056">
        <ele>1646.8</ele>
      </trkpt>
      <trkpt lat="42.64119" lon="1.80057">
        <ele>1646.5</ele>
      </trkpt>
      <trkpt lat="42.64124" lon="1.8006">
        <ele>1645.6</ele>
      </trkpt>
      <trkpt lat="42.64129" lon="1.80064">
        <ele>1644.5</ele>
      </trkpt>
      <trkpt lat="42.64133" lon="1.80066">
        <ele>1644.1</ele>
      </trkpt>
      <trkpt lat="42.64137" lon="1.80069">
        <ele>1643.5</ele>
      </trkpt>
      <trkpt lat="42.6414" lon="1.80069">
        <ele>1643.5</ele>
      </trkpt>
      <trkpt lat="42.64144" lon="1.80068">
        <ele>1643.5</ele>
      </trkpt>
      <trkpt lat="42.64148" lon="1.80068">
        <ele>1643.2</ele>
      </trkpt>
      <trkpt lat="42.64151" lon="1.8007">
        <ele>1642.5</ele>
      </trkpt>
      <trkpt lat="42.64153" lon="1.80073">
        <ele>1641.6</ele>
      </trkpt>
      <trkpt lat="42.64156" lon="1.80076">
        <ele>1640.6</ele>
      </trkpt>
      <trkpt lat="42.64159" lon="1.80079">
        <ele>1639.6</ele>
      </trkpt>
      <trkpt lat="42.64161" lon="1.80083">
        <ele>1638.5</ele>
      </trkpt>
      <trkpt lat="42.6416" lon="1.80086">
        <ele>1637.8</ele>
      </trkpt>
      <trkpt lat="42.6416" lon="1.8009">
        <ele>1636.7</ele>
      </trkpt>
      <trkpt lat="42.64163" lon="1.80094">
        <ele>1635.5</ele>
      </trkpt>
      <trkpt lat="42.64169" lon="1.80098">
        <ele>1634.5</ele>
      </trkpt>
      <trkpt lat="42.64173" lon="1.80101">
        <ele>1634</ele>
      </trkpt>
      <trkpt lat="42.64177" lon="1.80103">
        <ele>1633.8</ele>
      </trkpt>
      <trkpt lat="42.64181" lon="1.80106">
        <ele>1633.3</ele>
      </trkpt>
      <trkpt lat="42.64184" lon="1.80109">
        <ele>1632.8</ele>
      </trkpt>
      <trkpt lat="42.64187" lon="1.80115">
        <ele>1631.7</ele>
      </trkpt>
      <trkpt lat="42.64187" lon="1.8012">
        <ele>1630.6</ele>
      </trkpt>
      <trkpt lat="42.64189" lon="1.80127">
        <ele>1629.3</ele>
      </trkpt>
      <trkpt lat="42.64192" lon="1.80136">
        <ele>1627.5</ele>
      </trkpt>
      <trkpt lat="42.64196" lon="1.80143">
        <ele>1626.5</ele>
      </trkpt>
      <trkpt lat="42.64198" lon="1.80148">
        <ele>1625.8</ele>
      </trkpt>
      <trkpt lat="42.64199" lon="1.80155">
        <ele>1624.6</ele>
      </trkpt>
      <trkpt lat="42.64199" lon="1.80161">
        <ele>1623.4</ele>
      </trkpt>
      <trkpt lat="42.642" lon="1.80167">
        <ele>1622.3</ele>
      </trkpt>
      <trkpt lat="42.64201" lon="1.80175">
        <ele>1620.9</ele>
      </trkpt>
      <trkpt lat="42.64203" lon="1.80181">
        <ele>1619.9</ele>
      </trkpt>
      <trkpt lat="42.64206" lon="1.80186">
        <ele>1619.1</ele>
      </trkpt>
      <trkpt lat="42.6421" lon="1.8019">
        <ele>1618.4</ele>
      </trkpt>
      <trkpt lat="42.64215" lon="1.80192">
        <ele>1618.2</ele>
      </trkpt>
      <trkpt lat="42.64219" lon="1.80195">
        <ele>1617.8</ele>
      </trkpt>
      <trkpt lat="42.64223" lon="1.80197">
        <ele>1617.6</ele>
      </trkpt>
      <trkpt lat="42.64228" lon="1.80201">
        <ele>1617.1</ele>
      </trkpt>
      <trkpt lat="42.64231" lon="1.80205">
        <ele>1616.4</ele>
      </trkpt>
      <trkpt lat="42.64234" lon="1.80211">
        <ele>1615.1</ele>
      </trkpt>
      <trkpt lat="42.64236" lon="1.80217">
        <ele>1613.7</ele>
      </trkpt>
      <trkpt lat="42.64237" lon="1.80222">
        <ele>1612.5</ele>
      </trkpt>
      <trkpt lat="42.64239" lon="1.80227">
        <ele>1611.8</ele>
      </trkpt>
      <trkpt lat="42.64245" lon="1.8024">
        <ele>1609.7</ele>
      </trkpt>
      <trkpt lat="42.64248" lon="1.80244">
        <ele>1609</ele>
      </trkpt>
      <trkpt lat="42.64251" lon="1.80244">
        <ele>1608.9</ele>
      </trkpt>
      <trkpt lat="42.64254" lon="1.80245">
        <ele>1608.8</ele>
      </trkpt>
      <trkpt lat="42.64257" lon="1.80248">
        <ele>1608.3</ele>
      </trkpt>
      <trkpt lat="42.6426" lon="1.80253">
        <ele>1607.3</ele>
      </trkpt>
      <trkpt lat="42.64264" lon="1.80257">
        <ele>1606.4</ele>
      </trkpt>
      <trkpt lat="42.64268" lon="1.8026">
        <ele>1605.6</ele>
      </trkpt>
      <trkpt lat="42.64273" lon="1.80264">
        <ele>1604.6</ele>
      </trkpt>
      <trkpt lat="42.64277" lon="1.80268">
        <ele>1603.5</ele>
      </trkpt>
      <trkpt lat="42.64288" lon="1.80277">
        <ele>1600.5</ele>
      </trkpt>
      <trkpt lat="42.64294" lon="1.80282">
        <ele>1599.2</ele>
      </trkpt>
      <trkpt lat="42.64297" lon="1.80288">
        <ele>1598.1</ele>
      </trkpt>
      <trkpt lat="42.64301" lon="1.80296">
        <ele>1596.7</ele>
      </trkpt>
      <trkpt lat="42.64307" lon="1.803">
        <ele>1595.9</ele>
      </trkpt>
      <trkpt lat="42.64311" lon="1.80304">
        <ele>1595.6</ele>
      </trkpt>
      <trkpt lat="42.64316" lon="1.80306">
        <ele>1595.7</ele>
      </trkpt>
      <trkpt lat="42.6432" lon="1.80307">
        <ele>1596</ele>
      </trkpt>
      <trkpt lat="42.64324" lon="1.80309">
        <ele>1596.1</ele>
      </trkpt>
      <trkpt lat="42.6433" lon="1.80313">
        <ele>1596.1</ele>
      </trkpt>
      <trkpt lat="42.64335" lon="1.80318">
        <ele>1595.9</ele>
      </trkpt>
      <trkpt lat="42.64341" lon="1.80325">
        <ele>1596.1</ele>
      </trkpt>
      <trkpt lat="42.64346" lon="1.80332">
        <ele>1596</ele>
      </trkpt>
      <trkpt lat="42.64351" lon="1.80337">
        <ele>1596.1</ele>
      </trkpt>
      <trkpt lat="42.64356" lon="1.80343">
        <ele>1595.8</ele>
      </trkpt>
      <trkpt lat="42.64363" lon="1.8035">
        <ele>1595.1</ele>
      </trkpt>
      <trkpt lat="42.64366" lon="1.80357">
        <ele>1594</ele>
      </trkpt>
      <trkpt lat="42.64374" lon="1.80367">
        <ele>1591.8</ele>
      </trkpt>
      <trkpt lat="42.64384" lon="1.80381">
        <ele>1588.6</ele>
      </trkpt>
      <trkpt lat="42.64388" lon="1.8039">
        <ele>1586.6</ele>
      </trkpt>
      <trkpt lat="42.64393" lon="1.80401">
        <ele>1583.7</ele>
      </trkpt>
      <trkpt lat="42.64396" lon="1.80405">
        <ele>1582.7</ele>
      </trkpt>
      <trkpt lat="42.64399" lon="1.80407">
        <ele>1582.3</ele>
      </trkpt>
      <trkpt lat="42.64404" lon="1.80405">
        <ele>1583.1</ele>
      </trkpt>
      <trkpt lat="42.64408" lon="1.80406">
        <ele>1583</ele>
      </trkpt>
      <trkpt lat="42.64411" lon="1.80414">
        <ele>1580.6</ele>
      </trkpt>
      <trkpt lat="42.64415" lon="1.80428">
        <ele>1576.7</ele>
      </trkpt>
      <trkpt lat="42.64418" lon="1.8044">
        <ele>1573.5</ele>
      </trkpt>
      <trkpt lat="42.64422" lon="1.80451">
        <ele>1571.3</ele>
      </trkpt>
      <trkpt lat="42.64424" lon="1.80462">
        <ele>1568.7</ele>
      </trkpt>
      <trkpt lat="42.64428" lon="1.80471">
        <ele>1567</ele>
      </trkpt>
      <trkpt lat="42.64433" lon="1.8048">
        <ele>1565.3</ele>
      </trkpt>
      <trkpt lat="42.64438" lon="1.80488">
        <ele>1563.8</ele>
      </trkpt>
      <trkpt lat="42.64441" lon="1.80495">
        <ele>1562.1</ele>
      </trkpt>
      <trkpt lat="42.64446" lon="1.80502">
        <ele>1561.2</ele>
      </trkpt>
      <trkpt lat="42.6445" lon="1.8051">
        <ele>1561</ele>
      </trkpt>
      <trkpt lat="42.64453" lon="1.80518">
        <ele>1560.5</ele>
      </trkpt>
      <trkpt lat="42.64456" lon="1.80526">
        <ele>1559.8</ele>
      </trkpt>
      <trkpt lat="42.64458" lon="1.80538">
        <ele>1559.2</ele>
      </trkpt>
      <trkpt lat="42.6446" lon="1.80547">
        <ele>1559</ele>
      </trkpt>
      <trkpt lat="42.64461" lon="1.80557">
        <ele>1558.4</ele>
      </trkpt>
      <trkpt lat="42.64463" lon="1.80567">
        <ele>1557.5</ele>
      </trkpt>
      <trkpt lat="42.64464" lon="1.80575">
        <ele>1556.6</ele>
      </trkpt>
      <trkpt lat="42.64466" lon="1.80583">
        <ele>1555.6</ele>
      </trkpt>
      <trkpt lat="42.64469" lon="1.80588">
        <ele>1554.8</ele>
      </trkpt>
      <trkpt lat="42.64473" lon="1.80593">
        <ele>1554.1</ele>
      </trkpt>
      <trkpt lat="42.64476" lon="1.80596">
        <ele>1554</ele>
      </trkpt>
      <trkpt lat="42.6448" lon="1.80598">
        <ele>1554.3</ele>
      </trkpt>
      <trkpt lat="42.64489" lon="1.80603">
        <ele>1554.7</ele>
      </trkpt>
      <trkpt lat="42.64495" lon="1.80607">
        <ele>1554.5</ele>
      </trkpt>
      <trkpt lat="42.645" lon="1.80613">
        <ele>1553.8</ele>
      </trkpt>
      <trkpt lat="42.64507" lon="1.80621">
        <ele>1555</ele>
      </trkpt>
      <trkpt lat="42.64512" lon="1.80627">
        <ele>1555.7</ele>
      </trkpt>
      <trkpt lat="42.64516" lon="1.80634">
        <ele>1555.8</ele>
      </trkpt>
      <trkpt lat="42.64519" lon="1.80643">
        <ele>1555.2</ele>
      </trkpt>
      <trkpt lat="42.64521" lon="1.80649">
        <ele>1554.7</ele>
      </trkpt>
      <trkpt lat="42.64524" lon="1.80667">
        <ele>1552.4</ele>
      </trkpt>
      <trkpt lat="42.64526" lon="1.80678">
        <ele>1551.5</ele>
      </trkpt>
      <trkpt lat="42.64528" lon="1.8069">
        <ele>1550.5</ele>
      </trkpt>
      <trkpt lat="42.6453" lon="1.80701">
        <ele>1550</ele>
      </trkpt>
      <trkpt lat="42.64533" lon="1.80711">
        <ele>1549.6</ele>
      </trkpt>
      <trkpt lat="42.64537" lon="1.8072">
        <ele>1549.2</ele>
      </trkpt>
      <trkpt lat="42.64539" lon="1.80728">
        <ele>1548.4</ele>
      </trkpt>
      <trkpt lat="42.6454" lon="1.80737">
        <ele>1547.3</ele>
      </trkpt>
      <trkpt lat="42.64542" lon="1.80745">
        <ele>1546.2</ele>
      </trkpt>
      <trkpt lat="42.64546" lon="1.80753">
        <ele>1545.4</ele>
      </trkpt>
      <trkpt lat="42.64551" lon="1.80761">
        <ele>1544.8</ele>
      </trkpt>
      <trkpt lat="42.64557" lon="1.80767">
        <ele>1544.4</ele>
      </trkpt>
      <trkpt lat="42.64563" lon="1.80773">
        <ele>1544.6</ele>
      </trkpt>
      <trkpt lat="42.64568" lon="1.80778">
        <ele>1544.8</ele>
      </trkpt>
      <trkpt lat="42.64573" lon="1.80782">
        <ele>1544.9</ele>
      </trkpt>
      <trkpt lat="42.64579" lon="1.80787">
        <ele>1544.9</ele>
      </trkpt>
      <trkpt lat="42.64584" lon="1.80792">
        <ele>1544.7</ele>
      </trkpt>
      <trkpt lat="42.64589" lon="1.80798">
        <ele>1545.3</ele>
      </trkpt>
      <trkpt lat="42.64593" lon="1.80805">
        <ele>1545.2</ele>
      </trkpt>
      <trkpt lat="42.64597" lon="1.80811">
        <ele>1545.3</ele>
      </trkpt>
      <trkpt lat="42.646" lon="1.80815">
        <ele>1545.2</ele>
      </trkpt>
      <trkpt lat="42.64603" lon="1.80819">
        <ele>1544.9</ele>
      </trkpt>
      <trkpt lat="42.64606" lon="1.80823">
        <ele>1544.4</ele>
      </trkpt>
      <trkpt lat="42.64608" lon="1.80837">
        <ele>1541.1</ele>
      </trkpt>
      <trkpt lat="42.64608" lon="1.80845">
        <ele>1539.8</ele>
      </trkpt>
      <trkpt lat="42.64609" lon="1.80852">
        <ele>1538.6</ele>
      </trkpt>
      <trkpt lat="42.64611" lon="1.80858">
        <ele>1537.6</ele>
      </trkpt>
      <trkpt lat="42.64615" lon="1.80863">
        <ele>1537.9</ele>
      </trkpt>
      <trkpt lat="42.64618" lon="1.80867">
        <ele>1538.3</ele>
      </trkpt>
      <trkpt lat="42.64621" lon="1.80873">
        <ele>1538.4</ele>
      </trkpt>
      <trkpt lat="42.64623" lon="1.80878">
        <ele>1538.2</ele>
      </trkpt>
      <trkpt lat="42.64626" lon="1.80882">
        <ele>1538.2</ele>
      </trkpt>
      <trkpt lat="42.6463" lon="1.80885">
        <ele>1538.4</ele>
      </trkpt>
      <trkpt lat="42.64636" lon="1.80889">
        <ele>1538.6</ele>
      </trkpt>
      <trkpt lat="42.64641" lon="1.80892">
        <ele>1539.6</ele>
      </trkpt>
      <trkpt lat="42.64646" lon="1.80898">
        <ele>1540.9</ele>
      </trkpt>
      <trkpt lat="42.64651" lon="1.80903">
        <ele>1542.2</ele>
      </trkpt>
      <trkpt lat="42.64656" lon="1.8091">
        <ele>1542.7</ele>
      </trkpt>
      <trkpt lat="42.64661" lon="1.80916">
        <ele>1543.1</ele>
      </trkpt>
      <trkpt lat="42.64666" lon="1.80923">
        <ele>1543.4</ele>
      </trkpt>
      <trkpt lat="42.64669" lon="1.80928">
        <ele>1543.9</ele>
      </trkpt>
      <trkpt lat="42.64672" lon="1.80933">
        <ele>1544.5</ele>
      </trkpt>
      <trkpt lat="42.64674" lon="1.80939">
        <ele>1544.2</ele>
      </trkpt>
      <trkpt lat="42.64676" lon="1.80944">
        <ele>1544.1</ele>
      </trkpt>
      <trkpt lat="42.64676" lon="1.80946">
        <ele>1543.7</ele>
      </trkpt>
      <trkpt lat="42.64679" lon="1.80954">
        <ele>1543.2</ele>
      </trkpt>
      <trkpt lat="42.64683" lon="1.80963">
        <ele>1542.5</ele>
      </trkpt>
      <trkpt lat="42.64689" lon="1.80971">
        <ele>1542.4</ele>
      </trkpt>
      <trkpt lat="42.64695" lon="1.80977">
        <ele>1542.5</ele>
      </trkpt>
      <trkpt lat="42.64705" lon="1.80992">
        <ele>1540.9</ele>
      </trkpt>
      <trkpt lat="42.64717" lon="1.81008">
        <ele>1538.9</ele>
      </trkpt>
      <trkpt lat="42.64729" lon="1.81024">
        <ele>1535.4</ele>
      </trkpt>
      <trkpt lat="42.64737" lon="1.81036">
        <ele>1531.8</ele>
      </trkpt>
      <trkpt lat="42.64741" lon="1.81038">
        <ele>1531.7</ele>
      </trkpt>
      <trkpt lat="42.64747" lon="1.8104">
        <ele>1531.8</ele>
      </trkpt>
      <trkpt lat="42.64752" lon="1.81041">
        <ele>1532.1</ele>
      </trkpt>
      <trkpt lat="42.64757" lon="1.81039">
        <ele>1533.7</ele>
      </trkpt>
      <trkpt lat="42.6476" lon="1.81039">
        <ele>1534.1</ele>
      </trkpt>
      <trkpt lat="42.64762" lon="1.81041">
        <ele>1533.2</ele>
      </trkpt>
      <trkpt lat="42.64764" lon="1.81047">
        <ele>1529.9</ele>
      </trkpt>
      <trkpt lat="42.64768" lon="1.81053">
        <ele>1526.8</ele>
      </trkpt>
      <trkpt lat="42.64773" lon="1.81055">
        <ele>1526</ele>
      </trkpt>
      <trkpt lat="42.64775" lon="1.81061">
        <ele>1522.4</ele>
      </trkpt>
      <trkpt lat="42.64776" lon="1.81067">
        <ele>1518.6</ele>
      </trkpt>
      <trkpt lat="42.64779" lon="1.81069">
        <ele>1517.3</ele>
      </trkpt>
      <trkpt lat="42.64784" lon="1.8107">
        <ele>1516.8</ele>
      </trkpt>
      <trkpt lat="42.64789" lon="1.81066">
        <ele>1519.4</ele>
      </trkpt>
      <trkpt lat="42.64794" lon="1.81061">
        <ele>1522.6</ele>
      </trkpt>
      <trkpt lat="42.64798" lon="1.81057">
        <ele>1525.1</ele>
      </trkpt>
      <trkpt lat="42.64801" lon="1.81056">
        <ele>1525.7</ele>
      </trkpt>
      <trkpt lat="42.64813" lon="1.81065">
        <ele>1521.8</ele>
      </trkpt>
      <trkpt lat="42.64824" lon="1.81077">
        <ele>1516.9</ele>
      </trkpt>
      <trkpt lat="42.64834" lon="1.8109">
        <ele>1511.2</ele>
      </trkpt>
      <trkpt lat="42.64839" lon="1.81101">
        <ele>1506.3</ele>
      </trkpt>
      <trkpt lat="42.64854" lon="1.81127">
        <ele>1494.7</ele>
      </trkpt>
      <trkpt lat="42.64868" lon="1.81148">
        <ele>1487</ele>
      </trkpt>
      <trkpt lat="42.6488" lon="1.81158">
        <ele>1487.3</ele>
      </trkpt>
      <trkpt lat="42.64888" lon="1.81166">
        <ele>1486.9</ele>
      </trkpt>
      <trkpt lat="42.64896" lon="1.81169">
        <ele>1490.9</ele>
      </trkpt>
      <trkpt lat="42.64899" lon="1.81172">
        <ele>1491.6</ele>
      </trkpt>
      <trkpt lat="42.64901" lon="1.81178">
        <ele>1490</ele>
      </trkpt>
      <trkpt lat="42.64902" lon="1.81183">
        <ele>1488.2</ele>
      </trkpt>
      <trkpt lat="42.64901" lon="1.81192">
        <ele>1483</ele>
      </trkpt>
      <trkpt lat="42.649" lon="1.81201">
        <ele>1477.8</ele>
      </trkpt>
      <trkpt lat="42.649" lon="1.81208">
        <ele>1474.5</ele>
      </trkpt>
      <trkpt lat="42.64903" lon="1.81211">
        <ele>1475.1</ele>
      </trkpt>
      <trkpt lat="42.64905" lon="1.81216">
        <ele>1474.1</ele>
      </trkpt>
      <trkpt lat="42.64913" lon="1.81225">
        <ele>1475.1</ele>
      </trkpt>
      <trkpt lat="42.64916" lon="1.81232">
        <ele>1473.6</ele>
      </trkpt>
      <trkpt lat="42.64921" lon="1.81241">
        <ele>1471.9</ele>
      </trkpt>
      <trkpt lat="42.64924" lon="1.81252">
        <ele>1468.1</ele>
      </trkpt>
      <trkpt lat="42.64927" lon="1.81259">
        <ele>1466.6</ele>
      </trkpt>
      <trkpt lat="42.64932" lon="1.81268">
        <ele>1465.1</ele>
      </trkpt>
      <trkpt lat="42.64937" lon="1.81275">
        <ele>1464.5</ele>
      </trkpt>
      <trkpt lat="42.64942" lon="1.81282">
        <ele>1464.1</ele>
      </trkpt>
      <trkpt lat="42.64947" lon="1.81287">
        <ele>1464.3</ele>
      </trkpt>
      <trkpt lat="42.64957" lon="1.81298">
        <ele>1463.6</ele>
      </trkpt>
      <trkpt lat="42.64965" lon="1.8131">
        <ele>1461.8</ele>
      </trkpt>
      <trkpt lat="42.64972" lon="1.8132">
        <ele>1460.7</ele>
      </trkpt>
      <trkpt lat="42.6498" lon="1.81333">
        <ele>1457.5</ele>
      </trkpt>
      <trkpt lat="42.64988" lon="1.81344">
        <ele>1455.6</ele>
      </trkpt>
      <trkpt lat="42.64995" lon="1.81349">
        <ele>1455.5</ele>
      </trkpt>
      <trkpt lat="42.65006" lon="1.81354">
        <ele>1455.6</ele>
      </trkpt>
      <trkpt lat="42.65015" lon="1.81361">
        <ele>1454.6</ele>
      </trkpt>
      <trkpt lat="42.65021" lon="1.81367">
        <ele>1453.4</ele>
      </trkpt>
      <trkpt lat="42.65026" lon="1.81373">
        <ele>1452</ele>
      </trkpt>
      <trkpt lat="42.65028" lon="1.81383">
        <ele>1448.9</ele>
      </trkpt>
      <trkpt lat="42.65032" lon="1.81396">
        <ele>1445.2</ele>
      </trkpt>
      <trkpt lat="42.65037" lon="1.8141">
        <ele>1441.1</ele>
      </trkpt>
      <trkpt lat="42.65044" lon="1.81413">
        <ele>1441.2</ele>
      </trkpt>
      <trkpt lat="42.65048" lon="1.81418">
        <ele>1440.2</ele>
      </trkpt>
      <trkpt lat="42.65052" lon="1.81424">
        <ele>1439</ele>
      </trkpt>
      <trkpt lat="42.65056" lon="1.81434">
        <ele>1436.5</ele>
      </trkpt>
      <trkpt lat="42.65059" lon="1.81444">
        <ele>1433.9</ele>
      </trkpt>
      <trkpt lat="42.65062" lon="1.81448">
        <ele>1433.1</ele>
      </trkpt>
      <trkpt lat="42.65064" lon="1.81453">
        <ele>1431.8</ele>
      </trkpt>
      <trkpt lat="42.65064" lon="1.81462">
        <ele>1428.7</ele>
      </trkpt>
      <trkpt lat="42.65065" lon="1.81469">
        <ele>1426.5</ele>
      </trkpt>
      <trkpt lat="42.65068" lon="1.81475">
        <ele>1425.2</ele>
      </trkpt>
      <trkpt lat="42.65069" lon="1.81481">
        <ele>1423.4</ele>
      </trkpt>
      <trkpt lat="42.65069" lon="1.81486">
        <ele>1421.7</ele>
      </trkpt>
      <trkpt lat="42.65071" lon="1.81491">
        <ele>1420.4</ele>
      </trkpt>
      <trkpt lat="42.65073" lon="1.81495">
        <ele>1419.5</ele>
      </trkpt>
      <trkpt lat="42.65073" lon="1.81498">
        <ele>1418.5</ele>
      </trkpt>
      <trkpt lat="42.65071" lon="1.815">
        <ele>1417.3</ele>
      </trkpt>
      <trkpt lat="42.65067" lon="1.81499">
        <ele>1416.8</ele>
      </trkpt>
      <trkpt lat="42.65063" lon="1.815">
        <ele>1415.6</ele>
      </trkpt>
      <trkpt lat="42.65062" lon="1.81501">
        <ele>1415</ele>
      </trkpt>
      <trkpt lat="42.65061" lon="1.81505">
        <ele>1413.4</ele>
      </trkpt>
      <trkpt lat="42.65064" lon="1.8151">
        <ele>1412.2</ele>
      </trkpt>
      <trkpt lat="42.65067" lon="1.81514">
        <ele>1411.4</ele>
      </trkpt>
      <trkpt lat="42.6507" lon="1.81517">
        <ele>1411</ele>
      </trkpt>
      <trkpt lat="42.65072" lon="1.8152">
        <ele>1410.4</ele>
      </trkpt>
      <trkpt lat="42.65071" lon="1.81522">
        <ele>1409.4</ele>
      </trkpt>
      <trkpt lat="42.65069" lon="1.81523">
        <ele>1408.6</ele>
      </trkpt>
      <trkpt lat="42.65066" lon="1.81523">
        <ele>1408</ele>
      </trkpt>
      <trkpt lat="42.65067" lon="1.81529">
        <ele>1406</ele>
      </trkpt>
      <trkpt lat="42.65069" lon="1.81533">
        <ele>1404.7</ele>
      </trkpt>
      <trkpt lat="42.65071" lon="1.81539">
        <ele>1402.7</ele>
      </trkpt>
      <trkpt lat="42.65071" lon="1.81542">
        <ele>1401.4</ele>
      </trkpt>
      <trkpt lat="42.65071" lon="1.81546">
        <ele>1399.8</ele>
      </trkpt>
      <trkpt lat="42.65072" lon="1.8155">
        <ele>1398.3</ele>
      </trkpt>
      <trkpt lat="42.65075" lon="1.81555">
        <ele>1396.7</ele>
      </trkpt>
      <trkpt lat="42.6508" lon="1.81558">
        <ele>1396.2</ele>
      </trkpt>
      <trkpt lat="42.65085" lon="1.81559">
        <ele>1396.4</ele>
      </trkpt>
      <trkpt lat="42.65089" lon="1.81561">
        <ele>1395.7</ele>
      </trkpt>
      <trkpt lat="42.65094" lon="1.81566">
        <ele>1393.5</ele>
      </trkpt>
      <trkpt lat="42.65097" lon="1.81569">
        <ele>1392.2</ele>
      </trkpt>
      <trkpt lat="42.65101" lon="1.81573">
        <ele>1390.5</ele>
      </trkpt>
      <trkpt lat="42.65105" lon="1.81576">
        <ele>1389.3</ele>
      </trkpt>
      <trkpt lat="42.65109" lon="1.81579">
        <ele>1388</ele>
      </trkpt>
      <trkpt lat="42.65113" lon="1.81583">
        <ele>1386.3</ele>
      </trkpt>
      <trkpt lat="42.65119" lon="1.81588">
        <ele>1384.1</ele>
      </trkpt>
      <trkpt lat="42.65123" lon="1.81591">
        <ele>1382.8</ele>
      </trkpt>
      <trkpt lat="42.65128" lon="1.81595">
        <ele>1381.2</ele>
      </trkpt>
      <trkpt lat="42.65133" lon="1.81597">
        <ele>1380.6</ele>
      </trkpt>
      <trkpt lat="42.65137" lon="1.81601">
        <ele>1378.9</ele>
      </trkpt>
      <trkpt lat="42.65137" lon="1.81604">
        <ele>1377.4</ele>
      </trkpt>
      <trkpt lat="42.65136" lon="1.81609">
        <ele>1374.8</ele>
      </trkpt>
      <trkpt lat="42.65136" lon="1.81614">
        <ele>1372.4</ele>
      </trkpt>
      <trkpt lat="42.65137" lon="1.8162">
        <ele>1369.9</ele>
      </trkpt>
      <trkpt lat="42.6514" lon="1.81626">
        <ele>1367.9</ele>
      </trkpt>
      <trkpt lat="42.65142" lon="1.8163">
        <ele>1366.9</ele>
      </trkpt>
      <trkpt lat="42.65144" lon="1.81635">
        <ele>1365.5</ele>
      </trkpt>
      <trkpt lat="42.65146" lon="1.8164">
        <ele>1364.1</ele>
      </trkpt>
      <trkpt lat="42.65149" lon="1.81646">
        <ele>1362.9</ele>
      </trkpt>
      <trkpt lat="42.65152" lon="1.81649">
        <ele>1362.9</ele>
      </trkpt>
      <trkpt lat="42.65153" lon="1.81651">
        <ele>1362.5</ele>
      </trkpt>
      <trkpt lat="42.65153" lon="1.81654">
        <ele>1361.4</ele>
      </trkpt>
      <trkpt lat="42.65151" lon="1.81656">
        <ele>1359.9</ele>
      </trkpt>
      <trkpt lat="42.65148" lon="1.81657">
        <ele>1358.3</ele>
      </trkpt>
      <trkpt lat="42.65148" lon="1.81658">
        <ele>1357.9</ele>
      </trkpt>
      <trkpt lat="42.65148" lon="1.8166">
        <ele>1357.2</ele>
      </trkpt>
      <trkpt lat="42.65151" lon="1.81662">
        <ele>1357.6</ele>
      </trkpt>
      <trkpt lat="42.65152" lon="1.81664">
        <ele>1357.2</ele>
      </trkpt>
      <trkpt lat="42.65151" lon="1.81666">
        <ele>1356</ele>
      </trkpt>
      <trkpt lat="42.65148" lon="1.81666">
        <ele>1354.9</ele>
      </trkpt>
      <trkpt lat="42.65145" lon="1.81666">
        <ele>1353.7</ele>
      </trkpt>
      <trkpt lat="42.65144" lon="1.81668">
        <ele>1352.4</ele>
      </trkpt>
      <trkpt lat="42.65144" lon="1.8167">
        <ele>1351.6</ele>
      </trkpt>
      <trkpt lat="42.65146" lon="1.81672">
        <ele>1351.5</ele>
      </trkpt>
      <trkpt lat="42.65148" lon="1.81675">
        <ele>1351</ele>
      </trkpt>
      <trkpt lat="42.65148" lon="1.81678">
        <ele>1349.7</ele>
      </trkpt>
      <trkpt lat="42.65147" lon="1.81678">
        <ele>1349.3</ele>
      </trkpt>
      <trkpt lat="42.65144" lon="1.81677">
        <ele>1348.6</ele>
      </trkpt>
      <trkpt lat="42.65143" lon="1.81677">
        <ele>1348.2</ele>
      </trkpt>
      <trkpt lat="42.65143" lon="1.81679">
        <ele>1347.3</ele>
      </trkpt>
      <trkpt lat="42.65144" lon="1.81681">
        <ele>1346.8</ele>
      </trkpt>
      <trkpt lat="42.65145" lon="1.81684">
        <ele>1345.9</ele>
      </trkpt>
      <trkpt lat="42.65145" lon="1.81685">
        <ele>1345.5</ele>
      </trkpt>
      <trkpt lat="42.65143" lon="1.81687">
        <ele>1343.8</ele>
      </trkpt>
      <trkpt lat="42.65141" lon="1.81687">
        <ele>1343.1</ele>
      </trkpt>
      <trkpt lat="42.6514" lon="1.8169">
        <ele>1341.4</ele>
      </trkpt>
      <trkpt lat="42.65141" lon="1.81694">
        <ele>1340</ele>
      </trkpt>
      <trkpt lat="42.65142" lon="1.817">
        <ele>1337.7</ele>
      </trkpt>
      <trkpt lat="42.65144" lon="1.81707">
        <ele>1335.2</ele>
      </trkpt>
      <trkpt lat="42.65143" lon="1.8171">
        <ele>1333.4</ele>
      </trkpt>
      <trkpt lat="42.65142" lon="1.81711">
        <ele>1332.6</ele>
      </trkpt>
      <trkpt lat="42.65138" lon="1.81709">
        <ele>1332</ele>
      </trkpt>
      <trkpt lat="42.65134" lon="1.81704">
        <ele>1333.5</ele>
      </trkpt>
      <trkpt lat="42.65132" lon="1.81703">
        <ele>1333.5</ele>
      </trkpt>
      <trkpt lat="42.65131" lon="1.81705">
        <ele>1332.4</ele>
      </trkpt>
      <trkpt lat="42.65134" lon="1.8171">
        <ele>1330.8</ele>
      </trkpt>
      <trkpt lat="42.65135" lon="1.8172">
        <ele>1326.4</ele>
      </trkpt>
      <trkpt lat="42.65137" lon="1.81726">
        <ele>1324.1</ele>
      </trkpt>
      <trkpt lat="42.65145" lon="1.81736">
        <ele>1322.5</ele>
      </trkpt>
      <trkpt lat="42.6515" lon="1.81744">
        <ele>1320.8</ele>
      </trkpt>
      <trkpt lat="42.65154" lon="1.81751">
        <ele>1319</ele>
      </trkpt>
      <trkpt lat="42.65159" lon="1.81754">
        <ele>1319.4</ele>
      </trkpt>
      <trkpt lat="42.65161" lon="1.81757">
        <ele>1318.6</ele>
      </trkpt>
      <trkpt lat="42.65166" lon="1.81762">
        <ele>1317.8</ele>
      </trkpt>
      <trkpt lat="42.65171" lon="1.81771">
        <ele>1315.3</ele>
      </trkpt>
      <trkpt lat="42.65175" lon="1.81778">
        <ele>1313.5</ele>
      </trkpt>
      <trkpt lat="42.65183" lon="1.81786">
        <ele>1313.5</ele>
      </trkpt>
      <trkpt lat="42.65187" lon="1.81791">
        <ele>1312.9</ele>
      </trkpt>
      <trkpt lat="42.6519" lon="1.81797">
        <ele>1311.3</ele>
      </trkpt>
      <trkpt lat="42.65191" lon="1.81803">
        <ele>1308.9</ele>
      </trkpt>
      <trkpt lat="42.65192" lon="1.81809">
        <ele>1307</ele>
      </trkpt>
      <trkpt lat="42.65196" lon="1.81816">
        <ele>1306.3</ele>
      </trkpt>
      <trkpt lat="42.65198" lon="1.81822">
        <ele>1305.3</ele>
      </trkpt>
      <trkpt lat="42.65201" lon="1.81829">
        <ele>1304.3</ele>
      </trkpt>
      <trkpt lat="42.65203" lon="1.81838">
        <ele>1302.3</ele>
      </trkpt>
      <trkpt lat="42.65204" lon="1.81845">
        <ele>1300.6</ele>
      </trkpt>
      <trkpt lat="42.65206" lon="1.81853">
        <ele>1299</ele>
      </trkpt>
      <trkpt lat="42.65208" lon="1.81863">
        <ele>1296.9</ele>
      </trkpt>
      <trkpt lat="42.6521" lon="1.8187">
        <ele>1295.7</ele>
      </trkpt>
      <trkpt lat="42.65212" lon="1.81878">
        <ele>1294.3</ele>
      </trkpt>
      <trkpt lat="42.65215" lon="1.81883">
        <ele>1294</ele>
      </trkpt>
      <trkpt lat="42.65217" lon="1.81889">
        <ele>1293.1</ele>
      </trkpt>
      <trkpt lat="42.6522" lon="1.81894">
        <ele>1292.7</ele>
      </trkpt>
      <trkpt lat="42.65221" lon="1.81899">
        <ele>1291.6</ele>
      </trkpt>
      <trkpt lat="42.65222" lon="1.81902">
        <ele>1291.1</ele>
      </trkpt>
      <trkpt lat="42.65221" lon="1.81903">
        <ele>1290.5</ele>
      </trkpt>
      <trkpt lat="42.65218" lon="1.81903">
        <ele>1289.4</ele>
      </trkpt>
      <trkpt lat="42.65214" lon="1.81903">
        <ele>1288</ele>
      </trkpt>
      <trkpt lat="42.65213" lon="1.81905">
        <ele>1287</ele>
      </trkpt>
      <trkpt lat="42.65213" lon="1.81907">
        <ele>1286.5</ele>
      </trkpt>
      <trkpt lat="42.65215" lon="1.8191">
        <ele>1286.3</ele>
      </trkpt>
      <trkpt lat="42.65219" lon="1.81915">
        <ele>1286.3</ele>
      </trkpt>
      <trkpt lat="42.65221" lon="1.81919">
        <ele>1285.7</ele>
      </trkpt>
      <trkpt lat="42.65222" lon="1.81922">
        <ele>1285</ele>
      </trkpt>
      <trkpt lat="42.65221" lon="1.81924">
        <ele>1283.9</ele>
      </trkpt>
      <trkpt lat="42.65217" lon="1.81925">
        <ele>1282.2</ele>
      </trkpt>
      <trkpt lat="42.65215" lon="1.81925">
        <ele>1281.6</ele>
      </trkpt>
      <trkpt lat="42.65214" lon="1.81927">
        <ele>1280.5</ele>
      </trkpt>
      <trkpt lat="42.65216" lon="1.8193">
        <ele>1280.2</ele>
      </trkpt>
      <trkpt lat="42.65217" lon="1.81934">
        <ele>1279.1</ele>
      </trkpt>
      <trkpt lat="42.65216" lon="1.81934">
        <ele>1278.8</ele>
      </trkpt>
      <trkpt lat="42.65214" lon="1.81933">
        <ele>1278.5</ele>
      </trkpt>
      <trkpt lat="42.65209" lon="1.81932">
        <ele>1277.2</ele>
      </trkpt>
      <trkpt lat="42.65207" lon="1.81933">
        <ele>1276.3</ele>
      </trkpt>
      <trkpt lat="42.65207" lon="1.81935">
        <ele>1275.6</ele>
      </trkpt>
      <trkpt lat="42.6521" lon="1.8194">
        <ele>1274.9</ele>
      </trkpt>
      <trkpt lat="42.65211" lon="1.81943">
        <ele>1274.2</ele>
      </trkpt>
      <trkpt lat="42.65212" lon="1.81946">
        <ele>1273.6</ele>
      </trkpt>
      <trkpt lat="42.65211" lon="1.81948">
        <ele>1272.8</ele>
      </trkpt>
      <trkpt lat="42.65211" lon="1.81951">
        <ele>1272.1</ele>
      </trkpt>
      <trkpt lat="42.65213" lon="1.81954">
        <ele>1271.8</ele>
      </trkpt>
      <trkpt lat="42.65212" lon="1.81955">
        <ele>1271.3</ele>
      </trkpt>
      <trkpt lat="42.65209" lon="1.81954">
        <ele>1270.8</ele>
      </trkpt>
      <trkpt lat="42.65207" lon="1.81953">
        <ele>1270.5</ele>
      </trkpt>
      <trkpt lat="42.65205" lon="1.81954">
        <ele>1269.7</ele>
      </trkpt>
      <trkpt lat="42.65204" lon="1.81958">
        <ele>1268.5</ele>
      </trkpt>
      <trkpt lat="42.65203" lon="1.81962">
        <ele>1267.3</ele>
      </trkpt>
      <trkpt lat="42.65201" lon="1.81969">
        <ele>1265.2</ele>
      </trkpt>
      <trkpt lat="42.65199" lon="1.81974">
        <ele>1263.8</ele>
      </trkpt>
      <trkpt lat="42.65198" lon="1.8198">
        <ele>1262.8</ele>
      </trkpt>
      <trkpt lat="42.65195" lon="1.81985">
        <ele>1261.7</ele>
      </trkpt>
      <trkpt lat="42.65193" lon="1.8199">
        <ele>1261.3</ele>
      </trkpt>
      <trkpt lat="42.6519" lon="1.81994">
        <ele>1261.5</ele>
      </trkpt>
      <trkpt lat="42.65187" lon="1.81999">
        <ele>1261.7</ele>
      </trkpt>
      <trkpt lat="42.65186" lon="1.82005">
        <ele>1261.8</ele>
      </trkpt>
      <trkpt lat="42.65185" lon="1.82012">
        <ele>1262</ele>
      </trkpt>
      <trkpt lat="42.65186" lon="1.82019">
        <ele>1261.8</ele>
      </trkpt>
      <trkpt lat="42.65186" lon="1.82026">
        <ele>1261.7</ele>
      </trkpt>
      <trkpt lat="42.65186" lon="1.82034">
        <ele>1262</ele>
      </trkpt>
      <trkpt lat="42.65192" lon="1.82051">
        <ele>1260.1</ele>
      </trkpt>
      <trkpt lat="42.65199" lon="1.82068">
        <ele>1258.6</ele>
      </trkpt>
      <trkpt lat="42.65209" lon="1.82086">
        <ele>1255.8</ele>
      </trkpt>
      <trkpt lat="42.65219" lon="1.82101">
        <ele>1251.8</ele>
      </trkpt>
      <trkpt lat="42.65228" lon="1.82114">
        <ele>1248.2</ele>
      </trkpt>
      <trkpt lat="42.65237" lon="1.82131">
        <ele>1245.1</ele>
      </trkpt>
      <trkpt lat="42.65244" lon="1.82145">
        <ele>1242.3</ele>
      </trkpt>
      <trkpt lat="42.65254" lon="1.82159">
        <ele>1239.4</ele>
      </trkpt>
      <trkpt lat="42.6526" lon="1.8217">
        <ele>1238.1</ele>
      </trkpt>
      <trkpt lat="42.65273" lon="1.82197">
        <ele>1235.3</ele>
      </trkpt>
      <trkpt lat="42.65278" lon="1.82212">
        <ele>1234.2</ele>
      </trkpt>
      <trkpt lat="42.65285" lon="1.82228">
        <ele>1233.1</ele>
      </trkpt>
      <trkpt lat="42.65294" lon="1.8224">
        <ele>1230.5</ele>
      </trkpt>
      <trkpt lat="42.65298" lon="1.82251">
        <ele>1229.4</ele>
      </trkpt>
      <trkpt lat="42.65303" lon="1.82263">
        <ele>1228.2</ele>
      </trkpt>
      <trkpt lat="42.65309" lon="1.82274">
        <ele>1226.8</ele>
      </trkpt>
      <trkpt lat="42.65313" lon="1.82289">
        <ele>1227.4</ele>
      </trkpt>
      <trkpt lat="42.6532" lon="1.82308">
        <ele>1227.1</ele>
      </trkpt>
      <trkpt lat="42.65326" lon="1.82319">
        <ele>1225.9</ele>
      </trkpt>
      <trkpt lat="42.65334" lon="1.8234">
        <ele>1224.8</ele>
      </trkpt>
      <trkpt lat="42.65344" lon="1.82365">
        <ele>1224.4</ele>
      </trkpt>
      <trkpt lat="42.65356" lon="1.82397">
        <ele>1223.7</ele>
      </trkpt>
      <trkpt lat="42.65365" lon="1.82419">
        <ele>1222.8</ele>
      </trkpt>
      <trkpt lat="42.65377" lon="1.82436">
        <ele>1220</ele>
      </trkpt>
      <trkpt lat="42.65383" lon="1.82448">
        <ele>1218.4</ele>
      </trkpt>
      <trkpt lat="42.65388" lon="1.82464">
        <ele>1217.6</ele>
      </trkpt>
      <trkpt lat="42.65401" lon="1.8249">
        <ele>1214.1</ele>
      </trkpt>
      <trkpt lat="42.65413" lon="1.8252">
        <ele>1209</ele>
      </trkpt>
      <trkpt lat="42.65423" lon="1.82548">
        <ele>1206.3</ele>
      </trkpt>
      <trkpt lat="42.65429" lon="1.8257">
        <ele>1204.9</ele>
      </trkpt>
      <trkpt lat="42.65433" lon="1.82593">
        <ele>1202.7</ele>
      </trkpt>
      <trkpt lat="42.65437" lon="1.82619">
        <ele>1198.6</ele>
      </trkpt>
      <trkpt lat="42.65441" lon="1.82647">
        <ele>1193.4</ele>
      </trkpt>
      <trkpt lat="42.65441" lon="1.82657">
        <ele>1191.9</ele>
      </trkpt>
      <trkpt lat="42.6544" lon="1.82669">
        <ele>1190.5</ele>
      </trkpt>
      <trkpt lat="42.65438" lon="1.82687">
        <ele>1188.1</ele>
      </trkpt>
      <trkpt lat="42.65433" lon="1.82703">
        <ele>1187.6</ele>
      </trkpt>
      <trkpt lat="42.65433" lon="1.82713">
        <ele>1186</ele>
      </trkpt>
      <trkpt lat="42.65435" lon="1.82731">
        <ele>1182.1</ele>
      </trkpt>
      <trkpt lat="42.6544" lon="1.82754">
        <ele>1175.9</ele>
      </trkpt>
      <trkpt lat="42.65442" lon="1.82765">
        <ele>1173.2</ele>
      </trkpt>
      <trkpt lat="42.65443" lon="1.82777">
        <ele>1170.7</ele>
      </trkpt>
      <trkpt lat="42.65442" lon="1.82797">
        <ele>1166.7</ele>
      </trkpt>
      <trkpt lat="42.65434" lon="1.82816">
        <ele>1165.4</ele>
      </trkpt>
      <trkpt lat="42.65429" lon="1.82831">
        <ele>1163.6</ele>
      </trkpt>
      <trkpt lat="42.65428" lon="1.82841">
        <ele>1161.2</ele>
      </trkpt>
      <trkpt lat="42.65424" lon="1.82853">
        <ele>1159.1</ele>
      </trkpt>
      <trkpt lat="42.6542" lon="1.82867">
        <ele>1156.4</ele>
      </trkpt>
      <trkpt lat="42.65418" lon="1.82876">
        <ele>1154.4</ele>
      </trkpt>
      <trkpt lat="42.65418" lon="1.82885">
        <ele>1151.8</ele>
      </trkpt>
      <trkpt lat="42.65421" lon="1.82891">
        <ele>1149.3</ele>
      </trkpt>
      <trkpt lat="42.65422" lon="1.82894">
        <ele>1148.2</ele>
      </trkpt>
      <trkpt lat="42.65425" lon="1.82899">
        <ele>1146</ele>
      </trkpt>
      <trkpt lat="42.6543" lon="1.82902">
        <ele>1143.9</ele>
      </trkpt>
      <trkpt lat="42.65436" lon="1.82903">
        <ele>1142.1</ele>
      </trkpt>
      <trkpt lat="42.65441" lon="1.82905">
        <ele>1140.2</ele>
      </trkpt>
      <trkpt lat="42.65449" lon="1.8291">
        <ele>1137</ele>
      </trkpt>
      <trkpt lat="42.65456" lon="1.82915">
        <ele>1134.4</ele>
      </trkpt>
      <trkpt lat="42.65464" lon="1.82921">
        <ele>1131.3</ele>
      </trkpt>
      <trkpt lat="42.65477" lon="1.82926">
        <ele>1128.1</ele>
      </trkpt>
      <trkpt lat="42.65484" lon="1.82928">
        <ele>1126.8</ele>
      </trkpt>
      <trkpt lat="42.65493" lon="1.82932">
        <ele>1125</ele>
      </trkpt>
      <trkpt lat="42.65496" lon="1.82934">
        <ele>1124.3</ele>
      </trkpt>
      <trkpt lat="42.655" lon="1.82937">
        <ele>1123.3</ele>
      </trkpt>
      <trkpt lat="42.65502" lon="1.82943">
        <ele>1122</ele>
      </trkpt>
      <trkpt lat="42.65503" lon="1.82951">
        <ele>1120.5</ele>
      </trkpt>
      <trkpt lat="42.65503" lon="1.82963">
        <ele>1118.4</ele>
      </trkpt>
      <trkpt lat="42.65503" lon="1.82975">
        <ele>1116.3</ele>
      </trkpt>
      <trkpt lat="42.65503" lon="1.82986">
        <ele>1114.3</ele>
      </trkpt>
      <trkpt lat="42.65504" lon="1.82997">
        <ele>1112.3</ele>
      </trkpt>
      <trkpt lat="42.65506" lon="1.83012">
        <ele>1109.5</ele>
      </trkpt>
      <trkpt lat="42.65509" lon="1.83025">
        <ele>1107.1</ele>
      </trkpt>
      <trkpt lat="42.65511" lon="1.83032">
        <ele>1106</ele>
      </trkpt>
      <trkpt lat="42.65513" lon="1.83038">
        <ele>1105.1</ele>
      </trkpt>
      <trkpt lat="42.65516" lon="1.83048">
        <ele>1103.5</ele>
      </trkpt>
      <trkpt lat="42.65517" lon="1.83064">
        <ele>1101.4</ele>
      </trkpt>
      <trkpt lat="42.6552" lon="1.83077">
        <ele>1099.7</ele>
      </trkpt>
      <trkpt lat="42.65523" lon="1.83091">
        <ele>1097.9</ele>
      </trkpt>
      <trkpt lat="42.65525" lon="1.83102">
        <ele>1096.4</ele>
      </trkpt>
      <trkpt lat="42.65524" lon="1.83111">
        <ele>1095.2</ele>
      </trkpt>
      <trkpt lat="42.65518" lon="1.83131">
        <ele>1093.2</ele>
      </trkpt>
      <trkpt lat="42.65517" lon="1.8314">
        <ele>1092.3</ele>
      </trkpt>
      <trkpt lat="42.65516" lon="1.83152">
        <ele>1091.2</ele>
      </trkpt>
      <trkpt lat="42.65515" lon="1.83169">
        <ele>1089.7</ele>
      </trkpt>
      <trkpt lat="42.65515" lon="1.8318">
        <ele>1088.7</ele>
      </trkpt>
      <trkpt lat="42.65516" lon="1.83192">
        <ele>1087.6</ele>
      </trkpt>
      <trkpt lat="42.65518" lon="1.83197">
        <ele>1087.2</ele>
      </trkpt>
      <trkpt lat="42.65525" lon="1.8321">
        <ele>1086</ele>
      </trkpt>
      <trkpt lat="42.6553" lon="1.83217">
        <ele>1085.1</ele>
      </trkpt>
      <trkpt lat="42.65534" lon="1.83221">
        <ele>1084.4</ele>
      </trkpt>
      <trkpt lat="42.65541" lon="1.83229">
        <ele>1083.3</ele>
      </trkpt>
      <trkpt lat="42.6555" lon="1.83233">
        <ele>1082.2</ele>
      </trkpt>
      <trkpt lat="42.65556" lon="1.83235">
        <ele>1081.5</ele>
      </trkpt>
      <trkpt lat="42.65559" lon="1.83237">
        <ele>1081</ele>
      </trkpt>
      <trkpt lat="42.65561" lon="1.83239">
        <ele>1080.7</ele>
      </trkpt>
      <trkpt lat="42.65561" lon="1.83245">
        <ele>1080.4</ele>
      </trkpt>
      <trkpt lat="42.65561" lon="1.83251">
        <ele>1080.2</ele>
      </trkpt>
      <trkpt lat="42.65559" lon="1.83256">
        <ele>1080.3</ele>
      </trkpt>
      <trkpt lat="42.65556" lon="1.83263">
        <ele>1080.5</ele>
      </trkpt>
      <trkpt lat="42.65554" lon="1.83268">
        <ele>1080.5</ele>
      </trkpt>
      <trkpt lat="42.65553" lon="1.83278">
        <ele>1080.3</ele>
      </trkpt>
      <trkpt lat="42.65553" lon="1.8329">
        <ele>1079.5</ele>
      </trkpt>
      <trkpt lat="42.65553" lon="1.83297">
        <ele>1079</ele>
      </trkpt>
      <trkpt lat="42.65555" lon="1.83304">
        <ele>1078.2</ele>
      </trkpt>
      <trkpt lat="42.65557" lon="1.8331">
        <ele>1077.6</ele>
      </trkpt>
      <trkpt lat="42.6556" lon="1.83316">
        <ele>1077</ele>
      </trkpt>
      <trkpt lat="42.65562" lon="1.83323">
        <ele>1076.4</ele>
      </trkpt>
      <trkpt lat="42.65563" lon="1.83333">
        <ele>1075.9</ele>
      </trkpt>
      <trkpt lat="42.65563" lon="1.83337">
        <ele>1075.7</ele>
      </trkpt>
      <trkpt lat="42.65563" lon="1.83344">
        <ele>1075.2</ele>
      </trkpt>
      <trkpt lat="42.65564" lon="1.83354">
        <ele>1074.3</ele>
      </trkpt>
      <trkpt lat="42.65564" lon="1.83362">
        <ele>1073.7</ele>
      </trkpt>
      <trkpt lat="42.65566" lon="1.83369">
        <ele>1072.9</ele>
      </trkpt>
      <trkpt lat="42.65568" lon="1.83375">
        <ele>1072.2</ele>
      </trkpt>
      <trkpt lat="42.65569" lon="1.83381">
        <ele>1071.6</ele>
      </trkpt>
      <trkpt lat="42.65569" lon="1.83387">
        <ele>1071.2</ele>
      </trkpt>
      <trkpt lat="42.65569" lon="1.83397">
        <ele>1070.5</ele>
      </trkpt>
      <trkpt lat="42.65569" lon="1.83406">
        <ele>1069.8</ele>
      </trkpt>
      <trkpt lat="42.65568" lon="1.83415">
        <ele>1069.3</ele>
      </trkpt>
      <trkpt lat="42.65569" lon="1.83423">
        <ele>1068.4</ele>
      </trkpt>
      <trkpt lat="42.65569" lon="1.83427">
        <ele>1067.9</ele>
      </trkpt>
      <trkpt lat="42.65573" lon="1.83433">
        <ele>1066.9</ele>
      </trkpt>
      <trkpt lat="42.65579" lon="1.8344">
        <ele>1065.7</ele>
      </trkpt>
      <trkpt lat="42.65588" lon="1.83445">
        <ele>1064.6</ele>
      </trkpt>
      <trkpt lat="42.65596" lon="1.8345">
        <ele>1063.5</ele>
      </trkpt>
      <trkpt lat="42.65599" lon="1.8345">
        <ele>1063.3</ele>
      </trkpt>
      <trkpt lat="42.65602" lon="1.83448">
        <ele>1063.3</ele>
      </trkpt>
      <trkpt lat="42.65608" lon="1.83443">
        <ele>1063.3</ele>
      </trkpt>
      <trkpt lat="42.65608" lon="1.83443">
        <ele>1063.3</ele>
        <extensions>
          <visugpx:TrkExtension xmlns:visugpx="https://www.visugpx.com/editgpx/">
            <visugpx:node>3</visugpx:node>
            </visugpx:TrkExtension>
        </extensions>
      </trkpt>
      <trkpt lat="42.65611" lon="1.83444">
        <ele>1063</ele>
      </trkpt>
      <trkpt lat="42.6562" lon="1.83453">
        <ele>1061.4</ele>
      </trkpt>
      <trkpt lat="42.65629" lon="1.83464">
        <ele>1059.6</ele>
      </trkpt>
      <trkpt lat="42.65633" lon="1.83473">
        <ele>1058.3</ele>
      </trkpt>
      <trkpt lat="42.6564" lon="1.83484">
        <ele>1056.2</ele>
      </trkpt>
      <trkpt lat="42.65643" lon="1.83497">
        <ele>1054</ele>
      </trkpt>
      <trkpt lat="42.65644" lon="1.83507">
        <ele>1052.7</ele>
      </trkpt>
      <trkpt lat="42.65641" lon="1.83518">
        <ele>1051.9</ele>
      </trkpt>
      <trkpt lat="42.65638" lon="1.8353">
        <ele>1051.1</ele>
      </trkpt>
      <trkpt lat="42.65633" lon="1.8354">
        <ele>1051.3</ele>
      </trkpt>
      <trkpt lat="42.65633" lon="1.83547">
        <ele>1051.3</ele>
      </trkpt>
      <trkpt lat="42.65634" lon="1.83554">
        <ele>1051.2</ele>
      </trkpt>
      <trkpt lat="42.65634" lon="1.83554">
        <ele>1051.2</ele>
      </trkpt>
      <trkpt lat="42.65634" lon="1.8356">
        <ele>1052</ele>
      </trkpt>
      <trkpt lat="42.65635" lon="1.83569">
        <ele>1053.6</ele>
      </trkpt>
      <trkpt lat="42.65641" lon="1.83573">
        <ele>1054</ele>
      </trkpt>
      <trkpt lat="42.65649" lon="1.83575">
        <ele>1053.9</ele>
      </trkpt>
      <trkpt lat="42.65646" lon="1.83584">
        <ele>1055.6</ele>
      </trkpt>
      <trkpt lat="42.65646" lon="1.83592">
        <ele>1057</ele>
      </trkpt>
      <trkpt lat="42.65646" lon="1.83601">
        <ele>1058.5</ele>
      </trkpt>
      <trkpt lat="42.65647" lon="1.83609">
        <ele>1059.8</ele>
      </trkpt>
      <trkpt lat="42.65649" lon="1.83613">
        <ele>1060.2</ele>
      </trkpt>
      <trkpt lat="42.65652" lon="1.83619">
        <ele>1060.7</ele>
      </trkpt>
      <trkpt lat="42.65652" lon="1.8362">
        <ele>1060.9</ele>
      </trkpt>
      <trkpt lat="42.65657" lon="1.83626">
        <ele>1061</ele>
      </trkpt>
      <trkpt lat="42.65663" lon="1.83628">
        <ele>1060.4</ele>
      </trkpt>
      <trkpt lat="42.6567" lon="1.83628">
        <ele>1059.6</ele>
      </trkpt>
      <trkpt lat="42.65678" lon="1.83628">
        <ele>1059</ele>
      </trkpt>
      <trkpt lat="42.65683" lon="1.83628">
        <ele>1058.6</ele>
      </trkpt>
      <trkpt lat="42.65689" lon="1.83627">
        <ele>1058.1</ele>
      </trkpt>
      <trkpt lat="42.65699" lon="1.83628">
        <ele>1057.7</ele>
      </trkpt>
      <trkpt lat="42.65707" lon="1.8363">
        <ele>1057.6</ele>
      </trkpt>
      <trkpt lat="42.65714" lon="1.8363">
        <ele>1057.3</ele>
      </trkpt>
      <trkpt lat="42.65718" lon="1.8363">
        <ele>1057.2</ele>
      </trkpt>
      <trkpt lat="42.65722" lon="1.83631">
        <ele>1057.2</ele>
      </trkpt>
      <trkpt lat="42.65725" lon="1.83636">
        <ele>1057.7</ele>
      </trkpt>
      <trkpt lat="42.65725" lon="1.83642">
        <ele>1058.3</ele>
      </trkpt>
      <trkpt lat="42.65725" lon="1.83653">
        <ele>1059.5</ele>
      </trkpt>
      <trkpt lat="42.65723" lon="1.83665">
        <ele>1060.8</ele>
      </trkpt>
      <trkpt lat="42.6572" lon="1.83678">
        <ele>1061.8</ele>
      </trkpt>
      <trkpt lat="42.65716" lon="1.83694">
        <ele>1063.2</ele>
      </trkpt>
      <trkpt lat="42.65713" lon="1.83707">
        <ele>1064.5</ele>
      </trkpt>
      <trkpt lat="42.6571" lon="1.83723">
        <ele>1066.1</ele>
      </trkpt>
      <trkpt lat="42.65708" lon="1.83736">
        <ele>1067</ele>
      </trkpt>
      <trkpt lat="42.65708" lon="1.83749">
        <ele>1067.9</ele>
      </trkpt>
      <trkpt lat="42.65709" lon="1.83757">
        <ele>1068.5</ele>
      </trkpt>
      <trkpt lat="42.65711" lon="1.83765">
        <ele>1069.1</ele>
      </trkpt>
      <trkpt lat="42.65717" lon="1.83773">
        <ele>1069.7</ele>
      </trkpt>
      <trkpt lat="42.6572" lon="1.83774">
        <ele>1069.7</ele>
      </trkpt>
      <trkpt lat="42.65711" lon="1.83779">
        <ele>1070.1</ele>
      </trkpt>
      <trkpt lat="42.65709" lon="1.8378">
        <ele>1070.2</ele>
      </trkpt>
      <trkpt lat="42.65707" lon="1.83784">
        <ele>1070.4</ele>
      </trkpt>
      <trkpt lat="42.65707" lon="1.8379">
        <ele>1070.9</ele>
      </trkpt>
      <trkpt lat="42.65706" lon="1.83795">
        <ele>1071.2</ele>
      </trkpt>
      <trkpt lat="42.65706" lon="1.83802">
        <ele>1071.7</ele>
      </trkpt>
      <trkpt lat="42.65709" lon="1.83832">
        <ele>1073.5</ele>
      </trkpt>
      <trkpt lat="42.65709" lon="1.83837">
        <ele>1073.9</ele>
      </trkpt>
      <trkpt lat="42.65704" lon="1.83858">
        <ele>1075.4</ele>
      </trkpt>
      <trkpt lat="42.65704" lon="1.83878">
        <ele>1077.3</ele>
      </trkpt>
      <trkpt lat="42.65704" lon="1.839">
        <ele>1079.7</ele>
      </trkpt>
      <trkpt lat="42.65703" lon="1.8394">
        <ele>1084.7</ele>
      </trkpt>
      <trkpt lat="42.65703" lon="1.83956">
        <ele>1086.7</ele>
      </trkpt>
      <trkpt lat="42.65702" lon="1.83982">
        <ele>1089.7</ele>
      </trkpt>
      <trkpt lat="42.65701" lon="1.84">
        <ele>1091.7</ele>
      </trkpt>
      <trkpt lat="42.65699" lon="1.84017">
        <ele>1094</ele>
      </trkpt>
      <trkpt lat="42.65698" lon="1.84019">
        <ele>1094.2</ele>
      </trkpt>
      <trkpt lat="42.65692" lon="1.8403">
        <ele>1095.4</ele>
      </trkpt>
      <trkpt lat="42.65685" lon="1.84048">
        <ele>1098.1</ele>
      </trkpt>
      <trkpt lat="42.65678" lon="1.84064">
        <ele>1100.2</ele>
      </trkpt>
      <trkpt lat="42.65672" lon="1.84075">
        <ele>1101.3</ele>
      </trkpt>
      <trkpt lat="42.65667" lon="1.84082">
        <ele>1101.8</ele>
      </trkpt>
      <trkpt lat="42.65663" lon="1.84085">
        <ele>1102.4</ele>
      </trkpt>
      <trkpt lat="42.65658" lon="1.84108">
        <ele>1106.5</ele>
      </trkpt>
      <trkpt lat="42.65655" lon="1.84118">
        <ele>1108.4</ele>
      </trkpt>
      <trkpt lat="42.6565" lon="1.84127">
        <ele>1110.1</ele>
      </trkpt>
      <trkpt lat="42.65638" lon="1.8415">
        <ele>1114.8</ele>
      </trkpt>
      <trkpt lat="42.6563" lon="1.84169">
        <ele>1119.2</ele>
      </trkpt>
      <trkpt lat="42.65625" lon="1.84183">
        <ele>1121.7</ele>
      </trkpt>
      <trkpt lat="42.65623" lon="1.84189">
        <ele>1122.8</ele>
      </trkpt>
      <trkpt lat="42.65619" lon="1.84197">
        <ele>1124</ele>
      </trkpt>
      <trkpt lat="42.65614" lon="1.84205">
        <ele>1124.8</ele>
      </trkpt>
      <trkpt lat="42.65612" lon="1.84211">
        <ele>1125.5</ele>
      </trkpt>
      <trkpt lat="42.65609" lon="1.8422">
        <ele>1126.8</ele>
      </trkpt>
      <trkpt lat="42.65607" lon="1.84239">
        <ele>1130.1</ele>
      </trkpt>
      <trkpt lat="42.65605" lon="1.84265">
        <ele>1134.7</ele>
      </trkpt>
      <trkpt lat="42.65601" lon="1.8429">
        <ele>1139.2</ele>
      </trkpt>
      <trkpt lat="42.65598" lon="1.84298">
        <ele>1140.6</ele>
      </trkpt>
      <trkpt lat="42.65595" lon="1.84309">
        <ele>1142.6</ele>
      </trkpt>
      <trkpt lat="42.65588" lon="1.8433">
        <ele>1146.3</ele>
      </trkpt>
      <trkpt lat="42.65587" lon="1.84336">
        <ele>1147.2</ele>
      </trkpt>
      <trkpt lat="42.65586" lon="1.84347">
        <ele>1148.8</ele>
      </trkpt>
      <trkpt lat="42.65585" lon="1.84358">
        <ele>1150.4</ele>
      </trkpt>
      <trkpt lat="42.65593" lon="1.84371">
        <ele>1151.9</ele>
      </trkpt>
      <trkpt lat="42.65577" lon="1.84389">
        <ele>1155.2</ele>
      </trkpt>
      <trkpt lat="42.65572" lon="1.84401">
        <ele>1157</ele>
      </trkpt>
      <trkpt lat="42.6557" lon="1.84405">
        <ele>1157.5</ele>
      </trkpt>
      <trkpt lat="42.65567" lon="1.8441">
        <ele>1158.2</ele>
      </trkpt>
      <trkpt lat="42.65559" lon="1.84439">
        <ele>1162.2</ele>
      </trkpt>
      <trkpt lat="42.65558" lon="1.84458">
        <ele>1165</ele>
      </trkpt>
      <trkpt lat="42.65551" lon="1.84482">
        <ele>1168.8</ele>
      </trkpt>
      <trkpt lat="42.65546" lon="1.84507">
        <ele>1173</ele>
      </trkpt>
      <trkpt lat="42.65542" lon="1.84526">
        <ele>1175.7</ele>
      </trkpt>
      <trkpt lat="42.65545" lon="1.84546">
        <ele>1178.6</ele>
      </trkpt>
      <trkpt lat="42.65552" lon="1.84566">
        <ele>1181.6</ele>
      </trkpt>
      <trkpt lat="42.65549" lon="1.84567">
        <ele>1181.7</ele>
      </trkpt>
      <trkpt lat="42.65546" lon="1.84568">
        <ele>1181.9</ele>
      </trkpt>
      <trkpt lat="42.65545" lon="1.84568">
        <ele>1182</ele>
      </trkpt>
      <trkpt lat="42.65542" lon="1.84569">
        <ele>1182.2</ele>
      </trkpt>
      <trkpt lat="42.65537" lon="1.84571">
        <ele>1182.6</ele>
      </trkpt>
      <trkpt lat="42.65529" lon="1.84575">
        <ele>1183.5</ele>
      </trkpt>
      <trkpt lat="42.65515" lon="1.84581">
        <ele>1184.6</ele>
      </trkpt>
      <trkpt lat="42.65509" lon="1.84584">
        <ele>1185.1</ele>
      </trkpt>
      <trkpt lat="42.65501" lon="1.84585">
        <ele>1185.2</ele>
      </trkpt>
      <trkpt lat="42.65493" lon="1.84584">
        <ele>1184.8</ele>
      </trkpt>
      <trkpt lat="42.65487" lon="1.84583">
        <ele>1184.5</ele>
      </trkpt>
      <trkpt lat="42.65479" lon="1.84584">
        <ele>1184.3</ele>
      </trkpt>
      <trkpt lat="42.65469" lon="1.84589">
        <ele>1184.2</ele>
      </trkpt>
      <trkpt lat="42.65464" lon="1.84592">
        <ele>1183.6</ele>
      </trkpt>
      <trkpt lat="42.65458" lon="1.84596">
        <ele>1182.8</ele>
      </trkpt>
      <trkpt lat="42.65453" lon="1.84601">
        <ele>1182.2</ele>
      </trkpt>
      <trkpt lat="42.65452" lon="1.84603">
        <ele>1182.2</ele>
      </trkpt>
      <trkpt lat="42.65455" lon="1.84612">
        <ele>1183.8</ele>
      </trkpt>
      <trkpt lat="42.65457" lon="1.84617">
        <ele>1184.8</ele>
      </trkpt>
      <trkpt lat="42.65459" lon="1.84631">
        <ele>1186.8</ele>
      </trkpt>
      <trkpt lat="42.65459" lon="1.84634">
        <ele>1187.1</ele>
      </trkpt>
      <trkpt lat="42.65455" lon="1.84641">
        <ele>1187.1</ele>
      </trkpt>
      <trkpt lat="42.65451" lon="1.84648">
        <ele>1187.5</ele>
      </trkpt>
      <trkpt lat="42.65448" lon="1.84657">
        <ele>1188.7</ele>
      </trkpt>
      <trkpt lat="42.65446" lon="1.84663">
        <ele>1189.6</ele>
      </trkpt>
      <trkpt lat="42.65441" lon="1.84675">
        <ele>1190.7</ele>
      </trkpt>
      <trkpt lat="42.6544" lon="1.84683">
        <ele>1192.1</ele>
      </trkpt>
      <trkpt lat="42.6544" lon="1.8469">
        <ele>1193.6</ele>
      </trkpt>
      <trkpt lat="42.65441" lon="1.84699">
        <ele>1195.7</ele>
      </trkpt>
      <trkpt lat="42.65442" lon="1.84708">
        <ele>1197.7</ele>
      </trkpt>
      <trkpt lat="42.65443" lon="1.84716">
        <ele>1199.5</ele>
      </trkpt>
      <trkpt lat="42.65444" lon="1.84729">
        <ele>1201.9</ele>
      </trkpt>
      <trkpt lat="42.65445" lon="1.84735">
        <ele>1202.9</ele>
      </trkpt>
      <trkpt lat="42.65444" lon="1.84742">
        <ele>1203.7</ele>
      </trkpt>
      <trkpt lat="42.65443" lon="1.8475">
        <ele>1204.6</ele>
      </trkpt>
      <trkpt lat="42.65442" lon="1.84756">
        <ele>1205.2</ele>
      </trkpt>
      <trkpt lat="42.6544" lon="1.8476">
        <ele>1205.3</ele>
      </trkpt>
      <trkpt lat="42.65436" lon="1.84766">
        <ele>1205.2</ele>
      </trkpt>
      <trkpt lat="42.6543" lon="1.84773">
        <ele>1204.7</ele>
      </trkpt>
      <trkpt lat="42.65425" lon="1.84779">
        <ele>1204.3</ele>
      </trkpt>
      <trkpt lat="42.6542" lon="1.84786">
        <ele>1204</ele>
      </trkpt>
      <trkpt lat="42.65417" lon="1.84791">
        <ele>1204</ele>
      </trkpt>
      <trkpt lat="42.65415" lon="1.84797">
        <ele>1204.4</ele>
      </trkpt>
      <trkpt lat="42.65413" lon="1.84803">
        <ele>1204.8</ele>
      </trkpt>
      <trkpt lat="42.65411" lon="1.84812">
        <ele>1205.8</ele>
      </trkpt>
      <trkpt lat="42.65372" lon="1.84878">
        <ele>1213.2</ele>
      </trkpt>
      <trkpt lat="42.65322" lon="1.84942">
        <ele>1227.5</ele>
      </trkpt>
      <trkpt lat="42.65285" lon="1.85002">
        <ele>1245</ele>
      </trkpt>
      <trkpt lat="42.65237" lon="1.85044">
        <ele>1259.5</ele>
      </trkpt>
      <trkpt lat="42.65205" lon="1.85098">
        <ele>1280.7</ele>
      </trkpt>
      <trkpt lat="42.652" lon="1.85109">
        <ele>1285</ele>
      </trkpt>
      <trkpt lat="42.65192" lon="1.8512">
        <ele>1289.7</ele>
      </trkpt>
      <trkpt lat="42.65188" lon="1.85122">
        <ele>1290.7</ele>
      </trkpt>
      <trkpt lat="42.65185" lon="1.85125">
        <ele>1292</ele>
      </trkpt>
      <trkpt lat="42.65184" lon="1.85131">
        <ele>1294.4</ele>
      </trkpt>
      <trkpt lat="42.65185" lon="1.8514">
        <ele>1297.8</ele>
      </trkpt>
      <trkpt lat="42.65191" lon="1.85153">
        <ele>1302.6</ele>
      </trkpt>
      <trkpt lat="42.65188" lon="1.8516">
        <ele>1305.4</ele>
      </trkpt>
      <trkpt lat="42.65188" lon="1.85166">
        <ele>1307.7</ele>
      </trkpt>
      <trkpt lat="42.6519" lon="1.8517">
        <ele>1309.2</ele>
      </trkpt>
      <trkpt lat="42.65187" lon="1.85174">
        <ele>1310.6</ele>
      </trkpt>
      <trkpt lat="42.65183" lon="1.85177">
        <ele>1311.6</ele>
      </trkpt>
      <trkpt lat="42.65182" lon="1.85182">
        <ele>1313.3</ele>
      </trkpt>
      <trkpt lat="42.65184" lon="1.85187">
        <ele>1315</ele>
      </trkpt>
      <trkpt lat="42.65189" lon="1.85189">
        <ele>1315.9</ele>
      </trkpt>
      <trkpt lat="42.65188" lon="1.85191">
        <ele>1316.6</ele>
      </trkpt>
      <trkpt lat="42.65185" lon="1.85194">
        <ele>1317.5</ele>
      </trkpt>
      <trkpt lat="42.65182" lon="1.85199">
        <ele>1319.3</ele>
      </trkpt>
      <trkpt lat="42.65182" lon="1.85202">
        <ele>1320.4</ele>
      </trkpt>
      <trkpt lat="42.65185" lon="1.85206">
        <ele>1322.1</ele>
      </trkpt>
      <trkpt lat="42.6519" lon="1.85208">
        <ele>1323.1</ele>
      </trkpt>
      <trkpt lat="42.65191" lon="1.85209">
        <ele>1323.6</ele>
      </trkpt>
      <trkpt lat="42.65191" lon="1.85212">
        <ele>1324.7</ele>
      </trkpt>
      <trkpt lat="42.65185" lon="1.85214">
        <ele>1325.2</ele>
      </trkpt>
      <trkpt lat="42.65176" lon="1.8522">
        <ele>1326.8</ele>
      </trkpt>
      <trkpt lat="42.65164" lon="1.85226">
        <ele>1328.5</ele>
      </trkpt>
      <trkpt lat="42.65157" lon="1.85228">
        <ele>1329.2</ele>
      </trkpt>
      <trkpt lat="42.6515" lon="1.8523">
        <ele>1329.9</ele>
      </trkpt>
      <trkpt lat="42.65148" lon="1.8523">
        <ele>1329.9</ele>
        <extensions>
          <visugpx:TrkExtension xmlns:visugpx="https://www.visugpx.com/editgpx/">
            <visugpx:node>4</visugpx:node>
            </visugpx:TrkExtension>
        </extensions>
      </trkpt>
      <trkpt lat="42.65141" lon="1.8523">
        <ele>1329.8</ele>
      </trkpt>
      <trkpt lat="42.65133" lon="1.85232">
        <ele>1330.2</ele>
      </trkpt>
      <trkpt lat="42.65125" lon="1.85236">
        <ele>1331.2</ele>
      </trkpt>
      <trkpt lat="42.65122" lon="1.85238">
        <ele>1331.7</ele>
      </trkpt>
      <trkpt lat="42.65119" lon="1.85238">
        <ele>1331.6</ele>
      </trkpt>
      <trkpt lat="42.65115" lon="1.85242">
        <ele>1332.6</ele>
      </trkpt>
      <trkpt lat="42.65104" lon="1.85257">
        <ele>1337.2</ele>
      </trkpt>
      <trkpt lat="42.65099" lon="1.85266">
        <ele>1340.1</ele>
      </trkpt>
      <trkpt lat="42.65097" lon="1.85269">
        <ele>1341</ele>
      </trkpt>
      <trkpt lat="42.65094" lon="1.8527">
        <ele>1341.1</ele>
      </trkpt>
      <trkpt lat="42.65085" lon="1.85271">
        <ele>1340.9</ele>
      </trkpt>
      <trkpt lat="42.65078" lon="1.85276">
        <ele>1341.8</ele>
      </trkpt>
      <trkpt lat="42.6507" lon="1.85282">
        <ele>1342.9</ele>
      </trkpt>
      <trkpt lat="42.65062" lon="1.85292">
        <ele>1345.3</ele>
      </trkpt>
      <trkpt lat="42.65056" lon="1.853">
        <ele>1347.2</ele>
      </trkpt>
      <trkpt lat="42.6505" lon="1.85314">
        <ele>1350.4</ele>
      </trkpt>
      <trkpt lat="42.65048" lon="1.85324">
        <ele>1353</ele>
      </trkpt>
      <trkpt lat="42.65044" lon="1.85335">
        <ele>1355.4</ele>
      </trkpt>
      <trkpt lat="42.65041" lon="1.85341">
        <ele>1356.4</ele>
      </trkpt>
      <trkpt lat="42.65036" lon="1.85348">
        <ele>1357.3</ele>
      </trkpt>
      <trkpt lat="42.65029" lon="1.85361">
        <ele>1359.2</ele>
      </trkpt>
      <trkpt lat="42.65023" lon="1.85382">
        <ele>1364</ele>
      </trkpt>
      <trkpt lat="42.65021" lon="1.85397">
        <ele>1367.5</ele>
      </trkpt>
      <trkpt lat="42.65019" lon="1.85404">
        <ele>1368.7</ele>
      </trkpt>
      <trkpt lat="42.65016" lon="1.85411">
        <ele>1369.7</ele>
      </trkpt>
      <trkpt lat="42.65006" lon="1.85432">
        <ele>1372.4</ele>
      </trkpt>
      <trkpt lat="42.64998" lon="1.85449">
        <ele>1374.5</ele>
      </trkpt>
      <trkpt lat="42.64993" lon="1.85459">
        <ele>1375.4</ele>
      </trkpt>
      <trkpt lat="42.64989" lon="1.85467">
        <ele>1376.1</ele>
      </trkpt>
      <trkpt lat="42.64985" lon="1.85469">
        <ele>1375.5</ele>
      </trkpt>
      <trkpt lat="42.6498" lon="1.85473">
        <ele>1375.2</ele>
      </trkpt>
      <trkpt lat="42.64977" lon="1.85476">
        <ele>1375.3</ele>
      </trkpt>
      <trkpt lat="42.64972" lon="1.85481">
        <ele>1375.5</ele>
      </trkpt>
      <trkpt lat="42.64966" lon="1.85489">
        <ele>1376</ele>
      </trkpt>
      <trkpt lat="42.64945" lon="1.8551">
        <ele>1375.7</ele>
      </trkpt>
      <trkpt lat="42.64943" lon="1.85519">
        <ele>1377</ele>
      </trkpt>
      <trkpt lat="42.64942" lon="1.85534">
        <ele>1381.2</ele>
      </trkpt>
      <trkpt lat="42.64939" lon="1.85552">
        <ele>1386.5</ele>
      </trkpt>
      <trkpt lat="42.64938" lon="1.85562">
        <ele>1389.2</ele>
      </trkpt>
      <trkpt lat="42.64935" lon="1.8557">
        <ele>1389.9</ele>
      </trkpt>
      <trkpt lat="42.64927" lon="1.8558">
        <ele>1388.5</ele>
      </trkpt>
      <trkpt lat="42.64923" lon="1.85593">
        <ele>1389.7</ele>
      </trkpt>
      <trkpt lat="42.64912" lon="1.85604">
        <ele>1387.1</ele>
      </trkpt>
      <trkpt lat="42.64908" lon="1.8561">
        <ele>1386.9</ele>
      </trkpt>
      <trkpt lat="42.64898" lon="1.8563">
        <ele>1388.2</ele>
      </trkpt>
      <trkpt lat="42.64889" lon="1.85642">
        <ele>1388.1</ele>
      </trkpt>
      <trkpt lat="42.64883" lon="1.85659">
        <ele>1390.7</ele>
      </trkpt>
      <trkpt lat="42.64872" lon="1.85678">
        <ele>1391.4</ele>
      </trkpt>
      <trkpt lat="42.64867" lon="1.85684">
        <ele>1391.1</ele>
      </trkpt>
      <trkpt lat="42.64855" lon="1.85707">
        <ele>1393.5</ele>
      </trkpt>
      <trkpt lat="42.64847" lon="1.85718">
        <ele>1394.5</ele>
      </trkpt>
      <trkpt lat="42.64834" lon="1.85728">
        <ele>1394</ele>
      </trkpt>
      <trkpt lat="42.64829" lon="1.85732">
        <ele>1394</ele>
      </trkpt>
      <trkpt lat="42.64814" lon="1.85746">
        <ele>1395.3</ele>
      </trkpt>
      <trkpt lat="42.64794" lon="1.85761">
        <ele>1396.9</ele>
      </trkpt>
      <trkpt lat="42.64785" lon="1.85772">
        <ele>1399.2</ele>
      </trkpt>
      <trkpt lat="42.6478" lon="1.85782">
        <ele>1402</ele>
      </trkpt>
      <trkpt lat="42.64769" lon="1.85788">
        <ele>1402.1</ele>
      </trkpt>
      <trkpt lat="42.64757" lon="1.85807">
        <ele>1405.5</ele>
      </trkpt>
      <trkpt lat="42.64753" lon="1.85811">
        <ele>1405.6</ele>
      </trkpt>
      <trkpt lat="42.64743" lon="1.85826">
        <ele>1408.5</ele>
      </trkpt>
      <trkpt lat="42.64735" lon="1.85844">
        <ele>1412.2</ele>
      </trkpt>
      <trkpt lat="42.64727" lon="1.85861">
        <ele>1415.3</ele>
      </trkpt>
      <trkpt lat="42.64723" lon="1.85875">
        <ele>1418.3</ele>
      </trkpt>
      <trkpt lat="42.64712" lon="1.85894">
        <ele>1422.4</ele>
      </trkpt>
      <trkpt lat="42.64697" lon="1.85908">
        <ele>1426.9</ele>
      </trkpt>
      <trkpt lat="42.64682" lon="1.85916">
        <ele>1429.4</ele>
      </trkpt>
      <trkpt lat="42.64678" lon="1.8592">
        <ele>1430.8</ele>
      </trkpt>
      <trkpt lat="42.64674" lon="1.85925">
        <ele>1432.8</ele>
      </trkpt>
      <trkpt lat="42.64654" lon="1.85954">
        <ele>1442.4</ele>
      </trkpt>
      <trkpt lat="42.64648" lon="1.85959">
        <ele>1443.1</ele>
      </trkpt>
      <trkpt lat="42.64644" lon="1.85962">
        <ele>1443.5</ele>
      </trkpt>
      <trkpt lat="42.64635" lon="1.85981">
        <ele>1448.8</ele>
      </trkpt>
      <trkpt lat="42.64632" lon="1.85985">
        <ele>1449.4</ele>
      </trkpt>
      <trkpt lat="42.64629" lon="1.85994">
        <ele>1451.7</ele>
      </trkpt>
      <trkpt lat="42.64629" lon="1.86003">
        <ele>1454.5</ele>
      </trkpt>
      <trkpt lat="42.64623" lon="1.8602">
        <ele>1459.3</ele>
      </trkpt>
      <trkpt lat="42.6462" lon="1.86022">
        <ele>1459.7</ele>
      </trkpt>
      <trkpt lat="42.6461" lon="1.86021">
        <ele>1458.8</ele>
      </trkpt>
      <trkpt lat="42.64599" lon="1.86015">
        <ele>1459</ele>
      </trkpt>
      <trkpt lat="42.64598" lon="1.86016">
        <ele>1459.5</ele>
      </trkpt>
      <trkpt lat="42.64596" lon="1.86024">
        <ele>1462.5</ele>
      </trkpt>
      <trkpt lat="42.64594" lon="1.86037">
        <ele>1467.3</ele>
      </trkpt>
      <trkpt lat="42.64589" lon="1.8605">
        <ele>1472.8</ele>
      </trkpt>
      <trkpt lat="42.64584" lon="1.86056">
        <ele>1476</ele>
      </trkpt>
      <trkpt lat="42.64576" lon="1.86069">
        <ele>1479.4</ele>
      </trkpt>
      <trkpt lat="42.64564" lon="1.86077">
        <ele>1480.7</ele>
      </trkpt>
      <trkpt lat="42.64558" lon="1.86092">
        <ele>1485.4</ele>
      </trkpt>
      <trkpt lat="42.64554" lon="1.86102">
        <ele>1488.5</ele>
      </trkpt>
      <trkpt lat="42.64549" lon="1.86111">
        <ele>1491</ele>
      </trkpt>
      <trkpt lat="42.64541" lon="1.86122">
        <ele>1493.6</ele>
      </trkpt>
      <trkpt lat="42.64534" lon="1.86128">
        <ele>1494.8</ele>
      </trkpt>
      <trkpt lat="42.64526" lon="1.86137">
        <ele>1496.8</ele>
      </trkpt>
      <trkpt lat="42.64521" lon="1.86153">
        <ele>1501.4</ele>
      </trkpt>
      <trkpt lat="42.64512" lon="1.86184">
        <ele>1511.9</ele>
      </trkpt>
      <trkpt lat="42.6451" lon="1.86192">
        <ele>1515</ele>
      </trkpt>
      <trkpt lat="42.64506" lon="1.86198">
        <ele>1516.8</ele>
      </trkpt>
      <trkpt lat="42.64499" lon="1.86203">
        <ele>1517.5</ele>
      </trkpt>
      <trkpt lat="42.64484" lon="1.86209">
        <ele>1516</ele>
      </trkpt>
      <trkpt lat="42.64481" lon="1.86215">
        <ele>1517.4</ele>
      </trkpt>
      <trkpt lat="42.64475" lon="1.86229">
        <ele>1520.6</ele>
      </trkpt>
      <trkpt lat="42.64471" lon="1.86233">
        <ele>1521</ele>
      </trkpt>
      <trkpt lat="42.64466" lon="1.86236">
        <ele>1521.4</ele>
      </trkpt>
      <trkpt lat="42.64453" lon="1.86235">
        <ele>1519.9</ele>
      </trkpt>
      <trkpt lat="42.64442" lon="1.8623">
        <ele>1517</ele>
      </trkpt>
      <trkpt lat="42.64436" lon="1.8623">
        <ele>1516.7</ele>
      </trkpt>
      <trkpt lat="42.64422" lon="1.86236">
        <ele>1518.2</ele>
      </trkpt>
      <trkpt lat="42.64401" lon="1.86241">
        <ele>1518.6</ele>
      </trkpt>
      <trkpt lat="42.64388" lon="1.86241">
        <ele>1517.7</ele>
      </trkpt>
      <trkpt lat="42.6438" lon="1.8624">
        <ele>1517</ele>
      </trkpt>
      <trkpt lat="42.64367" lon="1.86245">
        <ele>1517.9</ele>
      </trkpt>
      <trkpt lat="42.64346" lon="1.86245">
        <ele>1517.6</ele>
      </trkpt>
      <trkpt lat="42.64332" lon="1.86253">
        <ele>1519.9</ele>
      </trkpt>
      <trkpt lat="42.64323" lon="1.86254">
        <ele>1520.2</ele>
      </trkpt>
      <trkpt lat="42.64311" lon="1.8626">
        <ele>1521.9</ele>
      </trkpt>
      <trkpt lat="42.64281" lon="1.86267">
        <ele>1526.7</ele>
      </trkpt>
      <trkpt lat="42.64265" lon="1.86275">
        <ele>1530.9</ele>
      </trkpt>
      <trkpt lat="42.64258" lon="1.86275">
        <ele>1531.4</ele>
      </trkpt>
      <trkpt lat="42.64239" lon="1.86269">
        <ele>1530.5</ele>
      </trkpt>
      <trkpt lat="42.64232" lon="1.86269">
        <ele>1531.1</ele>
      </trkpt>
      <trkpt lat="42.64222" lon="1.86271">
        <ele>1532.8</ele>
      </trkpt>
      <trkpt lat="42.64203" lon="1.86279">
        <ele>1536.6</ele>
      </trkpt>
      <trkpt lat="42.64184" lon="1.8628">
        <ele>1537.8</ele>
      </trkpt>
      <trkpt lat="42.64175" lon="1.86284">
        <ele>1539.9</ele>
      </trkpt>
      <trkpt lat="42.64167" lon="1.86285">
        <ele>1540.6</ele>
      </trkpt>
      <trkpt lat="42.64166" lon="1.86287">
        <ele>1541.5</ele>
      </trkpt>
      <trkpt lat="42.64165" lon="1.8629">
        <ele>1542.7</ele>
      </trkpt>
      <trkpt lat="42.64167" lon="1.86297">
        <ele>1544.9</ele>
      </trkpt>
      <trkpt lat="42.64164" lon="1.86301">
        <ele>1546.4</ele>
      </trkpt>
      <trkpt lat="42.64158" lon="1.86303">
        <ele>1547.1</ele>
      </trkpt>
      <trkpt lat="42.6415" lon="1.86302">
        <ele>1546.9</ele>
      </trkpt>
      <trkpt lat="42.64146" lon="1.86305">
        <ele>1547.2</ele>
      </trkpt>
      <trkpt lat="42.64141" lon="1.86315">
        <ele>1551.2</ele>
      </trkpt>
      <trkpt lat="42.6414" lon="1.86324">
        <ele>1555</ele>
      </trkpt>
      <trkpt lat="42.64138" lon="1.86326">
        <ele>1555.9</ele>
      </trkpt>
      <trkpt lat="42.64129" lon="1.8633">
        <ele>1557.5</ele>
      </trkpt>
      <trkpt lat="42.64128" lon="1.86336">
        <ele>1559.7</ele>
      </trkpt>
      <trkpt lat="42.64127" lon="1.86344">
        <ele>1562.9</ele>
      </trkpt>
      <trkpt lat="42.64113" lon="1.86371">
        <ele>1572.9</ele>
      </trkpt>
      <trkpt lat="42.64102" lon="1.86382">
        <ele>1576.5</ele>
      </trkpt>
      <trkpt lat="42.64034" lon="1.86426">
        <ele>1594.8</ele>
      </trkpt>
      <trkpt lat="42.64022" lon="1.86431">
        <ele>1599.5</ele>
      </trkpt>
      <trkpt lat="42.64019" lon="1.86431">
        <ele>1600.1</ele>
      </trkpt>
      <trkpt lat="42.64007" lon="1.86432">
        <ele>1603.1</ele>
      </trkpt>
      <trkpt lat="42.63993" lon="1.86438">
        <ele>1607.7</ele>
      </trkpt>
      <trkpt lat="42.63983" lon="1.86443">
        <ele>1610</ele>
      </trkpt>
      <trkpt lat="42.63974" lon="1.86452">
        <ele>1612.6</ele>
      </trkpt>
      <trkpt lat="42.63973" lon="1.86463">
        <ele>1615.1</ele>
      </trkpt>
      <trkpt lat="42.63969" lon="1.86469">
        <ele>1616.2</ele>
      </trkpt>
      <trkpt lat="42.63964" lon="1.86494">
        <ele>1619.9</ele>
      </trkpt>
      <trkpt lat="42.63961" lon="1.86506">
        <ele>1621.5</ele>
      </trkpt>
      <trkpt lat="42.63943" lon="1.86535">
        <ele>1622.2</ele>
      </trkpt>
      <trkpt lat="42.63937" lon="1.86542">
        <ele>1623.6</ele>
      </trkpt>
      <trkpt lat="42.63934" lon="1.86555">
        <ele>1625.3</ele>
      </trkpt>
      <trkpt lat="42.63929" lon="1.86562">
        <ele>1627.3</ele>
      </trkpt>
      <trkpt lat="42.63925" lon="1.86572">
        <ele>1630</ele>
      </trkpt>
      <trkpt lat="42.6392" lon="1.86584">
        <ele>1633.2</ele>
      </trkpt>
      <trkpt lat="42.63912" lon="1.86591">
        <ele>1636.1</ele>
      </trkpt>
      <trkpt lat="42.63906" lon="1.86596">
        <ele>1638.5</ele>
      </trkpt>
      <trkpt lat="42.63898" lon="1.86603">
        <ele>1641.9</ele>
      </trkpt>
      <trkpt lat="42.63888" lon="1.86611">
        <ele>1646</ele>
      </trkpt>
      <trkpt lat="42.63879" lon="1.86618">
        <ele>1649.7</ele>
      </trkpt>
      <trkpt lat="42.63874" lon="1.86622">
        <ele>1651.8</ele>
      </trkpt>
      <trkpt lat="42.63862" lon="1.86632">
        <ele>1657.5</ele>
      </trkpt>
      <trkpt lat="42.63851" lon="1.86638">
        <ele>1660.6</ele>
      </trkpt>
      <trkpt lat="42.63847" lon="1.86643">
        <ele>1663</ele>
      </trkpt>
      <trkpt lat="42.63842" lon="1.86649">
        <ele>1665.8</ele>
      </trkpt>
      <trkpt lat="42.63839" lon="1.86657">
        <ele>1669.6</ele>
      </trkpt>
      <trkpt lat="42.63836" lon="1.8666">
        <ele>1671</ele>
      </trkpt>
      <trkpt lat="42.63825" lon="1.86664">
        <ele>1672</ele>
      </trkpt>
      <trkpt lat="42.63811" lon="1.86679">
        <ele>1678.6</ele>
      </trkpt>
      <trkpt lat="42.63798" lon="1.86688">
        <ele>1682.9</ele>
      </trkpt>
      <trkpt lat="42.63789" lon="1.86689">
        <ele>1682.9</ele>
      </trkpt>
      <trkpt lat="42.63783" lon="1.86688">
        <ele>1682</ele>
      </trkpt>
      <trkpt lat="42.63775" lon="1.86689">
        <ele>1682.2</ele>
      </trkpt>
      <trkpt lat="42.63771" lon="1.86691">
        <ele>1683.1</ele>
      </trkpt>
      <trkpt lat="42.63767" lon="1.86698">
        <ele>1686.6</ele>
      </trkpt>
      <trkpt lat="42.6376" lon="1.86701">
        <ele>1688</ele>
      </trkpt>
      <trkpt lat="42.6375" lon="1.86708">
        <ele>1691.3</ele>
      </trkpt>
      <trkpt lat="42.63735" lon="1.86714">
        <ele>1693.3</ele>
      </trkpt>
      <trkpt lat="42.63727" lon="1.86715">
        <ele>1693</ele>
      </trkpt>
      <trkpt lat="42.6372" lon="1.86722">
        <ele>1695.6</ele>
      </trkpt>
      <trkpt lat="42.63712" lon="1.86726">
        <ele>1696.2</ele>
      </trkpt>
      <trkpt lat="42.63702" lon="1.86728">
        <ele>1695.5</ele>
      </trkpt>
      <trkpt lat="42.63697" lon="1.8673">
        <ele>1695.5</ele>
      </trkpt>
      <trkpt lat="42.63684" lon="1.8674">
        <ele>1697.5</ele>
      </trkpt>
      <trkpt lat="42.63666" lon="1.8675">
        <ele>1699</ele>
      </trkpt>
      <trkpt lat="42.63647" lon="1.86766">
        <ele>1703.3</ele>
      </trkpt>
      <trkpt lat="42.63642" lon="1.86766">
        <ele>1702.8</ele>
      </trkpt>
      <trkpt lat="42.63636" lon="1.86763">
        <ele>1702.1</ele>
      </trkpt>
      <trkpt lat="42.63622" lon="1.86767">
        <ele>1704</ele>
      </trkpt>
      <trkpt lat="42.63612" lon="1.86766">
        <ele>1704.7</ele>
      </trkpt>
      <trkpt lat="42.63603" lon="1.86778">
        <ele>1705.8</ele>
      </trkpt>
      <trkpt lat="42.63595" lon="1.86787">
        <ele>1707</ele>
      </trkpt>
      <trkpt lat="42.63579" lon="1.86797">
        <ele>1707.7</ele>
      </trkpt>
      <trkpt lat="42.63564" lon="1.86811">
        <ele>1708.2</ele>
      </trkpt>
      <trkpt lat="42.63542" lon="1.86826">
        <ele>1709.6</ele>
      </trkpt>
      <trkpt lat="42.63534" lon="1.86831">
        <ele>1710.4</ele>
      </trkpt>
      <trkpt lat="42.6351" lon="1.86845">
        <ele>1714.6</ele>
      </trkpt>
      <trkpt lat="42.63498" lon="1.86863">
        <ele>1719.7</ele>
      </trkpt>
      <trkpt lat="42.63483" lon="1.86865">
        <ele>1720.9</ele>
      </trkpt>
      <trkpt lat="42.63475" lon="1.8687">
        <ele>1722.8</ele>
      </trkpt>
      <trkpt lat="42.63459" lon="1.86877">
        <ele>1724.7</ele>
      </trkpt>
      <trkpt lat="42.63446" lon="1.86886">
        <ele>1727.1</ele>
      </trkpt>
      <trkpt lat="42.63438" lon="1.86889">
        <ele>1726.9</ele>
      </trkpt>
      <trkpt lat="42.63426" lon="1.869">
        <ele>1729.5</ele>
      </trkpt>
      <trkpt lat="42.63416" lon="1.86905">
        <ele>1729.9</ele>
      </trkpt>
      <trkpt lat="42.63403" lon="1.86919">
        <ele>1732.8</ele>
      </trkpt>
      <trkpt lat="42.63397" lon="1.86921">
        <ele>1732.2</ele>
      </trkpt>
      <trkpt lat="42.63388" lon="1.86922">
        <ele>1730.6</ele>
      </trkpt>
      <trkpt lat="42.63371" lon="1.86929">
        <ele>1729</ele>
      </trkpt>
      <trkpt lat="42.63361" lon="1.86933">
        <ele>1727.4</ele>
      </trkpt>
      <trkpt lat="42.63355" lon="1.86945">
        <ele>1729.3</ele>
      </trkpt>
      <trkpt lat="42.63347" lon="1.86961">
        <ele>1731.3</ele>
      </trkpt>
      <trkpt lat="42.63345" lon="1.86971">
        <ele>1732</ele>
      </trkpt>
      <trkpt lat="42.63341" lon="1.86979">
        <ele>1732.1</ele>
      </trkpt>
      <trkpt lat="42.63336" lon="1.86981">
        <ele>1731.2</ele>
      </trkpt>
      <trkpt lat="42.63328" lon="1.86978">
        <ele>1731.9</ele>
      </trkpt>
      <trkpt lat="42.63315" lon="1.86988">
        <ele>1736</ele>
      </trkpt>
      <trkpt lat="42.63312" lon="1.86994">
        <ele>1737.1</ele>
      </trkpt>
      <trkpt lat="42.63306" lon="1.87016">
        <ele>1738.3</ele>
      </trkpt>
      <trkpt lat="42.63299" lon="1.87022">
        <ele>1739.7</ele>
      </trkpt>
      <trkpt lat="42.63292" lon="1.87024">
        <ele>1741.1</ele>
      </trkpt>
      <trkpt lat="42.6329" lon="1.87026">
        <ele>1741.5</ele>
      </trkpt>
      <trkpt lat="42.63281" lon="1.87047">
        <ele>1743.2</ele>
      </trkpt>
      <trkpt lat="42.63276" lon="1.8705">
        <ele>1744.3</ele>
      </trkpt>
      <trkpt lat="42.63268" lon="1.87062">
        <ele>1745.9</ele>
      </trkpt>
      <trkpt lat="42.63261" lon="1.87076">
        <ele>1747.3</ele>
      </trkpt>
      <trkpt lat="42.63238" lon="1.87111">
        <ele>1751.3</ele>
      </trkpt>
      <trkpt lat="42.63227" lon="1.87131">
        <ele>1753.2</ele>
      </trkpt>
      <trkpt lat="42.63223" lon="1.87134">
        <ele>1753.7</ele>
      </trkpt>
      <trkpt lat="42.63216" lon="1.87136">
        <ele>1755.5</ele>
      </trkpt>
      <trkpt lat="42.63203" lon="1.87145">
        <ele>1758.9</ele>
      </trkpt>
      <trkpt lat="42.63195" lon="1.87151">
        <ele>1760.9</ele>
      </trkpt>
      <trkpt lat="42.63176" lon="1.87173">
        <ele>1765.1</ele>
      </trkpt>
      <trkpt lat="42.63163" lon="1.87194">
        <ele>1766.2</ele>
      </trkpt>
      <trkpt lat="42.63157" lon="1.8721">
        <ele>1768.1</ele>
      </trkpt>
      <trkpt lat="42.63152" lon="1.87219">
        <ele>1769.8</ele>
      </trkpt>
      <trkpt lat="42.63149" lon="1.87234">
        <ele>1772.1</ele>
      </trkpt>
      <trkpt lat="42.63142" lon="1.87246">
        <ele>1774.4</ele>
      </trkpt>
      <trkpt lat="42.6314" lon="1.87252">
        <ele>1774.8</ele>
      </trkpt>
      <trkpt lat="42.63139" lon="1.8726">
        <ele>1774.3</ele>
      </trkpt>
      <trkpt lat="42.63131" lon="1.87272">
        <ele>1776.9</ele>
      </trkpt>
      <trkpt lat="42.63124" lon="1.87286">
        <ele>1780.1</ele>
      </trkpt>
      <trkpt lat="42.63109" lon="1.87323">
        <ele>1782.6</ele>
      </trkpt>
      <trkpt lat="42.63106" lon="1.87333">
        <ele>1782.3</ele>
      </trkpt>
      <trkpt lat="42.63107" lon="1.87357">
        <ele>1781.3</ele>
      </trkpt>
      <trkpt lat="42.63106" lon="1.8738">
        <ele>1781.6</ele>
      </trkpt>
      <trkpt lat="42.63099" lon="1.87417">
        <ele>1785.5</ele>
      </trkpt>
      <trkpt lat="42.63098" lon="1.87446">
        <ele>1787.4</ele>
      </trkpt>
      <trkpt lat="42.63101" lon="1.8746">
        <ele>1788</ele>
      </trkpt>
      <trkpt lat="42.63102" lon="1.87477">
        <ele>1789.5</ele>
      </trkpt>
      <trkpt lat="42.63095" lon="1.87492">
        <ele>1792.6</ele>
      </trkpt>
      <trkpt lat="42.63088" lon="1.87501">
        <ele>1795.1</ele>
      </trkpt>
      <trkpt lat="42.63086" lon="1.87508">
        <ele>1795.9</ele>
      </trkpt>
      <trkpt lat="42.63086" lon="1.87518">
        <ele>1796.4</ele>
      </trkpt>
      <trkpt lat="42.63082" lon="1.87527">
        <ele>1797.8</ele>
      </trkpt>
      <trkpt lat="42.63077" lon="1.87547">
        <ele>1800.8</ele>
      </trkpt>
      <trkpt lat="42.63068" lon="1.87559">
        <ele>1804.8</ele>
      </trkpt>
      <trkpt lat="42.63066" lon="1.87578">
        <ele>1806.5</ele>
      </trkpt>
      <trkpt lat="42.63062" lon="1.87583">
        <ele>1807.6</ele>
      </trkpt>
      <trkpt lat="42.63062" lon="1.87587">
        <ele>1808.3</ele>
      </trkpt>
      <trkpt lat="42.63065" lon="1.87603">
        <ele>1810.7</ele>
      </trkpt>
      <trkpt lat="42.63063" lon="1.87622">
        <ele>1814.2</ele>
      </trkpt>
      <trkpt lat="42.6306" lon="1.87632">
        <ele>1816.2</ele>
      </trkpt>
      <trkpt lat="42.63047" lon="1.87658">
        <ele>1820.7</ele>
      </trkpt>
      <trkpt lat="42.63027" lon="1.87712">
        <ele>1822.6</ele>
      </trkpt>
      <trkpt lat="42.63024" lon="1.87736">
        <ele>1823.5</ele>
      </trkpt>
      <trkpt lat="42.63024" lon="1.87774">
        <ele>1819.7</ele>
      </trkpt>
      <trkpt lat="42.6302" lon="1.87787">
        <ele>1820.8</ele>
      </trkpt>
      <trkpt lat="42.63017" lon="1.87795">
        <ele>1821.8</ele>
      </trkpt>
      <trkpt lat="42.6301" lon="1.87802">
        <ele>1823.3</ele>
      </trkpt>
      <trkpt lat="42.62995" lon="1.87832">
        <ele>1823.2</ele>
      </trkpt>
      <trkpt lat="42.6299" lon="1.87837">
        <ele>1824.2</ele>
      </trkpt>
      <trkpt lat="42.6298" lon="1.87842">
        <ele>1826.2</ele>
      </trkpt>
      <trkpt lat="42.62973" lon="1.87844">
        <ele>1827.5</ele>
      </trkpt>
      <trkpt lat="42.6297" lon="1.87842">
        <ele>1828.1</ele>
      </trkpt>
      <trkpt lat="42.62961" lon="1.87828">
        <ele>1830.7</ele>
      </trkpt>
      <trkpt lat="42.62958" lon="1.87825">
        <ele>1831.6</ele>
      </trkpt>
      <trkpt lat="42.62944" lon="1.87825">
        <ele>1834.3</ele>
      </trkpt>
      <trkpt lat="42.62936" lon="1.87828">
        <ele>1836.1</ele>
      </trkpt>
      <trkpt lat="42.62929" lon="1.87835">
        <ele>1836.9</ele>
      </trkpt>
      <trkpt lat="42.62923" lon="1.87848">
        <ele>1838</ele>
      </trkpt>
      <trkpt lat="42.62919" lon="1.8785">
        <ele>1838.9</ele>
      </trkpt>
      <trkpt lat="42.62912" lon="1.87857">
        <ele>1840.6</ele>
      </trkpt>
      <trkpt lat="42.62907" lon="1.87859">
        <ele>1841.9</ele>
      </trkpt>
      <trkpt lat="42.62893" lon="1.87859">
        <ele>1846.1</ele>
      </trkpt>
      <trkpt lat="42.6288" lon="1.87863">
        <ele>1851.1</ele>
      </trkpt>
      <trkpt lat="42.62863" lon="1.87883">
        <ele>1856.2</ele>
      </trkpt>
      <trkpt lat="42.62857" lon="1.87892">
        <ele>1857.8</ele>
      </trkpt>
      <trkpt lat="42.62851" lon="1.87895">
        <ele>1860.3</ele>
      </trkpt>
      <trkpt lat="42.62844" lon="1.87896">
        <ele>1863</ele>
      </trkpt>
      <trkpt lat="42.6284" lon="1.87899">
        <ele>1864.4</ele>
      </trkpt>
      <trkpt lat="42.62826" lon="1.87905">
        <ele>1869.5</ele>
      </trkpt>
      <trkpt lat="42.62819" lon="1.87913">
        <ele>1870.9</ele>
      </trkpt>
      <trkpt lat="42.62814" lon="1.87916">
        <ele>1872.1</ele>
      </trkpt>
      <trkpt lat="42.62809" lon="1.87913">
        <ele>1874.7</ele>
      </trkpt>
      <trkpt lat="42.62801" lon="1.87904">
        <ele>1880.1</ele>
      </trkpt>
      <trkpt lat="42.62795" lon="1.87903">
        <ele>1882.2</ele>
      </trkpt>
      <trkpt lat="42.62792" lon="1.87901">
        <ele>1883.5</ele>
      </trkpt>
      <trkpt lat="42.62789" lon="1.87897">
        <ele>1885.1</ele>
      </trkpt>
      <trkpt lat="42.62789" lon="1.87889">
        <ele>1886.6</ele>
      </trkpt>
      <trkpt lat="42.62783" lon="1.87888">
        <ele>1888.4</ele>
      </trkpt>
      <trkpt lat="42.6278" lon="1.87883">
        <ele>1892.1</ele>
      </trkpt>
      <trkpt lat="42.62775" lon="1.87879">
        <ele>1896</ele>
      </trkpt>
      <trkpt lat="42.62767" lon="1.87875">
        <ele>1900.4</ele>
      </trkpt>
      <trkpt lat="42.62754" lon="1.87864">
        <ele>1906.9</ele>
      </trkpt>
      <trkpt lat="42.62741" lon="1.87855">
        <ele>1914.1</ele>
      </trkpt>
      <trkpt lat="42.62738" lon="1.87853">
        <ele>1915.9</ele>
      </trkpt>
      <trkpt lat="42.62734" lon="1.87853">
        <ele>1916.5</ele>
      </trkpt>
      <trkpt lat="42.62716" lon="1.87844">
        <ele>1924.1</ele>
      </trkpt>
      <trkpt lat="42.62704" lon="1.87842">
        <ele>1927.9</ele>
      </trkpt>
      <trkpt lat="42.62702" lon="1.87839">
        <ele>1928.9</ele>
      </trkpt>
      <trkpt lat="42.62703" lon="1.87833">
        <ele>1930</ele>
      </trkpt>
      <trkpt lat="42.62694" lon="1.87832">
        <ele>1931.9</ele>
      </trkpt>
      <trkpt lat="42.62692" lon="1.8783">
        <ele>1933.6</ele>
      </trkpt>
      <trkpt lat="42.62694" lon="1.87823">
        <ele>1937.4</ele>
      </trkpt>
      <trkpt lat="42.62692" lon="1.87821">
        <ele>1938.9</ele>
      </trkpt>
      <trkpt lat="42.62684" lon="1.8782">
        <ele>1940.7</ele>
      </trkpt>
      <trkpt lat="42.62677" lon="1.8782">
        <ele>1941.7</ele>
      </trkpt>
      <trkpt lat="42.62667" lon="1.87815">
        <ele>1945.2</ele>
      </trkpt>
      <trkpt lat="42.62656" lon="1.87808">
        <ele>1949.8</ele>
      </trkpt>
      <trkpt lat="42.62644" lon="1.87799">
        <ele>1956.6</ele>
      </trkpt>
      <trkpt lat="42.62628" lon="1.87793">
        <ele>1963</ele>
      </trkpt>
      <trkpt lat="42.62626" lon="1.8779">
        <ele>1965</ele>
      </trkpt>
      <trkpt lat="42.62626" lon="1.87787">
        <ele>1966.6</ele>
      </trkpt>
      <trkpt lat="42.62632" lon="1.87783">
        <ele>1968.2</ele>
      </trkpt>
      <trkpt lat="42.62633" lon="1.8778">
        <ele>1969.9</ele>
      </trkpt>
      <trkpt lat="42.62627" lon="1.87778">
        <ele>1971.3</ele>
      </trkpt>
      <trkpt lat="42.62622" lon="1.87777">
        <ele>1972.2</ele>
      </trkpt>
      <trkpt lat="42.62617" lon="1.87774">
        <ele>1974.6</ele>
      </trkpt>
      <trkpt lat="42.62613" lon="1.87771">
        <ele>1976.8</ele>
      </trkpt>
      <trkpt lat="42.62604" lon="1.87765">
        <ele>1981.7</ele>
      </trkpt>
      <trkpt lat="42.62595" lon="1.87759">
        <ele>1985.7</ele>
      </trkpt>
      <trkpt lat="42.62571" lon="1.87736">
        <ele>1999.2</ele>
      </trkpt>
      <trkpt lat="42.62571" lon="1.87733">
        <ele>2001.1</ele>
      </trkpt>
      <trkpt lat="42.62574" lon="1.87732">
        <ele>2002</ele>
      </trkpt>
      <trkpt lat="42.62574" lon="1.87729">
        <ele>2003.9</ele>
      </trkpt>
      <trkpt lat="42.62557" lon="1.8772">
        <ele>2006.8</ele>
      </trkpt>
      <trkpt lat="42.62554" lon="1.87716">
        <ele>2009.2</ele>
      </trkpt>
      <trkpt lat="42.6255" lon="1.8771">
        <ele>2012.9</ele>
      </trkpt>
      <trkpt lat="42.62545" lon="1.87709">
        <ele>2013.1</ele>
      </trkpt>
      <trkpt lat="42.62522" lon="1.87696">
        <ele>2018.3</ele>
      </trkpt>
      <trkpt lat="42.62514" lon="1.87693">
        <ele>2020.1</ele>
      </trkpt>
      <trkpt lat="42.62503" lon="1.87689">
        <ele>2022.8</ele>
      </trkpt>
      <trkpt lat="42.62493" lon="1.87688">
        <ele>2025.5</ele>
      </trkpt>
      <trkpt lat="42.62492" lon="1.87685">
        <ele>2027.7</ele>
      </trkpt>
      <trkpt lat="42.62497" lon="1.87679">
        <ele>2030.2</ele>
      </trkpt>
      <trkpt lat="42.62496" lon="1.87677">
        <ele>2031.7</ele>
      </trkpt>
      <trkpt lat="42.62488" lon="1.87677">
        <ele>2033.4</ele>
      </trkpt>
      <trkpt lat="42.62483" lon="1.87677">
        <ele>2034.4</ele>
      </trkpt>
      <trkpt lat="42.62472" lon="1.87681">
        <ele>2034.8</ele>
      </trkpt>
      <trkpt lat="42.62458" lon="1.87674">
        <ele>2039.7</ele>
      </trkpt>
      <trkpt lat="42.62448" lon="1.87675">
        <ele>2040.7</ele>
      </trkpt>
      <trkpt lat="42.62434" lon="1.87671">
        <ele>2042.9</ele>
      </trkpt>
      <trkpt lat="42.6241" lon="1.87667">
        <ele>2044.7</ele>
      </trkpt>
      <trkpt lat="42.62399" lon="1.87663">
        <ele>2045.3</ele>
      </trkpt>
      <trkpt lat="42.62389" lon="1.87658">
        <ele>2046.2</ele>
      </trkpt>
      <trkpt lat="42.62373" lon="1.87654">
        <ele>2047.2</ele>
      </trkpt>
      <trkpt lat="42.6237" lon="1.87651">
        <ele>2047.9</ele>
      </trkpt>
      <trkpt lat="42.6236" lon="1.87633">
        <ele>2052.4</ele>
      </trkpt>
      <trkpt lat="42.62349" lon="1.87611">
        <ele>2061</ele>
      </trkpt>
      <trkpt lat="42.62344" lon="1.87603">
        <ele>2063.4</ele>
      </trkpt>
      <trkpt lat="42.6234" lon="1.87599">
        <ele>2064.2</ele>
      </trkpt>
      <trkpt lat="42.62336" lon="1.87598">
        <ele>2064.1</ele>
      </trkpt>
      <trkpt lat="42.6233" lon="1.87598">
        <ele>2063.2</ele>
      </trkpt>
      <trkpt lat="42.62323" lon="1.87595">
        <ele>2062.5</ele>
      </trkpt>
      <trkpt lat="42.62316" lon="1.87584">
        <ele>2062.5</ele>
      </trkpt>
      <trkpt lat="42.62304" lon="1.87581">
        <ele>2060.1</ele>
      </trkpt>
      <trkpt lat="42.62299" lon="1.87578">
        <ele>2059.6</ele>
      </trkpt>
      <trkpt lat="42.62292" lon="1.87569">
        <ele>2059.4</ele>
      </trkpt>
      <trkpt lat="42.62284" lon="1.87556">
        <ele>2058.7</ele>
      </trkpt>
      <trkpt lat="42.6227" lon="1.87546">
        <ele>2058.9</ele>
      </trkpt>
      <trkpt lat="42.62263" lon="1.87543">
        <ele>2059.3</ele>
      </trkpt>
      <trkpt lat="42.62253" lon="1.87536">
        <ele>2060.8</ele>
      </trkpt>
      <trkpt lat="42.62243" lon="1.87535">
        <ele>2062</ele>
      </trkpt>
      <trkpt lat="42.62237" lon="1.8753">
        <ele>2064.6</ele>
      </trkpt>
      <trkpt lat="42.62231" lon="1.87528">
        <ele>2066.3</ele>
      </trkpt>
      <trkpt lat="42.62231" lon="1.87528">
        <ele>2066.3</ele>
      </trkpt>
      <trkpt lat="42.62227" lon="1.87525">
        <ele>2067.8</ele>
      </trkpt>
      <trkpt lat="42.62224" lon="1.87522">
        <ele>2069</ele>
      </trkpt>
      <trkpt lat="42.62206" lon="1.87516">
        <ele>2075.6</ele>
      </trkpt>
      <trkpt lat="42.62188" lon="1.87506">
        <ele>2083.7</ele>
      </trkpt>
      <trkpt lat="42.62175" lon="1.87503">
        <ele>2090.6</ele>
      </trkpt>
      <trkpt lat="42.62173" lon="1.87501">
        <ele>2091.8</ele>
      </trkpt>
      <trkpt lat="42.62162" lon="1.8749">
        <ele>2096.1</ele>
      </trkpt>
      <trkpt lat="42.6215" lon="1.87477">
        <ele>2100.7</ele>
      </trkpt>
      <trkpt lat="42.62143" lon="1.87468">
        <ele>2103</ele>
      </trkpt>
      <trkpt lat="42.62136" lon="1.87463">
        <ele>2105.9</ele>
      </trkpt>
      <trkpt lat="42.6213" lon="1.87457">
        <ele>2108.2</ele>
      </trkpt>
      <trkpt lat="42.62118" lon="1.8744">
        <ele>2112.4</ele>
      </trkpt>
      <trkpt lat="42.62112" lon="1.87432">
        <ele>2115.1</ele>
      </trkpt>
      <trkpt lat="42.62107" lon="1.8743">
        <ele>2117.4</ele>
      </trkpt>
      <trkpt lat="42.62101" lon="1.87432">
        <ele>2120.5</ele>
      </trkpt>
      <trkpt lat="42.62095" lon="1.87439">
        <ele>2123.7</ele>
      </trkpt>
      <trkpt lat="42.62084" lon="1.87429">
        <ele>2128.7</ele>
      </trkpt>
      <trkpt lat="42.62076" lon="1.87426">
        <ele>2130.9</ele>
      </trkpt>
      <trkpt lat="42.62057" lon="1.87417">
        <ele>2134.7</ele>
      </trkpt>
      <trkpt lat="42.62052" lon="1.87416">
        <ele>2136.2</ele>
      </trkpt>
      <trkpt lat="42.62038" lon="1.87415">
        <ele>2140.7</ele>
      </trkpt>
      <trkpt lat="42.62032" lon="1.87414">
        <ele>2142.6</ele>
      </trkpt>
      <trkpt lat="42.62022" lon="1.87414">
        <ele>2147.1</ele>
      </trkpt>
      <trkpt lat="42.62018" lon="1.87413">
        <ele>2149.2</ele>
      </trkpt>
      <trkpt lat="42.61997" lon="1.87393">
        <ele>2161</ele>
      </trkpt>
      <trkpt lat="42.61991" lon="1.87379">
        <ele>2164.4</ele>
      </trkpt>
      <trkpt lat="42.61986" lon="1.8738">
        <ele>2166.3</ele>
      </trkpt>
      <trkpt lat="42.6197" lon="1.87377">
        <ele>2173.5</ele>
      </trkpt>
      <trkpt lat="42.61964" lon="1.87371">
        <ele>2177.4</ele>
      </trkpt>
      <trkpt lat="42.61961" lon="1.87363">
        <ele>2179.9</ele>
      </trkpt>
      <trkpt lat="42.61959" lon="1.87363">
        <ele>2180.9</ele>
      </trkpt>
      <trkpt lat="42.61947" lon="1.8737">
        <ele>2186.7</ele>
      </trkpt>
      <trkpt lat="42.61942" lon="1.87372">
        <ele>2188.8</ele>
      </trkpt>
      <trkpt lat="42.6194" lon="1.87379">
        <ele>2188.9</ele>
      </trkpt>
      <trkpt lat="42.61938" lon="1.8739">
        <ele>2188.7</ele>
      </trkpt>
      <trkpt lat="42.61936" lon="1.87397">
        <ele>2189.1</ele>
      </trkpt>
      <trkpt lat="42.61931" lon="1.87404">
        <ele>2190.5</ele>
      </trkpt>
      <trkpt lat="42.61927" lon="1.87406">
        <ele>2191.8</ele>
      </trkpt>
      <trkpt lat="42.61922" lon="1.87405">
        <ele>2193.7</ele>
      </trkpt>
      <trkpt lat="42.61918" lon="1.87403">
        <ele>2195.5</ele>
      </trkpt>
      <trkpt lat="42.6191" lon="1.87395">
        <ele>2199.3</ele>
      </trkpt>
      <trkpt lat="42.61903" lon="1.87391">
        <ele>2202.2</ele>
      </trkpt>
      <trkpt lat="42.619" lon="1.87391">
        <ele>2203.1</ele>
      </trkpt>
      <trkpt lat="42.61896" lon="1.87393">
        <ele>2204.2</ele>
      </trkpt>
      <trkpt lat="42.6189" lon="1.87395">
        <ele>2206</ele>
      </trkpt>
      <trkpt lat="42.6188" lon="1.87391">
        <ele>2210.9</ele>
      </trkpt>
      <trkpt lat="42.61873" lon="1.8739">
        <ele>2214.3</ele>
      </trkpt>
      <trkpt lat="42.61865" lon="1.87394">
        <ele>2217.5</ele>
      </trkpt>
      <trkpt lat="42.61858" lon="1.87403">
        <ele>2219.5</ele>
      </trkpt>
      <trkpt lat="42.61848" lon="1.87411">
        <ele>2223.3</ele>
      </trkpt>
      <trkpt lat="42.61843" lon="1.87413">
        <ele>2225.6</ele>
      </trkpt>
      <trkpt lat="42.61833" lon="1.87408">
        <ele>2231.1</ele>
      </trkpt>
      <trkpt lat="42.61825" lon="1.87407">
        <ele>2234.2</ele>
      </trkpt>
      <trkpt lat="42.61804" lon="1.87394">
        <ele>2243.2</ele>
      </trkpt>
      <trkpt lat="42.61801" lon="1.87394">
        <ele>2244.3</ele>
      </trkpt>
      <trkpt lat="42.61789" lon="1.87398">
        <ele>2248.3</ele>
      </trkpt>
      <trkpt lat="42.61784" lon="1.87399">
        <ele>2250</ele>
      </trkpt>
      <trkpt lat="42.61778" lon="1.87397">
        <ele>2252.3</ele>
      </trkpt>
      <trkpt lat="42.6177" lon="1.87391">
        <ele>2256.2</ele>
      </trkpt>
      <trkpt lat="42.61764" lon="1.87389">
        <ele>2258.9</ele>
      </trkpt>
      <trkpt lat="42.61761" lon="1.8739">
        <ele>2260.2</ele>
      </trkpt>
      <trkpt lat="42.61753" lon="1.87395">
        <ele>2263.3</ele>
      </trkpt>
      <trkpt lat="42.61746" lon="1.87412">
        <ele>2265</ele>
      </trkpt>
      <trkpt lat="42.6174" lon="1.87417">
        <ele>2266.9</ele>
      </trkpt>
      <trkpt lat="42.6173" lon="1.87418">
        <ele>2270.6</ele>
      </trkpt>
      <trkpt lat="42.61715" lon="1.87413">
        <ele>2276.7</ele>
      </trkpt>
      <trkpt lat="42.61703" lon="1.87411">
        <ele>2280.2</ele>
      </trkpt>
      <trkpt lat="42.61698" lon="1.87409">
        <ele>2281.7</ele>
      </trkpt>
      <trkpt lat="42.61682" lon="1.87398">
        <ele>2290.7</ele>
      </trkpt>
      <trkpt lat="42.61665" lon="1.87382">
        <ele>2300.2</ele>
      </trkpt>
      <trkpt lat="42.61658" lon="1.87373">
        <ele>2306.4</ele>
      </trkpt>
      <trkpt lat="42.61651" lon="1.87364">
        <ele>2311</ele>
      </trkpt>
      <trkpt lat="42.61649" lon="1.87355">
        <ele>2310.9</ele>
      </trkpt>
      <trkpt lat="42.61641" lon="1.87335">
        <ele>2313</ele>
      </trkpt>
      <trkpt lat="42.61636" lon="1.87326">
        <ele>2314.9</ele>
      </trkpt>
      <trkpt lat="42.61631" lon="1.8732">
        <ele>2317.2</ele>
      </trkpt>
      <trkpt lat="42.61627" lon="1.87316">
        <ele>2318.9</ele>
      </trkpt>
      <trkpt lat="42.61625" lon="1.8731">
        <ele>2318.4</ele>
      </trkpt>
      <trkpt lat="42.61616" lon="1.87293">
        <ele>2318.4</ele>
      </trkpt>
      <trkpt lat="42.61611" lon="1.87285">
        <ele>2318.4</ele>
      </trkpt>
      <trkpt lat="42.61597" lon="1.87277">
        <ele>2325</ele>
      </trkpt>
      <trkpt lat="42.61589" lon="1.87265">
        <ele>2327.3</ele>
      </trkpt>
      <trkpt lat="42.61586" lon="1.87261">
        <ele>2328.2</ele>
      </trkpt>
      <trkpt lat="42.61573" lon="1.87233">
        <ele>2328.9</ele>
      </trkpt>
      <trkpt lat="42.61572" lon="1.87231">
        <ele>2328.8</ele>
      </trkpt>
      <trkpt lat="42.61568" lon="1.8723">
        <ele>2330.2</ele>
      </trkpt>
      <trkpt lat="42.61562" lon="1.8722">
        <ele>2329.6</ele>
      </trkpt>
      <trkpt lat="42.61563" lon="1.87216">
        <ele>2329</ele>
      </trkpt>
      <trkpt lat="42.61566" lon="1.87205">
        <ele>2328</ele>
      </trkpt>
      <trkpt lat="42.61561" lon="1.87202">
        <ele>2327.4</ele>
      </trkpt>
      <trkpt lat="42.6156" lon="1.87194">
        <ele>2326.1</ele>
      </trkpt>
      <trkpt lat="42.61556" lon="1.87189">
        <ele>2324.2</ele>
      </trkpt>
      <trkpt lat="42.61554" lon="1.87181">
        <ele>2322</ele>
      </trkpt>
      <trkpt lat="42.61551" lon="1.87176">
        <ele>2319.9</ele>
      </trkpt>
      <trkpt lat="42.6155" lon="1.87176">
        <ele>2319.5</ele>
      </trkpt>
      <trkpt lat="42.61547" lon="1.87181">
        <ele>2319.5</ele>
      </trkpt>
      <trkpt lat="42.61544" lon="1.87182">
        <ele>2318.7</ele>
      </trkpt>
      <trkpt lat="42.61541" lon="1.87178">
        <ele>2316.5</ele>
      </trkpt>
      <trkpt lat="42.61532" lon="1.8716">
        <ele>2307.3</ele>
      </trkpt>
      <trkpt lat="42.61525" lon="1.87152">
        <ele>2302.4</ele>
      </trkpt>
      <trkpt lat="42.61521" lon="1.8715">
        <ele>2301.3</ele>
      </trkpt>
      <trkpt lat="42.61514" lon="1.87147">
        <ele>2299.5</ele>
      </trkpt>
      <trkpt lat="42.61502" lon="1.8714">
        <ele>2295.6</ele>
      </trkpt>
      <trkpt lat="42.61492" lon="1.87136">
        <ele>2293.4</ele>
      </trkpt>
      <trkpt lat="42.61484" lon="1.87136">
        <ele>2292.2</ele>
      </trkpt>
      <trkpt lat="42.61478" lon="1.87138">
        <ele>2291.7</ele>
      </trkpt>
      <trkpt lat="42.61476" lon="1.87137">
        <ele>2291.2</ele>
      </trkpt>
      <trkpt lat="42.61471" lon="1.87133">
        <ele>2290</ele>
      </trkpt>
      <trkpt lat="42.61467" lon="1.87122">
        <ele>2287.6</ele>
      </trkpt>
      <trkpt lat="42.61457" lon="1.87118">
        <ele>2285.6</ele>
      </trkpt>
      <trkpt lat="42.61441" lon="1.87107">
        <ele>2279.2</ele>
      </trkpt>
      <trkpt lat="42.61428" lon="1.87095">
        <ele>2273</ele>
      </trkpt>
      <trkpt lat="42.61413" lon="1.87084">
        <ele>2265.4</ele>
      </trkpt>
      <trkpt lat="42.61391" lon="1.87068">
        <ele>2253.5</ele>
      </trkpt>
      <trkpt lat="42.61373" lon="1.87064">
        <ele>2244.7</ele>
      </trkpt>
      <trkpt lat="42.6137" lon="1.87059">
        <ele>2241.7</ele>
      </trkpt>
      <trkpt lat="42.6137" lon="1.87056">
        <ele>2240.7</ele>
      </trkpt>
      <trkpt lat="42.6138" lon="1.87041">
        <ele>2239.1</ele>
      </trkpt>
      <trkpt lat="42.61381" lon="1.87038">
        <ele>2238.3</ele>
      </trkpt>
      <trkpt lat="42.61373" lon="1.87035">
        <ele>2234.4</ele>
      </trkpt>
      <trkpt lat="42.61363" lon="1.87035">
        <ele>2231</ele>
      </trkpt>
      <trkpt lat="42.61355" lon="1.87038">
        <ele>2229.2</ele>
      </trkpt>
      <trkpt lat="42.6135" lon="1.87042">
        <ele>2228.4</ele>
      </trkpt>
      <trkpt lat="42.61347" lon="1.87046">
        <ele>2228</ele>
      </trkpt>
      <trkpt lat="42.61345" lon="1.87046">
        <ele>2227.2</ele>
      </trkpt>
      <trkpt lat="42.61343" lon="1.8703">
        <ele>2223.8</ele>
      </trkpt>
      <trkpt lat="42.61342" lon="1.87026">
        <ele>2222.7</ele>
      </trkpt>
      <trkpt lat="42.61335" lon="1.87021">
        <ele>2219.7</ele>
      </trkpt>
      <trkpt lat="42.61328" lon="1.87013">
        <ele>2217.1</ele>
      </trkpt>
      <trkpt lat="42.61322" lon="1.87008">
        <ele>2215.8</ele>
      </trkpt>
      <trkpt lat="42.61307" lon="1.86998">
        <ele>2213.3</ele>
      </trkpt>
      <trkpt lat="42.61295" lon="1.86992">
        <ele>2211.3</ele>
      </trkpt>
      <trkpt lat="42.61279" lon="1.86979">
        <ele>2207.9</ele>
      </trkpt>
      <trkpt lat="42.61272" lon="1.86965">
        <ele>2205</ele>
      </trkpt>
      <trkpt lat="42.61267" lon="1.86959">
        <ele>2204.1</ele>
      </trkpt>
      <trkpt lat="42.61256" lon="1.86943">
        <ele>2201.5</ele>
      </trkpt>
      <trkpt lat="42.61242" lon="1.86925">
        <ele>2197.4</ele>
      </trkpt>
      <trkpt lat="42.61234" lon="1.86915">
        <ele>2195.3</ele>
      </trkpt>
      <trkpt lat="42.61192" lon="1.86888">
        <ele>2190.8</ele>
      </trkpt>
      <trkpt lat="42.61175" lon="1.86875">
        <ele>2188.7</ele>
      </trkpt>
      <trkpt lat="42.61163" lon="1.86864">
        <ele>2187.2</ele>
      </trkpt>
      <trkpt lat="42.6114" lon="1.86848">
        <ele>2184.1</ele>
      </trkpt>
      <trkpt lat="42.61103" lon="1.86812">
        <ele>2178.7</ele>
      </trkpt>
      <trkpt lat="42.61086" lon="1.86798">
        <ele>2176.3</ele>
      </trkpt>
      <trkpt lat="42.61069" lon="1.86787">
        <ele>2174</ele>
      </trkpt>
      <trkpt lat="42.61053" lon="1.8677">
        <ele>2172.5</ele>
      </trkpt>
      <trkpt lat="42.61021" lon="1.86754">
        <ele>2167.9</ele>
      </trkpt>
      <trkpt lat="42.61012" lon="1.86751">
        <ele>2167</ele>
      </trkpt>
      <trkpt lat="42.60993" lon="1.86752">
        <ele>2165.4</ele>
      </trkpt>
      <trkpt lat="42.60982" lon="1.86751">
        <ele>2164.1</ele>
      </trkpt>
      <trkpt lat="42.60947" lon="1.86736">
        <ele>2156.2</ele>
      </trkpt>
      <trkpt lat="42.60899" lon="1.8672">
        <ele>2146.5</ele>
      </trkpt>
      <trkpt lat="42.6089" lon="1.86714">
        <ele>2143.5</ele>
      </trkpt>
      <trkpt lat="42.60871" lon="1.86703">
        <ele>2136.4</ele>
      </trkpt>
      <trkpt lat="42.60851" lon="1.86699">
        <ele>2131.3</ele>
      </trkpt>
      <trkpt lat="42.60835" lon="1.8669">
        <ele>2126.1</ele>
      </trkpt>
      <trkpt lat="42.60818" lon="1.86678">
        <ele>2120.1</ele>
      </trkpt>
      <trkpt lat="42.60799" lon="1.8666">
        <ele>2112.5</ele>
      </trkpt>
      <trkpt lat="42.60787" lon="1.86656">
        <ele>2108.7</ele>
      </trkpt>
      <trkpt lat="42.60777" lon="1.86656">
        <ele>2105.8</ele>
      </trkpt>
      <trkpt lat="42.60769" lon="1.86653">
        <ele>2102.7</ele>
      </trkpt>
      <trkpt lat="42.6076" lon="1.86651">
        <ele>2099.4</ele>
      </trkpt>
      <trkpt lat="42.6075" lon="1.8665">
        <ele>2096</ele>
      </trkpt>
      <trkpt lat="42.60741" lon="1.86647">
        <ele>2092.9</ele>
      </trkpt>
      <trkpt lat="42.60732" lon="1.86641">
        <ele>2090.2</ele>
      </trkpt>
      <trkpt lat="42.60729" lon="1.86646">
        <ele>2089.6</ele>
      </trkpt>
      <trkpt lat="42.60721" lon="1.86652">
        <ele>2087.4</ele>
      </trkpt>
      <trkpt lat="42.60711" lon="1.86655">
        <ele>2086</ele>
      </trkpt>
      <trkpt lat="42.60697" lon="1.86669">
        <ele>2083.2</ele>
      </trkpt>
      <trkpt lat="42.6069" lon="1.86681">
        <ele>2080.8</ele>
      </trkpt>
      <trkpt lat="42.60687" lon="1.8669">
        <ele>2079.6</ele>
      </trkpt>
      <trkpt lat="42.60686" lon="1.86698">
        <ele>2079.1</ele>
      </trkpt>
      <trkpt lat="42.60683" lon="1.86705">
        <ele>2078.2</ele>
      </trkpt>
      <trkpt lat="42.6068" lon="1.86709">
        <ele>2077.3</ele>
      </trkpt>
      <trkpt lat="42.60672" lon="1.86717">
        <ele>2074.8</ele>
      </trkpt>
      <trkpt lat="42.60665" lon="1.86736">
        <ele>2072.8</ele>
      </trkpt>
      <trkpt lat="42.60658" lon="1.86759">
        <ele>2072.8</ele>
      </trkpt>
      <trkpt lat="42.60651" lon="1.86781">
        <ele>2073.2</ele>
      </trkpt>
      <trkpt lat="42.60648" lon="1.86796">
        <ele>2074.3</ele>
      </trkpt>
      <trkpt lat="42.60648" lon="1.86807">
        <ele>2075.2</ele>
      </trkpt>
      <trkpt lat="42.60648" lon="1.86823">
        <ele>2077.5</ele>
      </trkpt>
      <trkpt lat="42.6065" lon="1.8683">
        <ele>2078.3</ele>
      </trkpt>
      <trkpt lat="42.6065" lon="1.86835">
        <ele>2079.2</ele>
      </trkpt>
      <trkpt lat="42.60647" lon="1.86843">
        <ele>2081.2</ele>
      </trkpt>
      <trkpt lat="42.60647" lon="1.8685">
        <ele>2082.7</ele>
      </trkpt>
      <trkpt lat="42.60646" lon="1.86854">
        <ele>2083.7</ele>
      </trkpt>
      <trkpt lat="42.60643" lon="1.86858">
        <ele>2084.9</ele>
      </trkpt>
      <trkpt lat="42.6064" lon="1.86864">
        <ele>2086.3</ele>
      </trkpt>
      <trkpt lat="42.60636" lon="1.86867">
        <ele>2087.2</ele>
      </trkpt>
      <trkpt lat="42.60633" lon="1.8687">
        <ele>2088</ele>
      </trkpt>
      <trkpt lat="42.60632" lon="1.86876">
        <ele>2089</ele>
      </trkpt>
      <trkpt lat="42.60631" lon="1.8688">
        <ele>2089.8</ele>
      </trkpt>
      <trkpt lat="42.60626" lon="1.86883">
        <ele>2090.9</ele>
      </trkpt>
      <trkpt lat="42.6062" lon="1.86883">
        <ele>2091.7</ele>
      </trkpt>
      <trkpt lat="42.60615" lon="1.86883">
        <ele>2092.4</ele>
      </trkpt>
      <trkpt lat="42.6061" lon="1.86882">
        <ele>2093</ele>
      </trkpt>
      <trkpt lat="42.60608" lon="1.8689">
        <ele>2095.1</ele>
      </trkpt>
      <trkpt lat="42.60604" lon="1.86894">
        <ele>2097.1</ele>
      </trkpt>
      <trkpt lat="42.60599" lon="1.86894">
        <ele>2098.3</ele>
      </trkpt>
      <trkpt lat="42.6059" lon="1.86892">
        <ele>2100</ele>
      </trkpt>
      <trkpt lat="42.60585" lon="1.86895">
        <ele>2101.7</ele>
      </trkpt>
      <trkpt lat="42.60584" lon="1.86905">
        <ele>2103.8</ele>
      </trkpt>
      <trkpt lat="42.60581" lon="1.8691">
        <ele>2104.7</ele>
      </trkpt>
      <trkpt lat="42.60578" lon="1.86916">
        <ele>2105.5</ele>
      </trkpt>
      <trkpt lat="42.60575" lon="1.86918">
        <ele>2105.7</ele>
      </trkpt>
      <trkpt lat="42.60569" lon="1.86919">
        <ele>2105.6</ele>
      </trkpt>
      <trkpt lat="42.60566" lon="1.86917">
        <ele>2104.8</ele>
      </trkpt>
      <trkpt lat="42.60558" lon="1.86918">
        <ele>2104.6</ele>
      </trkpt>
      <trkpt lat="42.60548" lon="1.86918">
        <ele>2105.5</ele>
      </trkpt>
      <trkpt lat="42.60538" lon="1.86916">
        <ele>2106.5</ele>
      </trkpt>
      <trkpt lat="42.60528" lon="1.86914">
        <ele>2107.7</ele>
      </trkpt>
      <trkpt lat="42.60523" lon="1.8691">
        <ele>2107.6</ele>
      </trkpt>
      <trkpt lat="42.60517" lon="1.86908">
        <ele>2107.6</ele>
      </trkpt>
      <trkpt lat="42.60511" lon="1.86907">
        <ele>2107.7</ele>
      </trkpt>
      <trkpt lat="42.60503" lon="1.869">
        <ele>2106.2</ele>
      </trkpt>
      <trkpt lat="42.60494" lon="1.86895">
        <ele>2103.8</ele>
      </trkpt>
      <trkpt lat="42.60489" lon="1.86887">
        <ele>2100.8</ele>
      </trkpt>
      <trkpt lat="42.60483" lon="1.86887">
        <ele>2099.7</ele>
      </trkpt>
      <trkpt lat="42.60472" lon="1.86889">
        <ele>2098.1</ele>
      </trkpt>
      <trkpt lat="42.6046" lon="1.8689">
        <ele>2099.2</ele>
      </trkpt>
      <trkpt lat="42.60452" lon="1.86889">
        <ele>2099.5</ele>
      </trkpt>
      <trkpt lat="42.60442" lon="1.86886">
        <ele>2099.7</ele>
      </trkpt>
      <trkpt lat="42.60436" lon="1.86882">
        <ele>2099.6</ele>
      </trkpt>
      <trkpt lat="42.60432" lon="1.86879">
        <ele>2099.6</ele>
      </trkpt>
      <trkpt lat="42.6043" lon="1.86879">
        <ele>2099.8</ele>
        <extensions>
          <visugpx:TrkExtension xmlns:visugpx="https://www.visugpx.com/editgpx/">
            <visugpx:node>5</visugpx:node>
            </visugpx:TrkExtension>
        </extensions>
      </trkpt>
    </trkseg>
  </trk>
</gpx>